<?xml version="1.0" encoding="UTF-8" standalone="no" ?>
<gpx xmlns="http://www.topografix.com/GPX/1/1" xmlns:xsi="http://www.w3.org/2001/XMLSchema-instance" xsi:schemaLocation="http://www.topografix.com/GPX/1/1 http://www.topografix.com/GPX/1/1/gpx.xsd" version="1.1" creator="VisuGPX - https://www.visugpx.com">
  <metadata>
    <name>La galoche</name>
    <desc><![CDATA[trail de la galoche de Pélussin ... Session VTT Poilade de printemps]]></desc>
  </metadata>
  <trk>
    <name><![CDATA[Le trail de la galoche ]]></name>
    <trkseg>
      <trkpt lat="45.41823" lon="4.6697">
        <ele>502.4</ele>
        <time>2017-03-14T22:07:48Z</time>
      </trkpt>
      <trkpt lat="45.41834" lon="4.66969">
        <ele>503.9</ele>
        <time>2017-03-14T22:08:10Z</time>
      </trkpt>
      <trkpt lat="45.41838" lon="4.66969">
        <ele>498.9</ele>
        <time>2017-03-14T22:08:12Z</time>
      </trkpt>
      <trkpt lat="45.4184" lon="4.66973">
        <ele>498.9</ele>
        <time>2017-03-14T22:08:13Z</time>
      </trkpt>
      <trkpt lat="45.41834" lon="4.66976">
        <ele>498.9</ele>
        <time>2017-03-14T22:08:34Z</time>
      </trkpt>
      <trkpt lat="45.4183" lon="4.66984">
        <ele>498.9</ele>
        <time>2017-03-14T22:08:36Z</time>
      </trkpt>
      <trkpt lat="45.41829" lon="4.66989">
        <ele>498.9</ele>
        <time>2017-03-14T22:08:37Z</time>
      </trkpt>
      <trkpt lat="45.41826" lon="4.66993">
        <ele>498.9</ele>
        <time>2017-03-14T22:08:38Z</time>
      </trkpt>
      <trkpt lat="45.41825" lon="4.66999">
        <ele>498.9</ele>
        <time>2017-03-14T22:08:39Z</time>
      </trkpt>
      <trkpt lat="45.41824" lon="4.67006">
        <ele>499</ele>
        <time>2017-03-14T22:08:40Z</time>
      </trkpt>
      <trkpt lat="45.41823" lon="4.6701">
        <ele>499</ele>
        <time>2017-03-14T22:08:41Z</time>
      </trkpt>
      <trkpt lat="45.41825" lon="4.67017">
        <ele>499.4</ele>
        <time>2017-03-14T22:08:43Z</time>
      </trkpt>
      <trkpt lat="45.41829" lon="4.67024">
        <ele>499.8</ele>
        <time>2017-03-14T22:08:45Z</time>
      </trkpt>
      <trkpt lat="45.41831" lon="4.67029">
        <ele>500</ele>
        <time>2017-03-14T22:08:46Z</time>
      </trkpt>
      <trkpt lat="45.41832" lon="4.67033">
        <ele>500.3</ele>
        <time>2017-03-14T22:08:47Z</time>
      </trkpt>
      <trkpt lat="45.41832" lon="4.67039">
        <ele>500.5</ele>
        <time>2017-03-14T22:08:48Z</time>
      </trkpt>
      <trkpt lat="45.41833" lon="4.67044">
        <ele>500.8</ele>
        <time>2017-03-14T22:08:49Z</time>
      </trkpt>
      <trkpt lat="45.41835" lon="4.67052">
        <ele>501.1</ele>
        <time>2017-03-14T22:08:51Z</time>
      </trkpt>
      <trkpt lat="45.41835" lon="4.67056">
        <ele>501.2</ele>
        <time>2017-03-14T22:08:52Z</time>
      </trkpt>
      <trkpt lat="45.41837" lon="4.67059">
        <ele>501.3</ele>
        <time>2017-03-14T22:08:53Z</time>
      </trkpt>
      <trkpt lat="45.41838" lon="4.67065">
        <ele>501.4</ele>
        <time>2017-03-14T22:08:54Z</time>
      </trkpt>
      <trkpt lat="45.41841" lon="4.67069">
        <ele>501.5</ele>
        <time>2017-03-14T22:08:55Z</time>
      </trkpt>
      <trkpt lat="45.41846" lon="4.67071">
        <ele>501.7</ele>
        <time>2017-03-14T22:08:56Z</time>
      </trkpt>
      <trkpt lat="45.41848" lon="4.67075">
        <ele>501.8</ele>
        <time>2017-03-14T22:08:57Z</time>
      </trkpt>
      <trkpt lat="45.4185" lon="4.67079">
        <ele>501.9</ele>
        <time>2017-03-14T22:08:58Z</time>
      </trkpt>
      <trkpt lat="45.41854" lon="4.67082">
        <ele>502</ele>
        <time>2017-03-14T22:08:59Z</time>
      </trkpt>
      <trkpt lat="45.41858" lon="4.67084">
        <ele>502.2</ele>
        <time>2017-03-14T22:09:00Z</time>
      </trkpt>
      <trkpt lat="45.41864" lon="4.67079">
        <ele>502.4</ele>
        <time>2017-03-14T22:09:01Z</time>
      </trkpt>
      <trkpt lat="45.41865" lon="4.67083">
        <ele>502.9</ele>
        <time>2017-03-14T22:09:02Z</time>
      </trkpt>
      <trkpt lat="45.41869" lon="4.67087">
        <ele>503.6</ele>
        <time>2017-03-14T22:09:04Z</time>
      </trkpt>
      <trkpt lat="45.41871" lon="4.67088">
        <ele>503.9</ele>
        <time>2017-03-14T22:09:05Z</time>
      </trkpt>
      <trkpt lat="45.41872" lon="4.67093">
        <ele>504.7</ele>
        <time>2017-03-14T22:09:07Z</time>
      </trkpt>
      <trkpt lat="45.41873" lon="4.671">
        <ele>505</ele>
        <time>2017-03-14T22:09:08Z</time>
      </trkpt>
      <trkpt lat="45.41871" lon="4.67112">
        <ele>505</ele>
        <time>2017-03-14T22:09:09Z</time>
      </trkpt>
      <trkpt lat="45.41871" lon="4.67118">
        <ele>505</ele>
        <time>2017-03-14T22:09:11Z</time>
      </trkpt>
      <trkpt lat="45.41865" lon="4.67126">
        <ele>505</ele>
        <time>2017-03-14T22:09:12Z</time>
      </trkpt>
      <trkpt lat="45.41865" lon="4.67131">
        <ele>505</ele>
        <time>2017-03-14T22:09:13Z</time>
      </trkpt>
      <trkpt lat="45.41857" lon="4.67135">
        <ele>505</ele>
        <time>2017-03-14T22:09:14Z</time>
      </trkpt>
      <trkpt lat="45.41849" lon="4.67138">
        <ele>503.9</ele>
        <time>2017-03-14T22:09:15Z</time>
      </trkpt>
      <trkpt lat="45.41845" lon="4.67143">
        <ele>503.3</ele>
        <time>2017-03-14T22:09:18Z</time>
      </trkpt>
      <trkpt lat="45.41843" lon="4.67145">
        <ele>503</ele>
        <time>2017-03-14T22:09:19Z</time>
      </trkpt>
      <trkpt lat="45.41841" lon="4.67141">
        <ele>502.7</ele>
        <time>2017-03-14T22:09:23Z</time>
      </trkpt>
      <trkpt lat="45.41841" lon="4.67136">
        <ele>498</ele>
        <time>2017-03-14T22:09:24Z</time>
      </trkpt>
      <trkpt lat="45.41833" lon="4.67146">
        <ele>501.5</ele>
        <time>2017-03-14T22:09:26Z</time>
      </trkpt>
      <trkpt lat="45.41835" lon="4.67149">
        <ele>502</ele>
        <time>2017-03-14T22:09:30Z</time>
      </trkpt>
      <trkpt lat="45.41838" lon="4.67153">
        <ele>502.6</ele>
        <time>2017-03-14T22:09:32Z</time>
      </trkpt>
      <trkpt lat="45.41841" lon="4.67159">
        <ele>503.3</ele>
        <time>2017-03-14T22:09:34Z</time>
      </trkpt>
      <trkpt lat="45.41847" lon="4.67153">
        <ele>504.4</ele>
        <time>2017-03-14T22:09:36Z</time>
      </trkpt>
      <trkpt lat="45.41852" lon="4.67157">
        <ele>505</ele>
        <time>2017-03-14T22:09:37Z</time>
      </trkpt>
      <trkpt lat="45.41858" lon="4.67158">
        <ele>504.8</ele>
        <time>2017-03-14T22:09:38Z</time>
      </trkpt>
      <trkpt lat="45.41864" lon="4.67159">
        <ele>504.6</ele>
        <time>2017-03-14T22:09:39Z</time>
      </trkpt>
      <trkpt lat="45.41865" lon="4.67163">
        <ele>497.5</ele>
        <time>2017-03-14T22:09:40Z</time>
      </trkpt>
      <trkpt lat="45.41867" lon="4.67169">
        <ele>498.5</ele>
        <time>2017-03-14T22:09:42Z</time>
      </trkpt>
      <trkpt lat="45.41869" lon="4.67173">
        <ele>499.1</ele>
        <time>2017-03-14T22:09:43Z</time>
      </trkpt>
      <trkpt lat="45.41876" lon="4.67174">
        <ele>500.5</ele>
        <time>2017-03-14T22:09:45Z</time>
      </trkpt>
      <trkpt lat="45.41881" lon="4.67176">
        <ele>501.4</ele>
        <time>2017-03-14T22:09:47Z</time>
      </trkpt>
      <trkpt lat="45.41885" lon="4.67176">
        <ele>502.2</ele>
        <time>2017-03-14T22:09:48Z</time>
      </trkpt>
      <trkpt lat="45.41888" lon="4.67179">
        <ele>502.7</ele>
        <time>2017-03-14T22:09:49Z</time>
      </trkpt>
      <trkpt lat="45.41891" lon="4.67177">
        <ele>503</ele>
        <time>2017-03-14T22:09:50Z</time>
      </trkpt>
      <trkpt lat="45.41895" lon="4.6718">
        <ele>503.4</ele>
        <time>2017-03-14T22:09:52Z</time>
      </trkpt>
      <trkpt lat="45.419" lon="4.67177">
        <ele>503.8</ele>
        <time>2017-03-14T22:09:53Z</time>
      </trkpt>
      <trkpt lat="45.41905" lon="4.67171">
        <ele>504.3</ele>
        <time>2017-03-14T22:09:55Z</time>
      </trkpt>
      <trkpt lat="45.41913" lon="4.67155">
        <ele>505</ele>
        <time>2017-03-14T22:09:56Z</time>
      </trkpt>
      <trkpt lat="45.41913" lon="4.6715">
        <ele>505</ele>
        <time>2017-03-14T22:09:59Z</time>
      </trkpt>
      <trkpt lat="45.41908" lon="4.67151">
        <ele>505</ele>
        <time>2017-03-14T22:10:01Z</time>
      </trkpt>
      <trkpt lat="45.41905" lon="4.6715">
        <ele>505</ele>
        <time>2017-03-14T22:10:02Z</time>
      </trkpt>
      <trkpt lat="45.419" lon="4.67156">
        <ele>505</ele>
        <time>2017-03-14T22:10:04Z</time>
      </trkpt>
      <trkpt lat="45.41895" lon="4.67155">
        <ele>505</ele>
        <time>2017-03-14T22:10:07Z</time>
      </trkpt>
      <trkpt lat="45.41893" lon="4.6715">
        <ele>505</ele>
        <time>2017-03-14T22:10:08Z</time>
      </trkpt>
      <trkpt lat="45.4189" lon="4.67148">
        <ele>505</ele>
        <time>2017-03-14T22:10:09Z</time>
      </trkpt>
      <trkpt lat="45.41886" lon="4.67145">
        <ele>505</ele>
        <time>2017-03-14T22:10:10Z</time>
      </trkpt>
      <trkpt lat="45.41884" lon="4.67147">
        <ele>505</ele>
        <time>2017-03-14T22:10:13Z</time>
      </trkpt>
      <trkpt lat="45.41883" lon="4.67142">
        <ele>505</ele>
        <time>2017-03-14T22:10:14Z</time>
      </trkpt>
      <trkpt lat="45.41881" lon="4.67138">
        <ele>505</ele>
        <time>2017-03-14T22:10:16Z</time>
      </trkpt>
      <trkpt lat="45.41879" lon="4.67137">
        <ele>505</ele>
        <time>2017-03-14T22:10:18Z</time>
      </trkpt>
      <trkpt lat="45.41874" lon="4.6714">
        <ele>505</ele>
        <time>2017-03-14T22:10:20Z</time>
      </trkpt>
      <trkpt lat="45.4187" lon="4.67141">
        <ele>505</ele>
        <time>2017-03-14T22:10:21Z</time>
      </trkpt>
      <trkpt lat="45.41866" lon="4.67143">
        <ele>505</ele>
        <time>2017-03-14T22:10:22Z</time>
      </trkpt>
      <trkpt lat="45.41866" lon="4.67138">
        <ele>505</ele>
        <time>2017-03-14T22:10:25Z</time>
      </trkpt>
      <trkpt lat="45.41867" lon="4.67132">
        <ele>505</ele>
        <time>2017-03-14T22:10:27Z</time>
      </trkpt>
      <trkpt lat="45.41866" lon="4.67127">
        <ele>505</ele>
        <time>2017-03-14T22:10:29Z</time>
      </trkpt>
      <trkpt lat="45.41867" lon="4.67122">
        <ele>505</ele>
        <time>2017-03-14T22:10:31Z</time>
      </trkpt>
      <trkpt lat="45.41869" lon="4.67116">
        <ele>505</ele>
        <time>2017-03-14T22:10:34Z</time>
      </trkpt>
      <trkpt lat="45.41871" lon="4.67111">
        <ele>505</ele>
        <time>2017-03-14T22:10:35Z</time>
      </trkpt>
      <trkpt lat="45.4187" lon="4.67106">
        <ele>505</ele>
        <time>2017-03-14T22:10:40Z</time>
      </trkpt>
      <trkpt lat="45.41868" lon="4.67102">
        <ele>505</ele>
        <time>2017-03-14T22:10:41Z</time>
      </trkpt>
      <trkpt lat="45.41867" lon="4.67097">
        <ele>504.1</ele>
        <time>2017-03-14T22:10:42Z</time>
      </trkpt>
      <trkpt lat="45.41864" lon="4.67092">
        <ele>503.5</ele>
        <time>2017-03-14T22:10:43Z</time>
      </trkpt>
      <trkpt lat="45.41863" lon="4.67088">
        <ele>503.1</ele>
        <time>2017-03-14T22:10:44Z</time>
      </trkpt>
      <trkpt lat="45.41857" lon="4.67083">
        <ele>502.3</ele>
        <time>2017-03-14T22:10:46Z</time>
      </trkpt>
      <trkpt lat="45.41856" lon="4.67078">
        <ele>502.2</ele>
        <time>2017-03-14T22:10:47Z</time>
      </trkpt>
      <trkpt lat="45.41854" lon="4.67074">
        <ele>502.1</ele>
        <time>2017-03-14T22:10:48Z</time>
      </trkpt>
      <trkpt lat="45.41852" lon="4.67071">
        <ele>502</ele>
        <time>2017-03-14T22:10:49Z</time>
      </trkpt>
      <trkpt lat="45.41849" lon="4.67067">
        <ele>501.9</ele>
        <time>2017-03-14T22:10:52Z</time>
      </trkpt>
      <trkpt lat="45.41843" lon="4.67063">
        <ele>501.7</ele>
        <time>2017-03-14T22:10:54Z</time>
      </trkpt>
      <trkpt lat="45.41838" lon="4.6706">
        <ele>501.6</ele>
        <time>2017-03-14T22:10:55Z</time>
      </trkpt>
      <trkpt lat="45.41832" lon="4.67058">
        <ele>501.4</ele>
        <time>2017-03-14T22:10:57Z</time>
      </trkpt>
      <trkpt lat="45.41831" lon="4.67052">
        <ele>501.3</ele>
        <time>2017-03-14T22:10:58Z</time>
      </trkpt>
      <trkpt lat="45.41831" lon="4.67044">
        <ele>501.1</ele>
        <time>2017-03-14T22:10:59Z</time>
      </trkpt>
      <trkpt lat="45.4183" lon="4.67041">
        <ele>501.1</ele>
        <time>2017-03-14T22:11:01Z</time>
      </trkpt>
      <trkpt lat="45.41823" lon="4.67033">
        <ele>500.5</ele>
        <time>2017-03-14T22:11:03Z</time>
      </trkpt>
      <trkpt lat="45.41819" lon="4.67038">
        <ele>500.2</ele>
        <time>2017-03-14T22:11:04Z</time>
      </trkpt>
      <trkpt lat="45.4182" lon="4.67034">
        <ele>500.1</ele>
        <time>2017-03-14T22:11:05Z</time>
      </trkpt>
      <trkpt lat="45.41821" lon="4.67029">
        <ele>499.8</ele>
        <time>2017-03-14T22:11:06Z</time>
      </trkpt>
      <trkpt lat="45.41817" lon="4.67024">
        <ele>499.5</ele>
        <time>2017-03-14T22:11:07Z</time>
      </trkpt>
      <trkpt lat="45.41817" lon="4.6702">
        <ele>499.4</ele>
        <time>2017-03-14T22:11:08Z</time>
      </trkpt>
      <trkpt lat="45.41819" lon="4.67012">
        <ele>499</ele>
        <time>2017-03-14T22:11:09Z</time>
      </trkpt>
      <trkpt lat="45.41819" lon="4.67006">
        <ele>499</ele>
        <time>2017-03-14T22:11:11Z</time>
      </trkpt>
      <trkpt lat="45.4182" lon="4.67001">
        <ele>499</ele>
        <time>2017-03-14T22:11:12Z</time>
      </trkpt>
      <trkpt lat="45.41824" lon="4.66998">
        <ele>498.9</ele>
        <time>2017-03-14T22:11:13Z</time>
      </trkpt>
      <trkpt lat="45.41825" lon="4.66991">
        <ele>498.9</ele>
        <time>2017-03-14T22:11:14Z</time>
      </trkpt>
      <trkpt lat="45.41827" lon="4.66986">
        <ele>498.9</ele>
        <time>2017-03-14T22:11:15Z</time>
      </trkpt>
      <trkpt lat="45.41827" lon="4.66981">
        <ele>498.9</ele>
        <time>2017-03-14T22:11:16Z</time>
      </trkpt>
      <trkpt lat="45.41827" lon="4.66976">
        <ele>498.9</ele>
        <time>2017-03-14T22:11:17Z</time>
      </trkpt>
      <trkpt lat="45.41827" lon="4.66969">
        <ele>498.9</ele>
        <time>2017-03-14T22:11:18Z</time>
      </trkpt>
      <trkpt lat="45.41828" lon="4.66964">
        <ele>498.9</ele>
        <time>2017-03-14T22:11:19Z</time>
      </trkpt>
      <trkpt lat="45.41828" lon="4.66959">
        <ele>499</ele>
        <time>2017-03-14T22:11:20Z</time>
      </trkpt>
      <trkpt lat="45.41829" lon="4.66955">
        <ele>499</ele>
        <time>2017-03-14T22:11:21Z</time>
      </trkpt>
      <trkpt lat="45.4183" lon="4.6695">
        <ele>499</ele>
        <time>2017-03-14T22:11:22Z</time>
      </trkpt>
      <trkpt lat="45.41831" lon="4.66943">
        <ele>499.4</ele>
        <time>2017-03-14T22:11:23Z</time>
      </trkpt>
      <trkpt lat="45.41833" lon="4.66938">
        <ele>499.7</ele>
        <time>2017-03-14T22:11:24Z</time>
      </trkpt>
      <trkpt lat="45.41835" lon="4.66934">
        <ele>499.9</ele>
        <time>2017-03-14T22:11:25Z</time>
      </trkpt>
      <trkpt lat="45.41836" lon="4.66929">
        <ele>500.1</ele>
        <time>2017-03-14T22:11:26Z</time>
      </trkpt>
      <trkpt lat="45.41839" lon="4.66925">
        <ele>500.3</ele>
        <time>2017-03-14T22:11:27Z</time>
      </trkpt>
      <trkpt lat="45.41841" lon="4.66919">
        <ele>500.6</ele>
        <time>2017-03-14T22:11:29Z</time>
      </trkpt>
      <trkpt lat="45.41842" lon="4.66913">
        <ele>500.8</ele>
        <time>2017-03-14T22:11:30Z</time>
      </trkpt>
      <trkpt lat="45.41844" lon="4.66909">
        <ele>500.9</ele>
        <time>2017-03-14T22:11:31Z</time>
      </trkpt>
      <trkpt lat="45.41847" lon="4.66905">
        <ele>501.2</ele>
        <time>2017-03-14T22:11:32Z</time>
      </trkpt>
      <trkpt lat="45.41846" lon="4.66901">
        <ele>501.3</ele>
        <time>2017-03-14T22:11:33Z</time>
      </trkpt>
      <trkpt lat="45.41849" lon="4.66897">
        <ele>501.5</ele>
        <time>2017-03-14T22:11:34Z</time>
      </trkpt>
      <trkpt lat="45.41851" lon="4.66892">
        <ele>501.7</ele>
        <time>2017-03-14T22:11:35Z</time>
      </trkpt>
      <trkpt lat="45.41854" lon="4.66885">
        <ele>502</ele>
        <time>2017-03-14T22:11:36Z</time>
      </trkpt>
      <trkpt lat="45.41856" lon="4.6688">
        <ele>502.2</ele>
        <time>2017-03-14T22:11:37Z</time>
      </trkpt>
      <trkpt lat="45.41854" lon="4.66877">
        <ele>502.3</ele>
        <time>2017-03-14T22:11:38Z</time>
      </trkpt>
      <trkpt lat="45.41853" lon="4.66873">
        <ele>502.5</ele>
        <time>2017-03-14T22:11:39Z</time>
      </trkpt>
      <trkpt lat="45.41856" lon="4.66866">
        <ele>502.8</ele>
        <time>2017-03-14T22:11:42Z</time>
      </trkpt>
      <trkpt lat="45.41856" lon="4.66857">
        <ele>503.2</ele>
        <time>2017-03-14T22:11:44Z</time>
      </trkpt>
      <trkpt lat="45.41857" lon="4.66851">
        <ele>503.4</ele>
        <time>2017-03-14T22:11:45Z</time>
      </trkpt>
      <trkpt lat="45.41859" lon="4.66846">
        <ele>503.6</ele>
        <time>2017-03-14T22:11:46Z</time>
      </trkpt>
      <trkpt lat="45.4186" lon="4.66842">
        <ele>503.8</ele>
        <time>2017-03-14T22:11:47Z</time>
      </trkpt>
      <trkpt lat="45.41859" lon="4.66835">
        <ele>504.1</ele>
        <time>2017-03-14T22:11:49Z</time>
      </trkpt>
      <trkpt lat="45.4186" lon="4.66831">
        <ele>504.2</ele>
        <time>2017-03-14T22:11:50Z</time>
      </trkpt>
      <trkpt lat="45.41862" lon="4.66828">
        <ele>504.5</ele>
        <time>2017-03-14T22:11:51Z</time>
      </trkpt>
      <trkpt lat="45.41862" lon="4.66823">
        <ele>504.7</ele>
        <time>2017-03-14T22:11:52Z</time>
      </trkpt>
      <trkpt lat="45.41862" lon="4.66819">
        <ele>504.9</ele>
        <time>2017-03-14T22:11:53Z</time>
      </trkpt>
      <trkpt lat="45.41863" lon="4.66813">
        <ele>505.2</ele>
        <time>2017-03-14T22:11:54Z</time>
      </trkpt>
      <trkpt lat="45.41865" lon="4.66809">
        <ele>505.5</ele>
        <time>2017-03-14T22:11:56Z</time>
      </trkpt>
      <trkpt lat="45.41868" lon="4.66804">
        <ele>505.7</ele>
        <time>2017-03-14T22:11:58Z</time>
      </trkpt>
      <trkpt lat="45.41873" lon="4.66797">
        <ele>506.1</ele>
        <time>2017-03-14T22:11:59Z</time>
      </trkpt>
      <trkpt lat="45.41876" lon="4.66786">
        <ele>506.5</ele>
        <time>2017-03-14T22:12:01Z</time>
      </trkpt>
      <trkpt lat="45.41876" lon="4.6678">
        <ele>506.7</ele>
        <time>2017-03-14T22:12:03Z</time>
      </trkpt>
      <trkpt lat="45.41878" lon="4.6677">
        <ele>507.1</ele>
        <time>2017-03-14T22:12:05Z</time>
      </trkpt>
      <trkpt lat="45.41879" lon="4.66764">
        <ele>507.3</ele>
        <time>2017-03-14T22:12:07Z</time>
      </trkpt>
      <trkpt lat="45.41882" lon="4.66759">
        <ele>507.6</ele>
        <time>2017-03-14T22:12:08Z</time>
      </trkpt>
      <trkpt lat="45.41884" lon="4.66754">
        <ele>507.8</ele>
        <time>2017-03-14T22:12:09Z</time>
      </trkpt>
      <trkpt lat="45.41886" lon="4.6675">
        <ele>508.1</ele>
        <time>2017-03-14T22:12:10Z</time>
      </trkpt>
      <trkpt lat="45.41888" lon="4.66744">
        <ele>508.5</ele>
        <time>2017-03-14T22:12:12Z</time>
      </trkpt>
      <trkpt lat="45.41891" lon="4.66741">
        <ele>508.8</ele>
        <time>2017-03-14T22:12:13Z</time>
      </trkpt>
      <trkpt lat="45.41894" lon="4.66736">
        <ele>508.9</ele>
        <time>2017-03-14T22:12:14Z</time>
      </trkpt>
      <trkpt lat="45.41896" lon="4.66729">
        <ele>509.1</ele>
        <time>2017-03-14T22:12:17Z</time>
      </trkpt>
      <trkpt lat="45.41899" lon="4.66724">
        <ele>509.2</ele>
        <time>2017-03-14T22:12:18Z</time>
      </trkpt>
      <trkpt lat="45.41901" lon="4.66719">
        <ele>509.3</ele>
        <time>2017-03-14T22:12:19Z</time>
      </trkpt>
      <trkpt lat="45.41904" lon="4.66714">
        <ele>509.5</ele>
        <time>2017-03-14T22:12:21Z</time>
      </trkpt>
      <trkpt lat="45.41906" lon="4.66712">
        <ele>509.6</ele>
        <time>2017-03-14T22:12:22Z</time>
      </trkpt>
      <trkpt lat="45.4191" lon="4.66704">
        <ele>509.8</ele>
        <time>2017-03-14T22:12:24Z</time>
      </trkpt>
      <trkpt lat="45.41912" lon="4.667">
        <ele>509.9</ele>
        <time>2017-03-14T22:12:25Z</time>
      </trkpt>
      <trkpt lat="45.41914" lon="4.66694">
        <ele>510</ele>
        <time>2017-03-14T22:12:26Z</time>
      </trkpt>
      <trkpt lat="45.41915" lon="4.6669">
        <ele>510.1</ele>
        <time>2017-03-14T22:12:27Z</time>
      </trkpt>
      <trkpt lat="45.41917" lon="4.66686">
        <ele>510.2</ele>
        <time>2017-03-14T22:12:28Z</time>
      </trkpt>
      <trkpt lat="45.41918" lon="4.66682">
        <ele>510.3</ele>
        <time>2017-03-14T22:12:29Z</time>
      </trkpt>
      <trkpt lat="45.4192" lon="4.66676">
        <ele>510.5</ele>
        <time>2017-03-14T22:12:31Z</time>
      </trkpt>
      <trkpt lat="45.41921" lon="4.6667">
        <ele>510.6</ele>
        <time>2017-03-14T22:12:32Z</time>
      </trkpt>
      <trkpt lat="45.41924" lon="4.66665">
        <ele>510.7</ele>
        <time>2017-03-14T22:12:33Z</time>
      </trkpt>
      <trkpt lat="45.41925" lon="4.66661">
        <ele>510.8</ele>
        <time>2017-03-14T22:12:34Z</time>
      </trkpt>
      <trkpt lat="45.41928" lon="4.66655">
        <ele>510.9</ele>
        <time>2017-03-14T22:12:36Z</time>
      </trkpt>
      <trkpt lat="45.41931" lon="4.66652">
        <ele>511</ele>
        <time>2017-03-14T22:12:37Z</time>
      </trkpt>
      <trkpt lat="45.41932" lon="4.66644">
        <ele>511.2</ele>
        <time>2017-03-14T22:12:39Z</time>
      </trkpt>
      <trkpt lat="45.41934" lon="4.6664">
        <ele>511.3</ele>
        <time>2017-03-14T22:12:40Z</time>
      </trkpt>
      <trkpt lat="45.41934" lon="4.66635">
        <ele>511.4</ele>
        <time>2017-03-14T22:12:41Z</time>
      </trkpt>
      <trkpt lat="45.41935" lon="4.66629">
        <ele>511.5</ele>
        <time>2017-03-14T22:12:43Z</time>
      </trkpt>
      <trkpt lat="45.41935" lon="4.66625">
        <ele>511.6</ele>
        <time>2017-03-14T22:12:44Z</time>
      </trkpt>
      <trkpt lat="45.41938" lon="4.6662">
        <ele>511.7</ele>
        <time>2017-03-14T22:12:45Z</time>
      </trkpt>
      <trkpt lat="45.4194" lon="4.66615">
        <ele>511.8</ele>
        <time>2017-03-14T22:12:46Z</time>
      </trkpt>
      <trkpt lat="45.41942" lon="4.66612">
        <ele>511.9</ele>
        <time>2017-03-14T22:12:47Z</time>
      </trkpt>
      <trkpt lat="45.41945" lon="4.66605">
        <ele>512</ele>
        <time>2017-03-14T22:12:48Z</time>
      </trkpt>
      <trkpt lat="45.41948" lon="4.66602">
        <ele>512.2</ele>
        <time>2017-03-14T22:12:49Z</time>
      </trkpt>
      <trkpt lat="45.4195" lon="4.66599">
        <ele>512.3</ele>
        <time>2017-03-14T22:12:50Z</time>
      </trkpt>
      <trkpt lat="45.41953" lon="4.66591">
        <ele>512.5</ele>
        <time>2017-03-14T22:12:52Z</time>
      </trkpt>
      <trkpt lat="45.41955" lon="4.66587">
        <ele>512.6</ele>
        <time>2017-03-14T22:12:53Z</time>
      </trkpt>
      <trkpt lat="45.41958" lon="4.66583">
        <ele>512.7</ele>
        <time>2017-03-14T22:12:54Z</time>
      </trkpt>
      <trkpt lat="45.41962" lon="4.66578">
        <ele>512.9</ele>
        <time>2017-03-14T22:12:56Z</time>
      </trkpt>
      <trkpt lat="45.41961" lon="4.66573">
        <ele>513</ele>
        <time>2017-03-14T22:12:57Z</time>
      </trkpt>
      <trkpt lat="45.41963" lon="4.66566">
        <ele>513.1</ele>
        <time>2017-03-14T22:12:58Z</time>
      </trkpt>
      <trkpt lat="45.41966" lon="4.66559">
        <ele>513.3</ele>
        <time>2017-03-14T22:12:59Z</time>
      </trkpt>
      <trkpt lat="45.41967" lon="4.66554">
        <ele>513.3</ele>
        <time>2017-03-14T22:13:00Z</time>
      </trkpt>
      <trkpt lat="45.41965" lon="4.66549">
        <ele>513.4</ele>
        <time>2017-03-14T22:13:01Z</time>
      </trkpt>
      <trkpt lat="45.41966" lon="4.66545">
        <ele>513.5</ele>
        <time>2017-03-14T22:13:02Z</time>
      </trkpt>
      <trkpt lat="45.41972" lon="4.66542">
        <ele>513.6</ele>
        <time>2017-03-14T22:13:03Z</time>
      </trkpt>
      <trkpt lat="45.4197" lon="4.66532">
        <ele>513.8</ele>
        <time>2017-03-14T22:13:05Z</time>
      </trkpt>
      <trkpt lat="45.41972" lon="4.66528">
        <ele>513.8</ele>
        <time>2017-03-14T22:13:06Z</time>
      </trkpt>
      <trkpt lat="45.41974" lon="4.66523">
        <ele>513.9</ele>
        <time>2017-03-14T22:13:07Z</time>
      </trkpt>
      <trkpt lat="45.41974" lon="4.66517">
        <ele>514</ele>
        <time>2017-03-14T22:13:08Z</time>
      </trkpt>
      <trkpt lat="45.41975" lon="4.66512">
        <ele>514.1</ele>
        <time>2017-03-14T22:13:09Z</time>
      </trkpt>
      <trkpt lat="45.41977" lon="4.66509">
        <ele>514.1</ele>
        <time>2017-03-14T22:13:10Z</time>
      </trkpt>
      <trkpt lat="45.4198" lon="4.66502">
        <ele>514.3</ele>
        <time>2017-03-14T22:13:12Z</time>
      </trkpt>
      <trkpt lat="45.41981" lon="4.66496">
        <ele>514.4</ele>
        <time>2017-03-14T22:13:13Z</time>
      </trkpt>
      <trkpt lat="45.41982" lon="4.6649">
        <ele>514.5</ele>
        <time>2017-03-14T22:13:15Z</time>
      </trkpt>
      <trkpt lat="45.41979" lon="4.66484">
        <ele>514.6</ele>
        <time>2017-03-14T22:13:17Z</time>
      </trkpt>
      <trkpt lat="45.41981" lon="4.66478">
        <ele>514.7</ele>
        <time>2017-03-14T22:13:18Z</time>
      </trkpt>
      <trkpt lat="45.41984" lon="4.6647">
        <ele>514.8</ele>
        <time>2017-03-14T22:13:19Z</time>
      </trkpt>
      <trkpt lat="45.41984" lon="4.66464">
        <ele>514.9</ele>
        <time>2017-03-14T22:13:20Z</time>
      </trkpt>
      <trkpt lat="45.41984" lon="4.6646">
        <ele>515</ele>
        <time>2017-03-14T22:13:21Z</time>
      </trkpt>
      <trkpt lat="45.41986" lon="4.66456">
        <ele>515</ele>
        <time>2017-03-14T22:13:22Z</time>
      </trkpt>
      <trkpt lat="45.41988" lon="4.6645">
        <ele>515.1</ele>
        <time>2017-03-14T22:13:23Z</time>
      </trkpt>
      <trkpt lat="45.41988" lon="4.66445">
        <ele>515.2</ele>
        <time>2017-03-14T22:13:24Z</time>
      </trkpt>
      <trkpt lat="45.41991" lon="4.66439">
        <ele>515.3</ele>
        <time>2017-03-14T22:13:25Z</time>
      </trkpt>
      <trkpt lat="45.41992" lon="4.66434">
        <ele>515.4</ele>
        <time>2017-03-14T22:13:26Z</time>
      </trkpt>
      <trkpt lat="45.41989" lon="4.66431">
        <ele>515.5</ele>
        <time>2017-03-14T22:13:27Z</time>
      </trkpt>
      <trkpt lat="45.41989" lon="4.66426">
        <ele>515.7</ele>
        <time>2017-03-14T22:13:29Z</time>
      </trkpt>
      <trkpt lat="45.41991" lon="4.66421">
        <ele>516</ele>
        <time>2017-03-14T22:13:31Z</time>
      </trkpt>
      <trkpt lat="45.41995" lon="4.66413">
        <ele>516.6</ele>
        <time>2017-03-14T22:13:33Z</time>
      </trkpt>
      <trkpt lat="45.41993" lon="4.66408">
        <ele>517.2</ele>
        <time>2017-03-14T22:13:34Z</time>
      </trkpt>
      <trkpt lat="45.41993" lon="4.66401">
        <ele>518</ele>
        <time>2017-03-14T22:13:36Z</time>
      </trkpt>
      <trkpt lat="45.41992" lon="4.66397">
        <ele>518.5</ele>
        <time>2017-03-14T22:13:37Z</time>
      </trkpt>
      <trkpt lat="45.41992" lon="4.66392">
        <ele>519</ele>
        <time>2017-03-14T22:13:38Z</time>
      </trkpt>
      <trkpt lat="45.41995" lon="4.66387">
        <ele>519.9</ele>
        <time>2017-03-14T22:13:39Z</time>
      </trkpt>
      <trkpt lat="45.41994" lon="4.66381">
        <ele>520.5</ele>
        <time>2017-03-14T22:13:40Z</time>
      </trkpt>
      <trkpt lat="45.41995" lon="4.66377">
        <ele>521</ele>
        <time>2017-03-14T22:13:41Z</time>
      </trkpt>
      <trkpt lat="45.41996" lon="4.6637">
        <ele>521.6</ele>
        <time>2017-03-14T22:13:43Z</time>
      </trkpt>
      <trkpt lat="45.41997" lon="4.66365">
        <ele>522.1</ele>
        <time>2017-03-14T22:13:45Z</time>
      </trkpt>
      <trkpt lat="45.42" lon="4.66359">
        <ele>523.1</ele>
        <time>2017-03-14T22:13:46Z</time>
      </trkpt>
      <trkpt lat="45.42002" lon="4.66352">
        <ele>523.2</ele>
        <time>2017-03-14T22:13:48Z</time>
      </trkpt>
      <trkpt lat="45.42003" lon="4.66346">
        <ele>523.2</ele>
        <time>2017-03-14T22:13:49Z</time>
      </trkpt>
      <trkpt lat="45.42005" lon="4.6634">
        <ele>523.3</ele>
        <time>2017-03-14T22:13:51Z</time>
      </trkpt>
      <trkpt lat="45.42006" lon="4.66334">
        <ele>523.4</ele>
        <time>2017-03-14T22:13:52Z</time>
      </trkpt>
      <trkpt lat="45.42008" lon="4.66324">
        <ele>523.5</ele>
        <time>2017-03-14T22:13:54Z</time>
      </trkpt>
      <trkpt lat="45.42008" lon="4.6632">
        <ele>523.5</ele>
        <time>2017-03-14T22:13:56Z</time>
      </trkpt>
      <trkpt lat="45.42006" lon="4.66316">
        <ele>523.6</ele>
        <time>2017-03-14T22:13:58Z</time>
      </trkpt>
      <trkpt lat="45.42006" lon="4.66312">
        <ele>523.8</ele>
        <time>2017-03-14T22:13:59Z</time>
      </trkpt>
      <trkpt lat="45.42007" lon="4.66308">
        <ele>523.9</ele>
        <time>2017-03-14T22:14:00Z</time>
      </trkpt>
      <trkpt lat="45.42009" lon="4.66302">
        <ele>524</ele>
        <time>2017-03-14T22:14:02Z</time>
      </trkpt>
      <trkpt lat="45.42011" lon="4.66296">
        <ele>524.2</ele>
        <time>2017-03-14T22:14:03Z</time>
      </trkpt>
      <trkpt lat="45.42013" lon="4.66291">
        <ele>524.4</ele>
        <time>2017-03-14T22:14:04Z</time>
      </trkpt>
      <trkpt lat="45.42014" lon="4.66287">
        <ele>524.5</ele>
        <time>2017-03-14T22:14:05Z</time>
      </trkpt>
      <trkpt lat="45.42016" lon="4.6628">
        <ele>524.8</ele>
        <time>2017-03-14T22:14:07Z</time>
      </trkpt>
      <trkpt lat="45.42016" lon="4.66273">
        <ele>525.1</ele>
        <time>2017-03-14T22:14:09Z</time>
      </trkpt>
      <trkpt lat="45.42016" lon="4.66269">
        <ele>525.2</ele>
        <time>2017-03-14T22:14:10Z</time>
      </trkpt>
      <trkpt lat="45.42019" lon="4.6626">
        <ele>525.6</ele>
        <time>2017-03-14T22:14:12Z</time>
      </trkpt>
      <trkpt lat="45.42019" lon="4.66255">
        <ele>525.8</ele>
        <time>2017-03-14T22:14:14Z</time>
      </trkpt>
      <trkpt lat="45.42021" lon="4.6625">
        <ele>526</ele>
        <time>2017-03-14T22:14:15Z</time>
      </trkpt>
      <trkpt lat="45.4202" lon="4.66244">
        <ele>526.2</ele>
        <time>2017-03-14T22:14:17Z</time>
      </trkpt>
      <trkpt lat="45.42019" lon="4.66238">
        <ele>526.5</ele>
        <time>2017-03-14T22:14:19Z</time>
      </trkpt>
      <trkpt lat="45.42021" lon="4.66234">
        <ele>526.6</ele>
        <time>2017-03-14T22:14:20Z</time>
      </trkpt>
      <trkpt lat="45.42021" lon="4.66227">
        <ele>526.9</ele>
        <time>2017-03-14T22:14:22Z</time>
      </trkpt>
      <trkpt lat="45.42021" lon="4.66223">
        <ele>527.1</ele>
        <time>2017-03-14T22:14:23Z</time>
      </trkpt>
      <trkpt lat="45.42021" lon="4.66219">
        <ele>527.2</ele>
        <time>2017-03-14T22:14:24Z</time>
      </trkpt>
      <trkpt lat="45.42021" lon="4.66215">
        <ele>527.4</ele>
        <time>2017-03-14T22:14:26Z</time>
      </trkpt>
      <trkpt lat="45.4202" lon="4.66211">
        <ele>527.6</ele>
        <time>2017-03-14T22:14:28Z</time>
      </trkpt>
      <trkpt lat="45.42021" lon="4.66203">
        <ele>527.9</ele>
        <time>2017-03-14T22:14:30Z</time>
      </trkpt>
      <trkpt lat="45.42021" lon="4.66198">
        <ele>528</ele>
        <time>2017-03-14T22:14:31Z</time>
      </trkpt>
      <trkpt lat="45.42023" lon="4.66189">
        <ele>528.4</ele>
        <time>2017-03-14T22:14:33Z</time>
      </trkpt>
      <trkpt lat="45.42024" lon="4.66183">
        <ele>528.7</ele>
        <time>2017-03-14T22:14:34Z</time>
      </trkpt>
      <trkpt lat="45.42024" lon="4.66178">
        <ele>528.9</ele>
        <time>2017-03-14T22:14:35Z</time>
      </trkpt>
      <trkpt lat="45.42025" lon="4.66172">
        <ele>529.1</ele>
        <time>2017-03-14T22:14:37Z</time>
      </trkpt>
      <trkpt lat="45.42028" lon="4.66167">
        <ele>529.4</ele>
        <time>2017-03-14T22:14:38Z</time>
      </trkpt>
      <trkpt lat="45.42031" lon="4.66157">
        <ele>529.8</ele>
        <time>2017-03-14T22:14:40Z</time>
      </trkpt>
      <trkpt lat="45.42033" lon="4.66153">
        <ele>530</ele>
        <time>2017-03-14T22:14:41Z</time>
      </trkpt>
      <trkpt lat="45.42037" lon="4.66145">
        <ele>530.4</ele>
        <time>2017-03-14T22:14:43Z</time>
      </trkpt>
      <trkpt lat="45.42039" lon="4.6614">
        <ele>530.6</ele>
        <time>2017-03-14T22:14:44Z</time>
      </trkpt>
      <trkpt lat="45.42041" lon="4.66137">
        <ele>530.8</ele>
        <time>2017-03-14T22:14:45Z</time>
      </trkpt>
      <trkpt lat="45.42043" lon="4.66133">
        <ele>531</ele>
        <time>2017-03-14T22:14:46Z</time>
      </trkpt>
      <trkpt lat="45.42044" lon="4.66128">
        <ele>531.2</ele>
        <time>2017-03-14T22:14:48Z</time>
      </trkpt>
      <trkpt lat="45.42046" lon="4.66121">
        <ele>531.4</ele>
        <time>2017-03-14T22:14:49Z</time>
      </trkpt>
      <trkpt lat="45.42049" lon="4.66117">
        <ele>531.6</ele>
        <time>2017-03-14T22:14:51Z</time>
      </trkpt>
      <trkpt lat="45.42051" lon="4.66113">
        <ele>531.7</ele>
        <time>2017-03-14T22:14:52Z</time>
      </trkpt>
      <trkpt lat="45.42052" lon="4.66109">
        <ele>531.9</ele>
        <time>2017-03-14T22:14:53Z</time>
      </trkpt>
      <trkpt lat="45.42054" lon="4.66105">
        <ele>532</ele>
        <time>2017-03-14T22:14:55Z</time>
      </trkpt>
      <trkpt lat="45.42056" lon="4.66099">
        <ele>532.2</ele>
        <time>2017-03-14T22:14:57Z</time>
      </trkpt>
      <trkpt lat="45.42057" lon="4.66095">
        <ele>532.4</ele>
        <time>2017-03-14T22:14:58Z</time>
      </trkpt>
      <trkpt lat="45.4206" lon="4.66092">
        <ele>532.5</ele>
        <time>2017-03-14T22:14:59Z</time>
      </trkpt>
      <trkpt lat="45.42061" lon="4.66084">
        <ele>532.8</ele>
        <time>2017-03-14T22:15:01Z</time>
      </trkpt>
      <trkpt lat="45.42064" lon="4.66079">
        <ele>533</ele>
        <time>2017-03-14T22:15:02Z</time>
      </trkpt>
      <trkpt lat="45.42062" lon="4.66076">
        <ele>533.1</ele>
        <time>2017-03-14T22:15:04Z</time>
      </trkpt>
      <trkpt lat="45.42064" lon="4.66072">
        <ele>533.2</ele>
        <time>2017-03-14T22:15:05Z</time>
      </trkpt>
      <trkpt lat="45.42065" lon="4.66065">
        <ele>533.4</ele>
        <time>2017-03-14T22:15:07Z</time>
      </trkpt>
      <trkpt lat="45.42065" lon="4.66061">
        <ele>533.6</ele>
        <time>2017-03-14T22:15:09Z</time>
      </trkpt>
      <trkpt lat="45.42066" lon="4.66057">
        <ele>533.7</ele>
        <time>2017-03-14T22:15:10Z</time>
      </trkpt>
      <trkpt lat="45.42067" lon="4.66052">
        <ele>533.8</ele>
        <time>2017-03-14T22:15:11Z</time>
      </trkpt>
      <trkpt lat="45.42069" lon="4.66049">
        <ele>534</ele>
        <time>2017-03-14T22:15:12Z</time>
      </trkpt>
      <trkpt lat="45.42071" lon="4.66043">
        <ele>534.2</ele>
        <time>2017-03-14T22:15:13Z</time>
      </trkpt>
      <trkpt lat="45.42072" lon="4.66038">
        <ele>534.3</ele>
        <time>2017-03-14T22:15:14Z</time>
      </trkpt>
      <trkpt lat="45.42074" lon="4.66033">
        <ele>534.5</ele>
        <time>2017-03-14T22:15:15Z</time>
      </trkpt>
      <trkpt lat="45.42075" lon="4.66028">
        <ele>534.7</ele>
        <time>2017-03-14T22:15:17Z</time>
      </trkpt>
      <trkpt lat="45.42075" lon="4.66023">
        <ele>534.8</ele>
        <time>2017-03-14T22:15:19Z</time>
      </trkpt>
      <trkpt lat="45.42077" lon="4.66018">
        <ele>535</ele>
        <time>2017-03-14T22:15:20Z</time>
      </trkpt>
      <trkpt lat="45.42078" lon="4.66012">
        <ele>535.2</ele>
        <time>2017-03-14T22:15:22Z</time>
      </trkpt>
      <trkpt lat="45.42081" lon="4.66007">
        <ele>535.4</ele>
        <time>2017-03-14T22:15:23Z</time>
      </trkpt>
      <trkpt lat="45.42081" lon="4.66002">
        <ele>535.5</ele>
        <time>2017-03-14T22:15:25Z</time>
      </trkpt>
      <trkpt lat="45.42083" lon="4.65994">
        <ele>535.7</ele>
        <time>2017-03-14T22:15:28Z</time>
      </trkpt>
      <trkpt lat="45.42087" lon="4.65986">
        <ele>536</ele>
        <time>2017-03-14T22:15:30Z</time>
      </trkpt>
      <trkpt lat="45.42088" lon="4.65982">
        <ele>536.1</ele>
        <time>2017-03-14T22:15:31Z</time>
      </trkpt>
      <trkpt lat="45.42091" lon="4.65979">
        <ele>536.2</ele>
        <time>2017-03-14T22:15:32Z</time>
      </trkpt>
      <trkpt lat="45.42094" lon="4.65974">
        <ele>536.4</ele>
        <time>2017-03-14T22:15:33Z</time>
      </trkpt>
      <trkpt lat="45.42097" lon="4.65969">
        <ele>536.5</ele>
        <time>2017-03-14T22:15:35Z</time>
      </trkpt>
      <trkpt lat="45.421" lon="4.65963">
        <ele>536.7</ele>
        <time>2017-03-14T22:15:37Z</time>
      </trkpt>
      <trkpt lat="45.42102" lon="4.65958">
        <ele>536.8</ele>
        <time>2017-03-14T22:15:38Z</time>
      </trkpt>
      <trkpt lat="45.42104" lon="4.65955">
        <ele>536.8</ele>
        <time>2017-03-14T22:15:39Z</time>
      </trkpt>
      <trkpt lat="45.42107" lon="4.65949">
        <ele>537</ele>
        <time>2017-03-14T22:15:41Z</time>
      </trkpt>
      <trkpt lat="45.42108" lon="4.65944">
        <ele>537.1</ele>
        <time>2017-03-14T22:15:43Z</time>
      </trkpt>
      <trkpt lat="45.42107" lon="4.65938">
        <ele>537.2</ele>
        <time>2017-03-14T22:15:45Z</time>
      </trkpt>
      <trkpt lat="45.42109" lon="4.65931">
        <ele>537.4</ele>
        <time>2017-03-14T22:15:47Z</time>
      </trkpt>
      <trkpt lat="45.4211" lon="4.65927">
        <ele>537.5</ele>
        <time>2017-03-14T22:15:48Z</time>
      </trkpt>
      <trkpt lat="45.42111" lon="4.65923">
        <ele>537.5</ele>
        <time>2017-03-14T22:15:49Z</time>
      </trkpt>
      <trkpt lat="45.42111" lon="4.65918">
        <ele>537.6</ele>
        <time>2017-03-14T22:15:50Z</time>
      </trkpt>
      <trkpt lat="45.4211" lon="4.65912">
        <ele>537.8</ele>
        <time>2017-03-14T22:15:52Z</time>
      </trkpt>
      <trkpt lat="45.42111" lon="4.65907">
        <ele>537.9</ele>
        <time>2017-03-14T22:15:53Z</time>
      </trkpt>
      <trkpt lat="45.42113" lon="4.659">
        <ele>538</ele>
        <time>2017-03-14T22:15:55Z</time>
      </trkpt>
      <trkpt lat="45.42114" lon="4.6589">
        <ele>537.8</ele>
        <time>2017-03-14T22:15:57Z</time>
      </trkpt>
      <trkpt lat="45.42115" lon="4.65886">
        <ele>537.7</ele>
        <time>2017-03-14T22:15:58Z</time>
      </trkpt>
      <trkpt lat="45.42117" lon="4.65881">
        <ele>537.6</ele>
        <time>2017-03-14T22:15:59Z</time>
      </trkpt>
      <trkpt lat="45.42117" lon="4.65874">
        <ele>537.4</ele>
        <time>2017-03-14T22:16:01Z</time>
      </trkpt>
      <trkpt lat="45.42118" lon="4.65869">
        <ele>537.3</ele>
        <time>2017-03-14T22:16:02Z</time>
      </trkpt>
      <trkpt lat="45.42118" lon="4.65862">
        <ele>537.2</ele>
        <time>2017-03-14T22:16:04Z</time>
      </trkpt>
      <trkpt lat="45.4212" lon="4.65859">
        <ele>537.1</ele>
        <time>2017-03-14T22:16:05Z</time>
      </trkpt>
      <trkpt lat="45.42121" lon="4.65852">
        <ele>537.1</ele>
        <time>2017-03-14T22:16:07Z</time>
      </trkpt>
      <trkpt lat="45.42123" lon="4.65849">
        <ele>537</ele>
        <time>2017-03-14T22:16:08Z</time>
      </trkpt>
      <trkpt lat="45.42125" lon="4.65846">
        <ele>537</ele>
        <time>2017-03-14T22:16:09Z</time>
      </trkpt>
      <trkpt lat="45.42128" lon="4.6584">
        <ele>537</ele>
        <time>2017-03-14T22:16:10Z</time>
      </trkpt>
      <trkpt lat="45.4213" lon="4.65837">
        <ele>536.9</ele>
        <time>2017-03-14T22:16:11Z</time>
      </trkpt>
      <trkpt lat="45.42132" lon="4.65833">
        <ele>536.9</ele>
        <time>2017-03-14T22:16:12Z</time>
      </trkpt>
      <trkpt lat="45.42133" lon="4.65827">
        <ele>536.9</ele>
        <time>2017-03-14T22:16:14Z</time>
      </trkpt>
      <trkpt lat="45.42132" lon="4.65823">
        <ele>536.9</ele>
        <time>2017-03-14T22:16:17Z</time>
      </trkpt>
      <trkpt lat="45.42135" lon="4.65822">
        <ele>536.9</ele>
        <time>2017-03-14T22:16:18Z</time>
      </trkpt>
      <trkpt lat="45.42138" lon="4.65818">
        <ele>536.9</ele>
        <time>2017-03-14T22:16:19Z</time>
      </trkpt>
      <trkpt lat="45.42139" lon="4.65814">
        <ele>536.9</ele>
        <time>2017-03-14T22:16:20Z</time>
      </trkpt>
      <trkpt lat="45.42139" lon="4.65807">
        <ele>536.9</ele>
        <time>2017-03-14T22:16:22Z</time>
      </trkpt>
      <trkpt lat="45.42143" lon="4.65802">
        <ele>536.9</ele>
        <time>2017-03-14T22:16:23Z</time>
      </trkpt>
      <trkpt lat="45.42143" lon="4.65795">
        <ele>536.9</ele>
        <time>2017-03-14T22:16:25Z</time>
      </trkpt>
      <trkpt lat="45.42145" lon="4.65789">
        <ele>537</ele>
        <time>2017-03-14T22:16:26Z</time>
      </trkpt>
      <trkpt lat="45.42148" lon="4.6579">
        <ele>538.5</ele>
        <time>2017-03-14T22:16:27Z</time>
      </trkpt>
      <trkpt lat="45.42151" lon="4.65788">
        <ele>539</ele>
        <time>2017-03-14T22:16:28Z</time>
      </trkpt>
      <trkpt lat="45.42156" lon="4.65796">
        <ele>540.2</ele>
        <time>2017-03-14T22:16:31Z</time>
      </trkpt>
      <trkpt lat="45.42159" lon="4.65799">
        <ele>540.8</ele>
        <time>2017-03-14T22:16:33Z</time>
      </trkpt>
      <trkpt lat="45.42162" lon="4.65799">
        <ele>541.3</ele>
        <time>2017-03-14T22:16:34Z</time>
      </trkpt>
      <trkpt lat="45.42165" lon="4.65804">
        <ele>542</ele>
        <time>2017-03-14T22:16:35Z</time>
      </trkpt>
      <trkpt lat="45.42167" lon="4.65808">
        <ele>542.5</ele>
        <time>2017-03-14T22:16:36Z</time>
      </trkpt>
      <trkpt lat="45.4217" lon="4.6581">
        <ele>542.9</ele>
        <time>2017-03-14T22:16:37Z</time>
      </trkpt>
      <trkpt lat="45.42173" lon="4.65814">
        <ele>543.5</ele>
        <time>2017-03-14T22:16:39Z</time>
      </trkpt>
      <trkpt lat="45.42175" lon="4.65818">
        <ele>543.9</ele>
        <time>2017-03-14T22:16:40Z</time>
      </trkpt>
      <trkpt lat="45.42177" lon="4.6582">
        <ele>544.3</ele>
        <time>2017-03-14T22:16:41Z</time>
      </trkpt>
      <trkpt lat="45.42179" lon="4.65824">
        <ele>544.7</ele>
        <time>2017-03-14T22:16:42Z</time>
      </trkpt>
      <trkpt lat="45.42182" lon="4.65828">
        <ele>545.3</ele>
        <time>2017-03-14T22:16:43Z</time>
      </trkpt>
      <trkpt lat="45.42184" lon="4.6583">
        <ele>545.6</ele>
        <time>2017-03-14T22:16:44Z</time>
      </trkpt>
      <trkpt lat="45.42186" lon="4.65833">
        <ele>546</ele>
        <time>2017-03-14T22:16:45Z</time>
      </trkpt>
      <trkpt lat="45.42188" lon="4.65836">
        <ele>546.4</ele>
        <time>2017-03-14T22:16:46Z</time>
      </trkpt>
      <trkpt lat="45.4219" lon="4.65839">
        <ele>546.8</ele>
        <time>2017-03-14T22:16:47Z</time>
      </trkpt>
      <trkpt lat="45.42192" lon="4.65842">
        <ele>547.2</ele>
        <time>2017-03-14T22:16:48Z</time>
      </trkpt>
      <trkpt lat="45.42195" lon="4.65844">
        <ele>547.6</ele>
        <time>2017-03-14T22:16:49Z</time>
      </trkpt>
      <trkpt lat="45.42196" lon="4.65848">
        <ele>548</ele>
        <time>2017-03-14T22:16:50Z</time>
      </trkpt>
      <trkpt lat="45.42199" lon="4.6585">
        <ele>548.4</ele>
        <time>2017-03-14T22:16:51Z</time>
      </trkpt>
      <trkpt lat="45.42201" lon="4.65855">
        <ele>548.8</ele>
        <time>2017-03-14T22:16:52Z</time>
      </trkpt>
      <trkpt lat="45.42203" lon="4.65857">
        <ele>549.2</ele>
        <time>2017-03-14T22:16:53Z</time>
      </trkpt>
      <trkpt lat="45.42205" lon="4.6586">
        <ele>549.6</ele>
        <time>2017-03-14T22:16:54Z</time>
      </trkpt>
      <trkpt lat="45.42208" lon="4.65866">
        <ele>550.2</ele>
        <time>2017-03-14T22:16:56Z</time>
      </trkpt>
      <trkpt lat="45.4221" lon="4.65869">
        <ele>550.6</ele>
        <time>2017-03-14T22:16:57Z</time>
      </trkpt>
      <trkpt lat="45.42212" lon="4.65872">
        <ele>551</ele>
        <time>2017-03-14T22:16:58Z</time>
      </trkpt>
      <trkpt lat="45.42217" lon="4.65875">
        <ele>551.6</ele>
        <time>2017-03-14T22:17:00Z</time>
      </trkpt>
      <trkpt lat="45.42219" lon="4.65879">
        <ele>552.1</ele>
        <time>2017-03-14T22:17:01Z</time>
      </trkpt>
      <trkpt lat="45.42221" lon="4.65881">
        <ele>552.4</ele>
        <time>2017-03-14T22:17:02Z</time>
      </trkpt>
      <trkpt lat="45.42224" lon="4.65885">
        <ele>552.9</ele>
        <time>2017-03-14T22:17:03Z</time>
      </trkpt>
      <trkpt lat="45.42227" lon="4.6589">
        <ele>553.7</ele>
        <time>2017-03-14T22:17:05Z</time>
      </trkpt>
      <trkpt lat="45.42229" lon="4.65893">
        <ele>554.1</ele>
        <time>2017-03-14T22:17:06Z</time>
      </trkpt>
      <trkpt lat="45.42232" lon="4.65896">
        <ele>554.7</ele>
        <time>2017-03-14T22:17:08Z</time>
      </trkpt>
      <trkpt lat="45.42233" lon="4.659">
        <ele>555.1</ele>
        <time>2017-03-14T22:17:09Z</time>
      </trkpt>
      <trkpt lat="45.42237" lon="4.65903">
        <ele>555.7</ele>
        <time>2017-03-14T22:17:11Z</time>
      </trkpt>
      <trkpt lat="45.4224" lon="4.65908">
        <ele>556.6</ele>
        <time>2017-03-14T22:17:13Z</time>
      </trkpt>
      <trkpt lat="45.42244" lon="4.65913">
        <ele>557.5</ele>
        <time>2017-03-14T22:17:15Z</time>
      </trkpt>
      <trkpt lat="45.42248" lon="4.65919">
        <ele>558.3</ele>
        <time>2017-03-14T22:17:17Z</time>
      </trkpt>
      <trkpt lat="45.42251" lon="4.65923">
        <ele>558.7</ele>
        <time>2017-03-14T22:17:18Z</time>
      </trkpt>
      <trkpt lat="45.42255" lon="4.65926">
        <ele>559.1</ele>
        <time>2017-03-14T22:17:20Z</time>
      </trkpt>
      <trkpt lat="45.42258" lon="4.6593">
        <ele>559.4</ele>
        <time>2017-03-14T22:17:21Z</time>
      </trkpt>
      <trkpt lat="45.42262" lon="4.65931">
        <ele>559.7</ele>
        <time>2017-03-14T22:17:22Z</time>
      </trkpt>
      <trkpt lat="45.42263" lon="4.65935">
        <ele>560</ele>
        <time>2017-03-14T22:17:23Z</time>
      </trkpt>
      <trkpt lat="45.42266" lon="4.65938">
        <ele>560.3</ele>
        <time>2017-03-14T22:17:24Z</time>
      </trkpt>
      <trkpt lat="45.4227" lon="4.65939">
        <ele>560.6</ele>
        <time>2017-03-14T22:17:25Z</time>
      </trkpt>
      <trkpt lat="45.42276" lon="4.6594">
        <ele>561.2</ele>
        <time>2017-03-14T22:17:26Z</time>
      </trkpt>
      <trkpt lat="45.42281" lon="4.65942">
        <ele>561.7</ele>
        <time>2017-03-14T22:17:28Z</time>
      </trkpt>
      <trkpt lat="45.42285" lon="4.65943">
        <ele>562</ele>
        <time>2017-03-14T22:17:29Z</time>
      </trkpt>
      <trkpt lat="45.42287" lon="4.65945">
        <ele>562</ele>
        <time>2017-03-14T22:17:31Z</time>
      </trkpt>
      <trkpt lat="45.42289" lon="4.6594">
        <ele>562.1</ele>
        <time>2017-03-14T22:17:32Z</time>
      </trkpt>
      <trkpt lat="45.42292" lon="4.65938">
        <ele>562.1</ele>
        <time>2017-03-14T22:17:33Z</time>
      </trkpt>
      <trkpt lat="45.42293" lon="4.65933">
        <ele>562.1</ele>
        <time>2017-03-14T22:17:34Z</time>
      </trkpt>
      <trkpt lat="45.42292" lon="4.65927">
        <ele>562.1</ele>
        <time>2017-03-14T22:17:36Z</time>
      </trkpt>
      <trkpt lat="45.42291" lon="4.65922">
        <ele>562.1</ele>
        <time>2017-03-14T22:17:37Z</time>
      </trkpt>
      <trkpt lat="45.42294" lon="4.65919">
        <ele>562.2</ele>
        <time>2017-03-14T22:17:38Z</time>
      </trkpt>
      <trkpt lat="45.42294" lon="4.65915">
        <ele>562.2</ele>
        <time>2017-03-14T22:17:39Z</time>
      </trkpt>
      <trkpt lat="45.42296" lon="4.65911">
        <ele>562.2</ele>
        <time>2017-03-14T22:17:40Z</time>
      </trkpt>
      <trkpt lat="45.42298" lon="4.65904">
        <ele>562.6</ele>
        <time>2017-03-14T22:17:42Z</time>
      </trkpt>
      <trkpt lat="45.42299" lon="4.65901">
        <ele>562.9</ele>
        <time>2017-03-14T22:17:43Z</time>
      </trkpt>
      <trkpt lat="45.42303" lon="4.65895">
        <ele>563.4</ele>
        <time>2017-03-14T22:17:45Z</time>
      </trkpt>
      <trkpt lat="45.42308" lon="4.6589">
        <ele>564</ele>
        <time>2017-03-14T22:17:47Z</time>
      </trkpt>
      <trkpt lat="45.4231" lon="4.65885">
        <ele>564.6</ele>
        <time>2017-03-14T22:17:49Z</time>
      </trkpt>
      <trkpt lat="45.42313" lon="4.65883">
        <ele>565.3</ele>
        <time>2017-03-14T22:17:50Z</time>
      </trkpt>
      <trkpt lat="45.42315" lon="4.65877">
        <ele>565.9</ele>
        <time>2017-03-14T22:17:52Z</time>
      </trkpt>
      <trkpt lat="45.42319" lon="4.65872">
        <ele>566.8</ele>
        <time>2017-03-14T22:17:54Z</time>
      </trkpt>
      <trkpt lat="45.42321" lon="4.65868">
        <ele>567.4</ele>
        <time>2017-03-14T22:17:56Z</time>
      </trkpt>
      <trkpt lat="45.42322" lon="4.6586">
        <ele>568.5</ele>
        <time>2017-03-14T22:17:58Z</time>
      </trkpt>
      <trkpt lat="45.42322" lon="4.65856">
        <ele>569</ele>
        <time>2017-03-14T22:17:59Z</time>
      </trkpt>
      <trkpt lat="45.42322" lon="4.65849">
        <ele>570.1</ele>
        <time>2017-03-14T22:18:01Z</time>
      </trkpt>
      <trkpt lat="45.42323" lon="4.65845">
        <ele>570.6</ele>
        <time>2017-03-14T22:18:02Z</time>
      </trkpt>
      <trkpt lat="45.42321" lon="4.65838">
        <ele>571</ele>
        <time>2017-03-14T22:18:04Z</time>
      </trkpt>
      <trkpt lat="45.42321" lon="4.65834">
        <ele>571.4</ele>
        <time>2017-03-14T22:18:05Z</time>
      </trkpt>
      <trkpt lat="45.42322" lon="4.65829">
        <ele>572</ele>
        <time>2017-03-14T22:18:07Z</time>
      </trkpt>
      <trkpt lat="45.42319" lon="4.65829">
        <ele>571.9</ele>
        <time>2017-03-14T22:18:08Z</time>
      </trkpt>
      <trkpt lat="45.42318" lon="4.65822">
        <ele>572.3</ele>
        <time>2017-03-14T22:18:10Z</time>
      </trkpt>
      <trkpt lat="45.42318" lon="4.65815">
        <ele>572.8</ele>
        <time>2017-03-14T22:18:12Z</time>
      </trkpt>
      <trkpt lat="45.42318" lon="4.6581">
        <ele>573.1</ele>
        <time>2017-03-14T22:18:13Z</time>
      </trkpt>
      <trkpt lat="45.42316" lon="4.65805">
        <ele>573.3</ele>
        <time>2017-03-14T22:18:15Z</time>
      </trkpt>
      <trkpt lat="45.42313" lon="4.65799">
        <ele>573.3</ele>
        <time>2017-03-14T22:18:17Z</time>
      </trkpt>
      <trkpt lat="45.42318" lon="4.65789">
        <ele>574.1</ele>
        <time>2017-03-14T22:18:18Z</time>
      </trkpt>
      <trkpt lat="45.42318" lon="4.65784">
        <ele>574.4</ele>
        <time>2017-03-14T22:18:20Z</time>
      </trkpt>
      <trkpt lat="45.42322" lon="4.65782">
        <ele>575.4</ele>
        <time>2017-03-14T22:18:22Z</time>
      </trkpt>
      <trkpt lat="45.42322" lon="4.65776">
        <ele>575.6</ele>
        <time>2017-03-14T22:18:25Z</time>
      </trkpt>
      <trkpt lat="45.42321" lon="4.6577">
        <ele>575.5</ele>
        <time>2017-03-14T22:18:27Z</time>
      </trkpt>
      <trkpt lat="45.4232" lon="4.65764">
        <ele>576.1</ele>
        <time>2017-03-14T22:18:30Z</time>
      </trkpt>
      <trkpt lat="45.42322" lon="4.65759">
        <ele>576.8</ele>
        <time>2017-03-14T22:18:31Z</time>
      </trkpt>
      <trkpt lat="45.42322" lon="4.65751">
        <ele>577.4</ele>
        <time>2017-03-14T22:18:33Z</time>
      </trkpt>
      <trkpt lat="45.42321" lon="4.65747">
        <ele>577.6</ele>
        <time>2017-03-14T22:18:34Z</time>
      </trkpt>
      <trkpt lat="45.42321" lon="4.65741">
        <ele>578.1</ele>
        <time>2017-03-14T22:18:36Z</time>
      </trkpt>
      <trkpt lat="45.42321" lon="4.65736">
        <ele>578.7</ele>
        <time>2017-03-14T22:18:38Z</time>
      </trkpt>
      <trkpt lat="45.42323" lon="4.65733">
        <ele>579.5</ele>
        <time>2017-03-14T22:18:40Z</time>
      </trkpt>
      <trkpt lat="45.42325" lon="4.65728">
        <ele>580.3</ele>
        <time>2017-03-14T22:18:41Z</time>
      </trkpt>
      <trkpt lat="45.42325" lon="4.65724">
        <ele>581</ele>
        <time>2017-03-14T22:18:42Z</time>
      </trkpt>
      <trkpt lat="45.42327" lon="4.65719">
        <ele>581.7</ele>
        <time>2017-03-14T22:18:43Z</time>
      </trkpt>
      <trkpt lat="45.42328" lon="4.65713">
        <ele>583.6</ele>
        <time>2017-03-14T22:18:44Z</time>
      </trkpt>
      <trkpt lat="45.42329" lon="4.65706">
        <ele>584.5</ele>
        <time>2017-03-14T22:18:45Z</time>
      </trkpt>
      <trkpt lat="45.4233" lon="4.657">
        <ele>585.5</ele>
        <time>2017-03-14T22:18:48Z</time>
      </trkpt>
      <trkpt lat="45.42331" lon="4.65696">
        <ele>587.2</ele>
        <time>2017-03-14T22:18:50Z</time>
      </trkpt>
      <trkpt lat="45.42332" lon="4.65691">
        <ele>587.9</ele>
        <time>2017-03-14T22:18:52Z</time>
      </trkpt>
      <trkpt lat="45.42334" lon="4.65685">
        <ele>588.8</ele>
        <time>2017-03-14T22:18:54Z</time>
      </trkpt>
      <trkpt lat="45.42335" lon="4.65679">
        <ele>589.4</ele>
        <time>2017-03-14T22:18:56Z</time>
      </trkpt>
      <trkpt lat="45.42335" lon="4.65673">
        <ele>590.4</ele>
        <time>2017-03-14T22:18:58Z</time>
      </trkpt>
      <trkpt lat="45.42334" lon="4.65666">
        <ele>591.3</ele>
        <time>2017-03-14T22:18:59Z</time>
      </trkpt>
      <trkpt lat="45.42334" lon="4.65661">
        <ele>591.9</ele>
        <time>2017-03-14T22:19:00Z</time>
      </trkpt>
      <trkpt lat="45.42337" lon="4.65657">
        <ele>592.5</ele>
        <time>2017-03-14T22:19:01Z</time>
      </trkpt>
      <trkpt lat="45.42337" lon="4.65651">
        <ele>593.6</ele>
        <time>2017-03-14T22:19:04Z</time>
      </trkpt>
      <trkpt lat="45.4234" lon="4.65647">
        <ele>594.8</ele>
        <time>2017-03-14T22:19:06Z</time>
      </trkpt>
      <trkpt lat="45.42342" lon="4.65641">
        <ele>595.3</ele>
        <time>2017-03-14T22:19:07Z</time>
      </trkpt>
      <trkpt lat="45.42339" lon="4.65637">
        <ele>595.3</ele>
        <time>2017-03-14T22:19:08Z</time>
      </trkpt>
      <trkpt lat="45.42343" lon="4.65629">
        <ele>596.5</ele>
        <time>2017-03-14T22:19:10Z</time>
      </trkpt>
      <trkpt lat="45.42342" lon="4.65624">
        <ele>596.9</ele>
        <time>2017-03-14T22:19:12Z</time>
      </trkpt>
      <trkpt lat="45.42339" lon="4.65622">
        <ele>596.9</ele>
        <time>2017-03-14T22:19:14Z</time>
      </trkpt>
      <trkpt lat="45.42342" lon="4.6562">
        <ele>597.3</ele>
        <time>2017-03-14T22:19:17Z</time>
      </trkpt>
      <trkpt lat="45.42341" lon="4.65614">
        <ele>597.8</ele>
        <time>2017-03-14T22:19:20Z</time>
      </trkpt>
      <trkpt lat="45.42344" lon="4.65607">
        <ele>598.5</ele>
        <time>2017-03-14T22:19:22Z</time>
      </trkpt>
      <trkpt lat="45.42346" lon="4.65601">
        <ele>599.6</ele>
        <time>2017-03-14T22:19:23Z</time>
      </trkpt>
      <trkpt lat="45.42349" lon="4.65595">
        <ele>599.4</ele>
        <time>2017-03-14T22:19:25Z</time>
      </trkpt>
      <trkpt lat="45.4235" lon="4.65592">
        <ele>599.3</ele>
        <time>2017-03-14T22:19:26Z</time>
      </trkpt>
      <trkpt lat="45.42349" lon="4.65587">
        <ele>599.2</ele>
        <time>2017-03-14T22:19:27Z</time>
      </trkpt>
      <trkpt lat="45.42349" lon="4.65581">
        <ele>599.1</ele>
        <time>2017-03-14T22:19:28Z</time>
      </trkpt>
      <trkpt lat="45.42347" lon="4.65578">
        <ele>598.8</ele>
        <time>2017-03-14T22:19:29Z</time>
      </trkpt>
      <trkpt lat="45.42344" lon="4.65571">
        <ele>598</ele>
        <time>2017-03-14T22:19:30Z</time>
      </trkpt>
      <trkpt lat="45.42342" lon="4.65565">
        <ele>597.4</ele>
        <time>2017-03-14T22:19:31Z</time>
      </trkpt>
      <trkpt lat="45.42339" lon="4.65561">
        <ele>596.7</ele>
        <time>2017-03-14T22:19:32Z</time>
      </trkpt>
      <trkpt lat="45.42337" lon="4.65555">
        <ele>596</ele>
        <time>2017-03-14T22:19:33Z</time>
      </trkpt>
      <trkpt lat="45.42334" lon="4.65547">
        <ele>595.1</ele>
        <time>2017-03-14T22:19:34Z</time>
      </trkpt>
      <trkpt lat="45.42331" lon="4.65539">
        <ele>593.3</ele>
        <time>2017-03-14T22:19:35Z</time>
      </trkpt>
      <trkpt lat="45.4233" lon="4.65535">
        <ele>592.5</ele>
        <time>2017-03-14T22:19:36Z</time>
      </trkpt>
      <trkpt lat="45.42325" lon="4.65532">
        <ele>591.4</ele>
        <time>2017-03-14T22:19:38Z</time>
      </trkpt>
      <trkpt lat="45.42322" lon="4.65529">
        <ele>590.8</ele>
        <time>2017-03-14T22:19:39Z</time>
      </trkpt>
      <trkpt lat="45.4232" lon="4.65526">
        <ele>590.1</ele>
        <time>2017-03-14T22:19:40Z</time>
      </trkpt>
      <trkpt lat="45.42316" lon="4.65523">
        <ele>588.8</ele>
        <time>2017-03-14T22:19:41Z</time>
      </trkpt>
      <trkpt lat="45.4231" lon="4.65523">
        <ele>587</ele>
        <time>2017-03-14T22:19:42Z</time>
      </trkpt>
      <trkpt lat="45.42307" lon="4.65522">
        <ele>586.2</ele>
        <time>2017-03-14T22:19:43Z</time>
      </trkpt>
      <trkpt lat="45.42299" lon="4.65517">
        <ele>584.4</ele>
        <time>2017-03-14T22:19:44Z</time>
      </trkpt>
      <trkpt lat="45.42294" lon="4.65514">
        <ele>583.4</ele>
        <time>2017-03-14T22:19:45Z</time>
      </trkpt>
      <trkpt lat="45.42291" lon="4.65515">
        <ele>582.7</ele>
        <time>2017-03-14T22:19:46Z</time>
      </trkpt>
      <trkpt lat="45.42288" lon="4.65516">
        <ele>579.1</ele>
        <time>2017-03-14T22:19:47Z</time>
      </trkpt>
      <trkpt lat="45.42286" lon="4.65522">
        <ele>578.6</ele>
        <time>2017-03-14T22:19:48Z</time>
      </trkpt>
      <trkpt lat="45.42286" lon="4.6553">
        <ele>578.1</ele>
        <time>2017-03-14T22:19:49Z</time>
      </trkpt>
      <trkpt lat="45.42283" lon="4.65534">
        <ele>577.6</ele>
        <time>2017-03-14T22:19:50Z</time>
      </trkpt>
      <trkpt lat="45.42284" lon="4.6554">
        <ele>577.1</ele>
        <time>2017-03-14T22:19:51Z</time>
      </trkpt>
      <trkpt lat="45.42281" lon="4.65546">
        <ele>576.5</ele>
        <time>2017-03-14T22:19:52Z</time>
      </trkpt>
      <trkpt lat="45.4228" lon="4.6555">
        <ele>576.1</ele>
        <time>2017-03-14T22:19:53Z</time>
      </trkpt>
      <trkpt lat="45.42277" lon="4.65553">
        <ele>575.7</ele>
        <time>2017-03-14T22:19:54Z</time>
      </trkpt>
      <trkpt lat="45.42274" lon="4.65555">
        <ele>575.4</ele>
        <time>2017-03-14T22:19:55Z</time>
      </trkpt>
      <trkpt lat="45.4227" lon="4.65558">
        <ele>575</ele>
        <time>2017-03-14T22:19:56Z</time>
      </trkpt>
      <trkpt lat="45.42267" lon="4.65561">
        <ele>574.7</ele>
        <time>2017-03-14T22:19:57Z</time>
      </trkpt>
      <trkpt lat="45.42262" lon="4.65564">
        <ele>574.2</ele>
        <time>2017-03-14T22:19:58Z</time>
      </trkpt>
      <trkpt lat="45.42257" lon="4.65567">
        <ele>573.7</ele>
        <time>2017-03-14T22:19:59Z</time>
      </trkpt>
      <trkpt lat="45.42252" lon="4.65569">
        <ele>573.3</ele>
        <time>2017-03-14T22:20:00Z</time>
      </trkpt>
      <trkpt lat="45.42249" lon="4.65571">
        <ele>573</ele>
        <time>2017-03-14T22:20:01Z</time>
      </trkpt>
      <trkpt lat="45.4224" lon="4.65573">
        <ele>572</ele>
        <time>2017-03-14T22:20:03Z</time>
      </trkpt>
      <trkpt lat="45.42237" lon="4.65574">
        <ele>571.7</ele>
        <time>2017-03-14T22:20:05Z</time>
      </trkpt>
      <trkpt lat="45.42233" lon="4.65573">
        <ele>571.3</ele>
        <time>2017-03-14T22:20:06Z</time>
      </trkpt>
      <trkpt lat="45.42226" lon="4.65569">
        <ele>570.5</ele>
        <time>2017-03-14T22:20:07Z</time>
      </trkpt>
      <trkpt lat="45.42219" lon="4.65566">
        <ele>569.9</ele>
        <time>2017-03-14T22:20:09Z</time>
      </trkpt>
      <trkpt lat="45.42216" lon="4.65564">
        <ele>569.5</ele>
        <time>2017-03-14T22:20:10Z</time>
      </trkpt>
      <trkpt lat="45.42213" lon="4.65563">
        <ele>569.3</ele>
        <time>2017-03-14T22:20:11Z</time>
      </trkpt>
      <trkpt lat="45.42209" lon="4.65561">
        <ele>568.9</ele>
        <time>2017-03-14T22:20:12Z</time>
      </trkpt>
      <trkpt lat="45.42204" lon="4.65561">
        <ele>568.4</ele>
        <time>2017-03-14T22:20:13Z</time>
      </trkpt>
      <trkpt lat="45.42202" lon="4.6556">
        <ele>568.2</ele>
        <time>2017-03-14T22:20:14Z</time>
      </trkpt>
      <trkpt lat="45.422" lon="4.65556">
        <ele>567.8</ele>
        <time>2017-03-14T22:20:15Z</time>
      </trkpt>
      <trkpt lat="45.42195" lon="4.6555">
        <ele>567.7</ele>
        <time>2017-03-14T22:20:16Z</time>
      </trkpt>
      <trkpt lat="45.42192" lon="4.65546">
        <ele>568.1</ele>
        <time>2017-03-14T22:20:17Z</time>
      </trkpt>
      <trkpt lat="45.42189" lon="4.65536">
        <ele>568.7</ele>
        <time>2017-03-14T22:20:19Z</time>
      </trkpt>
      <trkpt lat="45.42188" lon="4.65533">
        <ele>569</ele>
        <time>2017-03-14T22:20:20Z</time>
      </trkpt>
      <trkpt lat="45.42185" lon="4.65529">
        <ele>569.4</ele>
        <time>2017-03-14T22:20:21Z</time>
      </trkpt>
      <trkpt lat="45.42184" lon="4.65524">
        <ele>569.5</ele>
        <time>2017-03-14T22:20:22Z</time>
      </trkpt>
      <trkpt lat="45.42182" lon="4.6552">
        <ele>569.7</ele>
        <time>2017-03-14T22:20:23Z</time>
      </trkpt>
      <trkpt lat="45.4218" lon="4.6551">
        <ele>570.1</ele>
        <time>2017-03-14T22:20:25Z</time>
      </trkpt>
      <trkpt lat="45.42178" lon="4.65506">
        <ele>570.3</ele>
        <time>2017-03-14T22:20:26Z</time>
      </trkpt>
      <trkpt lat="45.42176" lon="4.65499">
        <ele>570.6</ele>
        <time>2017-03-14T22:20:28Z</time>
      </trkpt>
      <trkpt lat="45.42174" lon="4.65496">
        <ele>570.8</ele>
        <time>2017-03-14T22:20:29Z</time>
      </trkpt>
      <trkpt lat="45.42173" lon="4.65491">
        <ele>571.1</ele>
        <time>2017-03-14T22:20:30Z</time>
      </trkpt>
      <trkpt lat="45.42173" lon="4.65486">
        <ele>571.3</ele>
        <time>2017-03-14T22:20:31Z</time>
      </trkpt>
      <trkpt lat="45.42171" lon="4.6548">
        <ele>571.7</ele>
        <time>2017-03-14T22:20:33Z</time>
      </trkpt>
      <trkpt lat="45.4217" lon="4.65476">
        <ele>572</ele>
        <time>2017-03-14T22:20:34Z</time>
      </trkpt>
      <trkpt lat="45.4217" lon="4.65472">
        <ele>572</ele>
        <time>2017-03-14T22:20:35Z</time>
      </trkpt>
      <trkpt lat="45.4217" lon="4.65467">
        <ele>572</ele>
        <time>2017-03-14T22:20:36Z</time>
      </trkpt>
      <trkpt lat="45.4217" lon="4.65462">
        <ele>572</ele>
        <time>2017-03-14T22:20:38Z</time>
      </trkpt>
      <trkpt lat="45.42168" lon="4.65455">
        <ele>572</ele>
        <time>2017-03-14T22:20:40Z</time>
      </trkpt>
      <trkpt lat="45.42169" lon="4.6545">
        <ele>572</ele>
        <time>2017-03-14T22:20:42Z</time>
      </trkpt>
      <trkpt lat="45.4217" lon="4.65443">
        <ele>572</ele>
        <time>2017-03-14T22:20:44Z</time>
      </trkpt>
      <trkpt lat="45.42172" lon="4.65438">
        <ele>572</ele>
        <time>2017-03-14T22:20:45Z</time>
      </trkpt>
      <trkpt lat="45.42174" lon="4.65433">
        <ele>572.2</ele>
        <time>2017-03-14T22:20:46Z</time>
      </trkpt>
      <trkpt lat="45.42177" lon="4.65426">
        <ele>572.5</ele>
        <time>2017-03-14T22:20:47Z</time>
      </trkpt>
      <trkpt lat="45.42178" lon="4.6542">
        <ele>572.8</ele>
        <time>2017-03-14T22:20:48Z</time>
      </trkpt>
      <trkpt lat="45.4218" lon="4.65414">
        <ele>573.1</ele>
        <time>2017-03-14T22:20:49Z</time>
      </trkpt>
      <trkpt lat="45.42181" lon="4.6541">
        <ele>573.4</ele>
        <time>2017-03-14T22:20:50Z</time>
      </trkpt>
      <trkpt lat="45.42183" lon="4.65402">
        <ele>573.8</ele>
        <time>2017-03-14T22:20:52Z</time>
      </trkpt>
      <trkpt lat="45.42185" lon="4.65399">
        <ele>574.1</ele>
        <time>2017-03-14T22:20:53Z</time>
      </trkpt>
      <trkpt lat="45.42186" lon="4.65391">
        <ele>574.7</ele>
        <time>2017-03-14T22:20:55Z</time>
      </trkpt>
      <trkpt lat="45.42187" lon="4.65385">
        <ele>575.2</ele>
        <time>2017-03-14T22:20:57Z</time>
      </trkpt>
      <trkpt lat="45.42185" lon="4.6538">
        <ele>575.3</ele>
        <time>2017-03-14T22:20:59Z</time>
      </trkpt>
      <trkpt lat="45.42186" lon="4.65374">
        <ele>575.5</ele>
        <time>2017-03-14T22:21:00Z</time>
      </trkpt>
      <trkpt lat="45.42186" lon="4.6537">
        <ele>575.6</ele>
        <time>2017-03-14T22:21:01Z</time>
      </trkpt>
      <trkpt lat="45.42186" lon="4.65366">
        <ele>575.7</ele>
        <time>2017-03-14T22:21:02Z</time>
      </trkpt>
      <trkpt lat="45.42186" lon="4.65357">
        <ele>575.9</ele>
        <time>2017-03-14T22:21:04Z</time>
      </trkpt>
      <trkpt lat="45.42185" lon="4.65348">
        <ele>576</ele>
        <time>2017-03-14T22:21:06Z</time>
      </trkpt>
      <trkpt lat="45.42184" lon="4.65343">
        <ele>576</ele>
        <time>2017-03-14T22:21:07Z</time>
      </trkpt>
      <trkpt lat="45.42183" lon="4.65337">
        <ele>576</ele>
        <time>2017-03-14T22:21:08Z</time>
      </trkpt>
      <trkpt lat="45.42182" lon="4.65333">
        <ele>576</ele>
        <time>2017-03-14T22:21:09Z</time>
      </trkpt>
      <trkpt lat="45.42179" lon="4.65332">
        <ele>576</ele>
        <time>2017-03-14T22:21:10Z</time>
      </trkpt>
      <trkpt lat="45.42176" lon="4.65328">
        <ele>576</ele>
        <time>2017-03-14T22:21:12Z</time>
      </trkpt>
      <trkpt lat="45.42176" lon="4.65324">
        <ele>576</ele>
        <time>2017-03-14T22:21:13Z</time>
      </trkpt>
      <trkpt lat="45.42178" lon="4.6532">
        <ele>576.6</ele>
        <time>2017-03-14T22:21:14Z</time>
      </trkpt>
      <trkpt lat="45.42177" lon="4.65316">
        <ele>575.6</ele>
        <time>2017-03-14T22:21:15Z</time>
      </trkpt>
      <trkpt lat="45.4218" lon="4.65309">
        <ele>576.6</ele>
        <time>2017-03-14T22:21:16Z</time>
      </trkpt>
      <trkpt lat="45.42178" lon="4.65307">
        <ele>575.9</ele>
        <time>2017-03-14T22:21:17Z</time>
      </trkpt>
      <trkpt lat="45.42175" lon="4.65302">
        <ele>574.9</ele>
        <time>2017-03-14T22:21:19Z</time>
      </trkpt>
      <trkpt lat="45.42176" lon="4.65296">
        <ele>574.5</ele>
        <time>2017-03-14T22:21:20Z</time>
      </trkpt>
      <trkpt lat="45.42176" lon="4.65292">
        <ele>574.5</ele>
        <time>2017-03-14T22:21:21Z</time>
      </trkpt>
      <trkpt lat="45.42178" lon="4.65288">
        <ele>575.3</ele>
        <time>2017-03-14T22:21:22Z</time>
      </trkpt>
      <trkpt lat="45.42177" lon="4.65283">
        <ele>575.4</ele>
        <time>2017-03-14T22:21:23Z</time>
      </trkpt>
      <trkpt lat="45.42175" lon="4.65277">
        <ele>574.9</ele>
        <time>2017-03-14T22:21:25Z</time>
      </trkpt>
      <trkpt lat="45.42171" lon="4.6527">
        <ele>574.8</ele>
        <time>2017-03-14T22:21:27Z</time>
      </trkpt>
      <trkpt lat="45.42175" lon="4.65267">
        <ele>575.9</ele>
        <time>2017-03-14T22:21:28Z</time>
      </trkpt>
      <trkpt lat="45.42175" lon="4.65262">
        <ele>576.4</ele>
        <time>2017-03-14T22:21:29Z</time>
      </trkpt>
      <trkpt lat="45.42172" lon="4.65258">
        <ele>576.1</ele>
        <time>2017-03-14T22:21:30Z</time>
      </trkpt>
      <trkpt lat="45.42175" lon="4.65254">
        <ele>576.9</ele>
        <time>2017-03-14T22:21:31Z</time>
      </trkpt>
      <trkpt lat="45.42169" lon="4.65253">
        <ele>575.9</ele>
        <time>2017-03-14T22:21:32Z</time>
      </trkpt>
      <trkpt lat="45.42164" lon="4.65256">
        <ele>574.4</ele>
        <time>2017-03-14T22:21:33Z</time>
      </trkpt>
      <trkpt lat="45.42165" lon="4.6525">
        <ele>575.3</ele>
        <time>2017-03-14T22:21:34Z</time>
      </trkpt>
      <trkpt lat="45.42167" lon="4.65246">
        <ele>575.6</ele>
        <time>2017-03-14T22:21:35Z</time>
      </trkpt>
      <trkpt lat="45.42168" lon="4.6524">
        <ele>576.9</ele>
        <time>2017-03-14T22:21:37Z</time>
      </trkpt>
      <trkpt lat="45.42171" lon="4.6523">
        <ele>578.3</ele>
        <time>2017-03-14T22:21:39Z</time>
      </trkpt>
      <trkpt lat="45.42173" lon="4.65221">
        <ele>579.1</ele>
        <time>2017-03-14T22:21:40Z</time>
      </trkpt>
      <trkpt lat="45.42175" lon="4.65214">
        <ele>581</ele>
        <time>2017-03-14T22:21:41Z</time>
      </trkpt>
      <trkpt lat="45.42179" lon="4.65209">
        <ele>582.6</ele>
        <time>2017-03-14T22:21:42Z</time>
      </trkpt>
      <trkpt lat="45.4218" lon="4.65205">
        <ele>584.2</ele>
        <time>2017-03-14T22:21:43Z</time>
      </trkpt>
      <trkpt lat="45.42176" lon="4.65207">
        <ele>582.2</ele>
        <time>2017-03-14T22:21:44Z</time>
      </trkpt>
      <trkpt lat="45.42173" lon="4.65203">
        <ele>581.4</ele>
        <time>2017-03-14T22:21:46Z</time>
      </trkpt>
      <trkpt lat="45.42175" lon="4.65198">
        <ele>583.1</ele>
        <time>2017-03-14T22:21:48Z</time>
      </trkpt>
      <trkpt lat="45.42174" lon="4.6519">
        <ele>582.4</ele>
        <time>2017-03-14T22:21:50Z</time>
      </trkpt>
      <trkpt lat="45.4217" lon="4.6519">
        <ele>581.6</ele>
        <time>2017-03-14T22:21:52Z</time>
      </trkpt>
      <trkpt lat="45.4217" lon="4.65186">
        <ele>581.7</ele>
        <time>2017-03-14T22:21:53Z</time>
      </trkpt>
      <trkpt lat="45.4217" lon="4.65179">
        <ele>581.9</ele>
        <time>2017-03-14T22:21:55Z</time>
      </trkpt>
      <trkpt lat="45.4217" lon="4.65174">
        <ele>582.1</ele>
        <time>2017-03-14T22:21:56Z</time>
      </trkpt>
      <trkpt lat="45.4217" lon="4.65168">
        <ele>582.6</ele>
        <time>2017-03-14T22:21:57Z</time>
      </trkpt>
      <trkpt lat="45.42171" lon="4.65161">
        <ele>583.9</ele>
        <time>2017-03-14T22:21:59Z</time>
      </trkpt>
      <trkpt lat="45.42169" lon="4.65154">
        <ele>584.5</ele>
        <time>2017-03-14T22:22:01Z</time>
      </trkpt>
      <trkpt lat="45.42172" lon="4.65149">
        <ele>586</ele>
        <time>2017-03-14T22:22:02Z</time>
      </trkpt>
      <trkpt lat="45.42168" lon="4.65146">
        <ele>586</ele>
        <time>2017-03-14T22:22:05Z</time>
      </trkpt>
      <trkpt lat="45.4217" lon="4.65139">
        <ele>586.6</ele>
        <time>2017-03-14T22:22:07Z</time>
      </trkpt>
      <trkpt lat="45.42168" lon="4.65132">
        <ele>586.5</ele>
        <time>2017-03-14T22:22:09Z</time>
      </trkpt>
      <trkpt lat="45.42165" lon="4.65126">
        <ele>586.8</ele>
        <time>2017-03-14T22:22:11Z</time>
      </trkpt>
      <trkpt lat="45.42163" lon="4.65113">
        <ele>586.9</ele>
        <time>2017-03-14T22:22:13Z</time>
      </trkpt>
      <trkpt lat="45.42158" lon="4.65108">
        <ele>586</ele>
        <time>2017-03-14T22:22:14Z</time>
      </trkpt>
      <trkpt lat="45.42159" lon="4.65102">
        <ele>586.8</ele>
        <time>2017-03-14T22:22:16Z</time>
      </trkpt>
      <trkpt lat="45.42161" lon="4.65097">
        <ele>588.6</ele>
        <time>2017-03-14T22:22:17Z</time>
      </trkpt>
      <trkpt lat="45.42164" lon="4.65092">
        <ele>590.5</ele>
        <time>2017-03-14T22:22:18Z</time>
      </trkpt>
      <trkpt lat="45.42163" lon="4.65088">
        <ele>591.4</ele>
        <time>2017-03-14T22:22:20Z</time>
      </trkpt>
      <trkpt lat="45.4216" lon="4.65085">
        <ele>591.1</ele>
        <time>2017-03-14T22:22:22Z</time>
      </trkpt>
      <trkpt lat="45.42157" lon="4.65079">
        <ele>590.7</ele>
        <time>2017-03-14T22:22:25Z</time>
      </trkpt>
      <trkpt lat="45.42158" lon="4.65072">
        <ele>592</ele>
        <time>2017-03-14T22:22:27Z</time>
      </trkpt>
      <trkpt lat="45.4216" lon="4.65067">
        <ele>593.5</ele>
        <time>2017-03-14T22:22:29Z</time>
      </trkpt>
      <trkpt lat="45.42158" lon="4.65062">
        <ele>593.1</ele>
        <time>2017-03-14T22:22:31Z</time>
      </trkpt>
      <trkpt lat="45.42157" lon="4.65057">
        <ele>593.5</ele>
        <time>2017-03-14T22:22:33Z</time>
      </trkpt>
      <trkpt lat="45.4216" lon="4.65053">
        <ele>594.8</ele>
        <time>2017-03-14T22:22:34Z</time>
      </trkpt>
      <trkpt lat="45.42161" lon="4.65049">
        <ele>595.3</ele>
        <time>2017-03-14T22:22:35Z</time>
      </trkpt>
      <trkpt lat="45.42164" lon="4.65041">
        <ele>597.1</ele>
        <time>2017-03-14T22:22:36Z</time>
      </trkpt>
      <trkpt lat="45.42166" lon="4.65035">
        <ele>598.9</ele>
        <time>2017-03-14T22:22:38Z</time>
      </trkpt>
      <trkpt lat="45.42169" lon="4.65033">
        <ele>599.8</ele>
        <time>2017-03-14T22:22:39Z</time>
      </trkpt>
      <trkpt lat="45.42172" lon="4.65029">
        <ele>601.2</ele>
        <time>2017-03-14T22:22:40Z</time>
      </trkpt>
      <trkpt lat="45.42171" lon="4.65026">
        <ele>601.6</ele>
        <time>2017-03-14T22:22:41Z</time>
      </trkpt>
      <trkpt lat="45.42167" lon="4.65024">
        <ele>599.8</ele>
        <time>2017-03-14T22:22:42Z</time>
      </trkpt>
      <trkpt lat="45.42164" lon="4.65021">
        <ele>599.4</ele>
        <time>2017-03-14T22:22:45Z</time>
      </trkpt>
      <trkpt lat="45.42166" lon="4.65015">
        <ele>600.7</ele>
        <time>2017-03-14T22:22:46Z</time>
      </trkpt>
      <trkpt lat="45.42162" lon="4.65016">
        <ele>599.9</ele>
        <time>2017-03-14T22:22:47Z</time>
      </trkpt>
      <trkpt lat="45.4216" lon="4.6501">
        <ele>599.6</ele>
        <time>2017-03-14T22:22:49Z</time>
      </trkpt>
      <trkpt lat="45.42161" lon="4.65006">
        <ele>600.1</ele>
        <time>2017-03-14T22:22:50Z</time>
      </trkpt>
      <trkpt lat="45.42162" lon="4.65001">
        <ele>600.7</ele>
        <time>2017-03-14T22:22:51Z</time>
      </trkpt>
      <trkpt lat="45.42162" lon="4.64997">
        <ele>601.1</ele>
        <time>2017-03-14T22:22:52Z</time>
      </trkpt>
      <trkpt lat="45.42161" lon="4.64992">
        <ele>602.3</ele>
        <time>2017-03-14T22:22:53Z</time>
      </trkpt>
      <trkpt lat="45.42159" lon="4.64982">
        <ele>602.6</ele>
        <time>2017-03-14T22:22:55Z</time>
      </trkpt>
      <trkpt lat="45.42161" lon="4.64979">
        <ele>604.2</ele>
        <time>2017-03-14T22:22:56Z</time>
      </trkpt>
      <trkpt lat="45.4216" lon="4.64973">
        <ele>604.7</ele>
        <time>2017-03-14T22:22:59Z</time>
      </trkpt>
      <trkpt lat="45.42157" lon="4.6497">
        <ele>604.2</ele>
        <time>2017-03-14T22:23:00Z</time>
      </trkpt>
      <trkpt lat="45.42156" lon="4.64966">
        <ele>603.7</ele>
        <time>2017-03-14T22:23:02Z</time>
      </trkpt>
      <trkpt lat="45.42156" lon="4.64961">
        <ele>604.2</ele>
        <time>2017-03-14T22:23:04Z</time>
      </trkpt>
      <trkpt lat="45.42157" lon="4.64956">
        <ele>605.8</ele>
        <time>2017-03-14T22:23:06Z</time>
      </trkpt>
      <trkpt lat="45.42157" lon="4.6495">
        <ele>606.3</ele>
        <time>2017-03-14T22:23:08Z</time>
      </trkpt>
      <trkpt lat="45.42157" lon="4.64944">
        <ele>607</ele>
        <time>2017-03-14T22:23:11Z</time>
      </trkpt>
      <trkpt lat="45.42155" lon="4.64942">
        <ele>605.9</ele>
        <time>2017-03-14T22:23:12Z</time>
      </trkpt>
      <trkpt lat="45.42155" lon="4.64938">
        <ele>606.2</ele>
        <time>2017-03-14T22:23:13Z</time>
      </trkpt>
      <trkpt lat="45.42152" lon="4.64935">
        <ele>605.4</ele>
        <time>2017-03-14T22:23:14Z</time>
      </trkpt>
      <trkpt lat="45.42152" lon="4.64927">
        <ele>606.2</ele>
        <time>2017-03-14T22:23:16Z</time>
      </trkpt>
      <trkpt lat="45.42155" lon="4.64921">
        <ele>607.6</ele>
        <time>2017-03-14T22:23:19Z</time>
      </trkpt>
      <trkpt lat="45.42154" lon="4.64917">
        <ele>607.9</ele>
        <time>2017-03-14T22:23:20Z</time>
      </trkpt>
      <trkpt lat="45.42153" lon="4.64913">
        <ele>608</ele>
        <time>2017-03-14T22:23:22Z</time>
      </trkpt>
      <trkpt lat="45.42152" lon="4.64906">
        <ele>607.2</ele>
        <time>2017-03-14T22:23:24Z</time>
      </trkpt>
      <trkpt lat="45.42158" lon="4.64895">
        <ele>610.3</ele>
        <time>2017-03-14T22:23:25Z</time>
      </trkpt>
      <trkpt lat="45.42153" lon="4.64894">
        <ele>609</ele>
        <time>2017-03-14T22:23:26Z</time>
      </trkpt>
      <trkpt lat="45.42149" lon="4.64894">
        <ele>606.4</ele>
        <time>2017-03-14T22:23:28Z</time>
      </trkpt>
      <trkpt lat="45.42152" lon="4.64887">
        <ele>608.3</ele>
        <time>2017-03-14T22:23:29Z</time>
      </trkpt>
      <trkpt lat="45.42148" lon="4.64884">
        <ele>607.3</ele>
        <time>2017-03-14T22:23:31Z</time>
      </trkpt>
      <trkpt lat="45.4215" lon="4.64876">
        <ele>607.8</ele>
        <time>2017-03-14T22:23:32Z</time>
      </trkpt>
      <trkpt lat="45.42151" lon="4.6487">
        <ele>610.1</ele>
        <time>2017-03-14T22:23:35Z</time>
      </trkpt>
      <trkpt lat="45.42148" lon="4.64868">
        <ele>608.9</ele>
        <time>2017-03-14T22:23:37Z</time>
      </trkpt>
      <trkpt lat="45.42147" lon="4.64864">
        <ele>609.4</ele>
        <time>2017-03-14T22:23:39Z</time>
      </trkpt>
      <trkpt lat="45.42148" lon="4.64859">
        <ele>609.8</ele>
        <time>2017-03-14T22:23:40Z</time>
      </trkpt>
      <trkpt lat="45.4215" lon="4.64852">
        <ele>611.6</ele>
        <time>2017-03-14T22:23:41Z</time>
      </trkpt>
      <trkpt lat="45.42155" lon="4.64846">
        <ele>613.3</ele>
        <time>2017-03-14T22:23:43Z</time>
      </trkpt>
      <trkpt lat="45.42151" lon="4.64839">
        <ele>612.4</ele>
        <time>2017-03-14T22:23:44Z</time>
      </trkpt>
      <trkpt lat="45.42151" lon="4.64832">
        <ele>612.9</ele>
        <time>2017-03-14T22:23:46Z</time>
      </trkpt>
      <trkpt lat="45.42152" lon="4.64825">
        <ele>613.5</ele>
        <time>2017-03-14T22:23:48Z</time>
      </trkpt>
      <trkpt lat="45.4215" lon="4.64818">
        <ele>614</ele>
        <time>2017-03-14T22:23:49Z</time>
      </trkpt>
      <trkpt lat="45.42147" lon="4.64814">
        <ele>613.4</ele>
        <time>2017-03-14T22:23:50Z</time>
      </trkpt>
      <trkpt lat="45.42149" lon="4.64811">
        <ele>613.8</ele>
        <time>2017-03-14T22:23:51Z</time>
      </trkpt>
      <trkpt lat="45.42151" lon="4.648">
        <ele>615.8</ele>
        <time>2017-03-14T22:23:53Z</time>
      </trkpt>
      <trkpt lat="45.42152" lon="4.64796">
        <ele>616.3</ele>
        <time>2017-03-14T22:23:54Z</time>
      </trkpt>
      <trkpt lat="45.4215" lon="4.64793">
        <ele>616.8</ele>
        <time>2017-03-14T22:23:56Z</time>
      </trkpt>
      <trkpt lat="45.42149" lon="4.64787">
        <ele>616.4</ele>
        <time>2017-03-14T22:23:58Z</time>
      </trkpt>
      <trkpt lat="45.42149" lon="4.64781">
        <ele>617.2</ele>
        <time>2017-03-14T22:24:00Z</time>
      </trkpt>
      <trkpt lat="45.42151" lon="4.64777">
        <ele>618.5</ele>
        <time>2017-03-14T22:24:01Z</time>
      </trkpt>
      <trkpt lat="45.42151" lon="4.64771">
        <ele>618.8</ele>
        <time>2017-03-14T22:24:03Z</time>
      </trkpt>
      <trkpt lat="45.42152" lon="4.64768">
        <ele>619.1</ele>
        <time>2017-03-14T22:24:04Z</time>
      </trkpt>
      <trkpt lat="45.42153" lon="4.64762">
        <ele>620.5</ele>
        <time>2017-03-14T22:24:06Z</time>
      </trkpt>
      <trkpt lat="45.42152" lon="4.64759">
        <ele>619.6</ele>
        <time>2017-03-14T22:24:08Z</time>
      </trkpt>
      <trkpt lat="45.42153" lon="4.64751">
        <ele>620</ele>
        <time>2017-03-14T22:24:10Z</time>
      </trkpt>
      <trkpt lat="45.42153" lon="4.64746">
        <ele>621.4</ele>
        <time>2017-03-14T22:24:11Z</time>
      </trkpt>
      <trkpt lat="45.42153" lon="4.64742">
        <ele>620.5</ele>
        <time>2017-03-14T22:24:12Z</time>
      </trkpt>
      <trkpt lat="45.42155" lon="4.6474">
        <ele>621.8</ele>
        <time>2017-03-14T22:24:13Z</time>
      </trkpt>
      <trkpt lat="45.42158" lon="4.64735">
        <ele>623.4</ele>
        <time>2017-03-14T22:24:14Z</time>
      </trkpt>
      <trkpt lat="45.4216" lon="4.64732">
        <ele>625</ele>
        <time>2017-03-14T22:24:15Z</time>
      </trkpt>
      <trkpt lat="45.4216" lon="4.64727">
        <ele>625.4</ele>
        <time>2017-03-14T22:24:17Z</time>
      </trkpt>
      <trkpt lat="45.4216" lon="4.64723">
        <ele>625.8</ele>
        <time>2017-03-14T22:24:18Z</time>
      </trkpt>
      <trkpt lat="45.42161" lon="4.64716">
        <ele>626.3</ele>
        <time>2017-03-14T22:24:19Z</time>
      </trkpt>
      <trkpt lat="45.42163" lon="4.64712">
        <ele>627.8</ele>
        <time>2017-03-14T22:24:20Z</time>
      </trkpt>
      <trkpt lat="45.42164" lon="4.64708">
        <ele>628.2</ele>
        <time>2017-03-14T22:24:21Z</time>
      </trkpt>
      <trkpt lat="45.42161" lon="4.64705">
        <ele>627.1</ele>
        <time>2017-03-14T22:24:22Z</time>
      </trkpt>
      <trkpt lat="45.42159" lon="4.647">
        <ele>627.9</ele>
        <time>2017-03-14T22:24:24Z</time>
      </trkpt>
      <trkpt lat="45.4216" lon="4.64694">
        <ele>628.3</ele>
        <time>2017-03-14T22:24:26Z</time>
      </trkpt>
      <trkpt lat="45.42157" lon="4.64692">
        <ele>627.7</ele>
        <time>2017-03-14T22:24:27Z</time>
      </trkpt>
      <trkpt lat="45.42157" lon="4.64687">
        <ele>628.2</ele>
        <time>2017-03-14T22:24:28Z</time>
      </trkpt>
      <trkpt lat="45.42157" lon="4.64678">
        <ele>629.4</ele>
        <time>2017-03-14T22:24:30Z</time>
      </trkpt>
      <trkpt lat="45.42159" lon="4.64674">
        <ele>630.9</ele>
        <time>2017-03-14T22:24:31Z</time>
      </trkpt>
      <trkpt lat="45.4216" lon="4.6467">
        <ele>631.5</ele>
        <time>2017-03-14T22:24:32Z</time>
      </trkpt>
      <trkpt lat="45.42158" lon="4.64665">
        <ele>631.1</ele>
        <time>2017-03-14T22:24:34Z</time>
      </trkpt>
      <trkpt lat="45.42153" lon="4.64663">
        <ele>629.2</ele>
        <time>2017-03-14T22:24:36Z</time>
      </trkpt>
      <trkpt lat="45.42154" lon="4.64659">
        <ele>630.7</ele>
        <time>2017-03-14T22:24:39Z</time>
      </trkpt>
      <trkpt lat="45.42152" lon="4.64655">
        <ele>630.1</ele>
        <time>2017-03-14T22:24:41Z</time>
      </trkpt>
      <trkpt lat="45.42152" lon="4.6465">
        <ele>630.5</ele>
        <time>2017-03-14T22:24:42Z</time>
      </trkpt>
      <trkpt lat="45.42153" lon="4.64643">
        <ele>632.7</ele>
        <time>2017-03-14T22:24:43Z</time>
      </trkpt>
      <trkpt lat="45.42156" lon="4.64636">
        <ele>634.4</ele>
        <time>2017-03-14T22:24:45Z</time>
      </trkpt>
      <trkpt lat="45.42157" lon="4.64632">
        <ele>634.8</ele>
        <time>2017-03-14T22:24:46Z</time>
      </trkpt>
      <trkpt lat="45.42154" lon="4.64627">
        <ele>634.8</ele>
        <time>2017-03-14T22:24:48Z</time>
      </trkpt>
      <trkpt lat="45.42157" lon="4.64621">
        <ele>636.4</ele>
        <time>2017-03-14T22:24:49Z</time>
      </trkpt>
      <trkpt lat="45.42159" lon="4.64615">
        <ele>637.8</ele>
        <time>2017-03-14T22:24:51Z</time>
      </trkpt>
      <trkpt lat="45.42156" lon="4.64611">
        <ele>636.5</ele>
        <time>2017-03-14T22:24:52Z</time>
      </trkpt>
      <trkpt lat="45.42154" lon="4.64607">
        <ele>637</ele>
        <time>2017-03-14T22:24:54Z</time>
      </trkpt>
      <trkpt lat="45.42156" lon="4.646">
        <ele>638</ele>
        <time>2017-03-14T22:24:56Z</time>
      </trkpt>
      <trkpt lat="45.42158" lon="4.64597">
        <ele>639.1</ele>
        <time>2017-03-14T22:24:57Z</time>
      </trkpt>
      <trkpt lat="45.4216" lon="4.64591">
        <ele>640.1</ele>
        <time>2017-03-14T22:25:00Z</time>
      </trkpt>
      <trkpt lat="45.4216" lon="4.64586">
        <ele>640.5</ele>
        <time>2017-03-14T22:25:02Z</time>
      </trkpt>
      <trkpt lat="45.42158" lon="4.64589">
        <ele>639.6</ele>
        <time>2017-03-14T22:25:03Z</time>
      </trkpt>
      <trkpt lat="45.42158" lon="4.64585">
        <ele>640</ele>
        <time>2017-03-14T22:25:05Z</time>
      </trkpt>
      <trkpt lat="45.42162" lon="4.64581">
        <ele>641.4</ele>
        <time>2017-03-14T22:25:07Z</time>
      </trkpt>
      <trkpt lat="45.42164" lon="4.64575">
        <ele>642.2</ele>
        <time>2017-03-14T22:25:10Z</time>
      </trkpt>
      <trkpt lat="45.42166" lon="4.64572">
        <ele>642.8</ele>
        <time>2017-03-14T22:25:11Z</time>
      </trkpt>
      <trkpt lat="45.42164" lon="4.6457">
        <ele>642.7</ele>
        <time>2017-03-14T22:25:12Z</time>
      </trkpt>
      <trkpt lat="45.42168" lon="4.64562">
        <ele>643.8</ele>
        <time>2017-03-14T22:25:13Z</time>
      </trkpt>
      <trkpt lat="45.42169" lon="4.64555">
        <ele>644.5</ele>
        <time>2017-03-14T22:25:15Z</time>
      </trkpt>
      <trkpt lat="45.42171" lon="4.64549">
        <ele>645.1</ele>
        <time>2017-03-14T22:25:17Z</time>
      </trkpt>
      <trkpt lat="45.42173" lon="4.64544">
        <ele>645.1</ele>
        <time>2017-03-14T22:25:18Z</time>
      </trkpt>
      <trkpt lat="45.4217" lon="4.6454">
        <ele>644.2</ele>
        <time>2017-03-14T22:25:21Z</time>
      </trkpt>
      <trkpt lat="45.42171" lon="4.64533">
        <ele>644.1</ele>
        <time>2017-03-14T22:25:22Z</time>
      </trkpt>
      <trkpt lat="45.42172" lon="4.64529">
        <ele>644.7</ele>
        <time>2017-03-14T22:25:24Z</time>
      </trkpt>
      <trkpt lat="45.42172" lon="4.64524">
        <ele>644.5</ele>
        <time>2017-03-14T22:25:27Z</time>
      </trkpt>
      <trkpt lat="45.42173" lon="4.64519">
        <ele>644.5</ele>
        <time>2017-03-14T22:25:28Z</time>
      </trkpt>
      <trkpt lat="45.42174" lon="4.64513">
        <ele>645.4</ele>
        <time>2017-03-14T22:25:30Z</time>
      </trkpt>
      <trkpt lat="45.42176" lon="4.64506">
        <ele>645.2</ele>
        <time>2017-03-14T22:25:32Z</time>
      </trkpt>
      <trkpt lat="45.42178" lon="4.64503">
        <ele>646.1</ele>
        <time>2017-03-14T22:25:33Z</time>
      </trkpt>
      <trkpt lat="45.42178" lon="4.64498">
        <ele>645.9</ele>
        <time>2017-03-14T22:25:35Z</time>
      </trkpt>
      <trkpt lat="45.4218" lon="4.64495">
        <ele>647</ele>
        <time>2017-03-14T22:25:36Z</time>
      </trkpt>
      <trkpt lat="45.42183" lon="4.6449">
        <ele>646.8</ele>
        <time>2017-03-14T22:25:37Z</time>
      </trkpt>
      <trkpt lat="45.42184" lon="4.64486">
        <ele>647.7</ele>
        <time>2017-03-14T22:25:39Z</time>
      </trkpt>
      <trkpt lat="45.42187" lon="4.64479">
        <ele>648.3</ele>
        <time>2017-03-14T22:25:41Z</time>
      </trkpt>
      <trkpt lat="45.42188" lon="4.6447">
        <ele>647.8</ele>
        <time>2017-03-14T22:25:43Z</time>
      </trkpt>
      <trkpt lat="45.42191" lon="4.64464">
        <ele>648.8</ele>
        <time>2017-03-14T22:25:44Z</time>
      </trkpt>
      <trkpt lat="45.42193" lon="4.64461">
        <ele>649.5</ele>
        <time>2017-03-14T22:25:45Z</time>
      </trkpt>
      <trkpt lat="45.42194" lon="4.64457">
        <ele>649.2</ele>
        <time>2017-03-14T22:25:48Z</time>
      </trkpt>
      <trkpt lat="45.42196" lon="4.64453">
        <ele>649.9</ele>
        <time>2017-03-14T22:25:50Z</time>
      </trkpt>
      <trkpt lat="45.42198" lon="4.6445">
        <ele>650.7</ele>
        <time>2017-03-14T22:25:51Z</time>
      </trkpt>
      <trkpt lat="45.42201" lon="4.64446">
        <ele>651.5</ele>
        <time>2017-03-14T22:25:52Z</time>
      </trkpt>
      <trkpt lat="45.42205" lon="4.64441">
        <ele>652.5</ele>
        <time>2017-03-14T22:25:57Z</time>
      </trkpt>
      <trkpt lat="45.42207" lon="4.64437">
        <ele>652.1</ele>
        <time>2017-03-14T22:25:58Z</time>
      </trkpt>
      <trkpt lat="45.42209" lon="4.64428">
        <ele>652.5</ele>
        <time>2017-03-14T22:26:00Z</time>
      </trkpt>
      <trkpt lat="45.42209" lon="4.64421">
        <ele>651.4</ele>
        <time>2017-03-14T22:26:02Z</time>
      </trkpt>
      <trkpt lat="45.42209" lon="4.64416">
        <ele>650.9</ele>
        <time>2017-03-14T22:26:03Z</time>
      </trkpt>
      <trkpt lat="45.42209" lon="4.64411">
        <ele>650.3</ele>
        <time>2017-03-14T22:26:04Z</time>
      </trkpt>
      <trkpt lat="45.4221" lon="4.64407">
        <ele>651.1</ele>
        <time>2017-03-14T22:26:05Z</time>
      </trkpt>
      <trkpt lat="45.42211" lon="4.64402">
        <ele>650.5</ele>
        <time>2017-03-14T22:26:06Z</time>
      </trkpt>
      <trkpt lat="45.42214" lon="4.64395">
        <ele>650.9</ele>
        <time>2017-03-14T22:26:07Z</time>
      </trkpt>
      <trkpt lat="45.42217" lon="4.64387">
        <ele>651.9</ele>
        <time>2017-03-14T22:26:08Z</time>
      </trkpt>
      <trkpt lat="45.42218" lon="4.64383">
        <ele>651.5</ele>
        <time>2017-03-14T22:26:09Z</time>
      </trkpt>
      <trkpt lat="45.42219" lon="4.64377">
        <ele>650.9</ele>
        <time>2017-03-14T22:26:10Z</time>
      </trkpt>
      <trkpt lat="45.4222" lon="4.64372">
        <ele>651.8</ele>
        <time>2017-03-14T22:26:11Z</time>
      </trkpt>
      <trkpt lat="45.42221" lon="4.64365">
        <ele>651.3</ele>
        <time>2017-03-14T22:26:12Z</time>
      </trkpt>
      <trkpt lat="45.42222" lon="4.64359">
        <ele>652.4</ele>
        <time>2017-03-14T22:26:13Z</time>
      </trkpt>
      <trkpt lat="45.42222" lon="4.64354">
        <ele>651.1</ele>
        <time>2017-03-14T22:26:14Z</time>
      </trkpt>
      <trkpt lat="45.42223" lon="4.64349">
        <ele>652.1</ele>
        <time>2017-03-14T22:26:15Z</time>
      </trkpt>
      <trkpt lat="45.42222" lon="4.64345">
        <ele>652</ele>
        <time>2017-03-14T22:26:16Z</time>
      </trkpt>
      <trkpt lat="45.42224" lon="4.64335">
        <ele>651.6</ele>
        <time>2017-03-14T22:26:18Z</time>
      </trkpt>
      <trkpt lat="45.42226" lon="4.64329">
        <ele>652.9</ele>
        <time>2017-03-14T22:26:19Z</time>
      </trkpt>
      <trkpt lat="45.42227" lon="4.64325">
        <ele>652.7</ele>
        <time>2017-03-14T22:26:20Z</time>
      </trkpt>
      <trkpt lat="45.42225" lon="4.64322">
        <ele>651</ele>
        <time>2017-03-14T22:26:21Z</time>
      </trkpt>
      <trkpt lat="45.42224" lon="4.64318">
        <ele>651</ele>
        <time>2017-03-14T22:26:22Z</time>
      </trkpt>
      <trkpt lat="45.42224" lon="4.64313">
        <ele>650.3</ele>
        <time>2017-03-14T22:26:23Z</time>
      </trkpt>
      <trkpt lat="45.42225" lon="4.64307">
        <ele>649.9</ele>
        <time>2017-03-14T22:26:24Z</time>
      </trkpt>
      <trkpt lat="45.42226" lon="4.64304">
        <ele>651</ele>
        <time>2017-03-14T22:26:25Z</time>
      </trkpt>
      <trkpt lat="45.42226" lon="4.64299">
        <ele>650.6</ele>
        <time>2017-03-14T22:26:27Z</time>
      </trkpt>
      <trkpt lat="45.42229" lon="4.64296">
        <ele>651.7</ele>
        <time>2017-03-14T22:26:32Z</time>
      </trkpt>
      <trkpt lat="45.42226" lon="4.64288">
        <ele>649.2</ele>
        <time>2017-03-14T22:26:37Z</time>
      </trkpt>
      <trkpt lat="45.42224" lon="4.6428">
        <ele>647.3</ele>
        <time>2017-03-14T22:26:39Z</time>
      </trkpt>
      <trkpt lat="45.42222" lon="4.64277">
        <ele>645.5</ele>
        <time>2017-03-14T22:26:40Z</time>
      </trkpt>
      <trkpt lat="45.42221" lon="4.64273">
        <ele>645.2</ele>
        <time>2017-03-14T22:26:41Z</time>
      </trkpt>
      <trkpt lat="45.4222" lon="4.64268">
        <ele>644.8</ele>
        <time>2017-03-14T22:26:42Z</time>
      </trkpt>
      <trkpt lat="45.4222" lon="4.64264">
        <ele>644.5</ele>
        <time>2017-03-14T22:26:43Z</time>
      </trkpt>
      <trkpt lat="45.42222" lon="4.64255">
        <ele>643.9</ele>
        <time>2017-03-14T22:26:44Z</time>
      </trkpt>
      <trkpt lat="45.4222" lon="4.64252">
        <ele>643.8</ele>
        <time>2017-03-14T22:26:45Z</time>
      </trkpt>
      <trkpt lat="45.42222" lon="4.64247">
        <ele>643.8</ele>
        <time>2017-03-14T22:26:46Z</time>
      </trkpt>
      <trkpt lat="45.42223" lon="4.64241">
        <ele>645</ele>
        <time>2017-03-14T22:26:47Z</time>
      </trkpt>
      <trkpt lat="45.42223" lon="4.64236">
        <ele>645.1</ele>
        <time>2017-03-14T22:26:48Z</time>
      </trkpt>
      <trkpt lat="45.42222" lon="4.64232">
        <ele>643.9</ele>
        <time>2017-03-14T22:26:49Z</time>
      </trkpt>
      <trkpt lat="45.42221" lon="4.64228">
        <ele>643.9</ele>
        <time>2017-03-14T22:26:50Z</time>
      </trkpt>
      <trkpt lat="45.42222" lon="4.64221">
        <ele>643.9</ele>
        <time>2017-03-14T22:26:51Z</time>
      </trkpt>
      <trkpt lat="45.42221" lon="4.64217">
        <ele>643.8</ele>
        <time>2017-03-14T22:26:52Z</time>
      </trkpt>
      <trkpt lat="45.42221" lon="4.64211">
        <ele>643.7</ele>
        <time>2017-03-14T22:26:53Z</time>
      </trkpt>
      <trkpt lat="45.42221" lon="4.64207">
        <ele>643.5</ele>
        <time>2017-03-14T22:26:54Z</time>
      </trkpt>
      <trkpt lat="45.42222" lon="4.642">
        <ele>644.3</ele>
        <time>2017-03-14T22:26:55Z</time>
      </trkpt>
      <trkpt lat="45.42221" lon="4.64196">
        <ele>643.1</ele>
        <time>2017-03-14T22:26:56Z</time>
      </trkpt>
      <trkpt lat="45.42221" lon="4.64191">
        <ele>643.1</ele>
        <time>2017-03-14T22:26:57Z</time>
      </trkpt>
      <trkpt lat="45.42221" lon="4.64182">
        <ele>643.5</ele>
        <time>2017-03-14T22:26:59Z</time>
      </trkpt>
      <trkpt lat="45.42223" lon="4.64174">
        <ele>645.1</ele>
        <time>2017-03-14T22:27:00Z</time>
      </trkpt>
      <trkpt lat="45.42221" lon="4.64169">
        <ele>644.1</ele>
        <time>2017-03-14T22:27:01Z</time>
      </trkpt>
      <trkpt lat="45.42218" lon="4.64164">
        <ele>642.9</ele>
        <time>2017-03-14T22:27:02Z</time>
      </trkpt>
      <trkpt lat="45.42216" lon="4.64161">
        <ele>641.5</ele>
        <time>2017-03-14T22:27:04Z</time>
      </trkpt>
      <trkpt lat="45.42213" lon="4.64152">
        <ele>641.7</ele>
        <time>2017-03-14T22:27:06Z</time>
      </trkpt>
      <trkpt lat="45.42214" lon="4.64143">
        <ele>642</ele>
        <time>2017-03-14T22:27:07Z</time>
      </trkpt>
      <trkpt lat="45.4221" lon="4.64143">
        <ele>639.8</ele>
        <time>2017-03-14T22:27:09Z</time>
      </trkpt>
      <trkpt lat="45.42203" lon="4.64137">
        <ele>638.3</ele>
        <time>2017-03-14T22:27:11Z</time>
      </trkpt>
      <trkpt lat="45.42202" lon="4.64127">
        <ele>638.4</ele>
        <time>2017-03-14T22:27:13Z</time>
      </trkpt>
      <trkpt lat="45.422" lon="4.64118">
        <ele>637.4</ele>
        <time>2017-03-14T22:27:14Z</time>
      </trkpt>
      <trkpt lat="45.42195" lon="4.64119">
        <ele>635.7</ele>
        <time>2017-03-14T22:27:15Z</time>
      </trkpt>
      <trkpt lat="45.42195" lon="4.6411">
        <ele>635.9</ele>
        <time>2017-03-14T22:27:17Z</time>
      </trkpt>
      <trkpt lat="45.42194" lon="4.64103">
        <ele>636.8</ele>
        <time>2017-03-14T22:27:19Z</time>
      </trkpt>
      <trkpt lat="45.42193" lon="4.64098">
        <ele>637.4</ele>
        <time>2017-03-14T22:27:20Z</time>
      </trkpt>
      <trkpt lat="45.42189" lon="4.64093">
        <ele>636.8</ele>
        <time>2017-03-14T22:27:22Z</time>
      </trkpt>
      <trkpt lat="45.42185" lon="4.64087">
        <ele>636.7</ele>
        <time>2017-03-14T22:27:24Z</time>
      </trkpt>
      <trkpt lat="45.42183" lon="4.64083">
        <ele>636.5</ele>
        <time>2017-03-14T22:27:25Z</time>
      </trkpt>
      <trkpt lat="45.42179" lon="4.6408">
        <ele>636.3</ele>
        <time>2017-03-14T22:27:26Z</time>
      </trkpt>
      <trkpt lat="45.42176" lon="4.64075">
        <ele>636.3</ele>
        <time>2017-03-14T22:27:27Z</time>
      </trkpt>
      <trkpt lat="45.42176" lon="4.64071">
        <ele>636.5</ele>
        <time>2017-03-14T22:27:28Z</time>
      </trkpt>
      <trkpt lat="45.42176" lon="4.64066">
        <ele>636.6</ele>
        <time>2017-03-14T22:27:30Z</time>
      </trkpt>
      <trkpt lat="45.42172" lon="4.64061">
        <ele>637</ele>
        <time>2017-03-14T22:27:32Z</time>
      </trkpt>
      <trkpt lat="45.42168" lon="4.64057">
        <ele>637.2</ele>
        <time>2017-03-14T22:27:33Z</time>
      </trkpt>
      <trkpt lat="45.42166" lon="4.64052">
        <ele>637.3</ele>
        <time>2017-03-14T22:27:34Z</time>
      </trkpt>
      <trkpt lat="45.42165" lon="4.64043">
        <ele>637.1</ele>
        <time>2017-03-14T22:27:36Z</time>
      </trkpt>
      <trkpt lat="45.42129" lon="4.6412">
        <ele>642.9</ele>
        <time>2017-03-14T22:28:09Z</time>
      </trkpt>
      <trkpt lat="45.42122" lon="4.64129">
        <ele>643.7</ele>
        <time>2017-03-14T22:28:10Z</time>
      </trkpt>
      <trkpt lat="45.42121" lon="4.64133">
        <ele>643.1</ele>
        <time>2017-03-14T22:28:11Z</time>
      </trkpt>
      <trkpt lat="45.42119" lon="4.64136">
        <ele>643</ele>
        <time>2017-03-14T22:28:14Z</time>
      </trkpt>
      <trkpt lat="45.42118" lon="4.64141">
        <ele>642.4</ele>
        <time>2017-03-14T22:28:17Z</time>
      </trkpt>
      <trkpt lat="45.42116" lon="4.64144">
        <ele>642.2</ele>
        <time>2017-03-14T22:28:19Z</time>
      </trkpt>
      <trkpt lat="45.42113" lon="4.64146">
        <ele>642.6</ele>
        <time>2017-03-14T22:28:22Z</time>
      </trkpt>
      <trkpt lat="45.42109" lon="4.64146">
        <ele>643</ele>
        <time>2017-03-14T22:28:23Z</time>
      </trkpt>
      <trkpt lat="45.42105" lon="4.64145">
        <ele>643.4</ele>
        <time>2017-03-14T22:28:25Z</time>
      </trkpt>
      <trkpt lat="45.42103" lon="4.64143">
        <ele>643.8</ele>
        <time>2017-03-14T22:28:27Z</time>
      </trkpt>
      <trkpt lat="45.421" lon="4.6414">
        <ele>644.9</ele>
        <time>2017-03-14T22:28:29Z</time>
      </trkpt>
      <trkpt lat="45.42096" lon="4.64135">
        <ele>646</ele>
        <time>2017-03-14T22:28:32Z</time>
      </trkpt>
      <trkpt lat="45.42093" lon="4.64132">
        <ele>647.2</ele>
        <time>2017-03-14T22:28:34Z</time>
      </trkpt>
      <trkpt lat="45.42089" lon="4.64126">
        <ele>648.9</ele>
        <time>2017-03-14T22:28:38Z</time>
      </trkpt>
      <trkpt lat="45.42088" lon="4.64121">
        <ele>649.6</ele>
        <time>2017-03-14T22:28:41Z</time>
      </trkpt>
      <trkpt lat="45.42088" lon="4.64117">
        <ele>650.3</ele>
        <time>2017-03-14T22:28:44Z</time>
      </trkpt>
      <trkpt lat="45.42085" lon="4.64115">
        <ele>651.3</ele>
        <time>2017-03-14T22:28:45Z</time>
      </trkpt>
      <trkpt lat="45.42083" lon="4.64112">
        <ele>652.1</ele>
        <time>2017-03-14T22:28:48Z</time>
      </trkpt>
      <trkpt lat="45.4208" lon="4.64111">
        <ele>652.5</ele>
        <time>2017-03-14T22:28:49Z</time>
      </trkpt>
      <trkpt lat="45.42081" lon="4.64105">
        <ele>652.6</ele>
        <time>2017-03-14T22:28:53Z</time>
      </trkpt>
      <trkpt lat="45.42078" lon="4.64103">
        <ele>653.6</ele>
        <time>2017-03-14T22:28:56Z</time>
      </trkpt>
      <trkpt lat="45.42076" lon="4.641">
        <ele>654.1</ele>
        <time>2017-03-14T22:28:58Z</time>
      </trkpt>
      <trkpt lat="45.42071" lon="4.64097">
        <ele>655.7</ele>
        <time>2017-03-14T22:29:00Z</time>
      </trkpt>
      <trkpt lat="45.42068" lon="4.64094">
        <ele>657</ele>
        <time>2017-03-14T22:29:02Z</time>
      </trkpt>
      <trkpt lat="45.42065" lon="4.64092">
        <ele>657.5</ele>
        <time>2017-03-14T22:29:06Z</time>
      </trkpt>
      <trkpt lat="45.42063" lon="4.64087">
        <ele>658.1</ele>
        <time>2017-03-14T22:29:09Z</time>
      </trkpt>
      <trkpt lat="45.42064" lon="4.64084">
        <ele>658.7</ele>
        <time>2017-03-14T22:29:11Z</time>
      </trkpt>
      <trkpt lat="45.42064" lon="4.6408">
        <ele>659.1</ele>
        <time>2017-03-14T22:29:13Z</time>
      </trkpt>
      <trkpt lat="45.42065" lon="4.64076">
        <ele>659.6</ele>
        <time>2017-03-14T22:29:17Z</time>
      </trkpt>
      <trkpt lat="45.42062" lon="4.64072">
        <ele>660.8</ele>
        <time>2017-03-14T22:29:20Z</time>
      </trkpt>
      <trkpt lat="45.42062" lon="4.64068">
        <ele>661.4</ele>
        <time>2017-03-14T22:29:23Z</time>
      </trkpt>
      <trkpt lat="45.42061" lon="4.64062">
        <ele>662</ele>
        <time>2017-03-14T22:29:27Z</time>
      </trkpt>
      <trkpt lat="45.42059" lon="4.64058">
        <ele>663.3</ele>
        <time>2017-03-14T22:29:31Z</time>
      </trkpt>
      <trkpt lat="45.42061" lon="4.64051">
        <ele>663.8</ele>
        <time>2017-03-14T22:29:33Z</time>
      </trkpt>
      <trkpt lat="45.42057" lon="4.64048">
        <ele>664.5</ele>
        <time>2017-03-14T22:29:36Z</time>
      </trkpt>
      <trkpt lat="45.42058" lon="4.64041">
        <ele>666.2</ele>
        <time>2017-03-14T22:29:39Z</time>
      </trkpt>
      <trkpt lat="45.42057" lon="4.64034">
        <ele>668</ele>
        <time>2017-03-14T22:29:41Z</time>
      </trkpt>
      <trkpt lat="45.42055" lon="4.64032">
        <ele>668.5</ele>
        <time>2017-03-14T22:29:42Z</time>
      </trkpt>
      <trkpt lat="45.42055" lon="4.64028">
        <ele>669.3</ele>
        <time>2017-03-14T22:29:43Z</time>
      </trkpt>
      <trkpt lat="45.42053" lon="4.64025">
        <ele>670.5</ele>
        <time>2017-03-14T22:29:45Z</time>
      </trkpt>
      <trkpt lat="45.42049" lon="4.64025">
        <ele>671</ele>
        <time>2017-03-14T22:29:49Z</time>
      </trkpt>
      <trkpt lat="45.42046" lon="4.64021">
        <ele>672.2</ele>
        <time>2017-03-14T22:29:52Z</time>
      </trkpt>
      <trkpt lat="45.42046" lon="4.64015">
        <ele>673.1</ele>
        <time>2017-03-14T22:29:55Z</time>
      </trkpt>
      <trkpt lat="45.42045" lon="4.64009">
        <ele>674</ele>
        <time>2017-03-14T22:30:02Z</time>
      </trkpt>
      <trkpt lat="45.42043" lon="4.64007">
        <ele>675.3</ele>
        <time>2017-03-14T22:30:06Z</time>
      </trkpt>
      <trkpt lat="45.42042" lon="4.64003">
        <ele>676.1</ele>
        <time>2017-03-14T22:30:10Z</time>
      </trkpt>
      <trkpt lat="45.4204" lon="4.63998">
        <ele>677.1</ele>
        <time>2017-03-14T22:30:13Z</time>
      </trkpt>
      <trkpt lat="45.42041" lon="4.63993">
        <ele>677.8</ele>
        <time>2017-03-14T22:30:15Z</time>
      </trkpt>
      <trkpt lat="45.42039" lon="4.63989">
        <ele>678.7</ele>
        <time>2017-03-14T22:30:18Z</time>
      </trkpt>
      <trkpt lat="45.42042" lon="4.63985">
        <ele>679.5</ele>
        <time>2017-03-14T22:30:20Z</time>
      </trkpt>
      <trkpt lat="45.42044" lon="4.63982">
        <ele>680.4</ele>
        <time>2017-03-14T22:30:22Z</time>
      </trkpt>
      <trkpt lat="45.42046" lon="4.63976">
        <ele>681.1</ele>
        <time>2017-03-14T22:30:24Z</time>
      </trkpt>
      <trkpt lat="45.42043" lon="4.63975">
        <ele>681.3</ele>
        <time>2017-03-14T22:30:26Z</time>
      </trkpt>
      <trkpt lat="45.42044" lon="4.63971">
        <ele>682.8</ele>
        <time>2017-03-14T22:30:29Z</time>
      </trkpt>
      <trkpt lat="45.42043" lon="4.63965">
        <ele>683.7</ele>
        <time>2017-03-14T22:30:31Z</time>
      </trkpt>
      <trkpt lat="45.4204" lon="4.63964">
        <ele>683.9</ele>
        <time>2017-03-14T22:30:33Z</time>
      </trkpt>
      <trkpt lat="45.42041" lon="4.63955">
        <ele>685.7</ele>
        <time>2017-03-14T22:30:36Z</time>
      </trkpt>
      <trkpt lat="45.42042" lon="4.63951">
        <ele>686.4</ele>
        <time>2017-03-14T22:30:37Z</time>
      </trkpt>
      <trkpt lat="45.42044" lon="4.63944">
        <ele>688.1</ele>
        <time>2017-03-14T22:30:40Z</time>
      </trkpt>
      <trkpt lat="45.42046" lon="4.63939">
        <ele>688.6</ele>
        <time>2017-03-14T22:30:41Z</time>
      </trkpt>
      <trkpt lat="45.42043" lon="4.63934">
        <ele>689.9</ele>
        <time>2017-03-14T22:30:45Z</time>
      </trkpt>
      <trkpt lat="45.42041" lon="4.6393">
        <ele>691.2</ele>
        <time>2017-03-14T22:30:47Z</time>
      </trkpt>
      <trkpt lat="45.42041" lon="4.63925">
        <ele>692.2</ele>
        <time>2017-03-14T22:30:48Z</time>
      </trkpt>
      <trkpt lat="45.42042" lon="4.63922">
        <ele>692.7</ele>
        <time>2017-03-14T22:30:50Z</time>
      </trkpt>
      <trkpt lat="45.42043" lon="4.63914">
        <ele>694.1</ele>
        <time>2017-03-14T22:30:52Z</time>
      </trkpt>
      <trkpt lat="45.42045" lon="4.6391">
        <ele>694.3</ele>
        <time>2017-03-14T22:30:53Z</time>
      </trkpt>
      <trkpt lat="45.42045" lon="4.63905">
        <ele>695</ele>
        <time>2017-03-14T22:30:54Z</time>
      </trkpt>
      <trkpt lat="45.42043" lon="4.63899">
        <ele>696.2</ele>
        <time>2017-03-14T22:30:55Z</time>
      </trkpt>
      <trkpt lat="45.42047" lon="4.63894">
        <ele>696.2</ele>
        <time>2017-03-14T22:30:59Z</time>
      </trkpt>
      <trkpt lat="45.42046" lon="4.63889">
        <ele>697.1</ele>
        <time>2017-03-14T22:31:03Z</time>
      </trkpt>
      <trkpt lat="45.42047" lon="4.63885">
        <ele>697</ele>
        <time>2017-03-14T22:31:05Z</time>
      </trkpt>
      <trkpt lat="45.42047" lon="4.6388">
        <ele>698.2</ele>
        <time>2017-03-14T22:31:07Z</time>
      </trkpt>
      <trkpt lat="45.42048" lon="4.63877">
        <ele>697.6</ele>
        <time>2017-03-14T22:31:08Z</time>
      </trkpt>
      <trkpt lat="45.42051" lon="4.6387">
        <ele>698.1</ele>
        <time>2017-03-14T22:31:10Z</time>
      </trkpt>
      <trkpt lat="45.42053" lon="4.63865">
        <ele>698.7</ele>
        <time>2017-03-14T22:31:11Z</time>
      </trkpt>
      <trkpt lat="45.42053" lon="4.63859">
        <ele>699.4</ele>
        <time>2017-03-14T22:31:13Z</time>
      </trkpt>
      <trkpt lat="45.42055" lon="4.63855">
        <ele>698.8</ele>
        <time>2017-03-14T22:31:15Z</time>
      </trkpt>
      <trkpt lat="45.42055" lon="4.63851">
        <ele>699.2</ele>
        <time>2017-03-14T22:31:16Z</time>
      </trkpt>
      <trkpt lat="45.42057" lon="4.63846">
        <ele>699.5</ele>
        <time>2017-03-14T22:31:17Z</time>
      </trkpt>
      <trkpt lat="45.42057" lon="4.63841">
        <ele>700</ele>
        <time>2017-03-14T22:31:19Z</time>
      </trkpt>
      <trkpt lat="45.42056" lon="4.63837">
        <ele>701.3</ele>
        <time>2017-03-14T22:31:21Z</time>
      </trkpt>
      <trkpt lat="45.42059" lon="4.63832">
        <ele>701.1</ele>
        <time>2017-03-14T22:31:23Z</time>
      </trkpt>
      <trkpt lat="45.4206" lon="4.63824">
        <ele>701.7</ele>
        <time>2017-03-14T22:31:25Z</time>
      </trkpt>
      <trkpt lat="45.42061" lon="4.63819">
        <ele>702.5</ele>
        <time>2017-03-14T22:31:26Z</time>
      </trkpt>
      <trkpt lat="45.4206" lon="4.63814">
        <ele>703.4</ele>
        <time>2017-03-14T22:31:27Z</time>
      </trkpt>
      <trkpt lat="45.42062" lon="4.6381">
        <ele>704.3</ele>
        <time>2017-03-14T22:31:28Z</time>
      </trkpt>
      <trkpt lat="45.42062" lon="4.63803">
        <ele>705.8</ele>
        <time>2017-03-14T22:31:30Z</time>
      </trkpt>
      <trkpt lat="45.42062" lon="4.63795">
        <ele>706.7</ele>
        <time>2017-03-14T22:31:32Z</time>
      </trkpt>
      <trkpt lat="45.42064" lon="4.63791">
        <ele>706.7</ele>
        <time>2017-03-14T22:31:33Z</time>
      </trkpt>
      <trkpt lat="45.42067" lon="4.63785">
        <ele>707.4</ele>
        <time>2017-03-14T22:31:35Z</time>
      </trkpt>
      <trkpt lat="45.42069" lon="4.63781">
        <ele>707.2</ele>
        <time>2017-03-14T22:31:36Z</time>
      </trkpt>
      <trkpt lat="45.42069" lon="4.63775">
        <ele>708.1</ele>
        <time>2017-03-14T22:31:38Z</time>
      </trkpt>
      <trkpt lat="45.42071" lon="4.63767">
        <ele>710.1</ele>
        <time>2017-03-14T22:31:40Z</time>
      </trkpt>
      <trkpt lat="45.4207" lon="4.63761">
        <ele>711.2</ele>
        <time>2017-03-14T22:31:41Z</time>
      </trkpt>
      <trkpt lat="45.42069" lon="4.63757">
        <ele>712.3</ele>
        <time>2017-03-14T22:31:43Z</time>
      </trkpt>
      <trkpt lat="45.42066" lon="4.63755">
        <ele>714.5</ele>
        <time>2017-03-14T22:31:45Z</time>
      </trkpt>
      <trkpt lat="45.42068" lon="4.63746">
        <ele>716.6</ele>
        <time>2017-03-14T22:31:47Z</time>
      </trkpt>
      <trkpt lat="45.42069" lon="4.6374">
        <ele>716.4</ele>
        <time>2017-03-14T22:31:49Z</time>
      </trkpt>
      <trkpt lat="45.42069" lon="4.63734">
        <ele>718.4</ele>
        <time>2017-03-14T22:31:51Z</time>
      </trkpt>
      <trkpt lat="45.42066" lon="4.63731">
        <ele>719.9</ele>
        <time>2017-03-14T22:31:53Z</time>
      </trkpt>
      <trkpt lat="45.42068" lon="4.63721">
        <ele>722.3</ele>
        <time>2017-03-14T22:31:54Z</time>
      </trkpt>
      <trkpt lat="45.42065" lon="4.63716">
        <ele>724.5</ele>
        <time>2017-03-14T22:31:56Z</time>
      </trkpt>
      <trkpt lat="45.42066" lon="4.63712">
        <ele>723.6</ele>
        <time>2017-03-14T22:31:57Z</time>
      </trkpt>
      <trkpt lat="45.42069" lon="4.63706">
        <ele>722.6</ele>
        <time>2017-03-14T22:31:58Z</time>
      </trkpt>
      <trkpt lat="45.42071" lon="4.637">
        <ele>723.3</ele>
        <time>2017-03-14T22:32:00Z</time>
      </trkpt>
      <trkpt lat="45.42074" lon="4.63694">
        <ele>722</ele>
        <time>2017-03-14T22:32:02Z</time>
      </trkpt>
      <trkpt lat="45.42078" lon="4.63689">
        <ele>719.2</ele>
        <time>2017-03-14T22:32:04Z</time>
      </trkpt>
      <trkpt lat="45.4208" lon="4.63683">
        <ele>719.5</ele>
        <time>2017-03-14T22:32:06Z</time>
      </trkpt>
      <trkpt lat="45.42077" lon="4.63681">
        <ele>721</ele>
        <time>2017-03-14T22:32:08Z</time>
      </trkpt>
      <trkpt lat="45.42081" lon="4.63676">
        <ele>718.5</ele>
        <time>2017-03-14T22:32:10Z</time>
      </trkpt>
      <trkpt lat="45.42084" lon="4.63672">
        <ele>717.5</ele>
        <time>2017-03-14T22:32:12Z</time>
      </trkpt>
      <trkpt lat="45.42083" lon="4.63664">
        <ele>718.7</ele>
        <time>2017-03-14T22:32:15Z</time>
      </trkpt>
      <trkpt lat="45.4208" lon="4.63659">
        <ele>719.9</ele>
        <time>2017-03-14T22:32:16Z</time>
      </trkpt>
      <trkpt lat="45.42081" lon="4.63653">
        <ele>718.8</ele>
        <time>2017-03-14T22:32:18Z</time>
      </trkpt>
      <trkpt lat="45.42078" lon="4.63652">
        <ele>720.1</ele>
        <time>2017-03-14T22:32:21Z</time>
      </trkpt>
      <trkpt lat="45.42074" lon="4.63648">
        <ele>722.7</ele>
        <time>2017-03-14T22:32:23Z</time>
      </trkpt>
      <trkpt lat="45.42074" lon="4.63638">
        <ele>723.2</ele>
        <time>2017-03-14T22:32:26Z</time>
      </trkpt>
      <trkpt lat="45.42075" lon="4.63634">
        <ele>722.4</ele>
        <time>2017-03-14T22:32:27Z</time>
      </trkpt>
      <trkpt lat="45.42083" lon="4.63623">
        <ele>721.5</ele>
        <time>2017-03-14T22:32:28Z</time>
      </trkpt>
      <trkpt lat="45.42086" lon="4.63612">
        <ele>722.7</ele>
        <time>2017-03-14T22:32:29Z</time>
      </trkpt>
      <trkpt lat="45.42089" lon="4.63606">
        <ele>722.3</ele>
        <time>2017-03-14T22:32:30Z</time>
      </trkpt>
      <trkpt lat="45.42092" lon="4.63606">
        <ele>722</ele>
        <time>2017-03-14T22:32:31Z</time>
      </trkpt>
      <trkpt lat="45.42095" lon="4.63603">
        <ele>720.9</ele>
        <time>2017-03-14T22:32:32Z</time>
      </trkpt>
      <trkpt lat="45.42092" lon="4.63607">
        <ele>721.3</ele>
        <time>2017-03-14T22:32:33Z</time>
      </trkpt>
      <trkpt lat="45.42088" lon="4.63604">
        <ele>723.1</ele>
        <time>2017-03-14T22:32:36Z</time>
      </trkpt>
      <trkpt lat="45.4209" lon="4.63601">
        <ele>722.9</ele>
        <time>2017-03-14T22:32:37Z</time>
      </trkpt>
      <trkpt lat="45.42091" lon="4.63597">
        <ele>723.7</ele>
        <time>2017-03-14T22:32:39Z</time>
      </trkpt>
      <trkpt lat="45.42095" lon="4.63588">
        <ele>724.3</ele>
        <time>2017-03-14T22:32:42Z</time>
      </trkpt>
      <trkpt lat="45.4209" lon="4.63586">
        <ele>725.2</ele>
        <time>2017-03-14T22:32:43Z</time>
      </trkpt>
      <trkpt lat="45.42089" lon="4.63583">
        <ele>726.7</ele>
        <time>2017-03-14T22:32:45Z</time>
      </trkpt>
      <trkpt lat="45.42088" lon="4.63578">
        <ele>727.4</ele>
        <time>2017-03-14T22:32:48Z</time>
      </trkpt>
      <trkpt lat="45.42089" lon="4.63573">
        <ele>728.1</ele>
        <time>2017-03-14T22:32:49Z</time>
      </trkpt>
      <trkpt lat="45.4209" lon="4.63567">
        <ele>728.7</ele>
        <time>2017-03-14T22:32:50Z</time>
      </trkpt>
      <trkpt lat="45.42092" lon="4.63561">
        <ele>729.2</ele>
        <time>2017-03-14T22:32:51Z</time>
      </trkpt>
      <trkpt lat="45.42089" lon="4.63564">
        <ele>729.6</ele>
        <time>2017-03-14T22:32:53Z</time>
      </trkpt>
      <trkpt lat="45.42086" lon="4.63567">
        <ele>729.7</ele>
        <time>2017-03-14T22:33:01Z</time>
      </trkpt>
      <trkpt lat="45.42084" lon="4.63568">
        <ele>729.7</ele>
        <time>2017-03-14T22:33:02Z</time>
      </trkpt>
      <trkpt lat="45.42079" lon="4.63569">
        <ele>731</ele>
        <time>2017-03-14T22:33:03Z</time>
      </trkpt>
      <trkpt lat="45.42077" lon="4.63573">
        <ele>731.1</ele>
        <time>2017-03-14T22:33:06Z</time>
      </trkpt>
      <trkpt lat="45.42075" lon="4.63577">
        <ele>730.4</ele>
        <time>2017-03-14T22:33:09Z</time>
      </trkpt>
      <trkpt lat="45.42075" lon="4.63582">
        <ele>729.9</ele>
        <time>2017-03-14T22:33:11Z</time>
      </trkpt>
      <trkpt lat="45.42073" lon="4.63585">
        <ele>730.3</ele>
        <time>2017-03-14T22:33:12Z</time>
      </trkpt>
      <trkpt lat="45.42069" lon="4.63595">
        <ele>730.4</ele>
        <time>2017-03-14T22:33:14Z</time>
      </trkpt>
      <trkpt lat="45.42067" lon="4.636">
        <ele>730.8</ele>
        <time>2017-03-14T22:33:15Z</time>
      </trkpt>
      <trkpt lat="45.42066" lon="4.63607">
        <ele>729.8</ele>
        <time>2017-03-14T22:33:16Z</time>
      </trkpt>
      <trkpt lat="45.42063" lon="4.63611">
        <ele>730.2</ele>
        <time>2017-03-14T22:33:19Z</time>
      </trkpt>
      <trkpt lat="45.42062" lon="4.63614">
        <ele>731</ele>
        <time>2017-03-14T22:33:21Z</time>
      </trkpt>
      <trkpt lat="45.42061" lon="4.63619">
        <ele>729.9</ele>
        <time>2017-03-14T22:33:23Z</time>
      </trkpt>
      <trkpt lat="45.4206" lon="4.63624">
        <ele>729.3</ele>
        <time>2017-03-14T22:33:24Z</time>
      </trkpt>
      <trkpt lat="45.42056" lon="4.63631">
        <ele>729.5</ele>
        <time>2017-03-14T22:33:26Z</time>
      </trkpt>
      <trkpt lat="45.42056" lon="4.63635">
        <ele>729.6</ele>
        <time>2017-03-14T22:33:27Z</time>
      </trkpt>
      <trkpt lat="45.42054" lon="4.63639">
        <ele>729.3</ele>
        <time>2017-03-14T22:33:28Z</time>
      </trkpt>
      <trkpt lat="45.42053" lon="4.63645">
        <ele>729</ele>
        <time>2017-03-14T22:33:30Z</time>
      </trkpt>
      <trkpt lat="45.42051" lon="4.63655">
        <ele>729.4</ele>
        <time>2017-03-14T22:33:32Z</time>
      </trkpt>
      <trkpt lat="45.42051" lon="4.63663">
        <ele>729.7</ele>
        <time>2017-03-14T22:33:33Z</time>
      </trkpt>
      <trkpt lat="45.42052" lon="4.63668">
        <ele>730</ele>
        <time>2017-03-14T22:33:34Z</time>
      </trkpt>
      <trkpt lat="45.42051" lon="4.63676">
        <ele>730.5</ele>
        <time>2017-03-14T22:33:35Z</time>
      </trkpt>
      <trkpt lat="45.4205" lon="4.63681">
        <ele>731.3</ele>
        <time>2017-03-14T22:33:36Z</time>
      </trkpt>
      <trkpt lat="45.42049" lon="4.63686">
        <ele>731.5</ele>
        <time>2017-03-14T22:33:37Z</time>
      </trkpt>
      <trkpt lat="45.42048" lon="4.63694">
        <ele>731.9</ele>
        <time>2017-03-14T22:33:39Z</time>
      </trkpt>
      <trkpt lat="45.42047" lon="4.637">
        <ele>732.9</ele>
        <time>2017-03-14T22:33:40Z</time>
      </trkpt>
      <trkpt lat="45.42045" lon="4.63706">
        <ele>732.9</ele>
        <time>2017-03-14T22:33:41Z</time>
      </trkpt>
      <trkpt lat="45.42045" lon="4.63713">
        <ele>732.4</ele>
        <time>2017-03-14T22:33:42Z</time>
      </trkpt>
      <trkpt lat="45.42041" lon="4.63723">
        <ele>733.3</ele>
        <time>2017-03-14T22:33:43Z</time>
      </trkpt>
      <trkpt lat="45.42042" lon="4.63729">
        <ele>731.9</ele>
        <time>2017-03-14T22:33:44Z</time>
      </trkpt>
      <trkpt lat="45.4204" lon="4.63738">
        <ele>731.2</ele>
        <time>2017-03-14T22:33:45Z</time>
      </trkpt>
      <trkpt lat="45.42041" lon="4.63745">
        <ele>729.1</ele>
        <time>2017-03-14T22:33:46Z</time>
      </trkpt>
      <trkpt lat="45.42041" lon="4.63751">
        <ele>728.1</ele>
        <time>2017-03-14T22:33:47Z</time>
      </trkpt>
      <trkpt lat="45.4204" lon="4.63757">
        <ele>725.8</ele>
        <time>2017-03-14T22:33:48Z</time>
      </trkpt>
      <trkpt lat="45.42037" lon="4.63765">
        <ele>724.3</ele>
        <time>2017-03-14T22:33:49Z</time>
      </trkpt>
      <trkpt lat="45.42033" lon="4.63772">
        <ele>724</ele>
        <time>2017-03-14T22:33:50Z</time>
      </trkpt>
      <trkpt lat="45.42033" lon="4.63781">
        <ele>721.7</ele>
        <time>2017-03-14T22:33:51Z</time>
      </trkpt>
      <trkpt lat="45.42032" lon="4.63788">
        <ele>720.3</ele>
        <time>2017-03-14T22:33:52Z</time>
      </trkpt>
      <trkpt lat="45.42031" lon="4.63793">
        <ele>719.3</ele>
        <time>2017-03-14T22:33:53Z</time>
      </trkpt>
      <trkpt lat="45.42029" lon="4.63798">
        <ele>719.1</ele>
        <time>2017-03-14T22:33:54Z</time>
      </trkpt>
      <trkpt lat="45.42026" lon="4.63802">
        <ele>718.4</ele>
        <time>2017-03-14T22:33:55Z</time>
      </trkpt>
      <trkpt lat="45.42022" lon="4.63807">
        <ele>719.5</ele>
        <time>2017-03-14T22:33:57Z</time>
      </trkpt>
      <trkpt lat="45.42019" lon="4.63813">
        <ele>719.5</ele>
        <time>2017-03-14T22:33:58Z</time>
      </trkpt>
      <trkpt lat="45.42011" lon="4.63822">
        <ele>721.5</ele>
        <time>2017-03-14T22:33:59Z</time>
      </trkpt>
      <trkpt lat="45.42007" lon="4.63826">
        <ele>721.9</ele>
        <time>2017-03-14T22:34:00Z</time>
      </trkpt>
      <trkpt lat="45.42005" lon="4.63831">
        <ele>721.4</ele>
        <time>2017-03-14T22:34:01Z</time>
      </trkpt>
      <trkpt lat="45.42001" lon="4.63836">
        <ele>722.5</ele>
        <time>2017-03-14T22:34:02Z</time>
      </trkpt>
      <trkpt lat="45.42" lon="4.6384">
        <ele>721.9</ele>
        <time>2017-03-14T22:34:03Z</time>
      </trkpt>
      <trkpt lat="45.41997" lon="4.63841">
        <ele>722.6</ele>
        <time>2017-03-14T22:34:04Z</time>
      </trkpt>
      <trkpt lat="45.41994" lon="4.63847">
        <ele>721.5</ele>
        <time>2017-03-14T22:34:05Z</time>
      </trkpt>
      <trkpt lat="45.4199" lon="4.63854">
        <ele>722.2</ele>
        <time>2017-03-14T22:34:07Z</time>
      </trkpt>
      <trkpt lat="45.41989" lon="4.63858">
        <ele>721.2</ele>
        <time>2017-03-14T22:34:08Z</time>
      </trkpt>
      <trkpt lat="45.41983" lon="4.63862">
        <ele>722</ele>
        <time>2017-03-14T22:34:09Z</time>
      </trkpt>
      <trkpt lat="45.4198" lon="4.63864">
        <ele>721.9</ele>
        <time>2017-03-14T22:34:10Z</time>
      </trkpt>
      <trkpt lat="45.41978" lon="4.63867">
        <ele>722.6</ele>
        <time>2017-03-14T22:34:11Z</time>
      </trkpt>
      <trkpt lat="45.41976" lon="4.63873">
        <ele>720.5</ele>
        <time>2017-03-14T22:34:12Z</time>
      </trkpt>
      <trkpt lat="45.41972" lon="4.63876">
        <ele>721.1</ele>
        <time>2017-03-14T22:34:13Z</time>
      </trkpt>
      <trkpt lat="45.41969" lon="4.63878">
        <ele>720.8</ele>
        <time>2017-03-14T22:34:14Z</time>
      </trkpt>
      <trkpt lat="45.41966" lon="4.6388">
        <ele>720.8</ele>
        <time>2017-03-14T22:34:15Z</time>
      </trkpt>
      <trkpt lat="45.41964" lon="4.63883">
        <ele>720</ele>
        <time>2017-03-14T22:34:16Z</time>
      </trkpt>
      <trkpt lat="45.41961" lon="4.63883">
        <ele>720.3</ele>
        <time>2017-03-14T22:34:17Z</time>
      </trkpt>
      <trkpt lat="45.41957" lon="4.63885">
        <ele>719.4</ele>
        <time>2017-03-14T22:34:18Z</time>
      </trkpt>
      <trkpt lat="45.41953" lon="4.63889">
        <ele>720</ele>
        <time>2017-03-14T22:34:19Z</time>
      </trkpt>
      <trkpt lat="45.4195" lon="4.63894">
        <ele>717.9</ele>
        <time>2017-03-14T22:34:20Z</time>
      </trkpt>
      <trkpt lat="45.4195" lon="4.63897">
        <ele>717.9</ele>
        <time>2017-03-14T22:34:21Z</time>
      </trkpt>
      <trkpt lat="45.41945" lon="4.63901">
        <ele>716.9</ele>
        <time>2017-03-14T22:34:22Z</time>
      </trkpt>
      <trkpt lat="45.41942" lon="4.63903">
        <ele>716.5</ele>
        <time>2017-03-14T22:34:23Z</time>
      </trkpt>
      <trkpt lat="45.41939" lon="4.63907">
        <ele>715.2</ele>
        <time>2017-03-14T22:34:24Z</time>
      </trkpt>
      <trkpt lat="45.41936" lon="4.63911">
        <ele>715.2</ele>
        <time>2017-03-14T22:34:25Z</time>
      </trkpt>
      <trkpt lat="45.41932" lon="4.63914">
        <ele>715.9</ele>
        <time>2017-03-14T22:34:26Z</time>
      </trkpt>
      <trkpt lat="45.41927" lon="4.63918">
        <ele>715.4</ele>
        <time>2017-03-14T22:34:27Z</time>
      </trkpt>
      <trkpt lat="45.41924" lon="4.63921">
        <ele>714.7</ele>
        <time>2017-03-14T22:34:28Z</time>
      </trkpt>
      <trkpt lat="45.41921" lon="4.63924">
        <ele>713.8</ele>
        <time>2017-03-14T22:34:29Z</time>
      </trkpt>
      <trkpt lat="45.41918" lon="4.63929">
        <ele>712.7</ele>
        <time>2017-03-14T22:34:30Z</time>
      </trkpt>
      <trkpt lat="45.41914" lon="4.63934">
        <ele>712.1</ele>
        <time>2017-03-14T22:34:31Z</time>
      </trkpt>
      <trkpt lat="45.41912" lon="4.63939">
        <ele>710.7</ele>
        <time>2017-03-14T22:34:32Z</time>
      </trkpt>
      <trkpt lat="45.4191" lon="4.63944">
        <ele>709.9</ele>
        <time>2017-03-14T22:34:33Z</time>
      </trkpt>
      <trkpt lat="45.41906" lon="4.6395">
        <ele>708.2</ele>
        <time>2017-03-14T22:34:35Z</time>
      </trkpt>
      <trkpt lat="45.41905" lon="4.63954">
        <ele>707.5</ele>
        <time>2017-03-14T22:34:36Z</time>
      </trkpt>
      <trkpt lat="45.41902" lon="4.63959">
        <ele>706.9</ele>
        <time>2017-03-14T22:34:37Z</time>
      </trkpt>
      <trkpt lat="45.419" lon="4.63963">
        <ele>705.8</ele>
        <time>2017-03-14T22:34:38Z</time>
      </trkpt>
      <trkpt lat="45.41897" lon="4.63968">
        <ele>705.4</ele>
        <time>2017-03-14T22:34:39Z</time>
      </trkpt>
      <trkpt lat="45.41893" lon="4.63973">
        <ele>705.5</ele>
        <time>2017-03-14T22:34:40Z</time>
      </trkpt>
      <trkpt lat="45.4189" lon="4.63977">
        <ele>705.2</ele>
        <time>2017-03-14T22:34:41Z</time>
      </trkpt>
      <trkpt lat="45.41887" lon="4.63982">
        <ele>704.9</ele>
        <time>2017-03-14T22:34:42Z</time>
      </trkpt>
      <trkpt lat="45.41885" lon="4.63986">
        <ele>704.4</ele>
        <time>2017-03-14T22:34:43Z</time>
      </trkpt>
      <trkpt lat="45.4188" lon="4.6399">
        <ele>704.3</ele>
        <time>2017-03-14T22:34:44Z</time>
      </trkpt>
      <trkpt lat="45.41876" lon="4.63991">
        <ele>704.5</ele>
        <time>2017-03-14T22:34:45Z</time>
      </trkpt>
      <trkpt lat="45.41873" lon="4.63991">
        <ele>704.6</ele>
        <time>2017-03-14T22:34:46Z</time>
      </trkpt>
      <trkpt lat="45.41869" lon="4.63991">
        <ele>704.8</ele>
        <time>2017-03-14T22:34:47Z</time>
      </trkpt>
      <trkpt lat="45.41865" lon="4.63991">
        <ele>704.8</ele>
        <time>2017-03-14T22:34:48Z</time>
      </trkpt>
      <trkpt lat="45.41861" lon="4.63993">
        <ele>704.5</ele>
        <time>2017-03-14T22:34:49Z</time>
      </trkpt>
      <trkpt lat="45.41858" lon="4.63992">
        <ele>705.1</ele>
        <time>2017-03-14T22:34:50Z</time>
      </trkpt>
      <trkpt lat="45.41854" lon="4.63988">
        <ele>705.2</ele>
        <time>2017-03-14T22:34:52Z</time>
      </trkpt>
      <trkpt lat="45.41851" lon="4.63984">
        <ele>706</ele>
        <time>2017-03-14T22:34:54Z</time>
      </trkpt>
      <trkpt lat="45.41846" lon="4.63982">
        <ele>706.9</ele>
        <time>2017-03-14T22:34:57Z</time>
      </trkpt>
      <trkpt lat="45.41843" lon="4.63977">
        <ele>707.9</ele>
        <time>2017-03-14T22:35:00Z</time>
      </trkpt>
      <trkpt lat="45.41836" lon="4.63973">
        <ele>709.1</ele>
        <time>2017-03-14T22:35:02Z</time>
      </trkpt>
      <trkpt lat="45.41833" lon="4.63968">
        <ele>709.9</ele>
        <time>2017-03-14T22:35:04Z</time>
      </trkpt>
      <trkpt lat="45.41831" lon="4.63964">
        <ele>710.8</ele>
        <time>2017-03-14T22:35:06Z</time>
      </trkpt>
      <trkpt lat="45.41828" lon="4.63961">
        <ele>711.7</ele>
        <time>2017-03-14T22:35:08Z</time>
      </trkpt>
      <trkpt lat="45.41825" lon="4.63958">
        <ele>711.6</ele>
        <time>2017-03-14T22:35:10Z</time>
      </trkpt>
      <trkpt lat="45.41824" lon="4.63955">
        <ele>712.6</ele>
        <time>2017-03-14T22:35:13Z</time>
      </trkpt>
      <trkpt lat="45.41823" lon="4.63948">
        <ele>714.8</ele>
        <time>2017-03-14T22:35:15Z</time>
      </trkpt>
      <trkpt lat="45.41819" lon="4.63945">
        <ele>714.8</ele>
        <time>2017-03-14T22:35:17Z</time>
      </trkpt>
      <trkpt lat="45.41815" lon="4.63942">
        <ele>715.9</ele>
        <time>2017-03-14T22:35:20Z</time>
      </trkpt>
      <trkpt lat="45.41813" lon="4.63938">
        <ele>717.4</ele>
        <time>2017-03-14T22:35:22Z</time>
      </trkpt>
      <trkpt lat="45.41813" lon="4.63934">
        <ele>719</ele>
        <time>2017-03-14T22:35:24Z</time>
      </trkpt>
      <trkpt lat="45.41811" lon="4.63931">
        <ele>720.8</ele>
        <time>2017-03-14T22:35:26Z</time>
      </trkpt>
      <trkpt lat="45.41807" lon="4.63929">
        <ele>721</ele>
        <time>2017-03-14T22:35:27Z</time>
      </trkpt>
      <trkpt lat="45.41806" lon="4.63924">
        <ele>722.8</ele>
        <time>2017-03-14T22:35:28Z</time>
      </trkpt>
      <trkpt lat="45.41803" lon="4.63922">
        <ele>724.3</ele>
        <time>2017-03-14T22:35:29Z</time>
      </trkpt>
      <trkpt lat="45.41801" lon="4.63918">
        <ele>725.5</ele>
        <time>2017-03-14T22:35:32Z</time>
      </trkpt>
      <trkpt lat="45.41801" lon="4.63912">
        <ele>726.5</ele>
        <time>2017-03-14T22:35:35Z</time>
      </trkpt>
      <trkpt lat="45.41799" lon="4.63908">
        <ele>727.5</ele>
        <time>2017-03-14T22:35:37Z</time>
      </trkpt>
      <trkpt lat="45.41796" lon="4.63909">
        <ele>727.4</ele>
        <time>2017-03-14T22:35:38Z</time>
      </trkpt>
      <trkpt lat="45.4179" lon="4.63911">
        <ele>726.2</ele>
        <time>2017-03-14T22:35:39Z</time>
      </trkpt>
      <trkpt lat="45.41791" lon="4.63907">
        <ele>727.2</ele>
        <time>2017-03-14T22:35:41Z</time>
      </trkpt>
      <trkpt lat="45.41788" lon="4.63907">
        <ele>727.1</ele>
        <time>2017-03-14T22:35:42Z</time>
      </trkpt>
      <trkpt lat="45.41785" lon="4.63904">
        <ele>728.1</ele>
        <time>2017-03-14T22:35:44Z</time>
      </trkpt>
      <trkpt lat="45.41781" lon="4.63906">
        <ele>727.9</ele>
        <time>2017-03-14T22:35:47Z</time>
      </trkpt>
      <trkpt lat="45.41777" lon="4.63905">
        <ele>727.8</ele>
        <time>2017-03-14T22:35:52Z</time>
      </trkpt>
      <trkpt lat="45.41772" lon="4.63908">
        <ele>726.4</ele>
        <time>2017-03-14T22:35:55Z</time>
      </trkpt>
      <trkpt lat="45.41769" lon="4.63904">
        <ele>727.5</ele>
        <time>2017-03-14T22:35:57Z</time>
      </trkpt>
      <trkpt lat="45.41766" lon="4.639">
        <ele>728.7</ele>
        <time>2017-03-14T22:35:58Z</time>
      </trkpt>
      <trkpt lat="45.41765" lon="4.63896">
        <ele>730</ele>
        <time>2017-03-14T22:36:00Z</time>
      </trkpt>
      <trkpt lat="45.41767" lon="4.63893">
        <ele>731.3</ele>
        <time>2017-03-14T22:36:02Z</time>
      </trkpt>
      <trkpt lat="45.41767" lon="4.63888">
        <ele>732.5</ele>
        <time>2017-03-14T22:36:06Z</time>
      </trkpt>
      <trkpt lat="45.41768" lon="4.63882">
        <ele>733.8</ele>
        <time>2017-03-14T22:36:08Z</time>
      </trkpt>
      <trkpt lat="45.41771" lon="4.63879">
        <ele>735.2</ele>
        <time>2017-03-14T22:36:10Z</time>
      </trkpt>
      <trkpt lat="45.41775" lon="4.63875">
        <ele>736.7</ele>
        <time>2017-03-14T22:36:14Z</time>
      </trkpt>
      <trkpt lat="45.41775" lon="4.6387">
        <ele>738.3</ele>
        <time>2017-03-14T22:36:17Z</time>
      </trkpt>
      <trkpt lat="45.41778" lon="4.6387">
        <ele>738.2</ele>
        <time>2017-03-14T22:36:25Z</time>
      </trkpt>
      <trkpt lat="45.41778" lon="4.63865">
        <ele>739.7</ele>
        <time>2017-03-14T22:36:27Z</time>
      </trkpt>
      <trkpt lat="45.41781" lon="4.63865">
        <ele>739.7</ele>
        <time>2017-03-14T22:36:32Z</time>
      </trkpt>
      <trkpt lat="45.41785" lon="4.63863">
        <ele>741</ele>
        <time>2017-03-14T22:36:34Z</time>
      </trkpt>
      <trkpt lat="45.41787" lon="4.6386">
        <ele>740.9</ele>
        <time>2017-03-14T22:36:35Z</time>
      </trkpt>
      <trkpt lat="45.41793" lon="4.63859">
        <ele>742.1</ele>
        <time>2017-03-14T22:36:38Z</time>
      </trkpt>
      <trkpt lat="45.41799" lon="4.63854">
        <ele>743.1</ele>
        <time>2017-03-14T22:36:42Z</time>
      </trkpt>
      <trkpt lat="45.41801" lon="4.63849">
        <ele>744.3</ele>
        <time>2017-03-14T22:36:44Z</time>
      </trkpt>
      <trkpt lat="45.41803" lon="4.63846">
        <ele>745.7</ele>
        <time>2017-03-14T22:36:47Z</time>
      </trkpt>
      <trkpt lat="45.41799" lon="4.63845">
        <ele>745.9</ele>
        <time>2017-03-14T22:36:49Z</time>
      </trkpt>
      <trkpt lat="45.41801" lon="4.6384">
        <ele>747</ele>
        <time>2017-03-14T22:36:51Z</time>
      </trkpt>
      <trkpt lat="45.41803" lon="4.63832">
        <ele>749.1</ele>
        <time>2017-03-14T22:36:55Z</time>
      </trkpt>
      <trkpt lat="45.41803" lon="4.63827">
        <ele>750.2</ele>
        <time>2017-03-14T22:37:05Z</time>
      </trkpt>
      <trkpt lat="45.41803" lon="4.63823">
        <ele>751.4</ele>
        <time>2017-03-14T22:37:19Z</time>
      </trkpt>
      <trkpt lat="45.41803" lon="4.63818">
        <ele>752.7</ele>
        <time>2017-03-14T22:37:20Z</time>
      </trkpt>
      <trkpt lat="45.41804" lon="4.63808">
        <ele>754.7</ele>
        <time>2017-03-14T22:37:21Z</time>
      </trkpt>
      <trkpt lat="45.41805" lon="4.63798">
        <ele>757.2</ele>
        <time>2017-03-14T22:37:22Z</time>
      </trkpt>
      <trkpt lat="45.41802" lon="4.63797">
        <ele>757.2</ele>
        <time>2017-03-14T22:37:24Z</time>
      </trkpt>
      <trkpt lat="45.41798" lon="4.63794">
        <ele>758.1</ele>
        <time>2017-03-14T22:37:26Z</time>
      </trkpt>
      <trkpt lat="45.41797" lon="4.63788">
        <ele>758.9</ele>
        <time>2017-03-14T22:37:28Z</time>
      </trkpt>
      <trkpt lat="45.41793" lon="4.63789">
        <ele>758.7</ele>
        <time>2017-03-14T22:37:30Z</time>
      </trkpt>
      <trkpt lat="45.41789" lon="4.63788">
        <ele>758.5</ele>
        <time>2017-03-14T22:37:31Z</time>
      </trkpt>
      <trkpt lat="45.41786" lon="4.63785">
        <ele>759.4</ele>
        <time>2017-03-14T22:37:33Z</time>
      </trkpt>
      <trkpt lat="45.41782" lon="4.63782">
        <ele>759.3</ele>
        <time>2017-03-14T22:37:35Z</time>
      </trkpt>
      <trkpt lat="45.4178" lon="4.63779">
        <ele>760.2</ele>
        <time>2017-03-14T22:37:37Z</time>
      </trkpt>
      <trkpt lat="45.41776" lon="4.63778">
        <ele>760.3</ele>
        <time>2017-03-14T22:37:39Z</time>
      </trkpt>
      <trkpt lat="45.41777" lon="4.63774">
        <ele>761.3</ele>
        <time>2017-03-14T22:37:41Z</time>
      </trkpt>
      <trkpt lat="45.41777" lon="4.63767">
        <ele>763.9</ele>
        <time>2017-03-14T22:37:44Z</time>
      </trkpt>
      <trkpt lat="45.41773" lon="4.63765">
        <ele>763.9</ele>
        <time>2017-03-14T22:37:46Z</time>
      </trkpt>
      <trkpt lat="45.4177" lon="4.63765">
        <ele>763.9</ele>
        <time>2017-03-14T22:37:47Z</time>
      </trkpt>
      <trkpt lat="45.41767" lon="4.63765">
        <ele>763.9</ele>
        <time>2017-03-14T22:37:50Z</time>
      </trkpt>
      <trkpt lat="45.41765" lon="4.63761">
        <ele>765.3</ele>
        <time>2017-03-14T22:37:51Z</time>
      </trkpt>
      <trkpt lat="45.41763" lon="4.63757">
        <ele>766.6</ele>
        <time>2017-03-14T22:37:53Z</time>
      </trkpt>
      <trkpt lat="45.4176" lon="4.63752">
        <ele>768.9</ele>
        <time>2017-03-14T22:37:56Z</time>
      </trkpt>
      <trkpt lat="45.41763" lon="4.63748">
        <ele>770.2</ele>
        <time>2017-03-14T22:37:57Z</time>
      </trkpt>
      <trkpt lat="45.41759" lon="4.63748">
        <ele>769</ele>
        <time>2017-03-14T22:37:59Z</time>
      </trkpt>
      <trkpt lat="45.41761" lon="4.63743">
        <ele>771.5</ele>
        <time>2017-03-14T22:38:01Z</time>
      </trkpt>
      <trkpt lat="45.41756" lon="4.63741">
        <ele>771.4</ele>
        <time>2017-03-14T22:38:02Z</time>
      </trkpt>
      <trkpt lat="45.41751" lon="4.63734">
        <ele>774.3</ele>
        <time>2017-03-14T22:38:03Z</time>
      </trkpt>
      <trkpt lat="45.41757" lon="4.63727">
        <ele>775.6</ele>
        <time>2017-03-14T22:38:06Z</time>
      </trkpt>
      <trkpt lat="45.41753" lon="4.63726">
        <ele>775.6</ele>
        <time>2017-03-14T22:38:07Z</time>
      </trkpt>
      <trkpt lat="45.41748" lon="4.63728">
        <ele>775.7</ele>
        <time>2017-03-14T22:38:08Z</time>
      </trkpt>
      <trkpt lat="45.41745" lon="4.63729">
        <ele>775.7</ele>
        <time>2017-03-14T22:38:10Z</time>
      </trkpt>
      <trkpt lat="45.41739" lon="4.63732">
        <ele>774.6</ele>
        <time>2017-03-14T22:38:13Z</time>
      </trkpt>
      <trkpt lat="45.41738" lon="4.63724">
        <ele>776.7</ele>
        <time>2017-03-14T22:38:16Z</time>
      </trkpt>
      <trkpt lat="45.41738" lon="4.63721">
        <ele>777.6</ele>
        <time>2017-03-14T22:38:17Z</time>
      </trkpt>
      <trkpt lat="45.41739" lon="4.63717">
        <ele>778.5</ele>
        <time>2017-03-14T22:38:18Z</time>
      </trkpt>
      <trkpt lat="45.41742" lon="4.63712">
        <ele>779.7</ele>
        <time>2017-03-14T22:38:20Z</time>
      </trkpt>
      <trkpt lat="45.41743" lon="4.63709">
        <ele>780.8</ele>
        <time>2017-03-14T22:38:21Z</time>
      </trkpt>
      <trkpt lat="45.41736" lon="4.63706">
        <ele>780.4</ele>
        <time>2017-03-14T22:38:22Z</time>
      </trkpt>
      <trkpt lat="45.41736" lon="4.63701">
        <ele>781.4</ele>
        <time>2017-03-14T22:38:23Z</time>
      </trkpt>
      <trkpt lat="45.41731" lon="4.63702">
        <ele>781.2</ele>
        <time>2017-03-14T22:38:25Z</time>
      </trkpt>
      <trkpt lat="45.41721" lon="4.6371">
        <ele>778.5</ele>
        <time>2017-03-14T22:38:28Z</time>
      </trkpt>
      <trkpt lat="45.41723" lon="4.63699">
        <ele>781.6</ele>
        <time>2017-03-14T22:38:29Z</time>
      </trkpt>
      <trkpt lat="45.41719" lon="4.63701">
        <ele>780.4</ele>
        <time>2017-03-14T22:38:31Z</time>
      </trkpt>
      <trkpt lat="45.41715" lon="4.63698">
        <ele>781.3</ele>
        <time>2017-03-14T22:38:33Z</time>
      </trkpt>
      <trkpt lat="45.41711" lon="4.63701">
        <ele>780</ele>
        <time>2017-03-14T22:38:34Z</time>
      </trkpt>
      <trkpt lat="45.41712" lon="4.63694">
        <ele>782.3</ele>
        <time>2017-03-14T22:38:35Z</time>
      </trkpt>
      <trkpt lat="45.41709" lon="4.63694">
        <ele>782.2</ele>
        <time>2017-03-14T22:38:36Z</time>
      </trkpt>
      <trkpt lat="45.41707" lon="4.63687">
        <ele>785.2</ele>
        <time>2017-03-14T22:38:38Z</time>
      </trkpt>
      <trkpt lat="45.41707" lon="4.63685">
        <ele>785.3</ele>
        <time>2017-03-14T22:38:40Z</time>
      </trkpt>
      <trkpt lat="45.41707" lon="4.63682">
        <ele>787.2</ele>
        <time>2017-03-14T22:38:42Z</time>
      </trkpt>
      <trkpt lat="45.41708" lon="4.63679">
        <ele>789.2</ele>
        <time>2017-03-14T22:38:43Z</time>
      </trkpt>
      <trkpt lat="45.41708" lon="4.63673">
        <ele>791</ele>
        <time>2017-03-14T22:38:45Z</time>
      </trkpt>
      <trkpt lat="45.41706" lon="4.63673">
        <ele>791.1</ele>
        <time>2017-03-14T22:38:46Z</time>
      </trkpt>
      <trkpt lat="45.41701" lon="4.63671">
        <ele>791.1</ele>
        <time>2017-03-14T22:38:47Z</time>
      </trkpt>
      <trkpt lat="45.41699" lon="4.63668">
        <ele>792.7</ele>
        <time>2017-03-14T22:38:48Z</time>
      </trkpt>
      <trkpt lat="45.41695" lon="4.63667">
        <ele>792.5</ele>
        <time>2017-03-14T22:38:49Z</time>
      </trkpt>
      <trkpt lat="45.41693" lon="4.63664">
        <ele>793.5</ele>
        <time>2017-03-14T22:38:51Z</time>
      </trkpt>
      <trkpt lat="45.41694" lon="4.63659">
        <ele>794.9</ele>
        <time>2017-03-14T22:38:52Z</time>
      </trkpt>
      <trkpt lat="45.41691" lon="4.63656">
        <ele>795.8</ele>
        <time>2017-03-14T22:38:53Z</time>
      </trkpt>
      <trkpt lat="45.41691" lon="4.63646">
        <ele>798.4</ele>
        <time>2017-03-14T22:38:54Z</time>
      </trkpt>
      <trkpt lat="45.41683" lon="4.63651">
        <ele>795.8</ele>
        <time>2017-03-14T22:38:55Z</time>
      </trkpt>
      <trkpt lat="45.41683" lon="4.63647">
        <ele>796.2</ele>
        <time>2017-03-14T22:38:57Z</time>
      </trkpt>
      <trkpt lat="45.41683" lon="4.63638">
        <ele>798.4</ele>
        <time>2017-03-14T22:38:59Z</time>
      </trkpt>
      <trkpt lat="45.41695" lon="4.63612">
        <ele>809</ele>
        <time>2017-03-14T22:39:02Z</time>
      </trkpt>
      <trkpt lat="45.41689" lon="4.63607">
        <ele>808.6</ele>
        <time>2017-03-14T22:39:03Z</time>
      </trkpt>
      <trkpt lat="45.41691" lon="4.63613">
        <ele>807.8</ele>
        <time>2017-03-14T22:39:04Z</time>
      </trkpt>
      <trkpt lat="45.41686" lon="4.63612">
        <ele>806.9</ele>
        <time>2017-03-14T22:39:05Z</time>
      </trkpt>
      <trkpt lat="45.41681" lon="4.63615">
        <ele>803.8</ele>
        <time>2017-03-14T22:39:07Z</time>
      </trkpt>
      <trkpt lat="45.41674" lon="4.63612">
        <ele>802.2</ele>
        <time>2017-03-14T22:39:09Z</time>
      </trkpt>
      <trkpt lat="45.41668" lon="4.63614">
        <ele>799.8</ele>
        <time>2017-03-14T22:39:12Z</time>
      </trkpt>
      <trkpt lat="45.41664" lon="4.63613">
        <ele>797.7</ele>
        <time>2017-03-14T22:39:14Z</time>
      </trkpt>
      <trkpt lat="45.4166" lon="4.63612">
        <ele>796.8</ele>
        <time>2017-03-14T22:39:16Z</time>
      </trkpt>
      <trkpt lat="45.41659" lon="4.63607">
        <ele>797.8</ele>
        <time>2017-03-14T22:39:18Z</time>
      </trkpt>
      <trkpt lat="45.41653" lon="4.63601">
        <ele>798.8</ele>
        <time>2017-03-14T22:39:21Z</time>
      </trkpt>
      <trkpt lat="45.41648" lon="4.636">
        <ele>797.1</ele>
        <time>2017-03-14T22:39:24Z</time>
      </trkpt>
      <trkpt lat="45.41643" lon="4.636">
        <ele>795.8</ele>
        <time>2017-03-14T22:39:25Z</time>
      </trkpt>
      <trkpt lat="45.41642" lon="4.63595">
        <ele>797</ele>
        <time>2017-03-14T22:39:26Z</time>
      </trkpt>
      <trkpt lat="45.41645" lon="4.63591">
        <ele>798.9</ele>
        <time>2017-03-14T22:39:27Z</time>
      </trkpt>
      <trkpt lat="45.41641" lon="4.63591">
        <ele>798.2</ele>
        <time>2017-03-14T22:39:28Z</time>
      </trkpt>
      <trkpt lat="45.41636" lon="4.63589">
        <ele>797.2</ele>
        <time>2017-03-14T22:39:29Z</time>
      </trkpt>
      <trkpt lat="45.4164" lon="4.63591">
        <ele>797.7</ele>
        <time>2017-03-14T22:39:31Z</time>
      </trkpt>
      <trkpt lat="45.41641" lon="4.63596">
        <ele>797.1</ele>
        <time>2017-03-14T22:39:33Z</time>
      </trkpt>
      <trkpt lat="45.4164" lon="4.636">
        <ele>795.4</ele>
        <time>2017-03-14T22:39:36Z</time>
      </trkpt>
      <trkpt lat="45.41639" lon="4.63605">
        <ele>794.3</ele>
        <time>2017-03-14T22:39:38Z</time>
      </trkpt>
      <trkpt lat="45.41638" lon="4.6361">
        <ele>793.2</ele>
        <time>2017-03-14T22:39:40Z</time>
      </trkpt>
      <trkpt lat="45.41637" lon="4.63615">
        <ele>790.6</ele>
        <time>2017-03-14T22:39:43Z</time>
      </trkpt>
      <trkpt lat="45.41635" lon="4.6362">
        <ele>789.2</ele>
        <time>2017-03-14T22:39:45Z</time>
      </trkpt>
      <trkpt lat="45.4162" lon="4.63629">
        <ele>783.2</ele>
        <time>2017-03-14T22:39:48Z</time>
      </trkpt>
      <trkpt lat="45.41608" lon="4.63635">
        <ele>780</ele>
        <time>2017-03-14T22:39:59Z</time>
      </trkpt>
      <trkpt lat="45.41596" lon="4.63642">
        <ele>774.2</ele>
        <time>2017-03-14T22:40:01Z</time>
      </trkpt>
      <trkpt lat="45.41601" lon="4.63633">
        <ele>778.1</ele>
        <time>2017-03-14T22:40:03Z</time>
      </trkpt>
      <trkpt lat="45.41601" lon="4.63638">
        <ele>776.6</ele>
        <time>2017-03-14T22:40:06Z</time>
      </trkpt>
      <trkpt lat="45.416" lon="4.63642">
        <ele>775.1</ele>
        <time>2017-03-14T22:40:07Z</time>
      </trkpt>
      <trkpt lat="45.416" lon="4.63649">
        <ele>771.6</ele>
        <time>2017-03-14T22:40:08Z</time>
      </trkpt>
      <trkpt lat="45.41598" lon="4.63655">
        <ele>769</ele>
        <time>2017-03-14T22:40:09Z</time>
      </trkpt>
      <trkpt lat="45.41598" lon="4.6366">
        <ele>767.4</ele>
        <time>2017-03-14T22:40:10Z</time>
      </trkpt>
      <trkpt lat="45.41597" lon="4.63666">
        <ele>764.9</ele>
        <time>2017-03-14T22:40:11Z</time>
      </trkpt>
      <trkpt lat="45.41598" lon="4.63671">
        <ele>763.9</ele>
        <time>2017-03-14T22:40:13Z</time>
      </trkpt>
      <trkpt lat="45.41596" lon="4.63674">
        <ele>764</ele>
        <time>2017-03-14T22:40:14Z</time>
      </trkpt>
      <trkpt lat="45.41599" lon="4.63675">
        <ele>763.9</ele>
        <time>2017-03-14T22:40:16Z</time>
      </trkpt>
      <trkpt lat="45.41603" lon="4.63676">
        <ele>764.8</ele>
        <time>2017-03-14T22:40:18Z</time>
      </trkpt>
      <trkpt lat="45.41603" lon="4.6368">
        <ele>764</ele>
        <time>2017-03-14T22:40:19Z</time>
      </trkpt>
      <trkpt lat="45.41604" lon="4.63684">
        <ele>763.2</ele>
        <time>2017-03-14T22:40:20Z</time>
      </trkpt>
      <trkpt lat="45.41603" lon="4.6369">
        <ele>762.6</ele>
        <time>2017-03-14T22:40:21Z</time>
      </trkpt>
      <trkpt lat="45.41601" lon="4.63695">
        <ele>761.3</ele>
        <time>2017-03-14T22:40:22Z</time>
      </trkpt>
      <trkpt lat="45.41598" lon="4.63701">
        <ele>759.4</ele>
        <time>2017-03-14T22:40:23Z</time>
      </trkpt>
      <trkpt lat="45.416" lon="4.63704">
        <ele>760.3</ele>
        <time>2017-03-14T22:40:25Z</time>
      </trkpt>
      <trkpt lat="45.416" lon="4.63708">
        <ele>759.5</ele>
        <time>2017-03-14T22:40:26Z</time>
      </trkpt>
      <trkpt lat="45.41603" lon="4.63713">
        <ele>758.3</ele>
        <time>2017-03-14T22:40:29Z</time>
      </trkpt>
      <trkpt lat="45.41602" lon="4.63719">
        <ele>757.2</ele>
        <time>2017-03-14T22:40:30Z</time>
      </trkpt>
      <trkpt lat="45.41601" lon="4.63725">
        <ele>755.3</ele>
        <time>2017-03-14T22:40:32Z</time>
      </trkpt>
      <trkpt lat="45.41604" lon="4.63733">
        <ele>753.1</ele>
        <time>2017-03-14T22:40:34Z</time>
      </trkpt>
      <trkpt lat="45.41602" lon="4.6374">
        <ele>749.5</ele>
        <time>2017-03-14T22:40:35Z</time>
      </trkpt>
      <trkpt lat="45.41601" lon="4.63745">
        <ele>746.7</ele>
        <time>2017-03-14T22:40:36Z</time>
      </trkpt>
      <trkpt lat="45.41603" lon="4.63748">
        <ele>746.4</ele>
        <time>2017-03-14T22:40:37Z</time>
      </trkpt>
      <trkpt lat="45.416" lon="4.63758">
        <ele>742.5</ele>
        <time>2017-03-14T22:40:38Z</time>
      </trkpt>
      <trkpt lat="45.416" lon="4.63764">
        <ele>741.2</ele>
        <time>2017-03-14T22:40:39Z</time>
      </trkpt>
      <trkpt lat="45.41598" lon="4.63774">
        <ele>736.8</ele>
        <time>2017-03-14T22:40:41Z</time>
      </trkpt>
      <trkpt lat="45.41598" lon="4.6378">
        <ele>736</ele>
        <time>2017-03-14T22:40:42Z</time>
      </trkpt>
      <trkpt lat="45.41592" lon="4.63789">
        <ele>731.9</ele>
        <time>2017-03-14T22:40:43Z</time>
      </trkpt>
      <trkpt lat="45.41592" lon="4.63794">
        <ele>730.9</ele>
        <time>2017-03-14T22:40:44Z</time>
      </trkpt>
      <trkpt lat="45.41591" lon="4.63805">
        <ele>728.3</ele>
        <time>2017-03-14T22:40:45Z</time>
      </trkpt>
      <trkpt lat="45.41592" lon="4.63811">
        <ele>727.6</ele>
        <time>2017-03-14T22:40:47Z</time>
      </trkpt>
      <trkpt lat="45.41595" lon="4.63818">
        <ele>726.7</ele>
        <time>2017-03-14T22:40:49Z</time>
      </trkpt>
      <trkpt lat="45.416" lon="4.63823">
        <ele>727.5</ele>
        <time>2017-03-14T22:40:51Z</time>
      </trkpt>
      <trkpt lat="45.41602" lon="4.6383">
        <ele>726.8</ele>
        <time>2017-03-14T22:40:53Z</time>
      </trkpt>
      <trkpt lat="45.416" lon="4.63837">
        <ele>725.4</ele>
        <time>2017-03-14T22:40:54Z</time>
      </trkpt>
      <trkpt lat="45.416" lon="4.63842">
        <ele>724.7</ele>
        <time>2017-03-14T22:40:55Z</time>
      </trkpt>
      <trkpt lat="45.41601" lon="4.63847">
        <ele>723</ele>
        <time>2017-03-14T22:40:57Z</time>
      </trkpt>
      <trkpt lat="45.41601" lon="4.63853">
        <ele>722.2</ele>
        <time>2017-03-14T22:40:58Z</time>
      </trkpt>
      <trkpt lat="45.416" lon="4.63858">
        <ele>721.4</ele>
        <time>2017-03-14T22:40:59Z</time>
      </trkpt>
      <trkpt lat="45.41601" lon="4.63865">
        <ele>719.8</ele>
        <time>2017-03-14T22:41:00Z</time>
      </trkpt>
      <trkpt lat="45.41604" lon="4.6387">
        <ele>719.7</ele>
        <time>2017-03-14T22:41:02Z</time>
      </trkpt>
      <trkpt lat="45.41605" lon="4.63877">
        <ele>718.6</ele>
        <time>2017-03-14T22:41:04Z</time>
      </trkpt>
      <trkpt lat="45.41606" lon="4.63881">
        <ele>717.5</ele>
        <time>2017-03-14T22:41:05Z</time>
      </trkpt>
      <trkpt lat="45.41605" lon="4.63885">
        <ele>716.5</ele>
        <time>2017-03-14T22:41:06Z</time>
      </trkpt>
      <trkpt lat="45.41602" lon="4.63889">
        <ele>715.6</ele>
        <time>2017-03-14T22:41:07Z</time>
      </trkpt>
      <trkpt lat="45.41605" lon="4.63892">
        <ele>715.6</ele>
        <time>2017-03-14T22:41:09Z</time>
      </trkpt>
      <trkpt lat="45.41606" lon="4.63897">
        <ele>714.5</ele>
        <time>2017-03-14T22:41:11Z</time>
      </trkpt>
      <trkpt lat="45.41607" lon="4.63902">
        <ele>713.2</ele>
        <time>2017-03-14T22:41:13Z</time>
      </trkpt>
      <trkpt lat="45.4161" lon="4.63907">
        <ele>711.5</ele>
        <time>2017-03-14T22:41:14Z</time>
      </trkpt>
      <trkpt lat="45.41612" lon="4.63911">
        <ele>711.2</ele>
        <time>2017-03-14T22:41:15Z</time>
      </trkpt>
      <trkpt lat="45.41616" lon="4.63917">
        <ele>710.9</ele>
        <time>2017-03-14T22:41:17Z</time>
      </trkpt>
      <trkpt lat="45.41617" lon="4.63921">
        <ele>710.7</ele>
        <time>2017-03-14T22:41:18Z</time>
      </trkpt>
      <trkpt lat="45.41617" lon="4.63926">
        <ele>709.5</ele>
        <time>2017-03-14T22:41:19Z</time>
      </trkpt>
      <trkpt lat="45.41614" lon="4.63937">
        <ele>705.2</ele>
        <time>2017-03-14T22:41:22Z</time>
      </trkpt>
      <trkpt lat="45.41612" lon="4.6394">
        <ele>704.6</ele>
        <time>2017-03-14T22:41:25Z</time>
      </trkpt>
      <trkpt lat="45.41609" lon="4.63943">
        <ele>703</ele>
        <time>2017-03-14T22:41:26Z</time>
      </trkpt>
      <trkpt lat="45.41608" lon="4.63947">
        <ele>702</ele>
        <time>2017-03-14T22:41:27Z</time>
      </trkpt>
      <trkpt lat="45.41602" lon="4.63957">
        <ele>698.6</ele>
        <time>2017-03-14T22:41:28Z</time>
      </trkpt>
      <trkpt lat="45.41606" lon="4.63949">
        <ele>701.5</ele>
        <time>2017-03-14T22:41:29Z</time>
      </trkpt>
      <trkpt lat="45.41609" lon="4.63945">
        <ele>703.1</ele>
        <time>2017-03-14T22:41:30Z</time>
      </trkpt>
      <trkpt lat="45.41605" lon="4.63944">
        <ele>702.5</ele>
        <time>2017-03-14T22:41:31Z</time>
      </trkpt>
      <trkpt lat="45.41605" lon="4.63948">
        <ele>701.6</ele>
        <time>2017-03-14T22:41:32Z</time>
      </trkpt>
      <trkpt lat="45.416" lon="4.63952">
        <ele>699.4</ele>
        <time>2017-03-14T22:41:34Z</time>
      </trkpt>
      <trkpt lat="45.41599" lon="4.63956">
        <ele>698.2</ele>
        <time>2017-03-14T22:41:38Z</time>
      </trkpt>
      <trkpt lat="45.41601" lon="4.63958">
        <ele>697</ele>
        <time>2017-03-14T22:41:40Z</time>
      </trkpt>
      <trkpt lat="45.41604" lon="4.6396">
        <ele>697.6</ele>
        <time>2017-03-14T22:41:43Z</time>
      </trkpt>
      <trkpt lat="45.41606" lon="4.63962">
        <ele>697</ele>
        <time>2017-03-14T22:41:44Z</time>
      </trkpt>
      <trkpt lat="45.41605" lon="4.63967">
        <ele>696</ele>
        <time>2017-03-14T22:41:47Z</time>
      </trkpt>
      <trkpt lat="45.41607" lon="4.6397">
        <ele>696</ele>
        <time>2017-03-14T22:41:49Z</time>
      </trkpt>
      <trkpt lat="45.4161" lon="4.63971">
        <ele>695.8</ele>
        <time>2017-03-14T22:41:50Z</time>
      </trkpt>
      <trkpt lat="45.41615" lon="4.63975">
        <ele>697.2</ele>
        <time>2017-03-14T22:41:53Z</time>
      </trkpt>
      <trkpt lat="45.41618" lon="4.63974">
        <ele>698</ele>
        <time>2017-03-14T22:41:54Z</time>
      </trkpt>
      <trkpt lat="45.4162" lon="4.63979">
        <ele>697.9</ele>
        <time>2017-03-14T22:41:56Z</time>
      </trkpt>
      <trkpt lat="45.41614" lon="4.63984">
        <ele>694.6</ele>
        <time>2017-03-14T22:41:57Z</time>
      </trkpt>
      <trkpt lat="45.4161" lon="4.63986">
        <ele>693.2</ele>
        <time>2017-03-14T22:41:58Z</time>
      </trkpt>
      <trkpt lat="45.41606" lon="4.63989">
        <ele>691.8</ele>
        <time>2017-03-14T22:41:59Z</time>
      </trkpt>
      <trkpt lat="45.41599" lon="4.63993">
        <ele>690.1</ele>
        <time>2017-03-14T22:42:00Z</time>
      </trkpt>
      <trkpt lat="45.41597" lon="4.63996">
        <ele>689.7</ele>
        <time>2017-03-14T22:42:01Z</time>
      </trkpt>
      <trkpt lat="45.4159" lon="4.64002">
        <ele>688.3</ele>
        <time>2017-03-14T22:42:02Z</time>
      </trkpt>
      <trkpt lat="45.41589" lon="4.64007">
        <ele>687.7</ele>
        <time>2017-03-14T22:42:03Z</time>
      </trkpt>
      <trkpt lat="45.41585" lon="4.64013">
        <ele>687.2</ele>
        <time>2017-03-14T22:42:04Z</time>
      </trkpt>
      <trkpt lat="45.41584" lon="4.64016">
        <ele>686.7</ele>
        <time>2017-03-14T22:42:05Z</time>
      </trkpt>
      <trkpt lat="45.41581" lon="4.6402">
        <ele>686.2</ele>
        <time>2017-03-14T22:42:06Z</time>
      </trkpt>
      <trkpt lat="45.41582" lon="4.64026">
        <ele>685.9</ele>
        <time>2017-03-14T22:42:07Z</time>
      </trkpt>
      <trkpt lat="45.41578" lon="4.64031">
        <ele>685.7</ele>
        <time>2017-03-14T22:42:09Z</time>
      </trkpt>
      <trkpt lat="45.4158" lon="4.64037">
        <ele>685.2</ele>
        <time>2017-03-14T22:42:11Z</time>
      </trkpt>
      <trkpt lat="45.41583" lon="4.6404">
        <ele>684.9</ele>
        <time>2017-03-14T22:42:12Z</time>
      </trkpt>
      <trkpt lat="45.41583" lon="4.64045">
        <ele>684.6</ele>
        <time>2017-03-14T22:42:13Z</time>
      </trkpt>
      <trkpt lat="45.41582" lon="4.6405">
        <ele>684.3</ele>
        <time>2017-03-14T22:42:15Z</time>
      </trkpt>
      <trkpt lat="45.41581" lon="4.64058">
        <ele>683.8</ele>
        <time>2017-03-14T22:42:16Z</time>
      </trkpt>
      <trkpt lat="45.41583" lon="4.64068">
        <ele>683</ele>
        <time>2017-03-14T22:42:18Z</time>
      </trkpt>
      <trkpt lat="45.41585" lon="4.64074">
        <ele>681.6</ele>
        <time>2017-03-14T22:42:19Z</time>
      </trkpt>
      <trkpt lat="45.41588" lon="4.64079">
        <ele>680.7</ele>
        <time>2017-03-14T22:42:20Z</time>
      </trkpt>
      <trkpt lat="45.4159" lon="4.64084">
        <ele>679.8</ele>
        <time>2017-03-14T22:42:21Z</time>
      </trkpt>
      <trkpt lat="45.41592" lon="4.64093">
        <ele>678.7</ele>
        <time>2017-03-14T22:42:22Z</time>
      </trkpt>
      <trkpt lat="45.41597" lon="4.64098">
        <ele>677.3</ele>
        <time>2017-03-14T22:42:23Z</time>
      </trkpt>
      <trkpt lat="45.41601" lon="4.64104">
        <ele>675.8</ele>
        <time>2017-03-14T22:42:25Z</time>
      </trkpt>
      <trkpt lat="45.41602" lon="4.64107">
        <ele>675.5</ele>
        <time>2017-03-14T22:42:26Z</time>
      </trkpt>
      <trkpt lat="45.41605" lon="4.64112">
        <ele>674.7</ele>
        <time>2017-03-14T22:42:28Z</time>
      </trkpt>
      <trkpt lat="45.41603" lon="4.64116">
        <ele>674.5</ele>
        <time>2017-03-14T22:42:29Z</time>
      </trkpt>
      <trkpt lat="45.41603" lon="4.64121">
        <ele>673.4</ele>
        <time>2017-03-14T22:42:30Z</time>
      </trkpt>
      <trkpt lat="45.41602" lon="4.64126">
        <ele>673</ele>
        <time>2017-03-14T22:42:31Z</time>
      </trkpt>
      <trkpt lat="45.41605" lon="4.64133">
        <ele>672</ele>
        <time>2017-03-14T22:42:33Z</time>
      </trkpt>
      <trkpt lat="45.41607" lon="4.64137">
        <ele>671.6</ele>
        <time>2017-03-14T22:42:34Z</time>
      </trkpt>
      <trkpt lat="45.41605" lon="4.64151">
        <ele>671.6</ele>
        <time>2017-03-14T22:42:36Z</time>
      </trkpt>
      <trkpt lat="45.41611" lon="4.64156">
        <ele>668.7</ele>
        <time>2017-03-14T22:42:38Z</time>
      </trkpt>
      <trkpt lat="45.41614" lon="4.64159">
        <ele>667.9</ele>
        <time>2017-03-14T22:42:39Z</time>
      </trkpt>
      <trkpt lat="45.41615" lon="4.64163">
        <ele>667.9</ele>
        <time>2017-03-14T22:42:40Z</time>
      </trkpt>
      <trkpt lat="45.41622" lon="4.64167">
        <ele>666.4</ele>
        <time>2017-03-14T22:42:41Z</time>
      </trkpt>
      <trkpt lat="45.41626" lon="4.64172">
        <ele>665.1</ele>
        <time>2017-03-14T22:42:42Z</time>
      </trkpt>
      <trkpt lat="45.4163" lon="4.64176">
        <ele>664.8</ele>
        <time>2017-03-14T22:42:45Z</time>
      </trkpt>
      <trkpt lat="45.41634" lon="4.64182">
        <ele>665</ele>
        <time>2017-03-14T22:42:47Z</time>
      </trkpt>
      <trkpt lat="45.41635" lon="4.64187">
        <ele>665</ele>
        <time>2017-03-14T22:42:48Z</time>
      </trkpt>
      <trkpt lat="45.41637" lon="4.6419">
        <ele>665.6</ele>
        <time>2017-03-14T22:42:49Z</time>
      </trkpt>
      <trkpt lat="45.4164" lon="4.64195">
        <ele>665.6</ele>
        <time>2017-03-14T22:42:50Z</time>
      </trkpt>
      <trkpt lat="45.41641" lon="4.64198">
        <ele>665.1</ele>
        <time>2017-03-14T22:42:51Z</time>
      </trkpt>
      <trkpt lat="45.41644" lon="4.64204">
        <ele>665.9</ele>
        <time>2017-03-14T22:42:52Z</time>
      </trkpt>
      <trkpt lat="45.41647" lon="4.64208">
        <ele>666.8</ele>
        <time>2017-03-14T22:42:53Z</time>
      </trkpt>
      <trkpt lat="45.41649" lon="4.64215">
        <ele>668</ele>
        <time>2017-03-14T22:42:55Z</time>
      </trkpt>
      <trkpt lat="45.41651" lon="4.6422">
        <ele>668.3</ele>
        <time>2017-03-14T22:42:56Z</time>
      </trkpt>
      <trkpt lat="45.41651" lon="4.64227">
        <ele>669.3</ele>
        <time>2017-03-14T22:42:58Z</time>
      </trkpt>
      <trkpt lat="45.41654" lon="4.64229">
        <ele>669.6</ele>
        <time>2017-03-14T22:42:59Z</time>
      </trkpt>
      <trkpt lat="45.41656" lon="4.64233">
        <ele>669.9</ele>
        <time>2017-03-14T22:43:01Z</time>
      </trkpt>
      <trkpt lat="45.41657" lon="4.64237">
        <ele>669.9</ele>
        <time>2017-03-14T22:43:03Z</time>
      </trkpt>
      <trkpt lat="45.41663" lon="4.64239">
        <ele>669.2</ele>
        <time>2017-03-14T22:43:05Z</time>
      </trkpt>
      <trkpt lat="45.41664" lon="4.64244">
        <ele>670.3</ele>
        <time>2017-03-14T22:43:06Z</time>
      </trkpt>
      <trkpt lat="45.41667" lon="4.64257">
        <ele>672.2</ele>
        <time>2017-03-14T22:43:08Z</time>
      </trkpt>
      <trkpt lat="45.41669" lon="4.64261">
        <ele>672.2</ele>
        <time>2017-03-14T22:43:09Z</time>
      </trkpt>
      <trkpt lat="45.4167" lon="4.64266">
        <ele>673.2</ele>
        <time>2017-03-14T22:43:12Z</time>
      </trkpt>
      <trkpt lat="45.41672" lon="4.64273">
        <ele>673.9</ele>
        <time>2017-03-14T22:43:13Z</time>
      </trkpt>
      <trkpt lat="45.41675" lon="4.64276">
        <ele>673.4</ele>
        <time>2017-03-14T22:43:14Z</time>
      </trkpt>
      <trkpt lat="45.41677" lon="4.6428">
        <ele>672</ele>
        <time>2017-03-14T22:43:15Z</time>
      </trkpt>
      <trkpt lat="45.41678" lon="4.64284">
        <ele>672.7</ele>
        <time>2017-03-14T22:43:16Z</time>
      </trkpt>
      <trkpt lat="45.41681" lon="4.64291">
        <ele>672.8</ele>
        <time>2017-03-14T22:43:17Z</time>
      </trkpt>
      <trkpt lat="45.41684" lon="4.64298">
        <ele>672.8</ele>
        <time>2017-03-14T22:43:18Z</time>
      </trkpt>
      <trkpt lat="45.41687" lon="4.64301">
        <ele>671.2</ele>
        <time>2017-03-14T22:43:19Z</time>
      </trkpt>
      <trkpt lat="45.41687" lon="4.64304">
        <ele>671.9</ele>
        <time>2017-03-14T22:43:20Z</time>
      </trkpt>
      <trkpt lat="45.41692" lon="4.64307">
        <ele>671.2</ele>
        <time>2017-03-14T22:43:22Z</time>
      </trkpt>
      <trkpt lat="45.41693" lon="4.64312">
        <ele>670.7</ele>
        <time>2017-03-14T22:43:23Z</time>
      </trkpt>
      <trkpt lat="45.41698" lon="4.64318">
        <ele>669.2</ele>
        <time>2017-03-14T22:43:24Z</time>
      </trkpt>
      <trkpt lat="45.41701" lon="4.64321">
        <ele>669</ele>
        <time>2017-03-14T22:43:25Z</time>
      </trkpt>
      <trkpt lat="45.41704" lon="4.64324">
        <ele>670</ele>
        <time>2017-03-14T22:43:26Z</time>
      </trkpt>
      <trkpt lat="45.41706" lon="4.64328">
        <ele>669.7</ele>
        <time>2017-03-14T22:43:27Z</time>
      </trkpt>
      <trkpt lat="45.41708" lon="4.6433">
        <ele>668.4</ele>
        <time>2017-03-14T22:43:28Z</time>
      </trkpt>
      <trkpt lat="45.41711" lon="4.64334">
        <ele>667.9</ele>
        <time>2017-03-14T22:43:29Z</time>
      </trkpt>
      <trkpt lat="45.41714" lon="4.64336">
        <ele>667.5</ele>
        <time>2017-03-14T22:43:30Z</time>
      </trkpt>
      <trkpt lat="45.41716" lon="4.64342">
        <ele>668.5</ele>
        <time>2017-03-14T22:43:31Z</time>
      </trkpt>
      <trkpt lat="45.41718" lon="4.64345">
        <ele>668.2</ele>
        <time>2017-03-14T22:43:32Z</time>
      </trkpt>
      <trkpt lat="45.41718" lon="4.64351">
        <ele>669.3</ele>
        <time>2017-03-14T22:43:33Z</time>
      </trkpt>
      <trkpt lat="45.41723" lon="4.64358">
        <ele>668.4</ele>
        <time>2017-03-14T22:43:34Z</time>
      </trkpt>
      <trkpt lat="45.41727" lon="4.64367">
        <ele>668.5</ele>
        <time>2017-03-14T22:43:35Z</time>
      </trkpt>
      <trkpt lat="45.41729" lon="4.64374">
        <ele>668.8</ele>
        <time>2017-03-14T22:43:36Z</time>
      </trkpt>
      <trkpt lat="45.41734" lon="4.6438">
        <ele>668</ele>
        <time>2017-03-14T22:43:37Z</time>
      </trkpt>
      <trkpt lat="45.41737" lon="4.64388">
        <ele>666.3</ele>
        <time>2017-03-14T22:43:38Z</time>
      </trkpt>
      <trkpt lat="45.41738" lon="4.64393">
        <ele>667</ele>
        <time>2017-03-14T22:43:39Z</time>
      </trkpt>
      <trkpt lat="45.41739" lon="4.644">
        <ele>667.8</ele>
        <time>2017-03-14T22:43:40Z</time>
      </trkpt>
      <trkpt lat="45.4174" lon="4.64407">
        <ele>669.4</ele>
        <time>2017-03-14T22:43:41Z</time>
      </trkpt>
      <trkpt lat="45.41742" lon="4.64409">
        <ele>668.6</ele>
        <time>2017-03-14T22:43:42Z</time>
      </trkpt>
      <trkpt lat="45.41744" lon="4.64413">
        <ele>667.8</ele>
        <time>2017-03-14T22:43:43Z</time>
      </trkpt>
      <trkpt lat="45.41746" lon="4.64417">
        <ele>667.8</ele>
        <time>2017-03-14T22:43:44Z</time>
      </trkpt>
      <trkpt lat="45.41747" lon="4.64421">
        <ele>667.1</ele>
        <time>2017-03-14T22:43:45Z</time>
      </trkpt>
      <trkpt lat="45.41747" lon="4.64428">
        <ele>668.5</ele>
        <time>2017-03-14T22:43:47Z</time>
      </trkpt>
      <trkpt lat="45.41748" lon="4.64432">
        <ele>669.1</ele>
        <time>2017-03-14T22:43:48Z</time>
      </trkpt>
      <trkpt lat="45.41749" lon="4.64436">
        <ele>669.8</ele>
        <time>2017-03-14T22:43:49Z</time>
      </trkpt>
      <trkpt lat="45.4175" lon="4.64441">
        <ele>669.1</ele>
        <time>2017-03-14T22:43:50Z</time>
      </trkpt>
      <trkpt lat="45.41749" lon="4.64445">
        <ele>670.8</ele>
        <time>2017-03-14T22:43:51Z</time>
      </trkpt>
      <trkpt lat="45.4175" lon="4.64449">
        <ele>670</ele>
        <time>2017-03-14T22:43:52Z</time>
      </trkpt>
      <trkpt lat="45.41751" lon="4.64454">
        <ele>670.4</ele>
        <time>2017-03-14T22:43:53Z</time>
      </trkpt>
      <trkpt lat="45.41751" lon="4.64464">
        <ele>671.2</ele>
        <time>2017-03-14T22:43:54Z</time>
      </trkpt>
      <trkpt lat="45.41752" lon="4.64468">
        <ele>671.4</ele>
        <time>2017-03-14T22:43:55Z</time>
      </trkpt>
      <trkpt lat="45.4175" lon="4.64472">
        <ele>671.6</ele>
        <time>2017-03-14T22:43:56Z</time>
      </trkpt>
      <trkpt lat="45.4175" lon="4.64478">
        <ele>671.8</ele>
        <time>2017-03-14T22:43:57Z</time>
      </trkpt>
      <trkpt lat="45.41749" lon="4.64483">
        <ele>672.9</ele>
        <time>2017-03-14T22:43:58Z</time>
      </trkpt>
      <trkpt lat="45.41747" lon="4.6449">
        <ele>672.8</ele>
        <time>2017-03-14T22:43:59Z</time>
      </trkpt>
      <trkpt lat="45.41747" lon="4.64494">
        <ele>672.9</ele>
        <time>2017-03-14T22:44:00Z</time>
      </trkpt>
      <trkpt lat="45.41749" lon="4.645">
        <ele>672.7</ele>
        <time>2017-03-14T22:44:01Z</time>
      </trkpt>
      <trkpt lat="45.4175" lon="4.64507">
        <ele>671.7</ele>
        <time>2017-03-14T22:44:02Z</time>
      </trkpt>
      <trkpt lat="45.41754" lon="4.64513">
        <ele>670.6</ele>
        <time>2017-03-14T22:44:03Z</time>
      </trkpt>
      <trkpt lat="45.41756" lon="4.64519">
        <ele>669.5</ele>
        <time>2017-03-14T22:44:04Z</time>
      </trkpt>
      <trkpt lat="45.41756" lon="4.64525">
        <ele>669.2</ele>
        <time>2017-03-14T22:44:05Z</time>
      </trkpt>
      <trkpt lat="45.41759" lon="4.64535">
        <ele>667.7</ele>
        <time>2017-03-14T22:44:06Z</time>
      </trkpt>
      <trkpt lat="45.41759" lon="4.64545">
        <ele>667.2</ele>
        <time>2017-03-14T22:44:07Z</time>
      </trkpt>
      <trkpt lat="45.41759" lon="4.64558">
        <ele>666.5</ele>
        <time>2017-03-14T22:44:08Z</time>
      </trkpt>
      <trkpt lat="45.41761" lon="4.64567">
        <ele>665.9</ele>
        <time>2017-03-14T22:44:09Z</time>
      </trkpt>
      <trkpt lat="45.41754" lon="4.64578">
        <ele>666.9</ele>
        <time>2017-03-14T22:44:10Z</time>
      </trkpt>
      <trkpt lat="45.41757" lon="4.64584">
        <ele>666</ele>
        <time>2017-03-14T22:44:11Z</time>
      </trkpt>
      <trkpt lat="45.41758" lon="4.64594">
        <ele>665.2</ele>
        <time>2017-03-14T22:44:13Z</time>
      </trkpt>
      <trkpt lat="45.41758" lon="4.64601">
        <ele>664.2</ele>
        <time>2017-03-14T22:44:14Z</time>
      </trkpt>
      <trkpt lat="45.41764" lon="4.64605">
        <ele>663.2</ele>
        <time>2017-03-14T22:44:15Z</time>
      </trkpt>
      <trkpt lat="45.41756" lon="4.64605">
        <ele>664.6</ele>
        <time>2017-03-14T22:44:16Z</time>
      </trkpt>
      <trkpt lat="45.41759" lon="4.64616">
        <ele>663.3</ele>
        <time>2017-03-14T22:44:17Z</time>
      </trkpt>
      <trkpt lat="45.41756" lon="4.64614">
        <ele>663.9</ele>
        <time>2017-03-14T22:44:18Z</time>
      </trkpt>
      <trkpt lat="45.41758" lon="4.6462">
        <ele>663.1</ele>
        <time>2017-03-14T22:44:19Z</time>
      </trkpt>
      <trkpt lat="45.41756" lon="4.64626">
        <ele>663.6</ele>
        <time>2017-03-14T22:44:21Z</time>
      </trkpt>
      <trkpt lat="45.41754" lon="4.64629">
        <ele>664</ele>
        <time>2017-03-14T22:44:22Z</time>
      </trkpt>
      <trkpt lat="45.41754" lon="4.64637">
        <ele>663.9</ele>
        <time>2017-03-14T22:44:23Z</time>
      </trkpt>
      <trkpt lat="45.41756" lon="4.64642">
        <ele>663.5</ele>
        <time>2017-03-14T22:44:25Z</time>
      </trkpt>
      <trkpt lat="45.41757" lon="4.64648">
        <ele>663.7</ele>
        <time>2017-03-14T22:44:27Z</time>
      </trkpt>
      <trkpt lat="45.41753" lon="4.6465">
        <ele>664.4</ele>
        <time>2017-03-14T22:44:28Z</time>
      </trkpt>
      <trkpt lat="45.41753" lon="4.64655">
        <ele>664.6</ele>
        <time>2017-03-14T22:44:29Z</time>
      </trkpt>
      <trkpt lat="45.41753" lon="4.64662">
        <ele>665</ele>
        <time>2017-03-14T22:44:30Z</time>
      </trkpt>
      <trkpt lat="45.41748" lon="4.64663">
        <ele>665.9</ele>
        <time>2017-03-14T22:44:31Z</time>
      </trkpt>
      <trkpt lat="45.41745" lon="4.64668">
        <ele>666.5</ele>
        <time>2017-03-14T22:44:33Z</time>
      </trkpt>
      <trkpt lat="45.41747" lon="4.64677">
        <ele>666.1</ele>
        <time>2017-03-14T22:44:35Z</time>
      </trkpt>
      <trkpt lat="45.41743" lon="4.64683">
        <ele>667</ele>
        <time>2017-03-14T22:44:36Z</time>
      </trkpt>
      <trkpt lat="45.41746" lon="4.64691">
        <ele>666.5</ele>
        <time>2017-03-14T22:44:37Z</time>
      </trkpt>
      <trkpt lat="45.4175" lon="4.64707">
        <ele>665.7</ele>
        <time>2017-03-14T22:44:38Z</time>
      </trkpt>
      <trkpt lat="45.41747" lon="4.64711">
        <ele>666</ele>
        <time>2017-03-14T22:44:39Z</time>
      </trkpt>
      <trkpt lat="45.41747" lon="4.6472">
        <ele>666.1</ele>
        <time>2017-03-14T22:44:40Z</time>
      </trkpt>
      <trkpt lat="45.4174" lon="4.64716">
        <ele>667.4</ele>
        <time>2017-03-14T22:44:41Z</time>
      </trkpt>
      <trkpt lat="45.41742" lon="4.64722">
        <ele>667</ele>
        <time>2017-03-14T22:44:42Z</time>
      </trkpt>
      <trkpt lat="45.41741" lon="4.64727">
        <ele>667</ele>
        <time>2017-03-14T22:44:43Z</time>
      </trkpt>
      <trkpt lat="45.41739" lon="4.64729">
        <ele>667.6</ele>
        <time>2017-03-14T22:44:44Z</time>
      </trkpt>
      <trkpt lat="45.41738" lon="4.64738">
        <ele>667.6</ele>
        <time>2017-03-14T22:44:46Z</time>
      </trkpt>
      <trkpt lat="45.41733" lon="4.64745">
        <ele>668.5</ele>
        <time>2017-03-14T22:44:47Z</time>
      </trkpt>
      <trkpt lat="45.41734" lon="4.64749">
        <ele>668</ele>
        <time>2017-03-14T22:44:48Z</time>
      </trkpt>
      <trkpt lat="45.41737" lon="4.64754">
        <ele>668</ele>
        <time>2017-03-14T22:44:49Z</time>
      </trkpt>
      <trkpt lat="45.41738" lon="4.6476">
        <ele>667.5</ele>
        <time>2017-03-14T22:44:50Z</time>
      </trkpt>
      <trkpt lat="45.41738" lon="4.6477">
        <ele>667.1</ele>
        <time>2017-03-14T22:44:51Z</time>
      </trkpt>
      <trkpt lat="45.41733" lon="4.64771">
        <ele>668</ele>
        <time>2017-03-14T22:44:52Z</time>
      </trkpt>
      <trkpt lat="45.41731" lon="4.64776">
        <ele>668.3</ele>
        <time>2017-03-14T22:44:53Z</time>
      </trkpt>
      <trkpt lat="45.41729" lon="4.64779">
        <ele>668.2</ele>
        <time>2017-03-14T22:44:54Z</time>
      </trkpt>
      <trkpt lat="45.41728" lon="4.64783">
        <ele>668.5</ele>
        <time>2017-03-14T22:44:55Z</time>
      </trkpt>
      <trkpt lat="45.41733" lon="4.64787">
        <ele>667.4</ele>
        <time>2017-03-14T22:44:56Z</time>
      </trkpt>
      <trkpt lat="45.41731" lon="4.64794">
        <ele>667.7</ele>
        <time>2017-03-14T22:44:57Z</time>
      </trkpt>
      <trkpt lat="45.41732" lon="4.6479">
        <ele>667.5</ele>
        <time>2017-03-14T22:44:58Z</time>
      </trkpt>
      <trkpt lat="45.41729" lon="4.64791">
        <ele>667.7</ele>
        <time>2017-03-14T22:45:04Z</time>
      </trkpt>
      <trkpt lat="45.41725" lon="4.6479">
        <ele>668.4</ele>
        <time>2017-03-14T22:45:10Z</time>
      </trkpt>
      <trkpt lat="45.41722" lon="4.64792">
        <ele>669</ele>
        <time>2017-03-14T22:45:14Z</time>
      </trkpt>
      <trkpt lat="45.41719" lon="4.64794">
        <ele>669</ele>
        <time>2017-03-14T22:45:15Z</time>
      </trkpt>
      <trkpt lat="45.41716" lon="4.64796">
        <ele>669.4</ele>
        <time>2017-03-14T22:45:17Z</time>
      </trkpt>
      <trkpt lat="45.41711" lon="4.64797">
        <ele>670.7</ele>
        <time>2017-03-14T22:45:18Z</time>
      </trkpt>
      <trkpt lat="45.41709" lon="4.648">
        <ele>671.3</ele>
        <time>2017-03-14T22:45:19Z</time>
      </trkpt>
      <trkpt lat="45.41706" lon="4.64801">
        <ele>672.1</ele>
        <time>2017-03-14T22:45:20Z</time>
      </trkpt>
      <trkpt lat="45.41704" lon="4.64803">
        <ele>672.9</ele>
        <time>2017-03-14T22:45:21Z</time>
      </trkpt>
      <trkpt lat="45.41697" lon="4.64803">
        <ele>674.4</ele>
        <time>2017-03-14T22:45:23Z</time>
      </trkpt>
      <trkpt lat="45.41692" lon="4.64804">
        <ele>675.4</ele>
        <time>2017-03-14T22:45:25Z</time>
      </trkpt>
      <trkpt lat="45.41689" lon="4.64805">
        <ele>676.1</ele>
        <time>2017-03-14T22:45:26Z</time>
      </trkpt>
      <trkpt lat="45.41682" lon="4.64808">
        <ele>677.2</ele>
        <time>2017-03-14T22:45:29Z</time>
      </trkpt>
      <trkpt lat="45.41675" lon="4.64811">
        <ele>678.8</ele>
        <time>2017-03-14T22:45:31Z</time>
      </trkpt>
      <trkpt lat="45.4167" lon="4.64811">
        <ele>680.4</ele>
        <time>2017-03-14T22:45:32Z</time>
      </trkpt>
      <trkpt lat="45.41664" lon="4.64811">
        <ele>681.8</ele>
        <time>2017-03-14T22:45:35Z</time>
      </trkpt>
      <trkpt lat="45.41661" lon="4.64812">
        <ele>681.9</ele>
        <time>2017-03-14T22:45:36Z</time>
      </trkpt>
      <trkpt lat="45.4166" lon="4.64817">
        <ele>681.5</ele>
        <time>2017-03-14T22:45:43Z</time>
      </trkpt>
      <trkpt lat="45.41659" lon="4.64822">
        <ele>681.1</ele>
        <time>2017-03-14T22:45:49Z</time>
      </trkpt>
      <trkpt lat="45.41657" lon="4.64827">
        <ele>680.6</ele>
        <time>2017-03-14T22:45:53Z</time>
      </trkpt>
      <trkpt lat="45.41653" lon="4.64829">
        <ele>680.2</ele>
        <time>2017-03-14T22:45:56Z</time>
      </trkpt>
      <trkpt lat="45.41649" lon="4.6483">
        <ele>679.8</ele>
        <time>2017-03-14T22:45:58Z</time>
      </trkpt>
      <trkpt lat="45.41644" lon="4.6483">
        <ele>679.6</ele>
        <time>2017-03-14T22:46:01Z</time>
      </trkpt>
      <trkpt lat="45.41641" lon="4.64832">
        <ele>679.4</ele>
        <time>2017-03-14T22:46:04Z</time>
      </trkpt>
      <trkpt lat="45.41636" lon="4.64834">
        <ele>679.2</ele>
        <time>2017-03-14T22:46:07Z</time>
      </trkpt>
      <trkpt lat="45.41631" lon="4.64835">
        <ele>678.9</ele>
        <time>2017-03-14T22:46:09Z</time>
      </trkpt>
      <trkpt lat="45.41627" lon="4.64835">
        <ele>678.6</ele>
        <time>2017-03-14T22:46:10Z</time>
      </trkpt>
      <trkpt lat="45.41624" lon="4.64837">
        <ele>678.4</ele>
        <time>2017-03-14T22:46:12Z</time>
      </trkpt>
      <trkpt lat="45.41621" lon="4.64838">
        <ele>678.2</ele>
        <time>2017-03-14T22:46:13Z</time>
      </trkpt>
      <trkpt lat="45.41617" lon="4.64841">
        <ele>679</ele>
        <time>2017-03-14T22:46:15Z</time>
      </trkpt>
      <trkpt lat="45.41614" lon="4.64843">
        <ele>679.6</ele>
        <time>2017-03-14T22:46:17Z</time>
      </trkpt>
      <trkpt lat="45.41615" lon="4.64848">
        <ele>678.9</ele>
        <time>2017-03-14T22:46:22Z</time>
      </trkpt>
      <trkpt lat="45.41612" lon="4.6485">
        <ele>680.1</ele>
        <time>2017-03-14T22:46:27Z</time>
      </trkpt>
      <trkpt lat="45.41607" lon="4.64852">
        <ele>681.8</ele>
        <time>2017-03-14T22:46:29Z</time>
      </trkpt>
      <trkpt lat="45.41605" lon="4.64854">
        <ele>683</ele>
        <time>2017-03-14T22:46:31Z</time>
      </trkpt>
      <trkpt lat="45.41602" lon="4.64856">
        <ele>682.4</ele>
        <time>2017-03-14T22:46:34Z</time>
      </trkpt>
      <trkpt lat="45.416" lon="4.64859">
        <ele>683.6</ele>
        <time>2017-03-14T22:46:36Z</time>
      </trkpt>
      <trkpt lat="45.41595" lon="4.64859">
        <ele>686</ele>
        <time>2017-03-14T22:46:38Z</time>
      </trkpt>
      <trkpt lat="45.41591" lon="4.64857">
        <ele>687.1</ele>
        <time>2017-03-14T22:46:39Z</time>
      </trkpt>
      <trkpt lat="45.41587" lon="4.64858">
        <ele>688</ele>
        <time>2017-03-14T22:46:40Z</time>
      </trkpt>
      <trkpt lat="45.41584" lon="4.64859">
        <ele>688.5</ele>
        <time>2017-03-14T22:46:41Z</time>
      </trkpt>
      <trkpt lat="45.4158" lon="4.6486">
        <ele>690.1</ele>
        <time>2017-03-14T22:46:42Z</time>
      </trkpt>
      <trkpt lat="45.41583" lon="4.64864">
        <ele>688.9</ele>
        <time>2017-03-14T22:46:44Z</time>
      </trkpt>
      <trkpt lat="45.4158" lon="4.64865">
        <ele>689.7</ele>
        <time>2017-03-14T22:46:48Z</time>
      </trkpt>
      <trkpt lat="45.41582" lon="4.64867">
        <ele>688.9</ele>
        <time>2017-03-14T22:46:50Z</time>
      </trkpt>
      <trkpt lat="45.41579" lon="4.64867">
        <ele>689.7</ele>
        <time>2017-03-14T22:46:51Z</time>
      </trkpt>
      <trkpt lat="45.41577" lon="4.64869">
        <ele>690.2</ele>
        <time>2017-03-14T22:46:56Z</time>
      </trkpt>
      <trkpt lat="45.41574" lon="4.6487">
        <ele>691.2</ele>
        <time>2017-03-14T22:46:58Z</time>
      </trkpt>
      <trkpt lat="45.41568" lon="4.64868">
        <ele>693</ele>
        <time>2017-03-14T22:47:00Z</time>
      </trkpt>
      <trkpt lat="45.41571" lon="4.64869">
        <ele>692.1</ele>
        <time>2017-03-14T22:47:01Z</time>
      </trkpt>
      <trkpt lat="45.41566" lon="4.64868">
        <ele>693</ele>
        <time>2017-03-14T22:47:03Z</time>
      </trkpt>
      <trkpt lat="45.41562" lon="4.64868">
        <ele>694.7</ele>
        <time>2017-03-14T22:47:05Z</time>
      </trkpt>
      <trkpt lat="45.41558" lon="4.64869">
        <ele>695.5</ele>
        <time>2017-03-14T22:47:06Z</time>
      </trkpt>
      <trkpt lat="45.41552" lon="4.64867">
        <ele>697.7</ele>
        <time>2017-03-14T22:47:08Z</time>
      </trkpt>
      <trkpt lat="45.41547" lon="4.64866">
        <ele>699.7</ele>
        <time>2017-03-14T22:47:10Z</time>
      </trkpt>
      <trkpt lat="45.41542" lon="4.64864">
        <ele>700.7</ele>
        <time>2017-03-14T22:47:15Z</time>
      </trkpt>
      <trkpt lat="45.41539" lon="4.64865">
        <ele>701.6</ele>
        <time>2017-03-14T22:47:20Z</time>
      </trkpt>
      <trkpt lat="45.41535" lon="4.64863">
        <ele>703</ele>
        <time>2017-03-14T22:47:24Z</time>
      </trkpt>
      <trkpt lat="45.41537" lon="4.6486">
        <ele>703</ele>
        <time>2017-03-14T22:47:29Z</time>
      </trkpt>
      <trkpt lat="45.4154" lon="4.64857">
        <ele>702.9</ele>
        <time>2017-03-14T22:47:35Z</time>
      </trkpt>
      <trkpt lat="45.41514" lon="4.6476">
        <ele>723.3</ele>
        <time>2017-03-14T22:48:12Z</time>
      </trkpt>
      <trkpt lat="45.4152" lon="4.64757">
        <ele>722.6</ele>
        <time>2017-03-14T22:48:14Z</time>
      </trkpt>
      <trkpt lat="45.41528" lon="4.64755">
        <ele>721.9</ele>
        <time>2017-03-14T22:48:16Z</time>
      </trkpt>
      <trkpt lat="45.41521" lon="4.64751">
        <ele>723.4</ele>
        <time>2017-03-14T22:48:17Z</time>
      </trkpt>
      <trkpt lat="45.41517" lon="4.64748">
        <ele>724.3</ele>
        <time>2017-03-14T22:48:18Z</time>
      </trkpt>
      <trkpt lat="45.41514" lon="4.64747">
        <ele>725.2</ele>
        <time>2017-03-14T22:48:19Z</time>
      </trkpt>
      <trkpt lat="45.41522" lon="4.64746">
        <ele>723.8</ele>
        <time>2017-03-14T22:48:21Z</time>
      </trkpt>
      <trkpt lat="45.41525" lon="4.64744">
        <ele>723.2</ele>
        <time>2017-03-14T22:48:22Z</time>
      </trkpt>
      <trkpt lat="45.4153" lon="4.64743">
        <ele>722.1</ele>
        <time>2017-03-14T22:48:23Z</time>
      </trkpt>
      <trkpt lat="45.41529" lon="4.6474">
        <ele>722.8</ele>
        <time>2017-03-14T22:48:25Z</time>
      </trkpt>
      <trkpt lat="45.41529" lon="4.64734">
        <ele>723</ele>
        <time>2017-03-14T22:48:27Z</time>
      </trkpt>
      <trkpt lat="45.41531" lon="4.64733">
        <ele>722.3</ele>
        <time>2017-03-14T22:48:28Z</time>
      </trkpt>
      <trkpt lat="45.41531" lon="4.64726">
        <ele>722.4</ele>
        <time>2017-03-14T22:48:30Z</time>
      </trkpt>
      <trkpt lat="45.41534" lon="4.64723">
        <ele>721.6</ele>
        <time>2017-03-14T22:48:32Z</time>
      </trkpt>
      <trkpt lat="45.41533" lon="4.64719">
        <ele>721.9</ele>
        <time>2017-03-14T22:48:36Z</time>
      </trkpt>
      <trkpt lat="45.41533" lon="4.64715">
        <ele>722.3</ele>
        <time>2017-03-14T22:48:39Z</time>
      </trkpt>
      <trkpt lat="45.41536" lon="4.64714">
        <ele>721.3</ele>
        <time>2017-03-14T22:48:40Z</time>
      </trkpt>
      <trkpt lat="45.41537" lon="4.64708">
        <ele>722.6</ele>
        <time>2017-03-14T22:48:42Z</time>
      </trkpt>
      <trkpt lat="45.41535" lon="4.64704">
        <ele>723.3</ele>
        <time>2017-03-14T22:48:44Z</time>
      </trkpt>
      <trkpt lat="45.41538" lon="4.64702">
        <ele>722.2</ele>
        <time>2017-03-14T22:48:45Z</time>
      </trkpt>
      <trkpt lat="45.41538" lon="4.64697">
        <ele>724.1</ele>
        <time>2017-03-14T22:48:48Z</time>
      </trkpt>
      <trkpt lat="45.41541" lon="4.64695">
        <ele>723.5</ele>
        <time>2017-03-14T22:48:50Z</time>
      </trkpt>
      <trkpt lat="45.41538" lon="4.6469">
        <ele>725.3</ele>
        <time>2017-03-14T22:48:51Z</time>
      </trkpt>
      <trkpt lat="45.4154" lon="4.64686">
        <ele>724.8</ele>
        <time>2017-03-14T22:48:52Z</time>
      </trkpt>
      <trkpt lat="45.41537" lon="4.64682">
        <ele>726.5</ele>
        <time>2017-03-14T22:48:56Z</time>
      </trkpt>
      <trkpt lat="45.41537" lon="4.64678">
        <ele>727</ele>
        <time>2017-03-14T22:48:57Z</time>
      </trkpt>
      <trkpt lat="45.41539" lon="4.64674">
        <ele>726.1</ele>
        <time>2017-03-14T22:49:00Z</time>
      </trkpt>
      <trkpt lat="45.41534" lon="4.64672">
        <ele>728.4</ele>
        <time>2017-03-14T22:49:02Z</time>
      </trkpt>
      <trkpt lat="45.41537" lon="4.64671">
        <ele>727.4</ele>
        <time>2017-03-14T22:49:05Z</time>
      </trkpt>
      <trkpt lat="45.41533" lon="4.64669">
        <ele>728.7</ele>
        <time>2017-03-14T22:49:06Z</time>
      </trkpt>
      <trkpt lat="45.41534" lon="4.64664">
        <ele>728.8</ele>
        <time>2017-03-14T22:49:09Z</time>
      </trkpt>
      <trkpt lat="45.41536" lon="4.64661">
        <ele>727.7</ele>
        <time>2017-03-14T22:49:10Z</time>
      </trkpt>
      <trkpt lat="45.41537" lon="4.64657">
        <ele>727.7</ele>
        <time>2017-03-14T22:49:12Z</time>
      </trkpt>
      <trkpt lat="45.41541" lon="4.64649">
        <ele>726.4</ele>
        <time>2017-03-14T22:49:14Z</time>
      </trkpt>
      <trkpt lat="45.41541" lon="4.64644">
        <ele>726.3</ele>
        <time>2017-03-14T22:49:15Z</time>
      </trkpt>
      <trkpt lat="45.41539" lon="4.64639">
        <ele>726.2</ele>
        <time>2017-03-14T22:49:18Z</time>
      </trkpt>
      <trkpt lat="45.41542" lon="4.64632">
        <ele>724.9</ele>
        <time>2017-03-14T22:49:20Z</time>
      </trkpt>
      <trkpt lat="45.41537" lon="4.64629">
        <ele>727.4</ele>
        <time>2017-03-14T22:49:21Z</time>
      </trkpt>
      <trkpt lat="45.41534" lon="4.64624">
        <ele>728.9</ele>
        <time>2017-03-14T22:49:22Z</time>
      </trkpt>
      <trkpt lat="45.41533" lon="4.6462">
        <ele>729.1</ele>
        <time>2017-03-14T22:49:24Z</time>
      </trkpt>
      <trkpt lat="45.41531" lon="4.64616">
        <ele>730.6</ele>
        <time>2017-03-14T22:49:26Z</time>
      </trkpt>
      <trkpt lat="45.41532" lon="4.64611">
        <ele>730.6</ele>
        <time>2017-03-14T22:49:28Z</time>
      </trkpt>
      <trkpt lat="45.41533" lon="4.64605">
        <ele>729.1</ele>
        <time>2017-03-14T22:49:30Z</time>
      </trkpt>
      <trkpt lat="45.41533" lon="4.646">
        <ele>728.9</ele>
        <time>2017-03-14T22:49:32Z</time>
      </trkpt>
      <trkpt lat="45.41534" lon="4.64591">
        <ele>728.7</ele>
        <time>2017-03-14T22:49:34Z</time>
      </trkpt>
      <trkpt lat="45.41534" lon="4.64585">
        <ele>728.6</ele>
        <time>2017-03-14T22:49:36Z</time>
      </trkpt>
      <trkpt lat="45.41534" lon="4.64578">
        <ele>728.8</ele>
        <time>2017-03-14T22:49:38Z</time>
      </trkpt>
      <trkpt lat="45.41536" lon="4.64572">
        <ele>728</ele>
        <time>2017-03-14T22:49:40Z</time>
      </trkpt>
      <trkpt lat="45.41536" lon="4.64565">
        <ele>728.7</ele>
        <time>2017-03-14T22:49:42Z</time>
      </trkpt>
      <trkpt lat="45.41533" lon="4.64561">
        <ele>730.2</ele>
        <time>2017-03-14T22:49:43Z</time>
      </trkpt>
      <trkpt lat="45.4153" lon="4.64557">
        <ele>731.8</ele>
        <time>2017-03-14T22:49:45Z</time>
      </trkpt>
      <trkpt lat="45.41528" lon="4.64552">
        <ele>733.2</ele>
        <time>2017-03-14T22:49:46Z</time>
      </trkpt>
      <trkpt lat="45.41525" lon="4.64551">
        <ele>734.5</ele>
        <time>2017-03-14T22:49:47Z</time>
      </trkpt>
      <trkpt lat="45.41523" lon="4.64549">
        <ele>736.1</ele>
        <time>2017-03-14T22:49:48Z</time>
      </trkpt>
      <trkpt lat="45.41519" lon="4.64547">
        <ele>737.6</ele>
        <time>2017-03-14T22:49:49Z</time>
      </trkpt>
      <trkpt lat="45.41522" lon="4.64543">
        <ele>736.3</ele>
        <time>2017-03-14T22:49:50Z</time>
      </trkpt>
      <trkpt lat="45.4152" lon="4.64538">
        <ele>736.4</ele>
        <time>2017-03-14T22:49:52Z</time>
      </trkpt>
      <trkpt lat="45.41519" lon="4.64534">
        <ele>737.9</ele>
        <time>2017-03-14T22:49:53Z</time>
      </trkpt>
      <trkpt lat="45.41521" lon="4.64528">
        <ele>736.6</ele>
        <time>2017-03-14T22:49:55Z</time>
      </trkpt>
      <trkpt lat="45.41521" lon="4.64524">
        <ele>736.7</ele>
        <time>2017-03-14T22:49:57Z</time>
      </trkpt>
      <trkpt lat="45.41523" lon="4.6452">
        <ele>736.7</ele>
        <time>2017-03-14T22:49:59Z</time>
      </trkpt>
      <trkpt lat="45.41521" lon="4.64516">
        <ele>736.7</ele>
        <time>2017-03-14T22:50:00Z</time>
      </trkpt>
      <trkpt lat="45.41522" lon="4.64512">
        <ele>736.7</ele>
        <time>2017-03-14T22:50:01Z</time>
      </trkpt>
      <trkpt lat="45.41523" lon="4.64508">
        <ele>735.5</ele>
        <time>2017-03-14T22:50:03Z</time>
      </trkpt>
      <trkpt lat="45.41525" lon="4.645">
        <ele>735.3</ele>
        <time>2017-03-14T22:50:05Z</time>
      </trkpt>
      <trkpt lat="45.41522" lon="4.64497">
        <ele>736.1</ele>
        <time>2017-03-14T22:50:06Z</time>
      </trkpt>
      <trkpt lat="45.41519" lon="4.64492">
        <ele>736.9</ele>
        <time>2017-03-14T22:50:07Z</time>
      </trkpt>
      <trkpt lat="45.41521" lon="4.64488">
        <ele>735.5</ele>
        <time>2017-03-14T22:50:08Z</time>
      </trkpt>
      <trkpt lat="45.41522" lon="4.6448">
        <ele>734.8</ele>
        <time>2017-03-14T22:50:10Z</time>
      </trkpt>
      <trkpt lat="45.4152" lon="4.64476">
        <ele>735.7</ele>
        <time>2017-03-14T22:50:11Z</time>
      </trkpt>
      <trkpt lat="45.41518" lon="4.64473">
        <ele>735.7</ele>
        <time>2017-03-14T22:50:12Z</time>
      </trkpt>
      <trkpt lat="45.41515" lon="4.6447">
        <ele>736.8</ele>
        <time>2017-03-14T22:50:13Z</time>
      </trkpt>
      <trkpt lat="45.41516" lon="4.64466">
        <ele>736.6</ele>
        <time>2017-03-14T22:50:14Z</time>
      </trkpt>
      <trkpt lat="45.41515" lon="4.64462">
        <ele>736.5</ele>
        <time>2017-03-14T22:50:15Z</time>
      </trkpt>
      <trkpt lat="45.41515" lon="4.64458">
        <ele>736.5</ele>
        <time>2017-03-14T22:50:16Z</time>
      </trkpt>
      <trkpt lat="45.41514" lon="4.64453">
        <ele>736.4</ele>
        <time>2017-03-14T22:50:18Z</time>
      </trkpt>
      <trkpt lat="45.41509" lon="4.64451">
        <ele>739.4</ele>
        <time>2017-03-14T22:50:20Z</time>
      </trkpt>
      <trkpt lat="45.41506" lon="4.64445">
        <ele>740.8</ele>
        <time>2017-03-14T22:50:22Z</time>
      </trkpt>
      <trkpt lat="45.41505" lon="4.64441">
        <ele>740.8</ele>
        <time>2017-03-14T22:50:24Z</time>
      </trkpt>
      <trkpt lat="45.41503" lon="4.64434">
        <ele>741.9</ele>
        <time>2017-03-14T22:50:26Z</time>
      </trkpt>
      <trkpt lat="45.41499" lon="4.6443">
        <ele>743.9</ele>
        <time>2017-03-14T22:50:27Z</time>
      </trkpt>
      <trkpt lat="45.415" lon="4.64426">
        <ele>742.7</ele>
        <time>2017-03-14T22:50:28Z</time>
      </trkpt>
      <trkpt lat="45.41498" lon="4.64423">
        <ele>743.5</ele>
        <time>2017-03-14T22:50:30Z</time>
      </trkpt>
      <trkpt lat="45.41496" lon="4.64418">
        <ele>743.3</ele>
        <time>2017-03-14T22:50:32Z</time>
      </trkpt>
      <trkpt lat="45.41494" lon="4.6441">
        <ele>744</ele>
        <time>2017-03-14T22:50:34Z</time>
      </trkpt>
      <trkpt lat="45.41491" lon="4.64406">
        <ele>744.8</ele>
        <time>2017-03-14T22:50:35Z</time>
      </trkpt>
      <trkpt lat="45.41489" lon="4.64403">
        <ele>745.6</ele>
        <time>2017-03-14T22:50:36Z</time>
      </trkpt>
      <trkpt lat="45.41485" lon="4.64396">
        <ele>746.4</ele>
        <time>2017-03-14T22:50:38Z</time>
      </trkpt>
      <trkpt lat="45.41483" lon="4.64393">
        <ele>747.1</ele>
        <time>2017-03-14T22:50:39Z</time>
      </trkpt>
      <trkpt lat="45.41485" lon="4.6439">
        <ele>746</ele>
        <time>2017-03-14T22:50:40Z</time>
      </trkpt>
      <trkpt lat="45.41488" lon="4.64389">
        <ele>745.1</ele>
        <time>2017-03-14T22:50:41Z</time>
      </trkpt>
      <trkpt lat="45.41484" lon="4.6439">
        <ele>746.9</ele>
        <time>2017-03-14T22:50:42Z</time>
      </trkpt>
      <trkpt lat="45.41481" lon="4.64388">
        <ele>746.9</ele>
        <time>2017-03-14T22:50:44Z</time>
      </trkpt>
      <trkpt lat="45.41483" lon="4.64382">
        <ele>746.2</ele>
        <time>2017-03-14T22:50:45Z</time>
      </trkpt>
      <trkpt lat="45.41485" lon="4.64378">
        <ele>745</ele>
        <time>2017-03-14T22:50:46Z</time>
      </trkpt>
      <trkpt lat="45.41484" lon="4.64369">
        <ele>744.3</ele>
        <time>2017-03-14T22:50:49Z</time>
      </trkpt>
      <trkpt lat="45.41482" lon="4.64366">
        <ele>745</ele>
        <time>2017-03-14T22:50:52Z</time>
      </trkpt>
      <trkpt lat="45.41479" lon="4.64363">
        <ele>745.4</ele>
        <time>2017-03-14T22:50:53Z</time>
      </trkpt>
      <trkpt lat="45.41478" lon="4.64359">
        <ele>745.8</ele>
        <time>2017-03-14T22:50:54Z</time>
      </trkpt>
      <trkpt lat="45.41472" lon="4.64353">
        <ele>746.2</ele>
        <time>2017-03-14T22:50:56Z</time>
      </trkpt>
      <trkpt lat="45.41469" lon="4.64351">
        <ele>746.6</ele>
        <time>2017-03-14T22:50:57Z</time>
      </trkpt>
      <trkpt lat="45.41467" lon="4.64348">
        <ele>747.2</ele>
        <time>2017-03-14T22:50:58Z</time>
      </trkpt>
      <trkpt lat="45.41465" lon="4.64345">
        <ele>748</ele>
        <time>2017-03-14T22:50:59Z</time>
      </trkpt>
      <trkpt lat="45.41466" lon="4.64338">
        <ele>746.9</ele>
        <time>2017-03-14T22:51:01Z</time>
      </trkpt>
      <trkpt lat="45.41468" lon="4.64332">
        <ele>746.8</ele>
        <time>2017-03-14T22:51:03Z</time>
      </trkpt>
      <trkpt lat="45.41463" lon="4.64329">
        <ele>748.1</ele>
        <time>2017-03-14T22:51:05Z</time>
      </trkpt>
      <trkpt lat="45.41461" lon="4.64325">
        <ele>747.8</ele>
        <time>2017-03-14T22:51:06Z</time>
      </trkpt>
      <trkpt lat="45.41461" lon="4.6432">
        <ele>747.5</ele>
        <time>2017-03-14T22:51:07Z</time>
      </trkpt>
      <trkpt lat="45.41454" lon="4.64317">
        <ele>748.8</ele>
        <time>2017-03-14T22:51:09Z</time>
      </trkpt>
      <trkpt lat="45.41457" lon="4.64313">
        <ele>747.5</ele>
        <time>2017-03-14T22:51:12Z</time>
      </trkpt>
      <trkpt lat="45.41442" lon="4.64306">
        <ele>752</ele>
        <time>2017-03-14T22:51:14Z</time>
      </trkpt>
      <trkpt lat="45.41443" lon="4.64302">
        <ele>751.1</ele>
        <time>2017-03-14T22:51:15Z</time>
      </trkpt>
      <trkpt lat="45.41444" lon="4.64299">
        <ele>750.8</ele>
        <time>2017-03-14T22:51:17Z</time>
      </trkpt>
      <trkpt lat="45.41442" lon="4.64293">
        <ele>750.5</ele>
        <time>2017-03-14T22:51:20Z</time>
      </trkpt>
      <trkpt lat="45.4144" lon="4.64289">
        <ele>750.9</ele>
        <time>2017-03-14T22:51:21Z</time>
      </trkpt>
      <trkpt lat="45.41443" lon="4.64286">
        <ele>749.9</ele>
        <time>2017-03-14T22:51:22Z</time>
      </trkpt>
      <trkpt lat="45.4144" lon="4.64283">
        <ele>750.2</ele>
        <time>2017-03-14T22:51:24Z</time>
      </trkpt>
      <trkpt lat="45.41437" lon="4.64281">
        <ele>751</ele>
        <time>2017-03-14T22:51:25Z</time>
      </trkpt>
      <trkpt lat="45.41433" lon="4.64275">
        <ele>751.1</ele>
        <time>2017-03-14T22:51:27Z</time>
      </trkpt>
      <trkpt lat="45.4143" lon="4.64274">
        <ele>751.9</ele>
        <time>2017-03-14T22:51:28Z</time>
      </trkpt>
      <trkpt lat="45.41427" lon="4.64273">
        <ele>752.7</ele>
        <time>2017-03-14T22:51:30Z</time>
      </trkpt>
      <trkpt lat="45.41425" lon="4.6427">
        <ele>753.2</ele>
        <time>2017-03-14T22:51:32Z</time>
      </trkpt>
      <trkpt lat="45.4142" lon="4.64267">
        <ele>754.8</ele>
        <time>2017-03-14T22:51:34Z</time>
      </trkpt>
      <trkpt lat="45.41421" lon="4.64263">
        <ele>753.7</ele>
        <time>2017-03-14T22:51:35Z</time>
      </trkpt>
      <trkpt lat="45.41418" lon="4.6426">
        <ele>754.2</ele>
        <time>2017-03-14T22:51:37Z</time>
      </trkpt>
      <trkpt lat="45.41418" lon="4.64255">
        <ele>753.8</ele>
        <time>2017-03-14T22:51:38Z</time>
      </trkpt>
      <trkpt lat="45.41415" lon="4.64251">
        <ele>755.2</ele>
        <time>2017-03-14T22:51:40Z</time>
      </trkpt>
      <trkpt lat="45.41414" lon="4.64246">
        <ele>755</ele>
        <time>2017-03-14T22:51:42Z</time>
      </trkpt>
      <trkpt lat="45.41416" lon="4.64243">
        <ele>753.8</ele>
        <time>2017-03-14T22:51:44Z</time>
      </trkpt>
      <trkpt lat="45.41412" lon="4.64242">
        <ele>754.7</ele>
        <time>2017-03-14T22:51:45Z</time>
      </trkpt>
      <trkpt lat="45.41411" lon="4.64238">
        <ele>755.4</ele>
        <time>2017-03-14T22:51:46Z</time>
      </trkpt>
      <trkpt lat="45.41409" lon="4.64236">
        <ele>756.2</ele>
        <time>2017-03-14T22:51:48Z</time>
      </trkpt>
      <trkpt lat="45.41411" lon="4.64233">
        <ele>755.1</ele>
        <time>2017-03-14T22:51:49Z</time>
      </trkpt>
      <trkpt lat="45.41413" lon="4.64229">
        <ele>753.8</ele>
        <time>2017-03-14T22:51:52Z</time>
      </trkpt>
      <trkpt lat="45.41408" lon="4.64225">
        <ele>755.8</ele>
        <time>2017-03-14T22:51:54Z</time>
      </trkpt>
      <trkpt lat="45.41406" lon="4.64222">
        <ele>755.7</ele>
        <time>2017-03-14T22:51:55Z</time>
      </trkpt>
      <trkpt lat="45.41402" lon="4.6422">
        <ele>757.8</ele>
        <time>2017-03-14T22:51:56Z</time>
      </trkpt>
      <trkpt lat="45.41396" lon="4.64218">
        <ele>759.7</ele>
        <time>2017-03-14T22:51:57Z</time>
      </trkpt>
      <trkpt lat="45.41393" lon="4.64211">
        <ele>759.6</ele>
        <time>2017-03-14T22:51:58Z</time>
      </trkpt>
      <trkpt lat="45.41388" lon="4.6421">
        <ele>760.5</ele>
        <time>2017-03-14T22:51:59Z</time>
      </trkpt>
      <trkpt lat="45.41383" lon="4.64206">
        <ele>760.3</ele>
        <time>2017-03-14T22:52:01Z</time>
      </trkpt>
      <trkpt lat="45.41388" lon="4.642">
        <ele>759.1</ele>
        <time>2017-03-14T22:52:03Z</time>
      </trkpt>
      <trkpt lat="45.4139" lon="4.64195">
        <ele>758.6</ele>
        <time>2017-03-14T22:52:04Z</time>
      </trkpt>
      <trkpt lat="45.41391" lon="4.6419">
        <ele>757.7</ele>
        <time>2017-03-14T22:52:05Z</time>
      </trkpt>
      <trkpt lat="45.41388" lon="4.64187">
        <ele>757.5</ele>
        <time>2017-03-14T22:52:06Z</time>
      </trkpt>
      <trkpt lat="45.41387" lon="4.64182">
        <ele>757.4</ele>
        <time>2017-03-14T22:52:07Z</time>
      </trkpt>
      <trkpt lat="45.41389" lon="4.64178">
        <ele>756.5</ele>
        <time>2017-03-14T22:52:08Z</time>
      </trkpt>
      <trkpt lat="45.41379" lon="4.64176">
        <ele>757.5</ele>
        <time>2017-03-14T22:52:10Z</time>
      </trkpt>
      <trkpt lat="45.41382" lon="4.64172">
        <ele>756.7</ele>
        <time>2017-03-14T22:52:11Z</time>
      </trkpt>
      <trkpt lat="45.4138" lon="4.64168">
        <ele>757.3</ele>
        <time>2017-03-14T22:52:12Z</time>
      </trkpt>
      <trkpt lat="45.41378" lon="4.64165">
        <ele>757.7</ele>
        <time>2017-03-14T22:52:13Z</time>
      </trkpt>
      <trkpt lat="45.41376" lon="4.64161">
        <ele>757.5</ele>
        <time>2017-03-14T22:52:14Z</time>
      </trkpt>
      <trkpt lat="45.41377" lon="4.64156">
        <ele>757.3</ele>
        <time>2017-03-14T22:52:16Z</time>
      </trkpt>
      <trkpt lat="45.41375" lon="4.64148">
        <ele>757.5</ele>
        <time>2017-03-14T22:52:19Z</time>
      </trkpt>
      <trkpt lat="45.41372" lon="4.64144">
        <ele>758</ele>
        <time>2017-03-14T22:52:20Z</time>
      </trkpt>
      <trkpt lat="45.41369" lon="4.64141">
        <ele>758.5</ele>
        <time>2017-03-14T22:52:21Z</time>
      </trkpt>
      <trkpt lat="45.41364" lon="4.64136">
        <ele>759.1</ele>
        <time>2017-03-14T22:52:22Z</time>
      </trkpt>
      <trkpt lat="45.41361" lon="4.64132">
        <ele>759.7</ele>
        <time>2017-03-14T22:52:24Z</time>
      </trkpt>
      <trkpt lat="45.41357" lon="4.64129">
        <ele>761</ele>
        <time>2017-03-14T22:52:25Z</time>
      </trkpt>
      <trkpt lat="45.41352" lon="4.64126">
        <ele>761.7</ele>
        <time>2017-03-14T22:52:26Z</time>
      </trkpt>
      <trkpt lat="45.41352" lon="4.64122">
        <ele>761.9</ele>
        <time>2017-03-14T22:52:27Z</time>
      </trkpt>
      <trkpt lat="45.4135" lon="4.64117">
        <ele>762.8</ele>
        <time>2017-03-14T22:52:28Z</time>
      </trkpt>
      <trkpt lat="45.41345" lon="4.64115">
        <ele>764.7</ele>
        <time>2017-03-14T22:52:29Z</time>
      </trkpt>
      <trkpt lat="45.41343" lon="4.64112">
        <ele>764.7</ele>
        <time>2017-03-14T22:52:31Z</time>
      </trkpt>
      <trkpt lat="45.41341" lon="4.64108">
        <ele>764.7</ele>
        <time>2017-03-14T22:52:33Z</time>
      </trkpt>
      <trkpt lat="45.4134" lon="4.64104">
        <ele>764.7</ele>
        <time>2017-03-14T22:52:35Z</time>
      </trkpt>
      <trkpt lat="45.41341" lon="4.64099">
        <ele>764.6</ele>
        <time>2017-03-14T22:52:37Z</time>
      </trkpt>
      <trkpt lat="45.41343" lon="4.64096">
        <ele>764.6</ele>
        <time>2017-03-14T22:52:38Z</time>
      </trkpt>
      <trkpt lat="45.41342" lon="4.64092">
        <ele>764.6</ele>
        <time>2017-03-14T22:52:39Z</time>
      </trkpt>
      <trkpt lat="45.4134" lon="4.64086">
        <ele>764.6</ele>
        <time>2017-03-14T22:52:40Z</time>
      </trkpt>
      <trkpt lat="45.41341" lon="4.64079">
        <ele>764.6</ele>
        <time>2017-03-14T22:52:41Z</time>
      </trkpt>
      <trkpt lat="45.41342" lon="4.64073">
        <ele>764.6</ele>
        <time>2017-03-14T22:52:42Z</time>
      </trkpt>
      <trkpt lat="45.41339" lon="4.6407">
        <ele>764.6</ele>
        <time>2017-03-14T22:52:43Z</time>
      </trkpt>
      <trkpt lat="45.4134" lon="4.64063">
        <ele>764.6</ele>
        <time>2017-03-14T22:52:45Z</time>
      </trkpt>
      <trkpt lat="45.4134" lon="4.64058">
        <ele>764.6</ele>
        <time>2017-03-14T22:52:46Z</time>
      </trkpt>
      <trkpt lat="45.41338" lon="4.64055">
        <ele>764.6</ele>
        <time>2017-03-14T22:52:47Z</time>
      </trkpt>
      <trkpt lat="45.41335" lon="4.64049">
        <ele>764.6</ele>
        <time>2017-03-14T22:52:48Z</time>
      </trkpt>
      <trkpt lat="45.41334" lon="4.64043">
        <ele>764.6</ele>
        <time>2017-03-14T22:52:49Z</time>
      </trkpt>
      <trkpt lat="45.41333" lon="4.64034">
        <ele>764.6</ele>
        <time>2017-03-14T22:52:51Z</time>
      </trkpt>
      <trkpt lat="45.41332" lon="4.6403">
        <ele>764.7</ele>
        <time>2017-03-14T22:52:52Z</time>
      </trkpt>
      <trkpt lat="45.41331" lon="4.64026">
        <ele>764.7</ele>
        <time>2017-03-14T22:52:53Z</time>
      </trkpt>
      <trkpt lat="45.41331" lon="4.64021">
        <ele>764.7</ele>
        <time>2017-03-14T22:52:54Z</time>
      </trkpt>
      <trkpt lat="45.41329" lon="4.64012">
        <ele>764.7</ele>
        <time>2017-03-14T22:52:56Z</time>
      </trkpt>
      <trkpt lat="45.41328" lon="4.64004">
        <ele>764.8</ele>
        <time>2017-03-14T22:52:58Z</time>
      </trkpt>
      <trkpt lat="45.41328" lon="4.63995">
        <ele>764.8</ele>
        <time>2017-03-14T22:53:00Z</time>
      </trkpt>
      <trkpt lat="45.41324" lon="4.6399">
        <ele>764.8</ele>
        <time>2017-03-14T22:53:01Z</time>
      </trkpt>
      <trkpt lat="45.41325" lon="4.63984">
        <ele>764.8</ele>
        <time>2017-03-14T22:53:02Z</time>
      </trkpt>
      <trkpt lat="45.41325" lon="4.6398">
        <ele>764.9</ele>
        <time>2017-03-14T22:53:03Z</time>
      </trkpt>
      <trkpt lat="45.41326" lon="4.63976">
        <ele>764.9</ele>
        <time>2017-03-14T22:53:04Z</time>
      </trkpt>
      <trkpt lat="45.41326" lon="4.63968">
        <ele>764.9</ele>
        <time>2017-03-14T22:53:06Z</time>
      </trkpt>
      <trkpt lat="45.41327" lon="4.63961">
        <ele>764.8</ele>
        <time>2017-03-14T22:53:07Z</time>
      </trkpt>
      <trkpt lat="45.41326" lon="4.63954">
        <ele>764.7</ele>
        <time>2017-03-14T22:53:08Z</time>
      </trkpt>
      <trkpt lat="45.41326" lon="4.6395">
        <ele>764.6</ele>
        <time>2017-03-14T22:53:09Z</time>
      </trkpt>
      <trkpt lat="45.41326" lon="4.63947">
        <ele>764.6</ele>
        <time>2017-03-14T22:53:10Z</time>
      </trkpt>
      <trkpt lat="45.41327" lon="4.6394">
        <ele>764.6</ele>
        <time>2017-03-14T22:53:11Z</time>
      </trkpt>
      <trkpt lat="45.41326" lon="4.63936">
        <ele>764.6</ele>
        <time>2017-03-14T22:53:12Z</time>
      </trkpt>
      <trkpt lat="45.41327" lon="4.63931">
        <ele>764.6</ele>
        <time>2017-03-14T22:53:13Z</time>
      </trkpt>
      <trkpt lat="45.41327" lon="4.63926">
        <ele>764.6</ele>
        <time>2017-03-14T22:53:14Z</time>
      </trkpt>
      <trkpt lat="45.41327" lon="4.63918">
        <ele>764.6</ele>
        <time>2017-03-14T22:53:16Z</time>
      </trkpt>
      <trkpt lat="45.41328" lon="4.63914">
        <ele>764.6</ele>
        <time>2017-03-14T22:53:17Z</time>
      </trkpt>
      <trkpt lat="45.41331" lon="4.63903">
        <ele>764.8</ele>
        <time>2017-03-14T22:53:19Z</time>
      </trkpt>
      <trkpt lat="45.41332" lon="4.63898">
        <ele>764.9</ele>
        <time>2017-03-14T22:53:20Z</time>
      </trkpt>
      <trkpt lat="45.41332" lon="4.63891">
        <ele>765.1</ele>
        <time>2017-03-14T22:53:22Z</time>
      </trkpt>
      <trkpt lat="45.41331" lon="4.63887">
        <ele>765.2</ele>
        <time>2017-03-14T22:53:23Z</time>
      </trkpt>
      <trkpt lat="45.41333" lon="4.63882">
        <ele>765.3</ele>
        <time>2017-03-14T22:53:24Z</time>
      </trkpt>
      <trkpt lat="45.41333" lon="4.63876">
        <ele>765.4</ele>
        <time>2017-03-14T22:53:25Z</time>
      </trkpt>
      <trkpt lat="45.41334" lon="4.63869">
        <ele>765.7</ele>
        <time>2017-03-14T22:53:27Z</time>
      </trkpt>
      <trkpt lat="45.41334" lon="4.63865">
        <ele>765.9</ele>
        <time>2017-03-14T22:53:28Z</time>
      </trkpt>
      <trkpt lat="45.41334" lon="4.6386">
        <ele>766.2</ele>
        <time>2017-03-14T22:53:29Z</time>
      </trkpt>
      <trkpt lat="45.41333" lon="4.63853">
        <ele>766.7</ele>
        <time>2017-03-14T22:53:31Z</time>
      </trkpt>
      <trkpt lat="45.41333" lon="4.63849">
        <ele>767</ele>
        <time>2017-03-14T22:53:32Z</time>
      </trkpt>
      <trkpt lat="45.4133" lon="4.63842">
        <ele>767.7</ele>
        <time>2017-03-14T22:53:34Z</time>
      </trkpt>
      <trkpt lat="45.4133" lon="4.63838">
        <ele>768.1</ele>
        <time>2017-03-14T22:53:35Z</time>
      </trkpt>
      <trkpt lat="45.4133" lon="4.63833">
        <ele>768.5</ele>
        <time>2017-03-14T22:53:36Z</time>
      </trkpt>
      <trkpt lat="45.41331" lon="4.63829">
        <ele>768.8</ele>
        <time>2017-03-14T22:53:37Z</time>
      </trkpt>
      <trkpt lat="45.41332" lon="4.63826">
        <ele>769.1</ele>
        <time>2017-03-14T22:53:38Z</time>
      </trkpt>
      <trkpt lat="45.41332" lon="4.63821">
        <ele>769.4</ele>
        <time>2017-03-14T22:53:39Z</time>
      </trkpt>
      <trkpt lat="45.41333" lon="4.63816">
        <ele>769.8</ele>
        <time>2017-03-14T22:53:40Z</time>
      </trkpt>
      <trkpt lat="45.41332" lon="4.63812">
        <ele>770</ele>
        <time>2017-03-14T22:53:41Z</time>
      </trkpt>
      <trkpt lat="45.41332" lon="4.63808">
        <ele>770.2</ele>
        <time>2017-03-14T22:53:42Z</time>
      </trkpt>
      <trkpt lat="45.41333" lon="4.63802">
        <ele>770.3</ele>
        <time>2017-03-14T22:53:44Z</time>
      </trkpt>
      <trkpt lat="45.41333" lon="4.63798">
        <ele>770.4</ele>
        <time>2017-03-14T22:53:45Z</time>
      </trkpt>
      <trkpt lat="45.41333" lon="4.63792">
        <ele>770.5</ele>
        <time>2017-03-14T22:53:47Z</time>
      </trkpt>
      <trkpt lat="45.41334" lon="4.63788">
        <ele>770.6</ele>
        <time>2017-03-14T22:53:48Z</time>
      </trkpt>
      <trkpt lat="45.41332" lon="4.63784">
        <ele>770.7</ele>
        <time>2017-03-14T22:53:49Z</time>
      </trkpt>
      <trkpt lat="45.41331" lon="4.63778">
        <ele>770.9</ele>
        <time>2017-03-14T22:53:51Z</time>
      </trkpt>
      <trkpt lat="45.41334" lon="4.63772">
        <ele>771</ele>
        <time>2017-03-14T22:53:52Z</time>
      </trkpt>
      <trkpt lat="45.41331" lon="4.63769">
        <ele>771.2</ele>
        <time>2017-03-14T22:53:54Z</time>
      </trkpt>
      <trkpt lat="45.41331" lon="4.63764">
        <ele>771.3</ele>
        <time>2017-03-14T22:53:56Z</time>
      </trkpt>
      <trkpt lat="45.4133" lon="4.63755">
        <ele>771.4</ele>
        <time>2017-03-14T22:53:58Z</time>
      </trkpt>
      <trkpt lat="45.4133" lon="4.6375">
        <ele>771.5</ele>
        <time>2017-03-14T22:53:59Z</time>
      </trkpt>
      <trkpt lat="45.41329" lon="4.63742">
        <ele>771.6</ele>
        <time>2017-03-14T22:54:01Z</time>
      </trkpt>
      <trkpt lat="45.41327" lon="4.63735">
        <ele>771.6</ele>
        <time>2017-03-14T22:54:02Z</time>
      </trkpt>
      <trkpt lat="45.4133" lon="4.63729">
        <ele>771.5</ele>
        <time>2017-03-14T22:54:03Z</time>
      </trkpt>
      <trkpt lat="45.41329" lon="4.63722">
        <ele>771.3</ele>
        <time>2017-03-14T22:54:05Z</time>
      </trkpt>
      <trkpt lat="45.4133" lon="4.63718">
        <ele>771.1</ele>
        <time>2017-03-14T22:54:06Z</time>
      </trkpt>
      <trkpt lat="45.41331" lon="4.63714">
        <ele>770.9</ele>
        <time>2017-03-14T22:54:07Z</time>
      </trkpt>
      <trkpt lat="45.41331" lon="4.63709">
        <ele>770.7</ele>
        <time>2017-03-14T22:54:08Z</time>
      </trkpt>
      <trkpt lat="45.41328" lon="4.63705">
        <ele>770.4</ele>
        <time>2017-03-14T22:54:09Z</time>
      </trkpt>
      <trkpt lat="45.41323" lon="4.637">
        <ele>770</ele>
        <time>2017-03-14T22:54:10Z</time>
      </trkpt>
      <trkpt lat="45.41328" lon="4.637">
        <ele>770</ele>
        <time>2017-03-14T22:54:11Z</time>
      </trkpt>
      <trkpt lat="45.41323" lon="4.63698">
        <ele>770.1</ele>
        <time>2017-03-14T22:54:12Z</time>
      </trkpt>
      <trkpt lat="45.41318" lon="4.63694">
        <ele>770.1</ele>
        <time>2017-03-14T22:54:13Z</time>
      </trkpt>
      <trkpt lat="45.41315" lon="4.63692">
        <ele>770.2</ele>
        <time>2017-03-14T22:54:14Z</time>
      </trkpt>
      <trkpt lat="45.41309" lon="4.63686">
        <ele>770.2</ele>
        <time>2017-03-14T22:54:15Z</time>
      </trkpt>
      <trkpt lat="45.41302" lon="4.63685">
        <ele>770.3</ele>
        <time>2017-03-14T22:54:16Z</time>
      </trkpt>
      <trkpt lat="45.41297" lon="4.63681">
        <ele>770.3</ele>
        <time>2017-03-14T22:54:17Z</time>
      </trkpt>
      <trkpt lat="45.41297" lon="4.63677">
        <ele>770.3</ele>
        <time>2017-03-14T22:54:18Z</time>
      </trkpt>
      <trkpt lat="45.41294" lon="4.63672">
        <ele>770.3</ele>
        <time>2017-03-14T22:54:19Z</time>
      </trkpt>
      <trkpt lat="45.41292" lon="4.63668">
        <ele>770.4</ele>
        <time>2017-03-14T22:54:20Z</time>
      </trkpt>
      <trkpt lat="45.41288" lon="4.63663">
        <ele>770.4</ele>
        <time>2017-03-14T22:54:22Z</time>
      </trkpt>
      <trkpt lat="45.41286" lon="4.63658">
        <ele>770.4</ele>
        <time>2017-03-14T22:54:24Z</time>
      </trkpt>
      <trkpt lat="45.41285" lon="4.63654">
        <ele>770.4</ele>
        <time>2017-03-14T22:54:27Z</time>
      </trkpt>
      <trkpt lat="45.4128" lon="4.63652">
        <ele>770.4</ele>
        <time>2017-03-14T22:54:29Z</time>
      </trkpt>
      <trkpt lat="45.41278" lon="4.63647">
        <ele>770.4</ele>
        <time>2017-03-14T22:54:32Z</time>
      </trkpt>
      <trkpt lat="45.41274" lon="4.63643">
        <ele>770.4</ele>
        <time>2017-03-14T22:54:34Z</time>
      </trkpt>
      <trkpt lat="45.41268" lon="4.63637">
        <ele>770.3</ele>
        <time>2017-03-14T22:54:36Z</time>
      </trkpt>
      <trkpt lat="45.41265" lon="4.63632">
        <ele>770.3</ele>
        <time>2017-03-14T22:54:38Z</time>
      </trkpt>
      <trkpt lat="45.41263" lon="4.63627">
        <ele>770.3</ele>
        <time>2017-03-14T22:54:40Z</time>
      </trkpt>
      <trkpt lat="45.4126" lon="4.63623">
        <ele>770.3</ele>
        <time>2017-03-14T22:54:41Z</time>
      </trkpt>
      <trkpt lat="45.41256" lon="4.63622">
        <ele>770.3</ele>
        <time>2017-03-14T22:54:42Z</time>
      </trkpt>
      <trkpt lat="45.41254" lon="4.63617">
        <ele>770.3</ele>
        <time>2017-03-14T22:54:43Z</time>
      </trkpt>
      <trkpt lat="45.41251" lon="4.6361">
        <ele>770.3</ele>
        <time>2017-03-14T22:54:45Z</time>
      </trkpt>
      <trkpt lat="45.4125" lon="4.63606">
        <ele>770.3</ele>
        <time>2017-03-14T22:54:48Z</time>
      </trkpt>
      <trkpt lat="45.41246" lon="4.63604">
        <ele>770.2</ele>
        <time>2017-03-14T22:54:49Z</time>
      </trkpt>
      <trkpt lat="45.41242" lon="4.63606">
        <ele>770.2</ele>
        <time>2017-03-14T22:54:51Z</time>
      </trkpt>
      <trkpt lat="45.41238" lon="4.63606">
        <ele>770.2</ele>
        <time>2017-03-14T22:54:52Z</time>
      </trkpt>
      <trkpt lat="45.41231" lon="4.63606">
        <ele>770.2</ele>
        <time>2017-03-14T22:54:53Z</time>
      </trkpt>
      <trkpt lat="45.41228" lon="4.63602">
        <ele>770.2</ele>
        <time>2017-03-14T22:54:54Z</time>
      </trkpt>
      <trkpt lat="45.41224" lon="4.63602">
        <ele>770.2</ele>
        <time>2017-03-14T22:54:55Z</time>
      </trkpt>
      <trkpt lat="45.41221" lon="4.63601">
        <ele>770.1</ele>
        <time>2017-03-14T22:54:56Z</time>
      </trkpt>
      <trkpt lat="45.41217" lon="4.63597">
        <ele>770.1</ele>
        <time>2017-03-14T22:54:58Z</time>
      </trkpt>
      <trkpt lat="45.41215" lon="4.63594">
        <ele>770.1</ele>
        <time>2017-03-14T22:54:59Z</time>
      </trkpt>
      <trkpt lat="45.41209" lon="4.63592">
        <ele>770</ele>
        <time>2017-03-14T22:55:00Z</time>
      </trkpt>
      <trkpt lat="45.41205" lon="4.63588">
        <ele>769.9</ele>
        <time>2017-03-14T22:55:01Z</time>
      </trkpt>
      <trkpt lat="45.41197" lon="4.63584">
        <ele>769.4</ele>
        <time>2017-03-14T22:55:02Z</time>
      </trkpt>
      <trkpt lat="45.41192" lon="4.63583">
        <ele>769.8</ele>
        <time>2017-03-14T22:55:03Z</time>
      </trkpt>
      <trkpt lat="45.41185" lon="4.6358">
        <ele>770.6</ele>
        <time>2017-03-14T22:55:04Z</time>
      </trkpt>
      <trkpt lat="45.41181" lon="4.63576">
        <ele>769.9</ele>
        <time>2017-03-14T22:55:05Z</time>
      </trkpt>
      <trkpt lat="45.41178" lon="4.63574">
        <ele>770.6</ele>
        <time>2017-03-14T22:55:06Z</time>
      </trkpt>
      <trkpt lat="45.41178" lon="4.6357">
        <ele>770.1</ele>
        <time>2017-03-14T22:55:07Z</time>
      </trkpt>
      <trkpt lat="45.41177" lon="4.63566">
        <ele>769.8</ele>
        <time>2017-03-14T22:55:08Z</time>
      </trkpt>
      <trkpt lat="45.41172" lon="4.63568">
        <ele>771.6</ele>
        <time>2017-03-14T22:55:09Z</time>
      </trkpt>
      <trkpt lat="45.41179" lon="4.63559">
        <ele>769.6</ele>
        <time>2017-03-14T22:55:11Z</time>
      </trkpt>
      <trkpt lat="45.41186" lon="4.63549">
        <ele>767.8</ele>
        <time>2017-03-14T22:55:13Z</time>
      </trkpt>
      <trkpt lat="45.41189" lon="4.63547">
        <ele>767.7</ele>
        <time>2017-03-14T22:55:16Z</time>
      </trkpt>
      <trkpt lat="45.4118" lon="4.6354">
        <ele>770</ele>
        <time>2017-03-14T22:55:18Z</time>
      </trkpt>
      <trkpt lat="45.41185" lon="4.63538">
        <ele>769.3</ele>
        <time>2017-03-14T22:55:19Z</time>
      </trkpt>
      <trkpt lat="45.4119" lon="4.63532">
        <ele>769.5</ele>
        <time>2017-03-14T22:55:21Z</time>
      </trkpt>
      <trkpt lat="45.41191" lon="4.63528">
        <ele>770.3</ele>
        <time>2017-03-14T22:55:22Z</time>
      </trkpt>
      <trkpt lat="45.41186" lon="4.63524">
        <ele>770.8</ele>
        <time>2017-03-14T22:55:23Z</time>
      </trkpt>
      <trkpt lat="45.41189" lon="4.63523">
        <ele>771.7</ele>
        <time>2017-03-14T22:55:26Z</time>
      </trkpt>
      <trkpt lat="45.41193" lon="4.63524">
        <ele>770.6</ele>
        <time>2017-03-14T22:55:27Z</time>
      </trkpt>
      <trkpt lat="45.41198" lon="4.63522">
        <ele>769.8</ele>
        <time>2017-03-14T22:55:29Z</time>
      </trkpt>
      <trkpt lat="45.41204" lon="4.63515">
        <ele>771.3</ele>
        <time>2017-03-14T22:55:30Z</time>
      </trkpt>
      <trkpt lat="45.41207" lon="4.63517">
        <ele>770</ele>
        <time>2017-03-14T22:55:31Z</time>
      </trkpt>
      <trkpt lat="45.41217" lon="4.63511">
        <ele>770.9</ele>
        <time>2017-03-14T22:55:33Z</time>
      </trkpt>
      <trkpt lat="45.41226" lon="4.63506">
        <ele>771.3</ele>
        <time>2017-03-14T22:55:34Z</time>
      </trkpt>
      <trkpt lat="45.41232" lon="4.63508">
        <ele>770.2</ele>
        <time>2017-03-14T22:55:35Z</time>
      </trkpt>
      <trkpt lat="45.41228" lon="4.63508">
        <ele>770.5</ele>
        <time>2017-03-14T22:55:36Z</time>
      </trkpt>
      <trkpt lat="45.4123" lon="4.63501">
        <ele>771.9</ele>
        <time>2017-03-14T22:55:38Z</time>
      </trkpt>
      <trkpt lat="45.41232" lon="4.63499">
        <ele>771.7</ele>
        <time>2017-03-14T22:55:39Z</time>
      </trkpt>
      <trkpt lat="45.41234" lon="4.63494">
        <ele>773.1</ele>
        <time>2017-03-14T22:55:40Z</time>
      </trkpt>
      <trkpt lat="45.41242" lon="4.63486">
        <ele>774.6</ele>
        <time>2017-03-14T22:55:41Z</time>
      </trkpt>
      <trkpt lat="45.41235" lon="4.63487">
        <ele>773.7</ele>
        <time>2017-03-14T22:55:42Z</time>
      </trkpt>
      <trkpt lat="45.41228" lon="4.63489">
        <ele>774</ele>
        <time>2017-03-14T22:55:44Z</time>
      </trkpt>
      <trkpt lat="45.41235" lon="4.6349">
        <ele>773.7</ele>
        <time>2017-03-14T22:55:45Z</time>
      </trkpt>
      <trkpt lat="45.41238" lon="4.63487">
        <ele>773.6</ele>
        <time>2017-03-14T22:55:47Z</time>
      </trkpt>
      <trkpt lat="45.41243" lon="4.63488">
        <ele>773.6</ele>
        <time>2017-03-14T22:55:48Z</time>
      </trkpt>
      <trkpt lat="45.41245" lon="4.63491">
        <ele>772.7</ele>
        <time>2017-03-14T22:55:49Z</time>
      </trkpt>
      <trkpt lat="45.41249" lon="4.63492">
        <ele>772.6</ele>
        <time>2017-03-14T22:55:50Z</time>
      </trkpt>
      <trkpt lat="45.41251" lon="4.63496">
        <ele>771.7</ele>
        <time>2017-03-14T22:55:51Z</time>
      </trkpt>
      <trkpt lat="45.41246" lon="4.63495">
        <ele>771.8</ele>
        <time>2017-03-14T22:55:52Z</time>
      </trkpt>
      <trkpt lat="45.41248" lon="4.63493">
        <ele>772.6</ele>
        <time>2017-03-14T22:55:57Z</time>
      </trkpt>
      <trkpt lat="45.4125" lon="4.63489">
        <ele>773.4</ele>
        <time>2017-03-14T22:55:58Z</time>
      </trkpt>
      <trkpt lat="45.41259" lon="4.63483">
        <ele>774.3</ele>
        <time>2017-03-14T22:56:08Z</time>
      </trkpt>
      <trkpt lat="45.41263" lon="4.63482">
        <ele>774.3</ele>
        <time>2017-03-14T22:56:09Z</time>
      </trkpt>
      <trkpt lat="45.41269" lon="4.63481">
        <ele>775.5</ele>
        <time>2017-03-14T22:56:10Z</time>
      </trkpt>
      <trkpt lat="45.41276" lon="4.63481">
        <ele>775.7</ele>
        <time>2017-03-14T22:56:11Z</time>
      </trkpt>
      <trkpt lat="45.41271" lon="4.63486">
        <ele>773</ele>
        <time>2017-03-14T22:56:12Z</time>
      </trkpt>
      <trkpt lat="45.41275" lon="4.63486">
        <ele>773</ele>
        <time>2017-03-14T22:56:15Z</time>
      </trkpt>
      <trkpt lat="45.41279" lon="4.63484">
        <ele>774.4</ele>
        <time>2017-03-14T22:56:19Z</time>
      </trkpt>
      <trkpt lat="45.41281" lon="4.63482">
        <ele>774.5</ele>
        <time>2017-03-14T22:56:23Z</time>
      </trkpt>
      <trkpt lat="45.41287" lon="4.63477">
        <ele>776.4</ele>
        <time>2017-03-14T22:56:27Z</time>
      </trkpt>
      <trkpt lat="45.41291" lon="4.63474">
        <ele>778.2</ele>
        <time>2017-03-14T22:56:28Z</time>
      </trkpt>
      <trkpt lat="45.41296" lon="4.63472">
        <ele>780.4</ele>
        <time>2017-03-14T22:56:30Z</time>
      </trkpt>
      <trkpt lat="45.41299" lon="4.63465">
        <ele>782.4</ele>
        <time>2017-03-14T22:56:31Z</time>
      </trkpt>
      <trkpt lat="45.41302" lon="4.63463">
        <ele>784.5</ele>
        <time>2017-03-14T22:56:33Z</time>
      </trkpt>
      <trkpt lat="45.41307" lon="4.63456">
        <ele>786.8</ele>
        <time>2017-03-14T22:56:35Z</time>
      </trkpt>
      <trkpt lat="45.41313" lon="4.63451">
        <ele>790.7</ele>
        <time>2017-03-14T22:56:37Z</time>
      </trkpt>
      <trkpt lat="45.41315" lon="4.63456">
        <ele>789</ele>
        <time>2017-03-14T22:56:39Z</time>
      </trkpt>
      <trkpt lat="45.41318" lon="4.63458">
        <ele>787.3</ele>
        <time>2017-03-14T22:56:41Z</time>
      </trkpt>
      <trkpt lat="45.41326" lon="4.63452">
        <ele>789.5</ele>
        <time>2017-03-14T22:56:44Z</time>
      </trkpt>
      <trkpt lat="45.41328" lon="4.63451">
        <ele>791.2</ele>
        <time>2017-03-14T22:56:45Z</time>
      </trkpt>
      <trkpt lat="45.41332" lon="4.63447">
        <ele>791.2</ele>
        <time>2017-03-14T22:56:46Z</time>
      </trkpt>
      <trkpt lat="45.41337" lon="4.63444">
        <ele>792.7</ele>
        <time>2017-03-14T22:56:48Z</time>
      </trkpt>
      <trkpt lat="45.41339" lon="4.63448">
        <ele>791.3</ele>
        <time>2017-03-14T22:56:51Z</time>
      </trkpt>
      <trkpt lat="45.41344" lon="4.63448">
        <ele>791.5</ele>
        <time>2017-03-14T22:56:53Z</time>
      </trkpt>
      <trkpt lat="45.41346" lon="4.63453">
        <ele>789.9</ele>
        <time>2017-03-14T22:56:56Z</time>
      </trkpt>
      <trkpt lat="45.4135" lon="4.63453">
        <ele>790</ele>
        <time>2017-03-14T22:56:57Z</time>
      </trkpt>
      <trkpt lat="45.41354" lon="4.6345">
        <ele>792.1</ele>
        <time>2017-03-14T22:56:59Z</time>
      </trkpt>
      <trkpt lat="45.41359" lon="4.63447">
        <ele>792.4</ele>
        <time>2017-03-14T22:57:00Z</time>
      </trkpt>
      <trkpt lat="45.41363" lon="4.63445">
        <ele>794.5</ele>
        <time>2017-03-14T22:57:01Z</time>
      </trkpt>
      <trkpt lat="45.41363" lon="4.63448">
        <ele>792.6</ele>
        <time>2017-03-14T22:57:02Z</time>
      </trkpt>
      <trkpt lat="45.41368" lon="4.63452">
        <ele>790.8</ele>
        <time>2017-03-14T22:57:05Z</time>
      </trkpt>
      <trkpt lat="45.41371" lon="4.63453">
        <ele>791.1</ele>
        <time>2017-03-14T22:57:07Z</time>
      </trkpt>
      <trkpt lat="45.41369" lon="4.63448">
        <ele>792.9</ele>
        <time>2017-03-14T22:57:14Z</time>
      </trkpt>
      <trkpt lat="45.41426" lon="4.6344">
        <ele>805.7</ele>
        <time>2017-03-14T22:57:22Z</time>
      </trkpt>
      <trkpt lat="45.41431" lon="4.6344">
        <ele>807.2</ele>
        <time>2017-03-14T22:57:23Z</time>
      </trkpt>
      <trkpt lat="45.41438" lon="4.63437">
        <ele>809.9</ele>
        <time>2017-03-14T22:57:24Z</time>
      </trkpt>
      <trkpt lat="45.41435" lon="4.63449">
        <ele>805.5</ele>
        <time>2017-03-14T22:57:25Z</time>
      </trkpt>
      <trkpt lat="45.41438" lon="4.63452">
        <ele>804.9</ele>
        <time>2017-03-14T22:57:26Z</time>
      </trkpt>
      <trkpt lat="45.41443" lon="4.63454">
        <ele>806</ele>
        <time>2017-03-14T22:57:29Z</time>
      </trkpt>
      <trkpt lat="45.41446" lon="4.63456">
        <ele>805.1</ele>
        <time>2017-03-14T22:57:31Z</time>
      </trkpt>
      <trkpt lat="45.41455" lon="4.63455">
        <ele>807.1</ele>
        <time>2017-03-14T22:57:33Z</time>
      </trkpt>
      <trkpt lat="45.41461" lon="4.63456">
        <ele>806.5</ele>
        <time>2017-03-14T22:57:36Z</time>
      </trkpt>
      <trkpt lat="45.4146" lon="4.63462">
        <ele>805.2</ele>
        <time>2017-03-14T22:57:38Z</time>
      </trkpt>
      <trkpt lat="45.41464" lon="4.6346">
        <ele>805.6</ele>
        <time>2017-03-14T22:57:39Z</time>
      </trkpt>
      <trkpt lat="45.41468" lon="4.63458">
        <ele>806.8</ele>
        <time>2017-03-14T22:57:45Z</time>
      </trkpt>
      <trkpt lat="45.41471" lon="4.63459">
        <ele>807</ele>
        <time>2017-03-14T22:57:47Z</time>
      </trkpt>
      <trkpt lat="45.41474" lon="4.63458">
        <ele>807.3</ele>
        <time>2017-03-14T22:57:50Z</time>
      </trkpt>
      <trkpt lat="45.41476" lon="4.63456">
        <ele>807.6</ele>
        <time>2017-03-14T22:57:52Z</time>
      </trkpt>
      <trkpt lat="45.4148" lon="4.63455">
        <ele>809.2</ele>
        <time>2017-03-14T22:57:55Z</time>
      </trkpt>
      <trkpt lat="45.41485" lon="4.63453">
        <ele>810.5</ele>
        <time>2017-03-14T22:57:57Z</time>
      </trkpt>
      <trkpt lat="45.41483" lon="4.6345">
        <ele>810.9</ele>
        <time>2017-03-14T22:58:02Z</time>
      </trkpt>
      <trkpt lat="45.41485" lon="4.63448">
        <ele>811.6</ele>
        <time>2017-03-14T22:58:04Z</time>
      </trkpt>
      <trkpt lat="45.41486" lon="4.63444">
        <ele>812.6</ele>
        <time>2017-03-14T22:58:07Z</time>
      </trkpt>
      <trkpt lat="45.4149" lon="4.63443">
        <ele>814.2</ele>
        <time>2017-03-14T22:58:10Z</time>
      </trkpt>
      <trkpt lat="45.41495" lon="4.63443">
        <ele>814.9</ele>
        <time>2017-03-14T22:58:11Z</time>
      </trkpt>
      <trkpt lat="45.41498" lon="4.63442">
        <ele>816.7</ele>
        <time>2017-03-14T22:58:12Z</time>
      </trkpt>
      <trkpt lat="45.41501" lon="4.63445">
        <ele>816.2</ele>
        <time>2017-03-14T22:58:15Z</time>
      </trkpt>
      <trkpt lat="45.41504" lon="4.63446">
        <ele>816.8</ele>
        <time>2017-03-14T22:58:16Z</time>
      </trkpt>
      <trkpt lat="45.4151" lon="4.63445">
        <ele>818</ele>
        <time>2017-03-14T22:58:18Z</time>
      </trkpt>
      <trkpt lat="45.41514" lon="4.63446">
        <ele>819.2</ele>
        <time>2017-03-14T22:58:19Z</time>
      </trkpt>
      <trkpt lat="45.41518" lon="4.63445">
        <ele>819.7</ele>
        <time>2017-03-14T22:58:22Z</time>
      </trkpt>
      <trkpt lat="45.41521" lon="4.63444">
        <ele>820.2</ele>
        <time>2017-03-14T22:58:23Z</time>
      </trkpt>
      <trkpt lat="45.41525" lon="4.63443">
        <ele>820.6</ele>
        <time>2017-03-14T22:58:25Z</time>
      </trkpt>
      <trkpt lat="45.4153" lon="4.63443">
        <ele>821.3</ele>
        <time>2017-03-14T22:58:26Z</time>
      </trkpt>
      <trkpt lat="45.41536" lon="4.63445">
        <ele>822.1</ele>
        <time>2017-03-14T22:58:28Z</time>
      </trkpt>
      <trkpt lat="45.41543" lon="4.63448">
        <ele>821.6</ele>
        <time>2017-03-14T22:58:30Z</time>
      </trkpt>
      <trkpt lat="45.41548" lon="4.63447">
        <ele>823.9</ele>
        <time>2017-03-14T22:58:31Z</time>
      </trkpt>
      <trkpt lat="45.41552" lon="4.63447">
        <ele>824.3</ele>
        <time>2017-03-14T22:58:32Z</time>
      </trkpt>
      <trkpt lat="45.41555" lon="4.63452">
        <ele>821.7</ele>
        <time>2017-03-14T22:58:34Z</time>
      </trkpt>
      <trkpt lat="45.41558" lon="4.63453">
        <ele>822.1</ele>
        <time>2017-03-14T22:58:35Z</time>
      </trkpt>
      <trkpt lat="45.41562" lon="4.63452">
        <ele>822.6</ele>
        <time>2017-03-14T22:58:37Z</time>
      </trkpt>
      <trkpt lat="45.41564" lon="4.63452">
        <ele>823.2</ele>
        <time>2017-03-14T22:58:38Z</time>
      </trkpt>
      <trkpt lat="45.41569" lon="4.63452">
        <ele>824.6</ele>
        <time>2017-03-14T22:58:40Z</time>
      </trkpt>
      <trkpt lat="45.41574" lon="4.63455">
        <ele>825.3</ele>
        <time>2017-03-14T22:58:42Z</time>
      </trkpt>
      <trkpt lat="45.41578" lon="4.63456">
        <ele>826.8</ele>
        <time>2017-03-14T22:58:45Z</time>
      </trkpt>
      <trkpt lat="45.41581" lon="4.63462">
        <ele>824</ele>
        <time>2017-03-14T22:58:49Z</time>
      </trkpt>
      <trkpt lat="45.41585" lon="4.63462">
        <ele>824.6</ele>
        <time>2017-03-14T22:58:51Z</time>
      </trkpt>
      <trkpt lat="45.41589" lon="4.63461">
        <ele>825.2</ele>
        <time>2017-03-14T22:58:52Z</time>
      </trkpt>
      <trkpt lat="45.41592" lon="4.63463">
        <ele>825.9</ele>
        <time>2017-03-14T22:58:53Z</time>
      </trkpt>
      <trkpt lat="45.41595" lon="4.63465">
        <ele>825.2</ele>
        <time>2017-03-14T22:58:54Z</time>
      </trkpt>
      <trkpt lat="45.41599" lon="4.63469">
        <ele>824.6</ele>
        <time>2017-03-14T22:58:57Z</time>
      </trkpt>
      <trkpt lat="45.41602" lon="4.63471">
        <ele>826.3</ele>
        <time>2017-03-14T22:58:59Z</time>
      </trkpt>
      <trkpt lat="45.41605" lon="4.63468">
        <ele>828.3</ele>
        <time>2017-03-14T22:59:00Z</time>
      </trkpt>
      <trkpt lat="45.41608" lon="4.63472">
        <ele>827.7</ele>
        <time>2017-03-14T22:59:01Z</time>
      </trkpt>
      <trkpt lat="45.41612" lon="4.63473">
        <ele>827.2</ele>
        <time>2017-03-14T22:59:03Z</time>
      </trkpt>
      <trkpt lat="45.41614" lon="4.63478">
        <ele>826.4</ele>
        <time>2017-03-14T22:59:04Z</time>
      </trkpt>
      <trkpt lat="45.41616" lon="4.63481">
        <ele>826.4</ele>
        <time>2017-03-14T22:59:05Z</time>
      </trkpt>
      <trkpt lat="45.4162" lon="4.63483">
        <ele>825.5</ele>
        <time>2017-03-14T22:59:07Z</time>
      </trkpt>
      <trkpt lat="45.41624" lon="4.63482">
        <ele>827.1</ele>
        <time>2017-03-14T22:59:09Z</time>
      </trkpt>
      <trkpt lat="45.41628" lon="4.63484">
        <ele>828</ele>
        <time>2017-03-14T22:59:12Z</time>
      </trkpt>
      <trkpt lat="45.41631" lon="4.63484">
        <ele>828.8</ele>
        <time>2017-03-14T22:59:13Z</time>
      </trkpt>
      <trkpt lat="45.41636" lon="4.63485">
        <ele>830.4</ele>
        <time>2017-03-14T22:59:15Z</time>
      </trkpt>
      <trkpt lat="45.4164" lon="4.63484">
        <ele>831.2</ele>
        <time>2017-03-14T22:59:17Z</time>
      </trkpt>
      <trkpt lat="45.41643" lon="4.63483">
        <ele>832</ele>
        <time>2017-03-14T22:59:19Z</time>
      </trkpt>
      <trkpt lat="45.41647" lon="4.63486">
        <ele>831.2</ele>
        <time>2017-03-14T22:59:21Z</time>
      </trkpt>
      <trkpt lat="45.41651" lon="4.63487">
        <ele>833.1</ele>
        <time>2017-03-14T22:59:22Z</time>
      </trkpt>
      <trkpt lat="45.41653" lon="4.63484">
        <ele>834.5</ele>
        <time>2017-03-14T22:59:23Z</time>
      </trkpt>
      <trkpt lat="45.41655" lon="4.63486">
        <ele>834</ele>
        <time>2017-03-14T22:59:24Z</time>
      </trkpt>
      <trkpt lat="45.4166" lon="4.63484">
        <ele>836.8</ele>
        <time>2017-03-14T22:59:25Z</time>
      </trkpt>
      <trkpt lat="45.41663" lon="4.63482">
        <ele>837.4</ele>
        <time>2017-03-14T22:59:26Z</time>
      </trkpt>
      <trkpt lat="45.41666" lon="4.63482">
        <ele>837.9</ele>
        <time>2017-03-14T22:59:27Z</time>
      </trkpt>
      <trkpt lat="45.41668" lon="4.63486">
        <ele>838.3</ele>
        <time>2017-03-14T22:59:31Z</time>
      </trkpt>
      <trkpt lat="45.41671" lon="4.63485">
        <ele>838.3</ele>
        <time>2017-03-14T22:59:33Z</time>
      </trkpt>
      <trkpt lat="45.41673" lon="4.63488">
        <ele>837.6</ele>
        <time>2017-03-14T22:59:35Z</time>
      </trkpt>
      <trkpt lat="45.41678" lon="4.63489">
        <ele>838.3</ele>
        <time>2017-03-14T22:59:37Z</time>
      </trkpt>
      <trkpt lat="45.41682" lon="4.63489">
        <ele>838.5</ele>
        <time>2017-03-14T22:59:39Z</time>
      </trkpt>
      <trkpt lat="45.41686" lon="4.63489">
        <ele>838.8</ele>
        <time>2017-03-14T22:59:42Z</time>
      </trkpt>
      <trkpt lat="45.41689" lon="4.63491">
        <ele>837.8</ele>
        <time>2017-03-14T22:59:44Z</time>
      </trkpt>
      <trkpt lat="45.41691" lon="4.63495">
        <ele>837</ele>
        <time>2017-03-14T22:59:46Z</time>
      </trkpt>
      <trkpt lat="45.41694" lon="4.63494">
        <ele>837.9</ele>
        <time>2017-03-14T22:59:47Z</time>
      </trkpt>
      <trkpt lat="45.41698" lon="4.63492">
        <ele>838</ele>
        <time>2017-03-14T22:59:48Z</time>
      </trkpt>
      <trkpt lat="45.41703" lon="4.63491">
        <ele>838</ele>
        <time>2017-03-14T22:59:50Z</time>
      </trkpt>
      <trkpt lat="45.41707" lon="4.63489">
        <ele>839.1</ele>
        <time>2017-03-14T22:59:51Z</time>
      </trkpt>
      <trkpt lat="45.41708" lon="4.63492">
        <ele>838.1</ele>
        <time>2017-03-14T22:59:53Z</time>
      </trkpt>
      <trkpt lat="45.41711" lon="4.63491">
        <ele>838</ele>
        <time>2017-03-14T22:59:54Z</time>
      </trkpt>
      <trkpt lat="45.41715" lon="4.63491">
        <ele>838</ele>
        <time>2017-03-14T22:59:55Z</time>
      </trkpt>
      <trkpt lat="45.41718" lon="4.6349">
        <ele>839.2</ele>
        <time>2017-03-14T22:59:58Z</time>
      </trkpt>
      <trkpt lat="45.41721" lon="4.63488">
        <ele>839.1</ele>
        <time>2017-03-14T22:59:59Z</time>
      </trkpt>
      <trkpt lat="45.41724" lon="4.63486">
        <ele>839</ele>
        <time>2017-03-14T23:00:00Z</time>
      </trkpt>
      <trkpt lat="45.4173" lon="4.63481">
        <ele>841.1</ele>
        <time>2017-03-14T23:00:02Z</time>
      </trkpt>
      <trkpt lat="45.41734" lon="4.63477">
        <ele>841.9</ele>
        <time>2017-03-14T23:00:03Z</time>
      </trkpt>
      <trkpt lat="45.41738" lon="4.63477">
        <ele>841.1</ele>
        <time>2017-03-14T23:00:06Z</time>
      </trkpt>
      <trkpt lat="45.41738" lon="4.63472">
        <ele>842.1</ele>
        <time>2017-03-14T23:00:08Z</time>
      </trkpt>
      <trkpt lat="45.41745" lon="4.63468">
        <ele>842.3</ele>
        <time>2017-03-14T23:00:10Z</time>
      </trkpt>
      <trkpt lat="45.41748" lon="4.63466">
        <ele>841.9</ele>
        <time>2017-03-14T23:00:13Z</time>
      </trkpt>
      <trkpt lat="45.41751" lon="4.63461">
        <ele>842.8</ele>
        <time>2017-03-14T23:00:14Z</time>
      </trkpt>
      <trkpt lat="45.41755" lon="4.63459">
        <ele>843.8</ele>
        <time>2017-03-14T23:00:15Z</time>
      </trkpt>
      <trkpt lat="45.4176" lon="4.63462">
        <ele>841.4</ele>
        <time>2017-03-14T23:00:17Z</time>
      </trkpt>
      <trkpt lat="45.41762" lon="4.63462">
        <ele>840.9</ele>
        <time>2017-03-14T23:00:18Z</time>
      </trkpt>
      <trkpt lat="45.41754" lon="4.63457">
        <ele>843.7</ele>
        <time>2017-03-14T23:00:21Z</time>
      </trkpt>
      <trkpt lat="45.41758" lon="4.63455">
        <ele>844</ele>
        <time>2017-03-14T23:00:25Z</time>
      </trkpt>
      <trkpt lat="45.41754" lon="4.63454">
        <ele>845.1</ele>
        <time>2017-03-14T23:00:26Z</time>
      </trkpt>
      <trkpt lat="45.41757" lon="4.63452">
        <ele>844.6</ele>
        <time>2017-03-14T23:00:27Z</time>
      </trkpt>
      <trkpt lat="45.41745" lon="4.63451">
        <ele>847.4</ele>
        <time>2017-03-14T23:00:28Z</time>
      </trkpt>
      <trkpt lat="45.41742" lon="4.63448">
        <ele>847.7</ele>
        <time>2017-03-14T23:00:29Z</time>
      </trkpt>
      <trkpt lat="45.41739" lon="4.63445">
        <ele>848.9</ele>
        <time>2017-03-14T23:00:31Z</time>
      </trkpt>
      <trkpt lat="45.41736" lon="4.63444">
        <ele>849</ele>
        <time>2017-03-14T23:00:36Z</time>
      </trkpt>
      <trkpt lat="45.41728" lon="4.63443">
        <ele>849.9</ele>
        <time>2017-03-14T23:00:38Z</time>
      </trkpt>
      <trkpt lat="45.41726" lon="4.63438">
        <ele>850.9</ele>
        <time>2017-03-14T23:00:39Z</time>
      </trkpt>
      <trkpt lat="45.41718" lon="4.63433">
        <ele>851.5</ele>
        <time>2017-03-14T23:00:42Z</time>
      </trkpt>
      <trkpt lat="45.41709" lon="4.6343">
        <ele>851.8</ele>
        <time>2017-03-14T23:00:43Z</time>
      </trkpt>
      <trkpt lat="45.41705" lon="4.6343">
        <ele>850.6</ele>
        <time>2017-03-14T23:00:45Z</time>
      </trkpt>
      <trkpt lat="45.41701" lon="4.63429">
        <ele>851.2</ele>
        <time>2017-03-14T23:00:46Z</time>
      </trkpt>
      <trkpt lat="45.41702" lon="4.63425">
        <ele>851.9</ele>
        <time>2017-03-14T23:00:47Z</time>
      </trkpt>
      <trkpt lat="45.41702" lon="4.63421">
        <ele>852.5</ele>
        <time>2017-03-14T23:00:49Z</time>
      </trkpt>
      <trkpt lat="45.41701" lon="4.63409">
        <ele>853.5</ele>
        <time>2017-03-14T23:00:52Z</time>
      </trkpt>
      <trkpt lat="45.41691" lon="4.63411">
        <ele>852.1</ele>
        <time>2017-03-14T23:00:55Z</time>
      </trkpt>
      <trkpt lat="45.41698" lon="4.63409">
        <ele>852.7</ele>
        <time>2017-03-14T23:00:56Z</time>
      </trkpt>
      <trkpt lat="45.41695" lon="4.63401">
        <ele>853.9</ele>
        <time>2017-03-14T23:00:57Z</time>
      </trkpt>
      <trkpt lat="45.41686" lon="4.63401">
        <ele>853.2</ele>
        <time>2017-03-14T23:00:58Z</time>
      </trkpt>
      <trkpt lat="45.4169" lon="4.63393">
        <ele>854.8</ele>
        <time>2017-03-14T23:01:01Z</time>
      </trkpt>
      <trkpt lat="45.41693" lon="4.63388">
        <ele>855.6</ele>
        <time>2017-03-14T23:01:03Z</time>
      </trkpt>
      <trkpt lat="45.41689" lon="4.63383">
        <ele>856.1</ele>
        <time>2017-03-14T23:01:05Z</time>
      </trkpt>
      <trkpt lat="45.41691" lon="4.63378">
        <ele>857.6</ele>
        <time>2017-03-14T23:01:07Z</time>
      </trkpt>
      <trkpt lat="45.4169" lon="4.63372">
        <ele>858.4</ele>
        <time>2017-03-14T23:01:08Z</time>
      </trkpt>
      <trkpt lat="45.41685" lon="4.63376">
        <ele>856.9</ele>
        <time>2017-03-14T23:01:09Z</time>
      </trkpt>
      <trkpt lat="45.41684" lon="4.63369">
        <ele>858.3</ele>
        <time>2017-03-14T23:01:12Z</time>
      </trkpt>
      <trkpt lat="45.41684" lon="4.63365">
        <ele>858.9</ele>
        <time>2017-03-14T23:01:14Z</time>
      </trkpt>
      <trkpt lat="45.41688" lon="4.63365">
        <ele>859.3</ele>
        <time>2017-03-14T23:01:16Z</time>
      </trkpt>
      <trkpt lat="45.41687" lon="4.63361">
        <ele>859.9</ele>
        <time>2017-03-14T23:01:18Z</time>
      </trkpt>
      <trkpt lat="45.4169" lon="4.63357">
        <ele>861</ele>
        <time>2017-03-14T23:01:20Z</time>
      </trkpt>
      <trkpt lat="45.41693" lon="4.63356">
        <ele>861.4</ele>
        <time>2017-03-14T23:01:21Z</time>
      </trkpt>
      <trkpt lat="45.41688" lon="4.63353">
        <ele>860.4</ele>
        <time>2017-03-14T23:01:22Z</time>
      </trkpt>
      <trkpt lat="45.41685" lon="4.6335">
        <ele>860.6</ele>
        <time>2017-03-14T23:01:23Z</time>
      </trkpt>
      <trkpt lat="45.41691" lon="4.63348">
        <ele>862.3</ele>
        <time>2017-03-14T23:01:25Z</time>
      </trkpt>
      <trkpt lat="45.41675" lon="4.6334">
        <ele>860.4</ele>
        <time>2017-03-14T23:01:29Z</time>
      </trkpt>
      <trkpt lat="45.41662" lon="4.63336">
        <ele>859.6</ele>
        <time>2017-03-14T23:01:31Z</time>
      </trkpt>
      <trkpt lat="45.41659" lon="4.63333">
        <ele>859.9</ele>
        <time>2017-03-14T23:01:33Z</time>
      </trkpt>
      <trkpt lat="45.41657" lon="4.6333">
        <ele>860.2</ele>
        <time>2017-03-14T23:01:35Z</time>
      </trkpt>
      <trkpt lat="45.4166" lon="4.6333">
        <ele>860.4</ele>
        <time>2017-03-14T23:01:36Z</time>
      </trkpt>
      <trkpt lat="45.41651" lon="4.63327">
        <ele>860.8</ele>
        <time>2017-03-14T23:01:37Z</time>
      </trkpt>
      <trkpt lat="45.41644" lon="4.63324">
        <ele>861.1</ele>
        <time>2017-03-14T23:01:38Z</time>
      </trkpt>
      <trkpt lat="45.41652" lon="4.63325">
        <ele>860.7</ele>
        <time>2017-03-14T23:01:40Z</time>
      </trkpt>
      <trkpt lat="45.41647" lon="4.63319">
        <ele>861.9</ele>
        <time>2017-03-14T23:01:42Z</time>
      </trkpt>
      <trkpt lat="45.41652" lon="4.63319">
        <ele>861.6</ele>
        <time>2017-03-14T23:01:43Z</time>
      </trkpt>
      <trkpt lat="45.41642" lon="4.63312">
        <ele>864.3</ele>
        <time>2017-03-14T23:01:46Z</time>
      </trkpt>
      <trkpt lat="45.41637" lon="4.63309">
        <ele>866.3</ele>
        <time>2017-03-14T23:01:47Z</time>
      </trkpt>
      <trkpt lat="45.41631" lon="4.63307">
        <ele>867.4</ele>
        <time>2017-03-14T23:01:48Z</time>
      </trkpt>
      <trkpt lat="45.41634" lon="4.63305">
        <ele>867.8</ele>
        <time>2017-03-14T23:01:49Z</time>
      </trkpt>
      <trkpt lat="45.41638" lon="4.63306">
        <ele>865.8</ele>
        <time>2017-03-14T23:01:50Z</time>
      </trkpt>
      <trkpt lat="45.41641" lon="4.63305">
        <ele>866.3</ele>
        <time>2017-03-14T23:01:52Z</time>
      </trkpt>
      <trkpt lat="45.41635" lon="4.63303">
        <ele>867.2</ele>
        <time>2017-03-14T23:01:58Z</time>
      </trkpt>
      <trkpt lat="45.41632" lon="4.63301">
        <ele>868.3</ele>
        <time>2017-03-14T23:02:00Z</time>
      </trkpt>
      <trkpt lat="45.41635" lon="4.63302">
        <ele>867.2</ele>
        <time>2017-03-14T23:02:01Z</time>
      </trkpt>
      <trkpt lat="45.41633" lon="4.63299">
        <ele>868.8</ele>
        <time>2017-03-14T23:02:03Z</time>
      </trkpt>
      <trkpt lat="45.41629" lon="4.63295">
        <ele>870.5</ele>
        <time>2017-03-14T23:02:04Z</time>
      </trkpt>
      <trkpt lat="45.41625" lon="4.63293">
        <ele>871.3</ele>
        <time>2017-03-14T23:02:06Z</time>
      </trkpt>
      <trkpt lat="45.41625" lon="4.6329">
        <ele>872.5</ele>
        <time>2017-03-14T23:02:10Z</time>
      </trkpt>
      <trkpt lat="45.41628" lon="4.6329">
        <ele>872.1</ele>
        <time>2017-03-14T23:02:11Z</time>
      </trkpt>
      <trkpt lat="45.41609" lon="4.6328">
        <ele>875.4</ele>
        <time>2017-03-14T23:02:13Z</time>
      </trkpt>
      <trkpt lat="45.4161" lon="4.63276">
        <ele>876.2</ele>
        <time>2017-03-14T23:02:16Z</time>
      </trkpt>
      <trkpt lat="45.41607" lon="4.63272">
        <ele>877.2</ele>
        <time>2017-03-14T23:02:22Z</time>
      </trkpt>
      <trkpt lat="45.41611" lon="4.6327">
        <ele>878.4</ele>
        <time>2017-03-14T23:02:24Z</time>
      </trkpt>
      <trkpt lat="45.41614" lon="4.63272">
        <ele>877.1</ele>
        <time>2017-03-14T23:02:27Z</time>
      </trkpt>
      <trkpt lat="45.41613" lon="4.63267">
        <ele>878.3</ele>
        <time>2017-03-14T23:02:28Z</time>
      </trkpt>
      <trkpt lat="45.41617" lon="4.63267">
        <ele>880.1</ele>
        <time>2017-03-14T23:02:29Z</time>
      </trkpt>
      <trkpt lat="45.41611" lon="4.63266">
        <ele>879.8</ele>
        <time>2017-03-14T23:02:30Z</time>
      </trkpt>
      <trkpt lat="45.41614" lon="4.63263">
        <ele>879.9</ele>
        <time>2017-03-14T23:02:33Z</time>
      </trkpt>
      <trkpt lat="45.4161" lon="4.63261">
        <ele>881.3</ele>
        <time>2017-03-14T23:02:34Z</time>
      </trkpt>
      <trkpt lat="45.41606" lon="4.63259">
        <ele>881.2</ele>
        <time>2017-03-14T23:02:35Z</time>
      </trkpt>
      <trkpt lat="45.41601" lon="4.63253">
        <ele>883.8</ele>
        <time>2017-03-14T23:02:38Z</time>
      </trkpt>
      <trkpt lat="45.41599" lon="4.6325">
        <ele>883.8</ele>
        <time>2017-03-14T23:02:40Z</time>
      </trkpt>
      <trkpt lat="45.41592" lon="4.63248">
        <ele>884.3</ele>
        <time>2017-03-14T23:02:43Z</time>
      </trkpt>
      <trkpt lat="45.41594" lon="4.63245">
        <ele>885.7</ele>
        <time>2017-03-14T23:02:45Z</time>
      </trkpt>
      <trkpt lat="45.41592" lon="4.63242">
        <ele>885.3</ele>
        <time>2017-03-14T23:02:49Z</time>
      </trkpt>
      <trkpt lat="45.41583" lon="4.63242">
        <ele>884.1</ele>
        <time>2017-03-14T23:02:51Z</time>
      </trkpt>
      <trkpt lat="45.41578" lon="4.63243">
        <ele>883.6</ele>
        <time>2017-03-14T23:02:53Z</time>
      </trkpt>
      <trkpt lat="45.41575" lon="4.63243">
        <ele>883.1</ele>
        <time>2017-03-14T23:02:54Z</time>
      </trkpt>
      <trkpt lat="45.4157" lon="4.6324">
        <ele>883</ele>
        <time>2017-03-14T23:02:55Z</time>
      </trkpt>
      <trkpt lat="45.41561" lon="4.63236">
        <ele>882.7</ele>
        <time>2017-03-14T23:02:57Z</time>
      </trkpt>
      <trkpt lat="45.41555" lon="4.63235">
        <ele>882</ele>
        <time>2017-03-14T23:03:00Z</time>
      </trkpt>
      <trkpt lat="45.41549" lon="4.63235">
        <ele>881.3</ele>
        <time>2017-03-14T23:03:01Z</time>
      </trkpt>
      <trkpt lat="45.41546" lon="4.63234">
        <ele>880.9</ele>
        <time>2017-03-14T23:03:05Z</time>
      </trkpt>
      <trkpt lat="45.41542" lon="4.63233">
        <ele>880.6</ele>
        <time>2017-03-14T23:03:08Z</time>
      </trkpt>
      <trkpt lat="45.41536" lon="4.6323">
        <ele>881.2</ele>
        <time>2017-03-14T23:03:11Z</time>
      </trkpt>
      <trkpt lat="45.41532" lon="4.63228">
        <ele>881</ele>
        <time>2017-03-14T23:03:15Z</time>
      </trkpt>
      <trkpt lat="45.41529" lon="4.63227">
        <ele>882</ele>
        <time>2017-03-14T23:03:16Z</time>
      </trkpt>
      <trkpt lat="45.41521" lon="4.63225">
        <ele>882</ele>
        <time>2017-03-14T23:03:17Z</time>
      </trkpt>
      <trkpt lat="45.41516" lon="4.63221">
        <ele>883</ele>
        <time>2017-03-14T23:03:18Z</time>
      </trkpt>
      <trkpt lat="45.4151" lon="4.63219">
        <ele>884.1</ele>
        <time>2017-03-14T23:03:20Z</time>
      </trkpt>
      <trkpt lat="45.41501" lon="4.63218">
        <ele>884.7</ele>
        <time>2017-03-14T23:03:21Z</time>
      </trkpt>
      <trkpt lat="45.41494" lon="4.6322">
        <ele>884.1</ele>
        <time>2017-03-14T23:03:23Z</time>
      </trkpt>
      <trkpt lat="45.41486" lon="4.63218">
        <ele>885.2</ele>
        <time>2017-03-14T23:03:24Z</time>
      </trkpt>
      <trkpt lat="45.41477" lon="4.63215">
        <ele>885.9</ele>
        <time>2017-03-14T23:03:25Z</time>
      </trkpt>
      <trkpt lat="45.41469" lon="4.63214">
        <ele>885.3</ele>
        <time>2017-03-14T23:03:29Z</time>
      </trkpt>
      <trkpt lat="45.41474" lon="4.63218">
        <ele>884.6</ele>
        <time>2017-03-14T23:03:30Z</time>
      </trkpt>
      <trkpt lat="45.41462" lon="4.6322">
        <ele>882.3</ele>
        <time>2017-03-14T23:03:32Z</time>
      </trkpt>
      <trkpt lat="45.41449" lon="4.63218">
        <ele>881</ele>
        <time>2017-03-14T23:03:34Z</time>
      </trkpt>
      <trkpt lat="45.41441" lon="4.63217">
        <ele>880</ele>
        <time>2017-03-14T23:03:36Z</time>
      </trkpt>
      <trkpt lat="45.41436" lon="4.63219">
        <ele>879.6</ele>
        <time>2017-03-14T23:03:38Z</time>
      </trkpt>
      <trkpt lat="45.41425" lon="4.63222">
        <ele>878.5</ele>
        <time>2017-03-14T23:03:41Z</time>
      </trkpt>
      <trkpt lat="45.41428" lon="4.6322">
        <ele>879.4</ele>
        <time>2017-03-14T23:03:43Z</time>
      </trkpt>
      <trkpt lat="45.41423" lon="4.63221">
        <ele>878.5</ele>
        <time>2017-03-14T23:03:45Z</time>
      </trkpt>
      <trkpt lat="45.41417" lon="4.63219">
        <ele>879.7</ele>
        <time>2017-03-14T23:03:46Z</time>
      </trkpt>
      <trkpt lat="45.41412" lon="4.6322">
        <ele>878.7</ele>
        <time>2017-03-14T23:03:47Z</time>
      </trkpt>
      <trkpt lat="45.41408" lon="4.6322">
        <ele>878.8</ele>
        <time>2017-03-14T23:03:49Z</time>
      </trkpt>
      <trkpt lat="45.41412" lon="4.63219">
        <ele>879.9</ele>
        <time>2017-03-14T23:03:51Z</time>
      </trkpt>
      <trkpt lat="45.41408" lon="4.6322">
        <ele>880</ele>
        <time>2017-03-14T23:03:53Z</time>
      </trkpt>
      <trkpt lat="45.414" lon="4.63221">
        <ele>878.8</ele>
        <time>2017-03-14T23:03:55Z</time>
      </trkpt>
      <trkpt lat="45.41396" lon="4.63221">
        <ele>878.7</ele>
        <time>2017-03-14T23:03:56Z</time>
      </trkpt>
      <trkpt lat="45.41389" lon="4.63222">
        <ele>878.5</ele>
        <time>2017-03-14T23:03:57Z</time>
      </trkpt>
      <trkpt lat="45.41392" lon="4.63225">
        <ele>877.3</ele>
        <time>2017-03-14T23:03:58Z</time>
      </trkpt>
      <trkpt lat="45.41387" lon="4.63227">
        <ele>877</ele>
        <time>2017-03-14T23:04:00Z</time>
      </trkpt>
      <trkpt lat="45.41384" lon="4.63227">
        <ele>876.7</ele>
        <time>2017-03-14T23:04:01Z</time>
      </trkpt>
      <trkpt lat="45.41379" lon="4.63228">
        <ele>874.9</ele>
        <time>2017-03-14T23:04:02Z</time>
      </trkpt>
      <trkpt lat="45.41376" lon="4.6323">
        <ele>874.5</ele>
        <time>2017-03-14T23:04:03Z</time>
      </trkpt>
      <trkpt lat="45.41355" lon="4.63229">
        <ele>872.4</ele>
        <time>2017-03-14T23:04:06Z</time>
      </trkpt>
      <trkpt lat="45.41339" lon="4.63231">
        <ele>871.8</ele>
        <time>2017-03-14T23:04:09Z</time>
      </trkpt>
      <trkpt lat="45.41341" lon="4.63225">
        <ele>873</ele>
        <time>2017-03-14T23:04:10Z</time>
      </trkpt>
      <trkpt lat="45.41334" lon="4.63227">
        <ele>873.1</ele>
        <time>2017-03-14T23:04:11Z</time>
      </trkpt>
      <trkpt lat="45.41331" lon="4.6323">
        <ele>872</ele>
        <time>2017-03-14T23:04:12Z</time>
      </trkpt>
      <trkpt lat="45.41325" lon="4.63229">
        <ele>872.2</ele>
        <time>2017-03-14T23:04:13Z</time>
      </trkpt>
      <trkpt lat="45.41317" lon="4.63231">
        <ele>872.4</ele>
        <time>2017-03-14T23:04:14Z</time>
      </trkpt>
      <trkpt lat="45.41313" lon="4.63228">
        <ele>872.4</ele>
        <time>2017-03-14T23:04:15Z</time>
      </trkpt>
      <trkpt lat="45.41307" lon="4.63228">
        <ele>873.3</ele>
        <time>2017-03-14T23:04:16Z</time>
      </trkpt>
      <trkpt lat="45.41302" lon="4.63228">
        <ele>872.7</ele>
        <time>2017-03-14T23:04:17Z</time>
      </trkpt>
      <trkpt lat="45.41301" lon="4.63222">
        <ele>873.8</ele>
        <time>2017-03-14T23:04:18Z</time>
      </trkpt>
      <trkpt lat="45.41298" lon="4.63218">
        <ele>874.5</ele>
        <time>2017-03-14T23:04:19Z</time>
      </trkpt>
      <trkpt lat="45.41293" lon="4.63214">
        <ele>874.6</ele>
        <time>2017-03-14T23:04:21Z</time>
      </trkpt>
      <trkpt lat="45.41291" lon="4.63212">
        <ele>873.9</ele>
        <time>2017-03-14T23:04:23Z</time>
      </trkpt>
      <trkpt lat="45.41287" lon="4.6321">
        <ele>874.6</ele>
        <time>2017-03-14T23:04:24Z</time>
      </trkpt>
      <trkpt lat="45.41284" lon="4.63208">
        <ele>873.9</ele>
        <time>2017-03-14T23:04:26Z</time>
      </trkpt>
      <trkpt lat="45.41279" lon="4.63206">
        <ele>874.7</ele>
        <time>2017-03-14T23:04:27Z</time>
      </trkpt>
      <trkpt lat="45.41276" lon="4.63203">
        <ele>873.3</ele>
        <time>2017-03-14T23:04:30Z</time>
      </trkpt>
      <trkpt lat="45.41272" lon="4.63201">
        <ele>874</ele>
        <time>2017-03-14T23:04:31Z</time>
      </trkpt>
      <trkpt lat="45.41268" lon="4.632">
        <ele>873.2</ele>
        <time>2017-03-14T23:04:33Z</time>
      </trkpt>
      <trkpt lat="45.41265" lon="4.63194">
        <ele>873.6</ele>
        <time>2017-03-14T23:04:38Z</time>
      </trkpt>
      <trkpt lat="45.41261" lon="4.63193">
        <ele>873.7</ele>
        <time>2017-03-14T23:04:39Z</time>
      </trkpt>
      <trkpt lat="45.41259" lon="4.63189">
        <ele>873.9</ele>
        <time>2017-03-14T23:04:41Z</time>
      </trkpt>
      <trkpt lat="45.41257" lon="4.63186">
        <ele>873.1</ele>
        <time>2017-03-14T23:04:43Z</time>
      </trkpt>
      <trkpt lat="45.41254" lon="4.63184">
        <ele>873.4</ele>
        <time>2017-03-14T23:04:44Z</time>
      </trkpt>
      <trkpt lat="45.41249" lon="4.6318">
        <ele>873.8</ele>
        <time>2017-03-14T23:04:46Z</time>
      </trkpt>
      <trkpt lat="45.41245" lon="4.6318">
        <ele>872.2</ele>
        <time>2017-03-14T23:04:48Z</time>
      </trkpt>
      <trkpt lat="45.41243" lon="4.63175">
        <ele>873.4</ele>
        <time>2017-03-14T23:04:52Z</time>
      </trkpt>
      <trkpt lat="45.4124" lon="4.63171">
        <ele>873</ele>
        <time>2017-03-14T23:04:55Z</time>
      </trkpt>
      <trkpt lat="45.41238" lon="4.63167">
        <ele>874.1</ele>
        <time>2017-03-14T23:04:57Z</time>
      </trkpt>
      <trkpt lat="45.41231" lon="4.63164">
        <ele>872.2</ele>
        <time>2017-03-14T23:04:58Z</time>
      </trkpt>
      <trkpt lat="45.41228" lon="4.63162">
        <ele>873.4</ele>
        <time>2017-03-14T23:05:00Z</time>
      </trkpt>
      <trkpt lat="45.41227" lon="4.63158">
        <ele>874.3</ele>
        <time>2017-03-14T23:05:02Z</time>
      </trkpt>
      <trkpt lat="45.41224" lon="4.63152">
        <ele>875.5</ele>
        <time>2017-03-14T23:05:05Z</time>
      </trkpt>
      <trkpt lat="45.4122" lon="4.63148">
        <ele>876.7</ele>
        <time>2017-03-14T23:05:07Z</time>
      </trkpt>
      <trkpt lat="45.41221" lon="4.63145">
        <ele>878.4</ele>
        <time>2017-03-14T23:05:09Z</time>
      </trkpt>
      <trkpt lat="45.41218" lon="4.63141">
        <ele>879.3</ele>
        <time>2017-03-14T23:05:11Z</time>
      </trkpt>
      <trkpt lat="45.41216" lon="4.63139">
        <ele>878.6</ele>
        <time>2017-03-14T23:05:12Z</time>
      </trkpt>
      <trkpt lat="45.41211" lon="4.63136">
        <ele>879.3</ele>
        <time>2017-03-14T23:05:15Z</time>
      </trkpt>
      <trkpt lat="45.41214" lon="4.63134">
        <ele>880</ele>
        <time>2017-03-14T23:05:17Z</time>
      </trkpt>
      <trkpt lat="45.4121" lon="4.63132">
        <ele>880.1</ele>
        <time>2017-03-14T23:05:18Z</time>
      </trkpt>
      <trkpt lat="45.41206" lon="4.63125">
        <ele>881.1</ele>
        <time>2017-03-14T23:05:21Z</time>
      </trkpt>
      <trkpt lat="45.41203" lon="4.63123">
        <ele>882.2</ele>
        <time>2017-03-14T23:05:22Z</time>
      </trkpt>
      <trkpt lat="45.41195" lon="4.63118">
        <ele>882.3</ele>
        <time>2017-03-14T23:05:24Z</time>
      </trkpt>
      <trkpt lat="45.41194" lon="4.63114">
        <ele>884.1</ele>
        <time>2017-03-14T23:05:27Z</time>
      </trkpt>
      <trkpt lat="45.41191" lon="4.63111">
        <ele>885.2</ele>
        <time>2017-03-14T23:05:29Z</time>
      </trkpt>
      <trkpt lat="45.41189" lon="4.63108">
        <ele>884.5</ele>
        <time>2017-03-14T23:05:30Z</time>
      </trkpt>
      <trkpt lat="45.41184" lon="4.63106">
        <ele>885.6</ele>
        <time>2017-03-14T23:05:31Z</time>
      </trkpt>
      <trkpt lat="45.41181" lon="4.63103">
        <ele>886.7</ele>
        <time>2017-03-14T23:05:33Z</time>
      </trkpt>
      <trkpt lat="45.41179" lon="4.63099">
        <ele>887.9</ele>
        <time>2017-03-14T23:05:36Z</time>
      </trkpt>
      <trkpt lat="45.41174" lon="4.63096">
        <ele>887.1</ele>
        <time>2017-03-14T23:05:37Z</time>
      </trkpt>
      <trkpt lat="45.41166" lon="4.63089">
        <ele>888.5</ele>
        <time>2017-03-14T23:05:39Z</time>
      </trkpt>
      <trkpt lat="45.41161" lon="4.63083">
        <ele>888.3</ele>
        <time>2017-03-14T23:05:42Z</time>
      </trkpt>
      <trkpt lat="45.41157" lon="4.63081">
        <ele>888.7</ele>
        <time>2017-03-14T23:05:44Z</time>
      </trkpt>
      <trkpt lat="45.41149" lon="4.63076">
        <ele>887.2</ele>
        <time>2017-03-14T23:05:46Z</time>
      </trkpt>
      <trkpt lat="45.4114" lon="4.63072">
        <ele>886.2</ele>
        <time>2017-03-14T23:05:50Z</time>
      </trkpt>
      <trkpt lat="45.41135" lon="4.63071">
        <ele>885.4</ele>
        <time>2017-03-14T23:05:51Z</time>
      </trkpt>
      <trkpt lat="45.41141" lon="4.63069">
        <ele>888.5</ele>
        <time>2017-03-14T23:05:53Z</time>
      </trkpt>
      <trkpt lat="45.41143" lon="4.63065">
        <ele>888.5</ele>
        <time>2017-03-14T23:05:55Z</time>
      </trkpt>
      <trkpt lat="45.41145" lon="4.63066">
        <ele>889.4</ele>
        <time>2017-03-14T23:05:57Z</time>
      </trkpt>
      <trkpt lat="45.41147" lon="4.63061">
        <ele>891.8</ele>
        <time>2017-03-14T23:06:00Z</time>
      </trkpt>
      <trkpt lat="45.41147" lon="4.63056">
        <ele>894.4</ele>
        <time>2017-03-14T23:06:04Z</time>
      </trkpt>
      <trkpt lat="45.41145" lon="4.63053">
        <ele>893.4</ele>
        <time>2017-03-14T23:06:06Z</time>
      </trkpt>
      <trkpt lat="45.41142" lon="4.63049">
        <ele>893.7</ele>
        <time>2017-03-14T23:06:08Z</time>
      </trkpt>
      <trkpt lat="45.41132" lon="4.63047">
        <ele>892.4</ele>
        <time>2017-03-14T23:06:09Z</time>
      </trkpt>
      <trkpt lat="45.41131" lon="4.63042">
        <ele>892.8</ele>
        <time>2017-03-14T23:06:11Z</time>
      </trkpt>
      <trkpt lat="45.41127" lon="4.6304">
        <ele>891.8</ele>
        <time>2017-03-14T23:06:12Z</time>
      </trkpt>
      <trkpt lat="45.41121" lon="4.63036">
        <ele>891.3</ele>
        <time>2017-03-14T23:06:15Z</time>
      </trkpt>
      <trkpt lat="45.41111" lon="4.63033">
        <ele>890.1</ele>
        <time>2017-03-14T23:06:17Z</time>
      </trkpt>
      <trkpt lat="45.41108" lon="4.63026">
        <ele>891.6</ele>
        <time>2017-03-14T23:06:19Z</time>
      </trkpt>
      <trkpt lat="45.41103" lon="4.63026">
        <ele>890.1</ele>
        <time>2017-03-14T23:06:20Z</time>
      </trkpt>
      <trkpt lat="45.41101" lon="4.63024">
        <ele>889.4</ele>
        <time>2017-03-14T23:06:21Z</time>
      </trkpt>
      <trkpt lat="45.41096" lon="4.63018">
        <ele>889.7</ele>
        <time>2017-03-14T23:06:22Z</time>
      </trkpt>
      <trkpt lat="45.41093" lon="4.6301">
        <ele>891.2</ele>
        <time>2017-03-14T23:06:24Z</time>
      </trkpt>
      <trkpt lat="45.41094" lon="4.63006">
        <ele>892.1</ele>
        <time>2017-03-14T23:06:26Z</time>
      </trkpt>
      <trkpt lat="45.41094" lon="4.63001">
        <ele>892.9</ele>
        <time>2017-03-14T23:06:27Z</time>
      </trkpt>
      <trkpt lat="45.41088" lon="4.62999">
        <ele>892.1</ele>
        <time>2017-03-14T23:06:28Z</time>
      </trkpt>
      <trkpt lat="45.41085" lon="4.62997">
        <ele>891.5</ele>
        <time>2017-03-14T23:06:29Z</time>
      </trkpt>
      <trkpt lat="45.41082" lon="4.62996">
        <ele>891.5</ele>
        <time>2017-03-14T23:06:30Z</time>
      </trkpt>
      <trkpt lat="45.41077" lon="4.62996">
        <ele>891</ele>
        <time>2017-03-14T23:06:31Z</time>
      </trkpt>
      <trkpt lat="45.41074" lon="4.62995">
        <ele>890</ele>
        <time>2017-03-14T23:06:32Z</time>
      </trkpt>
      <trkpt lat="45.4107" lon="4.62995">
        <ele>889.5</ele>
        <time>2017-03-14T23:06:33Z</time>
      </trkpt>
      <trkpt lat="45.41065" lon="4.62992">
        <ele>889.5</ele>
        <time>2017-03-14T23:06:35Z</time>
      </trkpt>
      <trkpt lat="45.41061" lon="4.62991">
        <ele>889.2</ele>
        <time>2017-03-14T23:06:36Z</time>
      </trkpt>
      <trkpt lat="45.41064" lon="4.62987">
        <ele>890.3</ele>
        <time>2017-03-14T23:06:37Z</time>
      </trkpt>
      <trkpt lat="45.41066" lon="4.6298">
        <ele>891.3</ele>
        <time>2017-03-14T23:06:39Z</time>
      </trkpt>
      <trkpt lat="45.41069" lon="4.62977">
        <ele>892.3</ele>
        <time>2017-03-14T23:06:40Z</time>
      </trkpt>
      <trkpt lat="45.41072" lon="4.62972">
        <ele>893.2</ele>
        <time>2017-03-14T23:06:43Z</time>
      </trkpt>
      <trkpt lat="45.41076" lon="4.62968">
        <ele>894.4</ele>
        <time>2017-03-14T23:06:44Z</time>
      </trkpt>
      <trkpt lat="45.41079" lon="4.62965">
        <ele>895.8</ele>
        <time>2017-03-14T23:06:45Z</time>
      </trkpt>
      <trkpt lat="45.41082" lon="4.62962">
        <ele>897.5</ele>
        <time>2017-03-14T23:06:46Z</time>
      </trkpt>
      <trkpt lat="45.41076" lon="4.62961">
        <ele>896.4</ele>
        <time>2017-03-14T23:06:48Z</time>
      </trkpt>
      <trkpt lat="45.41072" lon="4.62957">
        <ele>896.9</ele>
        <time>2017-03-14T23:06:51Z</time>
      </trkpt>
      <trkpt lat="45.4107" lon="4.62957">
        <ele>896.3</ele>
        <time>2017-03-14T23:06:52Z</time>
      </trkpt>
      <trkpt lat="45.41067" lon="4.62955">
        <ele>895.7</ele>
        <time>2017-03-14T23:06:54Z</time>
      </trkpt>
      <trkpt lat="45.41064" lon="4.62957">
        <ele>895.2</ele>
        <time>2017-03-14T23:06:55Z</time>
      </trkpt>
      <trkpt lat="45.41055" lon="4.62957">
        <ele>894.1</ele>
        <time>2017-03-14T23:06:57Z</time>
      </trkpt>
      <trkpt lat="45.41048" lon="4.62956">
        <ele>893.3</ele>
        <time>2017-03-14T23:06:58Z</time>
      </trkpt>
      <trkpt lat="45.41039" lon="4.62952">
        <ele>892.4</ele>
        <time>2017-03-14T23:06:59Z</time>
      </trkpt>
      <trkpt lat="45.41037" lon="4.6295">
        <ele>892</ele>
        <time>2017-03-14T23:07:03Z</time>
      </trkpt>
      <trkpt lat="45.41036" lon="4.62944">
        <ele>893.1</ele>
        <time>2017-03-14T23:07:05Z</time>
      </trkpt>
      <trkpt lat="45.41037" lon="4.6294">
        <ele>893.7</ele>
        <time>2017-03-14T23:07:06Z</time>
      </trkpt>
      <trkpt lat="45.41031" lon="4.62939">
        <ele>892.8</ele>
        <time>2017-03-14T23:07:07Z</time>
      </trkpt>
      <trkpt lat="45.41025" lon="4.62935">
        <ele>892.6</ele>
        <time>2017-03-14T23:07:09Z</time>
      </trkpt>
      <trkpt lat="45.41024" lon="4.62931">
        <ele>893.2</ele>
        <time>2017-03-14T23:07:11Z</time>
      </trkpt>
      <trkpt lat="45.41021" lon="4.62928">
        <ele>892.7</ele>
        <time>2017-03-14T23:07:12Z</time>
      </trkpt>
      <trkpt lat="45.41017" lon="4.62927">
        <ele>892.1</ele>
        <time>2017-03-14T23:07:13Z</time>
      </trkpt>
      <trkpt lat="45.41013" lon="4.62924">
        <ele>891.4</ele>
        <time>2017-03-14T23:07:15Z</time>
      </trkpt>
      <trkpt lat="45.41009" lon="4.62921">
        <ele>891.2</ele>
        <time>2017-03-14T23:07:16Z</time>
      </trkpt>
      <trkpt lat="45.41006" lon="4.62918">
        <ele>891</ele>
        <time>2017-03-14T23:07:17Z</time>
      </trkpt>
      <trkpt lat="45.41004" lon="4.62914">
        <ele>890.8</ele>
        <time>2017-03-14T23:07:18Z</time>
      </trkpt>
      <trkpt lat="45.41001" lon="4.62909">
        <ele>890.6</ele>
        <time>2017-03-14T23:07:20Z</time>
      </trkpt>
      <trkpt lat="45.40998" lon="4.6291">
        <ele>889.9</ele>
        <time>2017-03-14T23:07:21Z</time>
      </trkpt>
      <trkpt lat="45.40995" lon="4.62906">
        <ele>889.9</ele>
        <time>2017-03-14T23:07:22Z</time>
      </trkpt>
      <trkpt lat="45.40995" lon="4.62902">
        <ele>890.6</ele>
        <time>2017-03-14T23:07:23Z</time>
      </trkpt>
      <trkpt lat="45.40991" lon="4.62898">
        <ele>890.6</ele>
        <time>2017-03-14T23:07:25Z</time>
      </trkpt>
      <trkpt lat="45.40985" lon="4.62892">
        <ele>889.9</ele>
        <time>2017-03-14T23:07:27Z</time>
      </trkpt>
      <trkpt lat="45.40984" lon="4.62888">
        <ele>890.6</ele>
        <time>2017-03-14T23:07:28Z</time>
      </trkpt>
      <trkpt lat="45.40977" lon="4.62883">
        <ele>889.3</ele>
        <time>2017-03-14T23:07:29Z</time>
      </trkpt>
      <trkpt lat="45.40975" lon="4.62881">
        <ele>888.7</ele>
        <time>2017-03-14T23:07:30Z</time>
      </trkpt>
      <trkpt lat="45.40972" lon="4.62877">
        <ele>889.5</ele>
        <time>2017-03-14T23:07:31Z</time>
      </trkpt>
      <trkpt lat="45.40966" lon="4.62869">
        <ele>889.2</ele>
        <time>2017-03-14T23:07:32Z</time>
      </trkpt>
      <trkpt lat="45.40967" lon="4.62866">
        <ele>890.7</ele>
        <time>2017-03-14T23:07:33Z</time>
      </trkpt>
      <trkpt lat="45.40962" lon="4.62863">
        <ele>890.1</ele>
        <time>2017-03-14T23:07:34Z</time>
      </trkpt>
      <trkpt lat="45.40961" lon="4.62859">
        <ele>891</ele>
        <time>2017-03-14T23:07:37Z</time>
      </trkpt>
      <trkpt lat="45.40796" lon="4.62791">
        <ele>872.6</ele>
        <time>2017-03-14T23:08:22Z</time>
      </trkpt>
      <trkpt lat="45.40799" lon="4.6279">
        <ele>874.8</ele>
        <time>2017-03-14T23:08:23Z</time>
      </trkpt>
      <trkpt lat="45.40767" lon="4.6279">
        <ele>870.3</ele>
        <time>2017-03-14T23:08:26Z</time>
      </trkpt>
      <trkpt lat="45.40768" lon="4.62795">
        <ele>868.1</ele>
        <time>2017-03-14T23:08:27Z</time>
      </trkpt>
      <trkpt lat="45.4077" lon="4.62789">
        <ele>870.5</ele>
        <time>2017-03-14T23:08:28Z</time>
      </trkpt>
      <trkpt lat="45.40767" lon="4.6279">
        <ele>870.3</ele>
        <time>2017-03-14T23:08:29Z</time>
      </trkpt>
      <trkpt lat="45.40764" lon="4.62787">
        <ele>870.4</ele>
        <time>2017-03-14T23:08:30Z</time>
      </trkpt>
      <trkpt lat="45.40748" lon="4.62778">
        <ele>874.5</ele>
        <time>2017-03-14T23:08:33Z</time>
      </trkpt>
      <trkpt lat="45.40744" lon="4.62783">
        <ele>874.8</ele>
        <time>2017-03-14T23:08:36Z</time>
      </trkpt>
      <trkpt lat="45.40742" lon="4.62785">
        <ele>875.9</ele>
        <time>2017-03-14T23:08:37Z</time>
      </trkpt>
      <trkpt lat="45.40745" lon="4.62789">
        <ele>874.2</ele>
        <time>2017-03-14T23:08:39Z</time>
      </trkpt>
      <trkpt lat="45.40743" lon="4.62789">
        <ele>875.4</ele>
        <time>2017-03-14T23:08:40Z</time>
      </trkpt>
      <trkpt lat="45.40745" lon="4.62791">
        <ele>873.7</ele>
        <time>2017-03-14T23:08:42Z</time>
      </trkpt>
      <trkpt lat="45.40746" lon="4.62798">
        <ele>873.2</ele>
        <time>2017-03-14T23:08:44Z</time>
      </trkpt>
      <trkpt lat="45.40746" lon="4.62806">
        <ele>871.1</ele>
        <time>2017-03-14T23:08:46Z</time>
      </trkpt>
      <trkpt lat="45.40745" lon="4.6281">
        <ele>872</ele>
        <time>2017-03-14T23:08:47Z</time>
      </trkpt>
      <trkpt lat="45.40744" lon="4.62816">
        <ele>871.6</ele>
        <time>2017-03-14T23:08:48Z</time>
      </trkpt>
      <trkpt lat="45.40743" lon="4.62821">
        <ele>872.8</ele>
        <time>2017-03-14T23:08:50Z</time>
      </trkpt>
      <trkpt lat="45.4074" lon="4.62825">
        <ele>872.8</ele>
        <time>2017-03-14T23:08:51Z</time>
      </trkpt>
      <trkpt lat="45.40739" lon="4.62828">
        <ele>874.9</ele>
        <time>2017-03-14T23:08:52Z</time>
      </trkpt>
      <trkpt lat="45.40741" lon="4.6283">
        <ele>872.9</ele>
        <time>2017-03-14T23:08:53Z</time>
      </trkpt>
      <trkpt lat="45.40744" lon="4.62832">
        <ele>871</ele>
        <time>2017-03-14T23:08:55Z</time>
      </trkpt>
      <trkpt lat="45.40739" lon="4.62833">
        <ele>875.1</ele>
        <time>2017-03-14T23:08:56Z</time>
      </trkpt>
      <trkpt lat="45.40743" lon="4.62837">
        <ele>871.3</ele>
        <time>2017-03-14T23:08:57Z</time>
      </trkpt>
      <trkpt lat="45.40748" lon="4.62841">
        <ele>870</ele>
        <time>2017-03-14T23:08:58Z</time>
      </trkpt>
      <trkpt lat="45.40744" lon="4.62843">
        <ele>872.4</ele>
        <time>2017-03-14T23:08:59Z</time>
      </trkpt>
      <trkpt lat="45.40742" lon="4.62852">
        <ele>875.6</ele>
        <time>2017-03-14T23:09:01Z</time>
      </trkpt>
      <trkpt lat="45.40738" lon="4.62855">
        <ele>878.1</ele>
        <time>2017-03-14T23:09:02Z</time>
      </trkpt>
      <trkpt lat="45.40741" lon="4.62858">
        <ele>876.2</ele>
        <time>2017-03-14T23:09:03Z</time>
      </trkpt>
      <trkpt lat="45.40744" lon="4.62861">
        <ele>875</ele>
        <time>2017-03-14T23:09:05Z</time>
      </trkpt>
      <trkpt lat="45.40745" lon="4.62872">
        <ele>875.6</ele>
        <time>2017-03-14T23:09:07Z</time>
      </trkpt>
      <trkpt lat="45.40743" lon="4.62879">
        <ele>875.8</ele>
        <time>2017-03-14T23:09:08Z</time>
      </trkpt>
      <trkpt lat="45.40743" lon="4.62886">
        <ele>877.5</ele>
        <time>2017-03-14T23:09:10Z</time>
      </trkpt>
      <trkpt lat="45.40744" lon="4.62891">
        <ele>875.8</ele>
        <time>2017-03-14T23:09:11Z</time>
      </trkpt>
      <trkpt lat="45.40747" lon="4.62891">
        <ele>874.2</ele>
        <time>2017-03-14T23:09:12Z</time>
      </trkpt>
      <trkpt lat="45.40744" lon="4.62895">
        <ele>875.8</ele>
        <time>2017-03-14T23:09:13Z</time>
      </trkpt>
      <trkpt lat="45.40741" lon="4.62898">
        <ele>877.5</ele>
        <time>2017-03-14T23:09:14Z</time>
      </trkpt>
      <trkpt lat="45.40738" lon="4.62904">
        <ele>879.1</ele>
        <time>2017-03-14T23:09:15Z</time>
      </trkpt>
      <trkpt lat="45.40742" lon="4.62905">
        <ele>877.5</ele>
        <time>2017-03-14T23:09:16Z</time>
      </trkpt>
      <trkpt lat="45.40745" lon="4.62914">
        <ele>876.2</ele>
        <time>2017-03-14T23:09:18Z</time>
      </trkpt>
      <trkpt lat="45.40748" lon="4.62918">
        <ele>874.9</ele>
        <time>2017-03-14T23:09:19Z</time>
      </trkpt>
      <trkpt lat="45.40751" lon="4.62923">
        <ele>873.8</ele>
        <time>2017-03-14T23:09:20Z</time>
      </trkpt>
      <trkpt lat="45.40745" lon="4.62927">
        <ele>876.7</ele>
        <time>2017-03-14T23:09:22Z</time>
      </trkpt>
      <trkpt lat="45.40746" lon="4.62933">
        <ele>876</ele>
        <time>2017-03-14T23:09:23Z</time>
      </trkpt>
      <trkpt lat="45.40739" lon="4.62939">
        <ele>879.9</ele>
        <time>2017-03-14T23:09:24Z</time>
      </trkpt>
      <trkpt lat="45.40742" lon="4.62942">
        <ele>878.9</ele>
        <time>2017-03-14T23:09:25Z</time>
      </trkpt>
      <trkpt lat="45.40737" lon="4.62943">
        <ele>880</ele>
        <time>2017-03-14T23:09:27Z</time>
      </trkpt>
      <trkpt lat="45.40736" lon="4.62951">
        <ele>881.6</ele>
        <time>2017-03-14T23:09:29Z</time>
      </trkpt>
      <trkpt lat="45.40732" lon="4.62958">
        <ele>883.2</ele>
        <time>2017-03-14T23:09:30Z</time>
      </trkpt>
      <trkpt lat="45.40732" lon="4.62965">
        <ele>883.4</ele>
        <time>2017-03-14T23:09:31Z</time>
      </trkpt>
      <trkpt lat="45.40732" lon="4.62974">
        <ele>883.6</ele>
        <time>2017-03-14T23:09:33Z</time>
      </trkpt>
      <trkpt lat="45.40732" lon="4.6298">
        <ele>883.6</ele>
        <time>2017-03-14T23:09:34Z</time>
      </trkpt>
      <trkpt lat="45.4073" lon="4.6299">
        <ele>884.2</ele>
        <time>2017-03-14T23:09:35Z</time>
      </trkpt>
      <trkpt lat="45.40733" lon="4.62992">
        <ele>883.3</ele>
        <time>2017-03-14T23:09:36Z</time>
      </trkpt>
      <trkpt lat="45.40723" lon="4.62996">
        <ele>885.5</ele>
        <time>2017-03-14T23:09:37Z</time>
      </trkpt>
      <trkpt lat="45.40724" lon="4.63">
        <ele>885.3</ele>
        <time>2017-03-14T23:09:39Z</time>
      </trkpt>
      <trkpt lat="45.40729" lon="4.63003">
        <ele>883.7</ele>
        <time>2017-03-14T23:09:40Z</time>
      </trkpt>
      <trkpt lat="45.40732" lon="4.63006">
        <ele>882.8</ele>
        <time>2017-03-14T23:09:41Z</time>
      </trkpt>
      <trkpt lat="45.40729" lon="4.63011">
        <ele>883.5</ele>
        <time>2017-03-14T23:09:43Z</time>
      </trkpt>
      <trkpt lat="45.40731" lon="4.63014">
        <ele>883.4</ele>
        <time>2017-03-14T23:09:44Z</time>
      </trkpt>
      <trkpt lat="45.40734" lon="4.63018">
        <ele>881.7</ele>
        <time>2017-03-14T23:09:45Z</time>
      </trkpt>
      <trkpt lat="45.40731" lon="4.63021">
        <ele>883.3</ele>
        <time>2017-03-14T23:09:47Z</time>
      </trkpt>
      <trkpt lat="45.40728" lon="4.63026">
        <ele>883.1</ele>
        <time>2017-03-14T23:09:48Z</time>
      </trkpt>
      <trkpt lat="45.40721" lon="4.63031">
        <ele>884.6</ele>
        <time>2017-03-14T23:09:49Z</time>
      </trkpt>
      <trkpt lat="45.40723" lon="4.63034">
        <ele>883.9</ele>
        <time>2017-03-14T23:09:50Z</time>
      </trkpt>
      <trkpt lat="45.40725" lon="4.63038">
        <ele>883.6</ele>
        <time>2017-03-14T23:09:51Z</time>
      </trkpt>
      <trkpt lat="45.40725" lon="4.63043">
        <ele>883.2</ele>
        <time>2017-03-14T23:09:52Z</time>
      </trkpt>
      <trkpt lat="45.40726" lon="4.63049">
        <ele>881.9</ele>
        <time>2017-03-14T23:09:53Z</time>
      </trkpt>
      <trkpt lat="45.40726" lon="4.63055">
        <ele>881.6</ele>
        <time>2017-03-14T23:09:54Z</time>
      </trkpt>
      <trkpt lat="45.40722" lon="4.6306">
        <ele>881.9</ele>
        <time>2017-03-14T23:09:55Z</time>
      </trkpt>
      <trkpt lat="45.4072" lon="4.63066">
        <ele>881.8</ele>
        <time>2017-03-14T23:09:56Z</time>
      </trkpt>
      <trkpt lat="45.4072" lon="4.63071">
        <ele>881.5</ele>
        <time>2017-03-14T23:09:57Z</time>
      </trkpt>
      <trkpt lat="45.40717" lon="4.63076">
        <ele>881.6</ele>
        <time>2017-03-14T23:09:58Z</time>
      </trkpt>
      <trkpt lat="45.40716" lon="4.6308">
        <ele>881.2</ele>
        <time>2017-03-14T23:09:59Z</time>
      </trkpt>
      <trkpt lat="45.40716" lon="4.63084">
        <ele>880.8</ele>
        <time>2017-03-14T23:10:00Z</time>
      </trkpt>
      <trkpt lat="45.40713" lon="4.63087">
        <ele>881</ele>
        <time>2017-03-14T23:10:01Z</time>
      </trkpt>
      <trkpt lat="45.40713" lon="4.63093">
        <ele>881.2</ele>
        <time>2017-03-14T23:10:02Z</time>
      </trkpt>
      <trkpt lat="45.40711" lon="4.63099">
        <ele>880.9</ele>
        <time>2017-03-14T23:10:03Z</time>
      </trkpt>
      <trkpt lat="45.40713" lon="4.63103">
        <ele>879.9</ele>
        <time>2017-03-14T23:10:04Z</time>
      </trkpt>
      <trkpt lat="45.40718" lon="4.6311">
        <ele>878.4</ele>
        <time>2017-03-14T23:10:05Z</time>
      </trkpt>
      <trkpt lat="45.40718" lon="4.63115">
        <ele>877.9</ele>
        <time>2017-03-14T23:10:06Z</time>
      </trkpt>
      <trkpt lat="45.40721" lon="4.63118">
        <ele>876.7</ele>
        <time>2017-03-14T23:10:07Z</time>
      </trkpt>
      <trkpt lat="45.40723" lon="4.63127">
        <ele>875.2</ele>
        <time>2017-03-14T23:10:10Z</time>
      </trkpt>
      <trkpt lat="45.40723" lon="4.63131">
        <ele>875</ele>
        <time>2017-03-14T23:10:12Z</time>
      </trkpt>
      <trkpt lat="45.40722" lon="4.63135">
        <ele>874.9</ele>
        <time>2017-03-14T23:10:13Z</time>
      </trkpt>
      <trkpt lat="45.40723" lon="4.63141">
        <ele>874.9</ele>
        <time>2017-03-14T23:10:15Z</time>
      </trkpt>
      <trkpt lat="45.40724" lon="4.63147">
        <ele>875.2</ele>
        <time>2017-03-14T23:10:16Z</time>
      </trkpt>
      <trkpt lat="45.40726" lon="4.63151">
        <ele>874.6</ele>
        <time>2017-03-14T23:10:17Z</time>
      </trkpt>
      <trkpt lat="45.40727" lon="4.63157">
        <ele>875.2</ele>
        <time>2017-03-14T23:10:18Z</time>
      </trkpt>
      <trkpt lat="45.40727" lon="4.63163">
        <ele>875.5</ele>
        <time>2017-03-14T23:10:19Z</time>
      </trkpt>
      <trkpt lat="45.40724" lon="4.63167">
        <ele>876.7</ele>
        <time>2017-03-14T23:10:20Z</time>
      </trkpt>
      <trkpt lat="45.40724" lon="4.63173">
        <ele>877.3</ele>
        <time>2017-03-14T23:10:21Z</time>
      </trkpt>
      <trkpt lat="45.40727" lon="4.63175">
        <ele>876.6</ele>
        <time>2017-03-14T23:10:22Z</time>
      </trkpt>
      <trkpt lat="45.40728" lon="4.6318">
        <ele>876</ele>
        <time>2017-03-14T23:10:25Z</time>
      </trkpt>
      <trkpt lat="45.40728" lon="4.63186">
        <ele>876.6</ele>
        <time>2017-03-14T23:10:27Z</time>
      </trkpt>
      <trkpt lat="45.4073" lon="4.63194">
        <ele>877.2</ele>
        <time>2017-03-14T23:10:29Z</time>
      </trkpt>
      <trkpt lat="45.40732" lon="4.63207">
        <ele>876.8</ele>
        <time>2017-03-14T23:10:30Z</time>
      </trkpt>
      <trkpt lat="45.40733" lon="4.63215">
        <ele>876.9</ele>
        <time>2017-03-14T23:10:31Z</time>
      </trkpt>
      <trkpt lat="45.40734" lon="4.63218">
        <ele>875.6</ele>
        <time>2017-03-14T23:10:32Z</time>
      </trkpt>
      <trkpt lat="45.40737" lon="4.63222">
        <ele>875.5</ele>
        <time>2017-03-14T23:10:34Z</time>
      </trkpt>
      <trkpt lat="45.40738" lon="4.63228">
        <ele>874</ele>
        <time>2017-03-14T23:10:35Z</time>
      </trkpt>
      <trkpt lat="45.40738" lon="4.63238">
        <ele>873.6</ele>
        <time>2017-03-14T23:10:36Z</time>
      </trkpt>
      <trkpt lat="45.40738" lon="4.63245">
        <ele>873.5</ele>
        <time>2017-03-14T23:10:37Z</time>
      </trkpt>
      <trkpt lat="45.40734" lon="4.63251">
        <ele>874.8</ele>
        <time>2017-03-14T23:10:38Z</time>
      </trkpt>
      <trkpt lat="45.40739" lon="4.63259">
        <ele>873</ele>
        <time>2017-03-14T23:10:39Z</time>
      </trkpt>
      <trkpt lat="45.40736" lon="4.63265">
        <ele>874.3</ele>
        <time>2017-03-14T23:10:40Z</time>
      </trkpt>
      <trkpt lat="45.40733" lon="4.63274">
        <ele>875.2</ele>
        <time>2017-03-14T23:10:41Z</time>
      </trkpt>
      <trkpt lat="45.40735" lon="4.63281">
        <ele>873.4</ele>
        <time>2017-03-14T23:10:42Z</time>
      </trkpt>
      <trkpt lat="45.40738" lon="4.63292">
        <ele>871.7</ele>
        <time>2017-03-14T23:10:43Z</time>
      </trkpt>
      <trkpt lat="45.40736" lon="4.63297">
        <ele>872</ele>
        <time>2017-03-14T23:10:44Z</time>
      </trkpt>
      <trkpt lat="45.40745" lon="4.63299">
        <ele>868.9</ele>
        <time>2017-03-14T23:10:46Z</time>
      </trkpt>
      <trkpt lat="45.40742" lon="4.63303">
        <ele>869.5</ele>
        <time>2017-03-14T23:10:47Z</time>
      </trkpt>
      <trkpt lat="45.40745" lon="4.63304">
        <ele>868.5</ele>
        <time>2017-03-14T23:10:48Z</time>
      </trkpt>
      <trkpt lat="45.40746" lon="4.63309">
        <ele>868</ele>
        <time>2017-03-14T23:10:49Z</time>
      </trkpt>
      <trkpt lat="45.40743" lon="4.63319">
        <ele>866.3</ele>
        <time>2017-03-14T23:10:51Z</time>
      </trkpt>
      <trkpt lat="45.40743" lon="4.63327">
        <ele>866.8</ele>
        <time>2017-03-14T23:10:52Z</time>
      </trkpt>
      <trkpt lat="45.40742" lon="4.63332">
        <ele>866.1</ele>
        <time>2017-03-14T23:10:53Z</time>
      </trkpt>
      <trkpt lat="45.40745" lon="4.63335">
        <ele>865.1</ele>
        <time>2017-03-14T23:10:54Z</time>
      </trkpt>
      <trkpt lat="45.40747" lon="4.63342">
        <ele>864.2</ele>
        <time>2017-03-14T23:10:56Z</time>
      </trkpt>
      <trkpt lat="45.40748" lon="4.63347">
        <ele>864.4</ele>
        <time>2017-03-14T23:10:57Z</time>
      </trkpt>
      <trkpt lat="45.4075" lon="4.63351">
        <ele>864</ele>
        <time>2017-03-14T23:10:58Z</time>
      </trkpt>
      <trkpt lat="45.4075" lon="4.63356">
        <ele>864.2</ele>
        <time>2017-03-14T23:10:59Z</time>
      </trkpt>
      <trkpt lat="45.40749" lon="4.63364">
        <ele>864.4</ele>
        <time>2017-03-14T23:11:00Z</time>
      </trkpt>
      <trkpt lat="45.40749" lon="4.63373">
        <ele>864.9</ele>
        <time>2017-03-14T23:11:01Z</time>
      </trkpt>
      <trkpt lat="45.40748" lon="4.63383">
        <ele>864.4</ele>
        <time>2017-03-14T23:11:03Z</time>
      </trkpt>
      <trkpt lat="45.40749" lon="4.63387">
        <ele>864.4</ele>
        <time>2017-03-14T23:11:04Z</time>
      </trkpt>
      <trkpt lat="45.40748" lon="4.63391">
        <ele>864.3</ele>
        <time>2017-03-14T23:11:05Z</time>
      </trkpt>
      <trkpt lat="45.4075" lon="4.63399">
        <ele>863.2</ele>
        <time>2017-03-14T23:11:06Z</time>
      </trkpt>
      <trkpt lat="45.40752" lon="4.63404">
        <ele>862.2</ele>
        <time>2017-03-14T23:11:07Z</time>
      </trkpt>
      <trkpt lat="45.40755" lon="4.63409">
        <ele>862.6</ele>
        <time>2017-03-14T23:11:08Z</time>
      </trkpt>
      <trkpt lat="45.40756" lon="4.63416">
        <ele>861.7</ele>
        <time>2017-03-14T23:11:09Z</time>
      </trkpt>
      <trkpt lat="45.40755" lon="4.63424">
        <ele>862.2</ele>
        <time>2017-03-14T23:11:10Z</time>
      </trkpt>
      <trkpt lat="45.40756" lon="4.63429">
        <ele>862.5</ele>
        <time>2017-03-14T23:11:11Z</time>
      </trkpt>
      <trkpt lat="45.40758" lon="4.63437">
        <ele>863.2</ele>
        <time>2017-03-14T23:11:13Z</time>
      </trkpt>
      <trkpt lat="45.40758" lon="4.63441">
        <ele>862.3</ele>
        <time>2017-03-14T23:11:14Z</time>
      </trkpt>
      <trkpt lat="45.40759" lon="4.63448">
        <ele>863</ele>
        <time>2017-03-14T23:11:15Z</time>
      </trkpt>
      <trkpt lat="45.40761" lon="4.63454">
        <ele>862.2</ele>
        <time>2017-03-14T23:11:17Z</time>
      </trkpt>
      <trkpt lat="45.40764" lon="4.63459">
        <ele>862.5</ele>
        <time>2017-03-14T23:11:18Z</time>
      </trkpt>
      <trkpt lat="45.40763" lon="4.63466">
        <ele>863.4</ele>
        <time>2017-03-14T23:11:20Z</time>
      </trkpt>
      <trkpt lat="45.40764" lon="4.6347">
        <ele>862.9</ele>
        <time>2017-03-14T23:11:21Z</time>
      </trkpt>
      <trkpt lat="45.40765" lon="4.63474">
        <ele>863.3</ele>
        <time>2017-03-14T23:11:22Z</time>
      </trkpt>
      <trkpt lat="45.40766" lon="4.63479">
        <ele>863.8</ele>
        <time>2017-03-14T23:11:23Z</time>
      </trkpt>
      <trkpt lat="45.40767" lon="4.63484">
        <ele>863.7</ele>
        <time>2017-03-14T23:11:25Z</time>
      </trkpt>
      <trkpt lat="45.40769" lon="4.63492">
        <ele>864.5</ele>
        <time>2017-03-14T23:11:26Z</time>
      </trkpt>
      <trkpt lat="45.40772" lon="4.63497">
        <ele>864.2</ele>
        <time>2017-03-14T23:11:27Z</time>
      </trkpt>
      <trkpt lat="45.40772" lon="4.63502">
        <ele>864.2</ele>
        <time>2017-03-14T23:11:28Z</time>
      </trkpt>
      <trkpt lat="45.40774" lon="4.63506">
        <ele>863.7</ele>
        <time>2017-03-14T23:11:29Z</time>
      </trkpt>
      <trkpt lat="45.40775" lon="4.6351">
        <ele>863.5</ele>
        <time>2017-03-14T23:11:30Z</time>
      </trkpt>
      <trkpt lat="45.40777" lon="4.63513">
        <ele>862.9</ele>
        <time>2017-03-14T23:11:31Z</time>
      </trkpt>
      <trkpt lat="45.40778" lon="4.63519">
        <ele>862.6</ele>
        <time>2017-03-14T23:11:32Z</time>
      </trkpt>
      <trkpt lat="45.4078" lon="4.63528">
        <ele>861.8</ele>
        <time>2017-03-14T23:11:33Z</time>
      </trkpt>
      <trkpt lat="45.40781" lon="4.63536">
        <ele>861.6</ele>
        <time>2017-03-14T23:11:35Z</time>
      </trkpt>
      <trkpt lat="45.40782" lon="4.6354">
        <ele>861.6</ele>
        <time>2017-03-14T23:11:36Z</time>
      </trkpt>
      <trkpt lat="45.40782" lon="4.63544">
        <ele>861.4</ele>
        <time>2017-03-14T23:11:37Z</time>
      </trkpt>
      <trkpt lat="45.40784" lon="4.63552">
        <ele>861.4</ele>
        <time>2017-03-14T23:11:39Z</time>
      </trkpt>
      <trkpt lat="45.40785" lon="4.63556">
        <ele>861.4</ele>
        <time>2017-03-14T23:11:40Z</time>
      </trkpt>
      <trkpt lat="45.40787" lon="4.63563">
        <ele>861</ele>
        <time>2017-03-14T23:11:42Z</time>
      </trkpt>
      <trkpt lat="45.40788" lon="4.63567">
        <ele>860.8</ele>
        <time>2017-03-14T23:11:43Z</time>
      </trkpt>
      <trkpt lat="45.40793" lon="4.63564">
        <ele>859.9</ele>
        <time>2017-03-14T23:11:44Z</time>
      </trkpt>
      <trkpt lat="45.40799" lon="4.63575">
        <ele>858.4</ele>
        <time>2017-03-14T23:11:45Z</time>
      </trkpt>
      <trkpt lat="45.40799" lon="4.63586">
        <ele>858</ele>
        <time>2017-03-14T23:11:47Z</time>
      </trkpt>
      <trkpt lat="45.40798" lon="4.63593">
        <ele>858</ele>
        <time>2017-03-14T23:11:49Z</time>
      </trkpt>
      <trkpt lat="45.40803" lon="4.63595">
        <ele>857.4</ele>
        <time>2017-03-14T23:11:51Z</time>
      </trkpt>
      <trkpt lat="45.40802" lon="4.636">
        <ele>857.5</ele>
        <time>2017-03-14T23:11:53Z</time>
      </trkpt>
      <trkpt lat="45.40805" lon="4.63605">
        <ele>857</ele>
        <time>2017-03-14T23:11:54Z</time>
      </trkpt>
      <trkpt lat="45.40809" lon="4.63609">
        <ele>856.4</ele>
        <time>2017-03-14T23:11:55Z</time>
      </trkpt>
      <trkpt lat="45.40811" lon="4.63614">
        <ele>855.8</ele>
        <time>2017-03-14T23:11:56Z</time>
      </trkpt>
      <trkpt lat="45.40811" lon="4.63622">
        <ele>855.7</ele>
        <time>2017-03-14T23:11:57Z</time>
      </trkpt>
      <trkpt lat="45.4081" lon="4.63626">
        <ele>855.6</ele>
        <time>2017-03-14T23:11:58Z</time>
      </trkpt>
      <trkpt lat="45.40811" lon="4.63632">
        <ele>855.3</ele>
        <time>2017-03-14T23:11:59Z</time>
      </trkpt>
      <trkpt lat="45.40806" lon="4.6363">
        <ele>856.4</ele>
        <time>2017-03-14T23:12:02Z</time>
      </trkpt>
      <trkpt lat="45.40802" lon="4.63629">
        <ele>856.8</ele>
        <time>2017-03-14T23:12:03Z</time>
      </trkpt>
      <trkpt lat="45.40801" lon="4.63625">
        <ele>857</ele>
        <time>2017-03-14T23:12:05Z</time>
      </trkpt>
      <trkpt lat="45.40797" lon="4.63619">
        <ele>857.9</ele>
        <time>2017-03-14T23:12:07Z</time>
      </trkpt>
      <trkpt lat="45.40794" lon="4.63616">
        <ele>859.1</ele>
        <time>2017-03-14T23:12:08Z</time>
      </trkpt>
      <trkpt lat="45.40789" lon="4.63613">
        <ele>859.8</ele>
        <time>2017-03-14T23:12:10Z</time>
      </trkpt>
      <trkpt lat="45.40785" lon="4.63609">
        <ele>860.9</ele>
        <time>2017-03-14T23:12:12Z</time>
      </trkpt>
      <trkpt lat="45.40781" lon="4.63605">
        <ele>861.3</ele>
        <time>2017-03-14T23:12:14Z</time>
      </trkpt>
      <trkpt lat="45.4078" lon="4.63602">
        <ele>861.3</ele>
        <time>2017-03-14T23:12:15Z</time>
      </trkpt>
      <trkpt lat="45.40776" lon="4.63599">
        <ele>861.7</ele>
        <time>2017-03-14T23:12:16Z</time>
      </trkpt>
      <trkpt lat="45.40774" lon="4.63596">
        <ele>862.1</ele>
        <time>2017-03-14T23:12:17Z</time>
      </trkpt>
      <trkpt lat="45.40772" lon="4.6359">
        <ele>862.5</ele>
        <time>2017-03-14T23:12:19Z</time>
      </trkpt>
      <trkpt lat="45.40772" lon="4.63584">
        <ele>862.4</ele>
        <time>2017-03-14T23:12:21Z</time>
      </trkpt>
      <trkpt lat="45.40768" lon="4.63579">
        <ele>862.9</ele>
        <time>2017-03-14T23:12:23Z</time>
      </trkpt>
      <trkpt lat="45.40765" lon="4.63572">
        <ele>863.4</ele>
        <time>2017-03-14T23:12:25Z</time>
      </trkpt>
      <trkpt lat="45.40768" lon="4.63564">
        <ele>862.8</ele>
        <time>2017-03-14T23:12:27Z</time>
      </trkpt>
      <trkpt lat="45.40761" lon="4.63561">
        <ele>863.7</ele>
        <time>2017-03-14T23:12:29Z</time>
      </trkpt>
      <trkpt lat="45.40758" lon="4.63557">
        <ele>864.2</ele>
        <time>2017-03-14T23:12:30Z</time>
      </trkpt>
      <trkpt lat="45.40754" lon="4.63555">
        <ele>865</ele>
        <time>2017-03-14T23:12:32Z</time>
      </trkpt>
      <trkpt lat="45.40755" lon="4.6355">
        <ele>864.4</ele>
        <time>2017-03-14T23:12:33Z</time>
      </trkpt>
      <trkpt lat="45.40755" lon="4.63546">
        <ele>864.9</ele>
        <time>2017-03-14T23:12:34Z</time>
      </trkpt>
      <trkpt lat="45.40754" lon="4.63541">
        <ele>864.8</ele>
        <time>2017-03-14T23:12:36Z</time>
      </trkpt>
      <trkpt lat="45.40753" lon="4.63532">
        <ele>864.9</ele>
        <time>2017-03-14T23:12:39Z</time>
      </trkpt>
      <trkpt lat="45.40749" lon="4.63527">
        <ele>865.4</ele>
        <time>2017-03-14T23:12:41Z</time>
      </trkpt>
      <trkpt lat="45.40747" lon="4.63523">
        <ele>865.9</ele>
        <time>2017-03-14T23:12:42Z</time>
      </trkpt>
      <trkpt lat="45.40747" lon="4.63517">
        <ele>866</ele>
        <time>2017-03-14T23:12:44Z</time>
      </trkpt>
      <trkpt lat="45.40744" lon="4.63514">
        <ele>866.6</ele>
        <time>2017-03-14T23:12:46Z</time>
      </trkpt>
      <trkpt lat="45.40741" lon="4.63511">
        <ele>867.2</ele>
        <time>2017-03-14T23:12:47Z</time>
      </trkpt>
      <trkpt lat="45.4074" lon="4.63508">
        <ele>867.7</ele>
        <time>2017-03-14T23:12:49Z</time>
      </trkpt>
      <trkpt lat="45.40738" lon="4.63502">
        <ele>868</ele>
        <time>2017-03-14T23:12:51Z</time>
      </trkpt>
      <trkpt lat="45.40736" lon="4.63496">
        <ele>868.7</ele>
        <time>2017-03-14T23:12:53Z</time>
      </trkpt>
      <trkpt lat="45.40734" lon="4.63492">
        <ele>869.5</ele>
        <time>2017-03-14T23:12:55Z</time>
      </trkpt>
      <trkpt lat="45.40732" lon="4.63488">
        <ele>869.7</ele>
        <time>2017-03-14T23:12:56Z</time>
      </trkpt>
      <trkpt lat="45.40731" lon="4.63482">
        <ele>870</ele>
        <time>2017-03-14T23:12:58Z</time>
      </trkpt>
      <trkpt lat="45.40731" lon="4.63477">
        <ele>871</ele>
        <time>2017-03-14T23:13:00Z</time>
      </trkpt>
      <trkpt lat="45.4073" lon="4.63471">
        <ele>871.3</ele>
        <time>2017-03-14T23:13:02Z</time>
      </trkpt>
      <trkpt lat="45.40729" lon="4.63466">
        <ele>871.5</ele>
        <time>2017-03-14T23:13:04Z</time>
      </trkpt>
      <trkpt lat="45.40725" lon="4.63462">
        <ele>872.3</ele>
        <time>2017-03-14T23:13:06Z</time>
      </trkpt>
      <trkpt lat="45.40724" lon="4.63455">
        <ele>873.4</ele>
        <time>2017-03-14T23:13:08Z</time>
      </trkpt>
      <trkpt lat="45.40722" lon="4.63451">
        <ele>873.6</ele>
        <time>2017-03-14T23:13:09Z</time>
      </trkpt>
      <trkpt lat="45.40721" lon="4.63445">
        <ele>874.5</ele>
        <time>2017-03-14T23:13:11Z</time>
      </trkpt>
      <trkpt lat="45.40719" lon="4.63441">
        <ele>874.8</ele>
        <time>2017-03-14T23:13:12Z</time>
      </trkpt>
      <trkpt lat="45.40722" lon="4.63434">
        <ele>875.1</ele>
        <time>2017-03-14T23:13:14Z</time>
      </trkpt>
      <trkpt lat="45.4072" lon="4.6343">
        <ele>875.3</ele>
        <time>2017-03-14T23:13:16Z</time>
      </trkpt>
      <trkpt lat="45.40719" lon="4.63424">
        <ele>876.4</ele>
        <time>2017-03-14T23:13:18Z</time>
      </trkpt>
      <trkpt lat="45.4072" lon="4.63416">
        <ele>875.6</ele>
        <time>2017-03-14T23:13:20Z</time>
      </trkpt>
      <trkpt lat="45.40719" lon="4.6341">
        <ele>875.4</ele>
        <time>2017-03-14T23:13:22Z</time>
      </trkpt>
      <trkpt lat="45.4072" lon="4.63405">
        <ele>875.2</ele>
        <time>2017-03-14T23:13:24Z</time>
      </trkpt>
      <trkpt lat="45.40719" lon="4.634">
        <ele>874.8</ele>
        <time>2017-03-14T23:13:26Z</time>
      </trkpt>
      <trkpt lat="45.40717" lon="4.63395">
        <ele>875</ele>
        <time>2017-03-14T23:13:28Z</time>
      </trkpt>
      <trkpt lat="45.40717" lon="4.63391">
        <ele>874.5</ele>
        <time>2017-03-14T23:13:31Z</time>
      </trkpt>
      <trkpt lat="45.40713" lon="4.63387">
        <ele>875.1</ele>
        <time>2017-03-14T23:13:33Z</time>
      </trkpt>
      <trkpt lat="45.40711" lon="4.63384">
        <ele>876</ele>
        <time>2017-03-14T23:13:34Z</time>
      </trkpt>
      <trkpt lat="45.4071" lon="4.63375">
        <ele>875.5</ele>
        <time>2017-03-14T23:13:35Z</time>
      </trkpt>
      <trkpt lat="45.40707" lon="4.63367">
        <ele>876.4</ele>
        <time>2017-03-14T23:13:36Z</time>
      </trkpt>
      <trkpt lat="45.4069" lon="4.63353">
        <ele>883.4</ele>
        <time>2017-03-14T23:13:39Z</time>
      </trkpt>
      <trkpt lat="45.40683" lon="4.63349">
        <ele>885.6</ele>
        <time>2017-03-14T23:13:40Z</time>
      </trkpt>
      <trkpt lat="45.4069" lon="4.63346">
        <ele>883.4</ele>
        <time>2017-03-14T23:13:43Z</time>
      </trkpt>
      <trkpt lat="45.4069" lon="4.63342">
        <ele>883.3</ele>
        <time>2017-03-14T23:13:44Z</time>
      </trkpt>
      <trkpt lat="45.40696" lon="4.6334">
        <ele>881.2</ele>
        <time>2017-03-14T23:13:45Z</time>
      </trkpt>
      <trkpt lat="45.40699" lon="4.63336">
        <ele>880.1</ele>
        <time>2017-03-14T23:13:46Z</time>
      </trkpt>
      <trkpt lat="45.40704" lon="4.63332">
        <ele>877.9</ele>
        <time>2017-03-14T23:13:48Z</time>
      </trkpt>
      <trkpt lat="45.40707" lon="4.63327">
        <ele>878.3</ele>
        <time>2017-03-14T23:13:50Z</time>
      </trkpt>
      <trkpt lat="45.40708" lon="4.63323">
        <ele>877.2</ele>
        <time>2017-03-14T23:13:51Z</time>
      </trkpt>
      <trkpt lat="45.40703" lon="4.63318">
        <ele>879.9</ele>
        <time>2017-03-14T23:13:52Z</time>
      </trkpt>
      <trkpt lat="45.40704" lon="4.63312">
        <ele>880.3</ele>
        <time>2017-03-14T23:13:54Z</time>
      </trkpt>
      <trkpt lat="45.40711" lon="4.63308">
        <ele>877.2</ele>
        <time>2017-03-14T23:13:56Z</time>
      </trkpt>
      <trkpt lat="45.40712" lon="4.63304">
        <ele>877.6</ele>
        <time>2017-03-14T23:13:57Z</time>
      </trkpt>
      <trkpt lat="45.40709" lon="4.63302">
        <ele>878.8</ele>
        <time>2017-03-14T23:13:58Z</time>
      </trkpt>
      <trkpt lat="45.40712" lon="4.633">
        <ele>878</ele>
        <time>2017-03-14T23:13:59Z</time>
      </trkpt>
      <trkpt lat="45.40706" lon="4.63296">
        <ele>880.9</ele>
        <time>2017-03-14T23:14:00Z</time>
      </trkpt>
      <trkpt lat="45.40705" lon="4.63291">
        <ele>881.3</ele>
        <time>2017-03-14T23:14:01Z</time>
      </trkpt>
      <trkpt lat="45.40709" lon="4.63288">
        <ele>880.7</ele>
        <time>2017-03-14T23:14:02Z</time>
      </trkpt>
      <trkpt lat="45.40707" lon="4.63284">
        <ele>880.7</ele>
        <time>2017-03-14T23:14:03Z</time>
      </trkpt>
      <trkpt lat="45.4071" lon="4.63282">
        <ele>880</ele>
        <time>2017-03-14T23:14:04Z</time>
      </trkpt>
      <trkpt lat="45.4071" lon="4.63275">
        <ele>882.1</ele>
        <time>2017-03-14T23:14:06Z</time>
      </trkpt>
      <trkpt lat="45.40705" lon="4.63271">
        <ele>883.6</ele>
        <time>2017-03-14T23:14:07Z</time>
      </trkpt>
      <trkpt lat="45.40702" lon="4.63267">
        <ele>884.7</ele>
        <time>2017-03-14T23:14:08Z</time>
      </trkpt>
      <trkpt lat="45.40707" lon="4.63265">
        <ele>882.8</ele>
        <time>2017-03-14T23:14:09Z</time>
      </trkpt>
      <trkpt lat="45.40707" lon="4.63261">
        <ele>883.1</ele>
        <time>2017-03-14T23:14:10Z</time>
      </trkpt>
      <trkpt lat="45.40709" lon="4.63256">
        <ele>883.3</ele>
        <time>2017-03-14T23:14:12Z</time>
      </trkpt>
      <trkpt lat="45.40709" lon="4.6325">
        <ele>883.4</ele>
        <time>2017-03-14T23:14:14Z</time>
      </trkpt>
      <trkpt lat="45.40706" lon="4.63248">
        <ele>884.5</ele>
        <time>2017-03-14T23:14:15Z</time>
      </trkpt>
      <trkpt lat="45.40703" lon="4.63244">
        <ele>885.3</ele>
        <time>2017-03-14T23:14:17Z</time>
      </trkpt>
      <trkpt lat="45.40703" lon="4.6324">
        <ele>885.2</ele>
        <time>2017-03-14T23:14:18Z</time>
      </trkpt>
      <trkpt lat="45.40697" lon="4.63236">
        <ele>886.3</ele>
        <time>2017-03-14T23:14:19Z</time>
      </trkpt>
      <trkpt lat="45.40693" lon="4.6323">
        <ele>886.5</ele>
        <time>2017-03-14T23:14:21Z</time>
      </trkpt>
      <trkpt lat="45.40689" lon="4.63226">
        <ele>886.7</ele>
        <time>2017-03-14T23:14:22Z</time>
      </trkpt>
      <trkpt lat="45.40686" lon="4.63221">
        <ele>886.9</ele>
        <time>2017-03-14T23:14:24Z</time>
      </trkpt>
      <trkpt lat="45.40683" lon="4.63218">
        <ele>887.1</ele>
        <time>2017-03-14T23:14:25Z</time>
      </trkpt>
      <trkpt lat="45.40679" lon="4.63212">
        <ele>888.4</ele>
        <time>2017-03-14T23:14:28Z</time>
      </trkpt>
      <trkpt lat="45.40673" lon="4.63205">
        <ele>889.4</ele>
        <time>2017-03-14T23:14:30Z</time>
      </trkpt>
      <trkpt lat="45.40672" lon="4.632">
        <ele>889.1</ele>
        <time>2017-03-14T23:14:31Z</time>
      </trkpt>
      <trkpt lat="45.40675" lon="4.63196">
        <ele>887.9</ele>
        <time>2017-03-14T23:14:33Z</time>
      </trkpt>
      <trkpt lat="45.40678" lon="4.63193">
        <ele>886.7</ele>
        <time>2017-03-14T23:14:34Z</time>
      </trkpt>
      <trkpt lat="45.40671" lon="4.63187">
        <ele>889.3</ele>
        <time>2017-03-14T23:14:36Z</time>
      </trkpt>
      <trkpt lat="45.40676" lon="4.63185">
        <ele>887.4</ele>
        <time>2017-03-14T23:14:37Z</time>
      </trkpt>
      <trkpt lat="45.40672" lon="4.63183">
        <ele>888.3</ele>
        <time>2017-03-14T23:14:38Z</time>
      </trkpt>
      <trkpt lat="45.40676" lon="4.63181">
        <ele>887.3</ele>
        <time>2017-03-14T23:14:39Z</time>
      </trkpt>
      <trkpt lat="45.40677" lon="4.63174">
        <ele>886.2</ele>
        <time>2017-03-14T23:14:41Z</time>
      </trkpt>
      <trkpt lat="45.40673" lon="4.63171">
        <ele>887.9</ele>
        <time>2017-03-14T23:14:42Z</time>
      </trkpt>
      <trkpt lat="45.40676" lon="4.63166">
        <ele>887</ele>
        <time>2017-03-14T23:14:44Z</time>
      </trkpt>
      <trkpt lat="45.40676" lon="4.63159">
        <ele>886.7</ele>
        <time>2017-03-14T23:14:46Z</time>
      </trkpt>
      <trkpt lat="45.40681" lon="4.63157">
        <ele>884.5</ele>
        <time>2017-03-14T23:14:47Z</time>
      </trkpt>
      <trkpt lat="45.40682" lon="4.63153">
        <ele>884.3</ele>
        <time>2017-03-14T23:14:48Z</time>
      </trkpt>
      <trkpt lat="45.40679" lon="4.63149">
        <ele>885.2</ele>
        <time>2017-03-14T23:14:49Z</time>
      </trkpt>
      <trkpt lat="45.40682" lon="4.63145">
        <ele>883.8</ele>
        <time>2017-03-14T23:14:50Z</time>
      </trkpt>
      <trkpt lat="45.40688" lon="4.63143">
        <ele>881.5</ele>
        <time>2017-03-14T23:14:51Z</time>
      </trkpt>
      <trkpt lat="45.40693" lon="4.63141">
        <ele>879.4</ele>
        <time>2017-03-14T23:14:52Z</time>
      </trkpt>
      <trkpt lat="45.40686" lon="4.63137">
        <ele>882.6</ele>
        <time>2017-03-14T23:14:53Z</time>
      </trkpt>
      <trkpt lat="45.40683" lon="4.63135">
        <ele>883.8</ele>
        <time>2017-03-14T23:14:54Z</time>
      </trkpt>
      <trkpt lat="45.40685" lon="4.63132">
        <ele>882.7</ele>
        <time>2017-03-14T23:14:55Z</time>
      </trkpt>
      <trkpt lat="45.40682" lon="4.63129">
        <ele>884.1</ele>
        <time>2017-03-14T23:14:56Z</time>
      </trkpt>
      <trkpt lat="45.40679" lon="4.63125">
        <ele>885.6</ele>
        <time>2017-03-14T23:14:57Z</time>
      </trkpt>
      <trkpt lat="45.40674" lon="4.6312">
        <ele>886.9</ele>
        <time>2017-03-14T23:14:59Z</time>
      </trkpt>
      <trkpt lat="45.40671" lon="4.63119">
        <ele>888</ele>
        <time>2017-03-14T23:15:00Z</time>
      </trkpt>
      <trkpt lat="45.40681" lon="4.63116">
        <ele>884.9</ele>
        <time>2017-03-14T23:15:01Z</time>
      </trkpt>
      <trkpt lat="45.40677" lon="4.63112">
        <ele>886.2</ele>
        <time>2017-03-14T23:15:02Z</time>
      </trkpt>
      <trkpt lat="45.40682" lon="4.63109">
        <ele>885.1</ele>
        <time>2017-03-14T23:15:03Z</time>
      </trkpt>
      <trkpt lat="45.40668" lon="4.63103">
        <ele>889.6</ele>
        <time>2017-03-14T23:15:04Z</time>
      </trkpt>
      <trkpt lat="45.40671" lon="4.63101">
        <ele>888.6</ele>
        <time>2017-03-14T23:15:05Z</time>
      </trkpt>
      <trkpt lat="45.40675" lon="4.63099">
        <ele>887.7</ele>
        <time>2017-03-14T23:15:06Z</time>
      </trkpt>
      <trkpt lat="45.40676" lon="4.63094">
        <ele>887.8</ele>
        <time>2017-03-14T23:15:08Z</time>
      </trkpt>
      <trkpt lat="45.40672" lon="4.6309">
        <ele>889</ele>
        <time>2017-03-14T23:15:09Z</time>
      </trkpt>
      <trkpt lat="45.40651" lon="4.63082">
        <ele>895.6</ele>
        <time>2017-03-14T23:15:11Z</time>
      </trkpt>
      <trkpt lat="45.40653" lon="4.63078">
        <ele>894.7</ele>
        <time>2017-03-14T23:15:13Z</time>
      </trkpt>
      <trkpt lat="45.40649" lon="4.63075">
        <ele>896.5</ele>
        <time>2017-03-14T23:15:14Z</time>
      </trkpt>
      <trkpt lat="45.40646" lon="4.63069">
        <ele>897.9</ele>
        <time>2017-03-14T23:15:16Z</time>
      </trkpt>
      <trkpt lat="45.40644" lon="4.63067">
        <ele>897.8</ele>
        <time>2017-03-14T23:15:17Z</time>
      </trkpt>
      <trkpt lat="45.40651" lon="4.63064">
        <ele>896.1</ele>
        <time>2017-03-14T23:15:19Z</time>
      </trkpt>
      <trkpt lat="45.40648" lon="4.63061">
        <ele>897.1</ele>
        <time>2017-03-14T23:15:20Z</time>
      </trkpt>
      <trkpt lat="45.40647" lon="4.63058">
        <ele>897.4</ele>
        <time>2017-03-14T23:15:21Z</time>
      </trkpt>
      <trkpt lat="45.40645" lon="4.63055">
        <ele>898.9</ele>
        <time>2017-03-14T23:15:22Z</time>
      </trkpt>
      <trkpt lat="45.40642" lon="4.63052">
        <ele>899.9</ele>
        <time>2017-03-14T23:15:24Z</time>
      </trkpt>
      <trkpt lat="45.40642" lon="4.63046">
        <ele>900.9</ele>
        <time>2017-03-14T23:15:26Z</time>
      </trkpt>
      <trkpt lat="45.40643" lon="4.63041">
        <ele>901.5</ele>
        <time>2017-03-14T23:15:27Z</time>
      </trkpt>
      <trkpt lat="45.40641" lon="4.63035">
        <ele>902.5</ele>
        <time>2017-03-14T23:15:29Z</time>
      </trkpt>
      <trkpt lat="45.40639" lon="4.63032">
        <ele>903.3</ele>
        <time>2017-03-14T23:15:30Z</time>
      </trkpt>
      <trkpt lat="45.40642" lon="4.63029">
        <ele>902.8</ele>
        <time>2017-03-14T23:15:31Z</time>
      </trkpt>
      <trkpt lat="45.40641" lon="4.63023">
        <ele>902.9</ele>
        <time>2017-03-14T23:15:33Z</time>
      </trkpt>
      <trkpt lat="45.40638" lon="4.63022">
        <ele>903.8</ele>
        <time>2017-03-14T23:15:34Z</time>
      </trkpt>
      <trkpt lat="45.4064" lon="4.63017">
        <ele>903.8</ele>
        <time>2017-03-14T23:15:39Z</time>
      </trkpt>
      <trkpt lat="45.40642" lon="4.63013">
        <ele>903</ele>
        <time>2017-03-14T23:15:41Z</time>
      </trkpt>
      <trkpt lat="45.4064" lon="4.63007">
        <ele>903.6</ele>
        <time>2017-03-14T23:15:42Z</time>
      </trkpt>
      <trkpt lat="45.40632" lon="4.6301">
        <ele>905.1</ele>
        <time>2017-03-14T23:15:45Z</time>
      </trkpt>
      <trkpt lat="45.40629" lon="4.63014">
        <ele>906</ele>
        <time>2017-03-14T23:15:50Z</time>
      </trkpt>
      <trkpt lat="45.40626" lon="4.63017">
        <ele>906.9</ele>
        <time>2017-03-14T23:15:53Z</time>
      </trkpt>
      <trkpt lat="45.40622" lon="4.63021">
        <ele>908.8</ele>
        <time>2017-03-14T23:16:06Z</time>
      </trkpt>
      <trkpt lat="45.40619" lon="4.63024">
        <ele>909.7</ele>
        <time>2017-03-14T23:16:07Z</time>
      </trkpt>
      <trkpt lat="45.40616" lon="4.63033">
        <ele>910.5</ele>
        <time>2017-03-14T23:16:08Z</time>
      </trkpt>
      <trkpt lat="45.40613" lon="4.63041">
        <ele>911.1</ele>
        <time>2017-03-14T23:16:09Z</time>
      </trkpt>
      <trkpt lat="45.40607" lon="4.63043">
        <ele>911.9</ele>
        <time>2017-03-14T23:16:11Z</time>
      </trkpt>
      <trkpt lat="45.40602" lon="4.63049">
        <ele>913.4</ele>
        <time>2017-03-14T23:16:13Z</time>
      </trkpt>
      <trkpt lat="45.40602" lon="4.63053">
        <ele>913.2</ele>
        <time>2017-03-14T23:16:15Z</time>
      </trkpt>
      <trkpt lat="45.40601" lon="4.63058">
        <ele>914.1</ele>
        <time>2017-03-14T23:16:17Z</time>
      </trkpt>
      <trkpt lat="45.40599" lon="4.63065">
        <ele>913.8</ele>
        <time>2017-03-14T23:16:20Z</time>
      </trkpt>
      <trkpt lat="45.40595" lon="4.63069">
        <ele>914.5</ele>
        <time>2017-03-14T23:16:22Z</time>
      </trkpt>
      <trkpt lat="45.40565" lon="4.63087">
        <ele>923</ele>
        <time>2017-03-14T23:16:32Z</time>
      </trkpt>
      <trkpt lat="45.40583" lon="4.63087">
        <ele>917.7</ele>
        <time>2017-03-14T23:16:34Z</time>
      </trkpt>
      <trkpt lat="45.40571" lon="4.63081">
        <ele>921.8</ele>
        <time>2017-03-14T23:16:35Z</time>
      </trkpt>
      <trkpt lat="45.40563" lon="4.6308">
        <ele>923.3</ele>
        <time>2017-03-14T23:16:37Z</time>
      </trkpt>
      <trkpt lat="45.40567" lon="4.63079">
        <ele>922.6</ele>
        <time>2017-03-14T23:16:38Z</time>
      </trkpt>
      <trkpt lat="45.40564" lon="4.63076">
        <ele>923.5</ele>
        <time>2017-03-14T23:16:40Z</time>
      </trkpt>
      <trkpt lat="45.40568" lon="4.63073">
        <ele>922.4</ele>
        <time>2017-03-14T23:16:43Z</time>
      </trkpt>
      <trkpt lat="45.40565" lon="4.63074">
        <ele>923.5</ele>
        <time>2017-03-14T23:16:44Z</time>
      </trkpt>
      <trkpt lat="45.40562" lon="4.63074">
        <ele>924.2</ele>
        <time>2017-03-14T23:16:46Z</time>
      </trkpt>
      <trkpt lat="45.40557" lon="4.63072">
        <ele>924.6</ele>
        <time>2017-03-14T23:16:47Z</time>
      </trkpt>
      <trkpt lat="45.40554" lon="4.6307">
        <ele>924.8</ele>
        <time>2017-03-14T23:16:48Z</time>
      </trkpt>
      <trkpt lat="45.40552" lon="4.63069">
        <ele>925.3</ele>
        <time>2017-03-14T23:16:49Z</time>
      </trkpt>
      <trkpt lat="45.40556" lon="4.63069">
        <ele>925</ele>
        <time>2017-03-14T23:16:50Z</time>
      </trkpt>
      <trkpt lat="45.40559" lon="4.63068">
        <ele>924.7</ele>
        <time>2017-03-14T23:16:52Z</time>
      </trkpt>
      <trkpt lat="45.40566" lon="4.63067">
        <ele>923.2</ele>
        <time>2017-03-14T23:16:54Z</time>
      </trkpt>
      <trkpt lat="45.40561" lon="4.63064">
        <ele>924.4</ele>
        <time>2017-03-14T23:16:58Z</time>
      </trkpt>
      <trkpt lat="45.40558" lon="4.63063">
        <ele>924.8</ele>
        <time>2017-03-14T23:17:01Z</time>
      </trkpt>
      <trkpt lat="45.40555" lon="4.63062">
        <ele>925.1</ele>
        <time>2017-03-14T23:17:05Z</time>
      </trkpt>
      <trkpt lat="45.40552" lon="4.63061">
        <ele>925.4</ele>
        <time>2017-03-14T23:17:06Z</time>
      </trkpt>
      <trkpt lat="45.40551" lon="4.63066">
        <ele>924.9</ele>
        <time>2017-03-14T23:17:09Z</time>
      </trkpt>
      <trkpt lat="45.4055" lon="4.63069">
        <ele>924.6</ele>
        <time>2017-03-14T23:17:11Z</time>
      </trkpt>
      <trkpt lat="45.40552" lon="4.63071">
        <ele>924.2</ele>
        <time>2017-03-14T23:17:12Z</time>
      </trkpt>
      <trkpt lat="45.4055" lon="4.6308">
        <ele>923.9</ele>
        <time>2017-03-14T23:17:13Z</time>
      </trkpt>
      <trkpt lat="45.40552" lon="4.63086">
        <ele>923.3</ele>
        <time>2017-03-14T23:17:14Z</time>
      </trkpt>
      <trkpt lat="45.40555" lon="4.6309">
        <ele>922.7</ele>
        <time>2017-03-14T23:17:16Z</time>
      </trkpt>
      <trkpt lat="45.40553" lon="4.63095">
        <ele>922.1</ele>
        <time>2017-03-14T23:17:17Z</time>
      </trkpt>
      <trkpt lat="45.40555" lon="4.63101">
        <ele>921.5</ele>
        <time>2017-03-14T23:17:18Z</time>
      </trkpt>
      <trkpt lat="45.4055" lon="4.63105">
        <ele>920.5</ele>
        <time>2017-03-14T23:17:19Z</time>
      </trkpt>
      <trkpt lat="45.40541" lon="4.63112">
        <ele>917.5</ele>
        <time>2017-03-14T23:17:20Z</time>
      </trkpt>
      <trkpt lat="45.40536" lon="4.63117">
        <ele>916.1</ele>
        <time>2017-03-14T23:17:21Z</time>
      </trkpt>
      <trkpt lat="45.40527" lon="4.63123">
        <ele>914.4</ele>
        <time>2017-03-14T23:17:22Z</time>
      </trkpt>
      <trkpt lat="45.40531" lon="4.63126">
        <ele>913.9</ele>
        <time>2017-03-14T23:17:23Z</time>
      </trkpt>
      <trkpt lat="45.40528" lon="4.63133">
        <ele>913.2</ele>
        <time>2017-03-14T23:17:24Z</time>
      </trkpt>
      <trkpt lat="45.40531" lon="4.6314">
        <ele>912.7</ele>
        <time>2017-03-14T23:17:25Z</time>
      </trkpt>
      <trkpt lat="45.40535" lon="4.63147">
        <ele>912</ele>
        <time>2017-03-14T23:17:26Z</time>
      </trkpt>
      <trkpt lat="45.40541" lon="4.63155">
        <ele>911.3</ele>
        <time>2017-03-14T23:17:28Z</time>
      </trkpt>
      <trkpt lat="45.4054" lon="4.63159">
        <ele>911</ele>
        <time>2017-03-14T23:17:29Z</time>
      </trkpt>
      <trkpt lat="45.40539" lon="4.63164">
        <ele>910.7</ele>
        <time>2017-03-14T23:17:30Z</time>
      </trkpt>
      <trkpt lat="45.40539" lon="4.63169">
        <ele>910.2</ele>
        <time>2017-03-14T23:17:32Z</time>
      </trkpt>
      <trkpt lat="45.40537" lon="4.63174">
        <ele>909.6</ele>
        <time>2017-03-14T23:17:33Z</time>
      </trkpt>
      <trkpt lat="45.40536" lon="4.63183">
        <ele>908.3</ele>
        <time>2017-03-14T23:17:35Z</time>
      </trkpt>
      <trkpt lat="45.40536" lon="4.63189">
        <ele>907.7</ele>
        <time>2017-03-14T23:17:36Z</time>
      </trkpt>
      <trkpt lat="45.40535" lon="4.63199">
        <ele>906.9</ele>
        <time>2017-03-14T23:17:37Z</time>
      </trkpt>
      <trkpt lat="45.40531" lon="4.63208">
        <ele>905.9</ele>
        <time>2017-03-14T23:17:38Z</time>
      </trkpt>
      <trkpt lat="45.4053" lon="4.63215">
        <ele>905.4</ele>
        <time>2017-03-14T23:17:39Z</time>
      </trkpt>
      <trkpt lat="45.40524" lon="4.63221">
        <ele>904.4</ele>
        <time>2017-03-14T23:17:40Z</time>
      </trkpt>
      <trkpt lat="45.40512" lon="4.63227">
        <ele>902.1</ele>
        <time>2017-03-14T23:17:41Z</time>
      </trkpt>
      <trkpt lat="45.40506" lon="4.63216">
        <ele>900.5</ele>
        <time>2017-03-14T23:17:42Z</time>
      </trkpt>
      <trkpt lat="45.40504" lon="4.63215">
        <ele>900</ele>
        <time>2017-03-14T23:17:43Z</time>
      </trkpt>
      <trkpt lat="45.40497" lon="4.63216">
        <ele>898.6</ele>
        <time>2017-03-14T23:17:44Z</time>
      </trkpt>
      <trkpt lat="45.40488" lon="4.63213">
        <ele>897.4</ele>
        <time>2017-03-14T23:17:46Z</time>
      </trkpt>
      <trkpt lat="45.40485" lon="4.63213">
        <ele>897.1</ele>
        <time>2017-03-14T23:17:47Z</time>
      </trkpt>
      <trkpt lat="45.40481" lon="4.6321">
        <ele>896.1</ele>
        <time>2017-03-14T23:17:48Z</time>
      </trkpt>
      <trkpt lat="45.40475" lon="4.63213">
        <ele>894.9</ele>
        <time>2017-03-14T23:17:49Z</time>
      </trkpt>
      <trkpt lat="45.40471" lon="4.63215">
        <ele>894.1</ele>
        <time>2017-03-14T23:17:50Z</time>
      </trkpt>
      <trkpt lat="45.40467" lon="4.63217">
        <ele>893.3</ele>
        <time>2017-03-14T23:17:51Z</time>
      </trkpt>
      <trkpt lat="45.40462" lon="4.63217">
        <ele>892.5</ele>
        <time>2017-03-14T23:17:52Z</time>
      </trkpt>
      <trkpt lat="45.40459" lon="4.63217">
        <ele>892</ele>
        <time>2017-03-14T23:17:53Z</time>
      </trkpt>
      <trkpt lat="45.40452" lon="4.63218">
        <ele>891.2</ele>
        <time>2017-03-14T23:17:54Z</time>
      </trkpt>
      <trkpt lat="45.4045" lon="4.63214">
        <ele>890.6</ele>
        <time>2017-03-14T23:17:55Z</time>
      </trkpt>
      <trkpt lat="45.40444" lon="4.63212">
        <ele>889.1</ele>
        <time>2017-03-14T23:17:57Z</time>
      </trkpt>
      <trkpt lat="45.40439" lon="4.63215">
        <ele>887.7</ele>
        <time>2017-03-14T23:17:59Z</time>
      </trkpt>
      <trkpt lat="45.40434" lon="4.63213">
        <ele>886.5</ele>
        <time>2017-03-14T23:18:00Z</time>
      </trkpt>
      <trkpt lat="45.40431" lon="4.63211">
        <ele>886</ele>
        <time>2017-03-14T23:18:01Z</time>
      </trkpt>
      <trkpt lat="45.40426" lon="4.63208">
        <ele>885</ele>
        <time>2017-03-14T23:18:02Z</time>
      </trkpt>
      <trkpt lat="45.40421" lon="4.63204">
        <ele>883.2</ele>
        <time>2017-03-14T23:18:04Z</time>
      </trkpt>
      <trkpt lat="45.40421" lon="4.63195">
        <ele>881.9</ele>
        <time>2017-03-14T23:18:06Z</time>
      </trkpt>
      <trkpt lat="45.40418" lon="4.63192">
        <ele>881.3</ele>
        <time>2017-03-14T23:18:07Z</time>
      </trkpt>
      <trkpt lat="45.40415" lon="4.63188">
        <ele>880.8</ele>
        <time>2017-03-14T23:18:08Z</time>
      </trkpt>
      <trkpt lat="45.40409" lon="4.63185">
        <ele>879.3</ele>
        <time>2017-03-14T23:18:09Z</time>
      </trkpt>
      <trkpt lat="45.40405" lon="4.6318">
        <ele>878.3</ele>
        <time>2017-03-14T23:18:10Z</time>
      </trkpt>
      <trkpt lat="45.40401" lon="4.63177">
        <ele>878.5</ele>
        <time>2017-03-14T23:18:11Z</time>
      </trkpt>
      <trkpt lat="45.40399" lon="4.63173">
        <ele>878.1</ele>
        <time>2017-03-14T23:18:12Z</time>
      </trkpt>
      <trkpt lat="45.40397" lon="4.63168">
        <ele>876.9</ele>
        <time>2017-03-14T23:18:14Z</time>
      </trkpt>
      <trkpt lat="45.40389" lon="4.63165">
        <ele>874.3</ele>
        <time>2017-03-14T23:18:16Z</time>
      </trkpt>
      <trkpt lat="45.40384" lon="4.63172">
        <ele>872.1</ele>
        <time>2017-03-14T23:18:18Z</time>
      </trkpt>
      <trkpt lat="45.40385" lon="4.63178">
        <ele>870.8</ele>
        <time>2017-03-14T23:18:19Z</time>
      </trkpt>
      <trkpt lat="45.40385" lon="4.63184">
        <ele>869.3</ele>
        <time>2017-03-14T23:18:20Z</time>
      </trkpt>
      <trkpt lat="45.40377" lon="4.63188">
        <ele>868.8</ele>
        <time>2017-03-14T23:18:21Z</time>
      </trkpt>
      <trkpt lat="45.40372" lon="4.6319">
        <ele>869.6</ele>
        <time>2017-03-14T23:18:22Z</time>
      </trkpt>
      <trkpt lat="45.40367" lon="4.6319">
        <ele>870.4</ele>
        <time>2017-03-14T23:18:23Z</time>
      </trkpt>
      <trkpt lat="45.40365" lon="4.63186">
        <ele>870.9</ele>
        <time>2017-03-14T23:18:24Z</time>
      </trkpt>
      <trkpt lat="45.40363" lon="4.63182">
        <ele>871.6</ele>
        <time>2017-03-14T23:18:25Z</time>
      </trkpt>
      <trkpt lat="45.40362" lon="4.63177">
        <ele>872.3</ele>
        <time>2017-03-14T23:18:26Z</time>
      </trkpt>
      <trkpt lat="45.4036" lon="4.63172">
        <ele>872.9</ele>
        <time>2017-03-14T23:18:27Z</time>
      </trkpt>
      <trkpt lat="45.40357" lon="4.63168">
        <ele>873.4</ele>
        <time>2017-03-14T23:18:28Z</time>
      </trkpt>
      <trkpt lat="45.40353" lon="4.63164">
        <ele>874</ele>
        <time>2017-03-14T23:18:29Z</time>
      </trkpt>
      <trkpt lat="45.4035" lon="4.63161">
        <ele>874</ele>
        <time>2017-03-14T23:18:30Z</time>
      </trkpt>
      <trkpt lat="45.40347" lon="4.63161">
        <ele>874.1</ele>
        <time>2017-03-14T23:18:31Z</time>
      </trkpt>
      <trkpt lat="45.40343" lon="4.63157">
        <ele>874.1</ele>
        <time>2017-03-14T23:18:32Z</time>
      </trkpt>
      <trkpt lat="45.40341" lon="4.63154">
        <ele>874.1</ele>
        <time>2017-03-14T23:18:33Z</time>
      </trkpt>
      <trkpt lat="45.40331" lon="4.63152">
        <ele>874.3</ele>
        <time>2017-03-14T23:18:35Z</time>
      </trkpt>
      <trkpt lat="45.40325" lon="4.63148">
        <ele>874.1</ele>
        <time>2017-03-14T23:18:37Z</time>
      </trkpt>
      <trkpt lat="45.40322" lon="4.63142">
        <ele>874</ele>
        <time>2017-03-14T23:18:39Z</time>
      </trkpt>
      <trkpt lat="45.40316" lon="4.63139">
        <ele>874</ele>
        <time>2017-03-14T23:18:40Z</time>
      </trkpt>
      <trkpt lat="45.40311" lon="4.63137">
        <ele>873.8</ele>
        <time>2017-03-14T23:18:41Z</time>
      </trkpt>
      <trkpt lat="45.40307" lon="4.63135">
        <ele>873.5</ele>
        <time>2017-03-14T23:18:42Z</time>
      </trkpt>
      <trkpt lat="45.40299" lon="4.63132">
        <ele>873.4</ele>
        <time>2017-03-14T23:18:44Z</time>
      </trkpt>
      <trkpt lat="45.40295" lon="4.63128">
        <ele>872</ele>
        <time>2017-03-14T23:18:45Z</time>
      </trkpt>
      <trkpt lat="45.40291" lon="4.63127">
        <ele>870.9</ele>
        <time>2017-03-14T23:18:46Z</time>
      </trkpt>
      <trkpt lat="45.40284" lon="4.63129">
        <ele>870.2</ele>
        <time>2017-03-14T23:18:47Z</time>
      </trkpt>
      <trkpt lat="45.4028" lon="4.63128">
        <ele>869.6</ele>
        <time>2017-03-14T23:18:48Z</time>
      </trkpt>
      <trkpt lat="45.40277" lon="4.63126">
        <ele>869</ele>
        <time>2017-03-14T23:18:49Z</time>
      </trkpt>
      <trkpt lat="45.40269" lon="4.63125">
        <ele>867.3</ele>
        <time>2017-03-14T23:18:50Z</time>
      </trkpt>
      <trkpt lat="45.40264" lon="4.63125">
        <ele>866.4</ele>
        <time>2017-03-14T23:18:51Z</time>
      </trkpt>
      <trkpt lat="45.40258" lon="4.63124">
        <ele>865</ele>
        <time>2017-03-14T23:18:52Z</time>
      </trkpt>
      <trkpt lat="45.40252" lon="4.63122">
        <ele>864.2</ele>
        <time>2017-03-14T23:18:54Z</time>
      </trkpt>
      <trkpt lat="45.40249" lon="4.63122">
        <ele>863.8</ele>
        <time>2017-03-14T23:18:55Z</time>
      </trkpt>
      <trkpt lat="45.40244" lon="4.63121">
        <ele>862.8</ele>
        <time>2017-03-14T23:18:56Z</time>
      </trkpt>
      <trkpt lat="45.4024" lon="4.63119">
        <ele>862.1</ele>
        <time>2017-03-14T23:18:57Z</time>
      </trkpt>
      <trkpt lat="45.40235" lon="4.6312">
        <ele>861.9</ele>
        <time>2017-03-14T23:18:58Z</time>
      </trkpt>
      <trkpt lat="45.40232" lon="4.63119">
        <ele>861.8</ele>
        <time>2017-03-14T23:18:59Z</time>
      </trkpt>
      <trkpt lat="45.40227" lon="4.63119">
        <ele>860.7</ele>
        <time>2017-03-14T23:19:00Z</time>
      </trkpt>
      <trkpt lat="45.40224" lon="4.63118">
        <ele>860.1</ele>
        <time>2017-03-14T23:19:01Z</time>
      </trkpt>
      <trkpt lat="45.40221" lon="4.63115">
        <ele>859.2</ele>
        <time>2017-03-14T23:19:02Z</time>
      </trkpt>
      <trkpt lat="45.40218" lon="4.63112">
        <ele>858.4</ele>
        <time>2017-03-14T23:19:03Z</time>
      </trkpt>
      <trkpt lat="45.40212" lon="4.63111">
        <ele>857.1</ele>
        <time>2017-03-14T23:19:04Z</time>
      </trkpt>
      <trkpt lat="45.40207" lon="4.63108">
        <ele>856.1</ele>
        <time>2017-03-14T23:19:05Z</time>
      </trkpt>
      <trkpt lat="45.40203" lon="4.63106">
        <ele>855</ele>
        <time>2017-03-14T23:19:06Z</time>
      </trkpt>
      <trkpt lat="45.40201" lon="4.63106">
        <ele>854.1</ele>
        <time>2017-03-14T23:19:07Z</time>
      </trkpt>
      <trkpt lat="45.40196" lon="4.63108">
        <ele>852.6</ele>
        <time>2017-03-14T23:19:08Z</time>
      </trkpt>
      <trkpt lat="45.40193" lon="4.63108">
        <ele>851.8</ele>
        <time>2017-03-14T23:19:09Z</time>
      </trkpt>
      <trkpt lat="45.40188" lon="4.63105">
        <ele>850.6</ele>
        <time>2017-03-14T23:19:10Z</time>
      </trkpt>
      <trkpt lat="45.40184" lon="4.63105">
        <ele>850.2</ele>
        <time>2017-03-14T23:19:11Z</time>
      </trkpt>
      <trkpt lat="45.40179" lon="4.63105">
        <ele>849.6</ele>
        <time>2017-03-14T23:19:12Z</time>
      </trkpt>
      <trkpt lat="45.40175" lon="4.63102">
        <ele>848.4</ele>
        <time>2017-03-14T23:19:15Z</time>
      </trkpt>
      <trkpt lat="45.4017" lon="4.63102">
        <ele>847.1</ele>
        <time>2017-03-14T23:19:16Z</time>
      </trkpt>
      <trkpt lat="45.40165" lon="4.63104">
        <ele>845.4</ele>
        <time>2017-03-14T23:19:17Z</time>
      </trkpt>
      <trkpt lat="45.40156" lon="4.63105">
        <ele>842.9</ele>
        <time>2017-03-14T23:19:19Z</time>
      </trkpt>
      <trkpt lat="45.40152" lon="4.63106">
        <ele>841.5</ele>
        <time>2017-03-14T23:19:20Z</time>
      </trkpt>
      <trkpt lat="45.40153" lon="4.63111">
        <ele>840.1</ele>
        <time>2017-03-14T23:19:22Z</time>
      </trkpt>
      <trkpt lat="45.40148" lon="4.63114">
        <ele>838.6</ele>
        <time>2017-03-14T23:19:23Z</time>
      </trkpt>
      <trkpt lat="45.40145" lon="4.63121">
        <ele>837.1</ele>
        <time>2017-03-14T23:19:25Z</time>
      </trkpt>
      <trkpt lat="45.40143" lon="4.63125">
        <ele>836.5</ele>
        <time>2017-03-14T23:19:26Z</time>
      </trkpt>
      <trkpt lat="45.40138" lon="4.63128">
        <ele>835.4</ele>
        <time>2017-03-14T23:19:28Z</time>
      </trkpt>
      <trkpt lat="45.4013" lon="4.63128">
        <ele>834.5</ele>
        <time>2017-03-14T23:19:29Z</time>
      </trkpt>
      <trkpt lat="45.40126" lon="4.63132">
        <ele>833.9</ele>
        <time>2017-03-14T23:19:30Z</time>
      </trkpt>
      <trkpt lat="45.4012" lon="4.63136">
        <ele>833.3</ele>
        <time>2017-03-14T23:19:31Z</time>
      </trkpt>
      <trkpt lat="45.40116" lon="4.63138">
        <ele>832.7</ele>
        <time>2017-03-14T23:19:32Z</time>
      </trkpt>
      <trkpt lat="45.40109" lon="4.63138">
        <ele>831.9</ele>
        <time>2017-03-14T23:19:33Z</time>
      </trkpt>
      <trkpt lat="45.40107" lon="4.63133">
        <ele>831.4</ele>
        <time>2017-03-14T23:19:34Z</time>
      </trkpt>
      <trkpt lat="45.40104" lon="4.63132">
        <ele>831</ele>
        <time>2017-03-14T23:19:35Z</time>
      </trkpt>
      <trkpt lat="45.40095" lon="4.63131">
        <ele>829.2</ele>
        <time>2017-03-14T23:19:36Z</time>
      </trkpt>
      <trkpt lat="45.40092" lon="4.63127">
        <ele>828.5</ele>
        <time>2017-03-14T23:19:38Z</time>
      </trkpt>
      <trkpt lat="45.40088" lon="4.63125">
        <ele>827.7</ele>
        <time>2017-03-14T23:19:39Z</time>
      </trkpt>
      <trkpt lat="45.40084" lon="4.63127">
        <ele>827.1</ele>
        <time>2017-03-14T23:19:40Z</time>
      </trkpt>
      <trkpt lat="45.40077" lon="4.63125">
        <ele>825.9</ele>
        <time>2017-03-14T23:19:42Z</time>
      </trkpt>
      <trkpt lat="45.40069" lon="4.63121">
        <ele>824.7</ele>
        <time>2017-03-14T23:19:44Z</time>
      </trkpt>
      <trkpt lat="45.40063" lon="4.6312">
        <ele>824.1</ele>
        <time>2017-03-14T23:19:45Z</time>
      </trkpt>
      <trkpt lat="45.40057" lon="4.6312">
        <ele>823.4</ele>
        <time>2017-03-14T23:19:46Z</time>
      </trkpt>
      <trkpt lat="45.40054" lon="4.63122">
        <ele>823.1</ele>
        <time>2017-03-14T23:19:49Z</time>
      </trkpt>
      <trkpt lat="45.40051" lon="4.63122">
        <ele>822.7</ele>
        <time>2017-03-14T23:19:50Z</time>
      </trkpt>
      <trkpt lat="45.40048" lon="4.6312">
        <ele>822.5</ele>
        <time>2017-03-14T23:19:51Z</time>
      </trkpt>
      <trkpt lat="45.40029" lon="4.6312">
        <ele>821</ele>
        <time>2017-03-14T23:19:54Z</time>
      </trkpt>
      <trkpt lat="45.40021" lon="4.63119">
        <ele>820.8</ele>
        <time>2017-03-14T23:19:55Z</time>
      </trkpt>
      <trkpt lat="45.40014" lon="4.63118">
        <ele>820.4</ele>
        <time>2017-03-14T23:19:56Z</time>
      </trkpt>
      <trkpt lat="45.4001" lon="4.63115">
        <ele>820.1</ele>
        <time>2017-03-14T23:19:57Z</time>
      </trkpt>
      <trkpt lat="45.40006" lon="4.63112">
        <ele>820.1</ele>
        <time>2017-03-14T23:19:58Z</time>
      </trkpt>
      <trkpt lat="45.40001" lon="4.63111">
        <ele>820.1</ele>
        <time>2017-03-14T23:19:59Z</time>
      </trkpt>
      <trkpt lat="45.39999" lon="4.63106">
        <ele>819.8</ele>
        <time>2017-03-14T23:20:00Z</time>
      </trkpt>
      <trkpt lat="45.39996" lon="4.63104">
        <ele>819.9</ele>
        <time>2017-03-14T23:20:01Z</time>
      </trkpt>
      <trkpt lat="45.39994" lon="4.63098">
        <ele>820</ele>
        <time>2017-03-14T23:20:02Z</time>
      </trkpt>
      <trkpt lat="45.3999" lon="4.63096">
        <ele>820.7</ele>
        <time>2017-03-14T23:20:04Z</time>
      </trkpt>
      <trkpt lat="45.3999" lon="4.6309">
        <ele>821.3</ele>
        <time>2017-03-14T23:20:07Z</time>
      </trkpt>
      <trkpt lat="45.39986" lon="4.63087">
        <ele>821.6</ele>
        <time>2017-03-14T23:20:09Z</time>
      </trkpt>
      <trkpt lat="45.39982" lon="4.63088">
        <ele>822</ele>
        <time>2017-03-14T23:20:10Z</time>
      </trkpt>
      <trkpt lat="45.39974" lon="4.63086">
        <ele>823.3</ele>
        <time>2017-03-14T23:20:11Z</time>
      </trkpt>
      <trkpt lat="45.39969" lon="4.63084">
        <ele>823.8</ele>
        <time>2017-03-14T23:20:12Z</time>
      </trkpt>
      <trkpt lat="45.39964" lon="4.63082">
        <ele>824.6</ele>
        <time>2017-03-14T23:20:13Z</time>
      </trkpt>
      <trkpt lat="45.3996" lon="4.63081">
        <ele>825.3</ele>
        <time>2017-03-14T23:20:14Z</time>
      </trkpt>
      <trkpt lat="45.39947" lon="4.63081">
        <ele>821.6</ele>
        <time>2017-03-14T23:20:15Z</time>
      </trkpt>
      <trkpt lat="45.39941" lon="4.63083">
        <ele>819.6</ele>
        <time>2017-03-14T23:20:17Z</time>
      </trkpt>
      <trkpt lat="45.39938" lon="4.63085">
        <ele>818.9</ele>
        <time>2017-03-14T23:20:18Z</time>
      </trkpt>
      <trkpt lat="45.39935" lon="4.63087">
        <ele>817.6</ele>
        <time>2017-03-14T23:20:19Z</time>
      </trkpt>
      <trkpt lat="45.39929" lon="4.63089">
        <ele>816.5</ele>
        <time>2017-03-14T23:20:20Z</time>
      </trkpt>
      <trkpt lat="45.39926" lon="4.6309">
        <ele>816</ele>
        <time>2017-03-14T23:20:21Z</time>
      </trkpt>
      <trkpt lat="45.39922" lon="4.63092">
        <ele>814.9</ele>
        <time>2017-03-14T23:20:22Z</time>
      </trkpt>
      <trkpt lat="45.39916" lon="4.63094">
        <ele>814.2</ele>
        <time>2017-03-14T23:20:24Z</time>
      </trkpt>
      <trkpt lat="45.39912" lon="4.63095">
        <ele>814</ele>
        <time>2017-03-14T23:20:25Z</time>
      </trkpt>
      <trkpt lat="45.39908" lon="4.63095">
        <ele>813.6</ele>
        <time>2017-03-14T23:20:26Z</time>
      </trkpt>
      <trkpt lat="45.39899" lon="4.63096">
        <ele>811.7</ele>
        <time>2017-03-14T23:20:28Z</time>
      </trkpt>
      <trkpt lat="45.39895" lon="4.63095">
        <ele>812.9</ele>
        <time>2017-03-14T23:20:29Z</time>
      </trkpt>
      <trkpt lat="45.3989" lon="4.63095">
        <ele>811.4</ele>
        <time>2017-03-14T23:20:30Z</time>
      </trkpt>
      <trkpt lat="45.39891" lon="4.63099">
        <ele>811.5</ele>
        <time>2017-03-14T23:20:32Z</time>
      </trkpt>
      <trkpt lat="45.39883" lon="4.63101">
        <ele>809.3</ele>
        <time>2017-03-14T23:20:34Z</time>
      </trkpt>
      <trkpt lat="45.39878" lon="4.63105">
        <ele>807.9</ele>
        <time>2017-03-14T23:20:38Z</time>
      </trkpt>
      <trkpt lat="45.39873" lon="4.63106">
        <ele>807.4</ele>
        <time>2017-03-14T23:20:41Z</time>
      </trkpt>
      <trkpt lat="45.39862" lon="4.63104">
        <ele>806.8</ele>
        <time>2017-03-14T23:20:43Z</time>
      </trkpt>
      <trkpt lat="45.39858" lon="4.63107">
        <ele>806.9</ele>
        <time>2017-03-14T23:20:44Z</time>
      </trkpt>
      <trkpt lat="45.39852" lon="4.63111">
        <ele>806.2</ele>
        <time>2017-03-14T23:20:46Z</time>
      </trkpt>
      <trkpt lat="45.39848" lon="4.63116">
        <ele>805.6</ele>
        <time>2017-03-14T23:20:48Z</time>
      </trkpt>
      <trkpt lat="45.39851" lon="4.63113">
        <ele>805.7</ele>
        <time>2017-03-14T23:20:49Z</time>
      </trkpt>
      <trkpt lat="45.39852" lon="4.63119">
        <ele>804.9</ele>
        <time>2017-03-14T23:20:50Z</time>
      </trkpt>
      <trkpt lat="45.39845" lon="4.63121">
        <ele>804.1</ele>
        <time>2017-03-14T23:20:52Z</time>
      </trkpt>
      <trkpt lat="45.3985" lon="4.63122">
        <ele>804.2</ele>
        <time>2017-03-14T23:20:53Z</time>
      </trkpt>
      <trkpt lat="45.39826" lon="4.63117">
        <ele>805.6</ele>
        <time>2017-03-14T23:20:56Z</time>
      </trkpt>
      <trkpt lat="45.3983" lon="4.63116">
        <ele>805.8</ele>
        <time>2017-03-14T23:20:58Z</time>
      </trkpt>
      <trkpt lat="45.39825" lon="4.63113">
        <ele>805.7</ele>
        <time>2017-03-14T23:20:59Z</time>
      </trkpt>
      <trkpt lat="45.39821" lon="4.63112">
        <ele>806.1</ele>
        <time>2017-03-14T23:21:00Z</time>
      </trkpt>
      <trkpt lat="45.39815" lon="4.63114">
        <ele>805.2</ele>
        <time>2017-03-14T23:21:01Z</time>
      </trkpt>
      <trkpt lat="45.39806" lon="4.63114">
        <ele>804.2</ele>
        <time>2017-03-14T23:21:02Z</time>
      </trkpt>
      <trkpt lat="45.39796" lon="4.63114">
        <ele>803.6</ele>
        <time>2017-03-14T23:21:03Z</time>
      </trkpt>
      <trkpt lat="45.39789" lon="4.63114">
        <ele>803.3</ele>
        <time>2017-03-14T23:21:04Z</time>
      </trkpt>
      <trkpt lat="45.39784" lon="4.63113">
        <ele>803</ele>
        <time>2017-03-14T23:21:05Z</time>
      </trkpt>
      <trkpt lat="45.39775" lon="4.63111">
        <ele>802.9</ele>
        <time>2017-03-14T23:21:06Z</time>
      </trkpt>
      <trkpt lat="45.39772" lon="4.6311">
        <ele>802.9</ele>
        <time>2017-03-14T23:21:07Z</time>
      </trkpt>
      <trkpt lat="45.39764" lon="4.63107">
        <ele>803.1</ele>
        <time>2017-03-14T23:21:08Z</time>
      </trkpt>
      <trkpt lat="45.3976" lon="4.63105">
        <ele>803.3</ele>
        <time>2017-03-14T23:21:11Z</time>
      </trkpt>
      <trkpt lat="45.39755" lon="4.63101">
        <ele>803.7</ele>
        <time>2017-03-14T23:21:14Z</time>
      </trkpt>
      <trkpt lat="45.39747" lon="4.63099">
        <ele>804.5</ele>
        <time>2017-03-14T23:21:15Z</time>
      </trkpt>
      <trkpt lat="45.39735" lon="4.631">
        <ele>805.8</ele>
        <time>2017-03-14T23:21:16Z</time>
      </trkpt>
      <trkpt lat="45.3973" lon="4.63098">
        <ele>807.7</ele>
        <time>2017-03-14T23:21:17Z</time>
      </trkpt>
      <trkpt lat="45.39732" lon="4.63096">
        <ele>807</ele>
        <time>2017-03-14T23:21:19Z</time>
      </trkpt>
      <trkpt lat="45.39729" lon="4.63097">
        <ele>807.8</ele>
        <time>2017-03-14T23:21:21Z</time>
      </trkpt>
      <trkpt lat="45.39726" lon="4.63101">
        <ele>808.3</ele>
        <time>2017-03-14T23:21:22Z</time>
      </trkpt>
      <trkpt lat="45.39732" lon="4.63102">
        <ele>806.8</ele>
        <time>2017-03-14T23:21:24Z</time>
      </trkpt>
      <trkpt lat="45.39735" lon="4.63106">
        <ele>805.9</ele>
        <time>2017-03-14T23:21:25Z</time>
      </trkpt>
      <trkpt lat="45.39731" lon="4.63108">
        <ele>806.4</ele>
        <time>2017-03-14T23:21:26Z</time>
      </trkpt>
      <trkpt lat="45.39724" lon="4.63114">
        <ele>808.8</ele>
        <time>2017-03-14T23:21:27Z</time>
      </trkpt>
      <trkpt lat="45.39726" lon="4.63117">
        <ele>808</ele>
        <time>2017-03-14T23:21:28Z</time>
      </trkpt>
      <trkpt lat="45.39725" lon="4.63123">
        <ele>808</ele>
        <time>2017-03-14T23:21:30Z</time>
      </trkpt>
      <trkpt lat="45.39724" lon="4.6313">
        <ele>809.4</ele>
        <time>2017-03-14T23:21:31Z</time>
      </trkpt>
      <trkpt lat="45.39728" lon="4.63132">
        <ele>807.4</ele>
        <time>2017-03-14T23:21:32Z</time>
      </trkpt>
      <trkpt lat="45.39732" lon="4.63139">
        <ele>807</ele>
        <time>2017-03-14T23:21:33Z</time>
      </trkpt>
      <trkpt lat="45.39737" lon="4.63146">
        <ele>805.6</ele>
        <time>2017-03-14T23:21:35Z</time>
      </trkpt>
      <trkpt lat="45.39733" lon="4.63149">
        <ele>807.9</ele>
        <time>2017-03-14T23:21:36Z</time>
      </trkpt>
      <trkpt lat="45.3974" lon="4.63154">
        <ele>805.6</ele>
        <time>2017-03-14T23:21:38Z</time>
      </trkpt>
      <trkpt lat="45.39742" lon="4.63157">
        <ele>806.1</ele>
        <time>2017-03-14T23:21:39Z</time>
      </trkpt>
      <trkpt lat="45.39743" lon="4.63163">
        <ele>805.8</ele>
        <time>2017-03-14T23:21:40Z</time>
      </trkpt>
      <trkpt lat="45.39747" lon="4.63166">
        <ele>805.5</ele>
        <time>2017-03-14T23:21:41Z</time>
      </trkpt>
      <trkpt lat="45.3975" lon="4.63172">
        <ele>805.2</ele>
        <time>2017-03-14T23:21:42Z</time>
      </trkpt>
      <trkpt lat="45.39753" lon="4.63174">
        <ele>805</ele>
        <time>2017-03-14T23:21:43Z</time>
      </trkpt>
      <trkpt lat="45.39758" lon="4.63174">
        <ele>803.3</ele>
        <time>2017-03-14T23:21:44Z</time>
      </trkpt>
      <trkpt lat="45.39757" lon="4.63179">
        <ele>804.8</ele>
        <time>2017-03-14T23:21:45Z</time>
      </trkpt>
      <trkpt lat="45.39761" lon="4.63183">
        <ele>803.5</ele>
        <time>2017-03-14T23:21:46Z</time>
      </trkpt>
      <trkpt lat="45.39764" lon="4.6319">
        <ele>803.8</ele>
        <time>2017-03-14T23:21:48Z</time>
      </trkpt>
      <trkpt lat="45.39767" lon="4.63192">
        <ele>803.9</ele>
        <time>2017-03-14T23:21:49Z</time>
      </trkpt>
      <trkpt lat="45.3977" lon="4.63193">
        <ele>801.8</ele>
        <time>2017-03-14T23:21:50Z</time>
      </trkpt>
      <trkpt lat="45.39772" lon="4.63198">
        <ele>802.6</ele>
        <time>2017-03-14T23:21:51Z</time>
      </trkpt>
      <trkpt lat="45.39774" lon="4.632">
        <ele>802.6</ele>
        <time>2017-03-14T23:21:52Z</time>
      </trkpt>
      <trkpt lat="45.39777" lon="4.63207">
        <ele>803.7</ele>
        <time>2017-03-14T23:21:54Z</time>
      </trkpt>
      <trkpt lat="45.39777" lon="4.63215">
        <ele>804.9</ele>
        <time>2017-03-14T23:21:56Z</time>
      </trkpt>
      <trkpt lat="45.39781" lon="4.63219">
        <ele>805</ele>
        <time>2017-03-14T23:21:58Z</time>
      </trkpt>
      <trkpt lat="45.39784" lon="4.63219">
        <ele>804</ele>
        <time>2017-03-14T23:21:59Z</time>
      </trkpt>
      <trkpt lat="45.39786" lon="4.63222">
        <ele>803.8</ele>
        <time>2017-03-14T23:22:01Z</time>
      </trkpt>
      <trkpt lat="45.39791" lon="4.63228">
        <ele>803.5</ele>
        <time>2017-03-14T23:22:03Z</time>
      </trkpt>
      <trkpt lat="45.39791" lon="4.63234">
        <ele>803.7</ele>
        <time>2017-03-14T23:22:04Z</time>
      </trkpt>
      <trkpt lat="45.39793" lon="4.63238">
        <ele>804.4</ele>
        <time>2017-03-14T23:22:05Z</time>
      </trkpt>
      <trkpt lat="45.39793" lon="4.63244">
        <ele>805.1</ele>
        <time>2017-03-14T23:22:06Z</time>
      </trkpt>
      <trkpt lat="45.39795" lon="4.6326">
        <ele>806.3</ele>
        <time>2017-03-14T23:22:07Z</time>
      </trkpt>
      <trkpt lat="45.39798" lon="4.63267">
        <ele>805.9</ele>
        <time>2017-03-14T23:22:08Z</time>
      </trkpt>
      <trkpt lat="45.39804" lon="4.63272">
        <ele>805.2</ele>
        <time>2017-03-14T23:22:09Z</time>
      </trkpt>
      <trkpt lat="45.39807" lon="4.63271">
        <ele>803.8</ele>
        <time>2017-03-14T23:22:10Z</time>
      </trkpt>
      <trkpt lat="45.39809" lon="4.63279">
        <ele>805</ele>
        <time>2017-03-14T23:22:11Z</time>
      </trkpt>
      <trkpt lat="45.39814" lon="4.63276">
        <ele>803.3</ele>
        <time>2017-03-14T23:22:12Z</time>
      </trkpt>
      <trkpt lat="45.39819" lon="4.63275">
        <ele>800.9</ele>
        <time>2017-03-14T23:22:13Z</time>
      </trkpt>
      <trkpt lat="45.39821" lon="4.63282">
        <ele>802.2</ele>
        <time>2017-03-14T23:22:15Z</time>
      </trkpt>
      <trkpt lat="45.39822" lon="4.63287">
        <ele>801.9</ele>
        <time>2017-03-14T23:22:16Z</time>
      </trkpt>
      <trkpt lat="45.39825" lon="4.63288">
        <ele>801.2</ele>
        <time>2017-03-14T23:22:18Z</time>
      </trkpt>
      <trkpt lat="45.39827" lon="4.63292">
        <ele>801.1</ele>
        <time>2017-03-14T23:22:19Z</time>
      </trkpt>
      <trkpt lat="45.39828" lon="4.63298">
        <ele>802.3</ele>
        <time>2017-03-14T23:22:20Z</time>
      </trkpt>
      <trkpt lat="45.39827" lon="4.63302">
        <ele>803.6</ele>
        <time>2017-03-14T23:22:21Z</time>
      </trkpt>
      <trkpt lat="45.3983" lon="4.63307">
        <ele>802.7</ele>
        <time>2017-03-14T23:22:23Z</time>
      </trkpt>
      <trkpt lat="45.39833" lon="4.6331">
        <ele>802.6</ele>
        <time>2017-03-14T23:22:24Z</time>
      </trkpt>
      <trkpt lat="45.39832" lon="4.63315">
        <ele>803.7</ele>
        <time>2017-03-14T23:22:25Z</time>
      </trkpt>
      <trkpt lat="45.39834" lon="4.63322">
        <ele>803.6</ele>
        <time>2017-03-14T23:22:27Z</time>
      </trkpt>
      <trkpt lat="45.39832" lon="4.63328">
        <ele>804.8</ele>
        <time>2017-03-14T23:22:28Z</time>
      </trkpt>
      <trkpt lat="45.39827" lon="4.63331">
        <ele>805.6</ele>
        <time>2017-03-14T23:22:29Z</time>
      </trkpt>
      <trkpt lat="45.39824" lon="4.63336">
        <ele>807.7</ele>
        <time>2017-03-14T23:22:30Z</time>
      </trkpt>
      <trkpt lat="45.39823" lon="4.63344">
        <ele>807.8</ele>
        <time>2017-03-14T23:22:33Z</time>
      </trkpt>
      <trkpt lat="45.39821" lon="4.63345">
        <ele>808.9</ele>
        <time>2017-03-14T23:22:34Z</time>
      </trkpt>
      <trkpt lat="45.3982" lon="4.6335">
        <ele>809</ele>
        <time>2017-03-14T23:22:35Z</time>
      </trkpt>
      <trkpt lat="45.39823" lon="4.6335">
        <ele>808</ele>
        <time>2017-03-14T23:22:36Z</time>
      </trkpt>
      <trkpt lat="45.39826" lon="4.6335">
        <ele>807.1</ele>
        <time>2017-03-14T23:22:38Z</time>
      </trkpt>
      <trkpt lat="45.39827" lon="4.63354">
        <ele>806.3</ele>
        <time>2017-03-14T23:22:40Z</time>
      </trkpt>
      <trkpt lat="45.39831" lon="4.63358">
        <ele>805.5</ele>
        <time>2017-03-14T23:22:42Z</time>
      </trkpt>
      <trkpt lat="45.39837" lon="4.63359">
        <ele>804.2</ele>
        <time>2017-03-14T23:22:44Z</time>
      </trkpt>
      <trkpt lat="45.39841" lon="4.63361">
        <ele>803.5</ele>
        <time>2017-03-14T23:22:45Z</time>
      </trkpt>
      <trkpt lat="45.39846" lon="4.63364">
        <ele>802</ele>
        <time>2017-03-14T23:22:46Z</time>
      </trkpt>
      <trkpt lat="45.39847" lon="4.63367">
        <ele>802.2</ele>
        <time>2017-03-14T23:22:47Z</time>
      </trkpt>
      <trkpt lat="45.39851" lon="4.6337">
        <ele>801.7</ele>
        <time>2017-03-14T23:22:48Z</time>
      </trkpt>
      <trkpt lat="45.39855" lon="4.63373">
        <ele>800.3</ele>
        <time>2017-03-14T23:22:49Z</time>
      </trkpt>
      <trkpt lat="45.39859" lon="4.63375">
        <ele>800</ele>
        <time>2017-03-14T23:22:50Z</time>
      </trkpt>
      <trkpt lat="45.39862" lon="4.63381">
        <ele>799.9</ele>
        <time>2017-03-14T23:22:52Z</time>
      </trkpt>
      <trkpt lat="45.39868" lon="4.63385">
        <ele>799.3</ele>
        <time>2017-03-14T23:22:54Z</time>
      </trkpt>
      <trkpt lat="45.39871" lon="4.63386">
        <ele>798.8</ele>
        <time>2017-03-14T23:22:55Z</time>
      </trkpt>
      <trkpt lat="45.39873" lon="4.63391">
        <ele>798.7</ele>
        <time>2017-03-14T23:22:56Z</time>
      </trkpt>
      <trkpt lat="45.39873" lon="4.63398">
        <ele>799.6</ele>
        <time>2017-03-14T23:22:58Z</time>
      </trkpt>
      <trkpt lat="45.39877" lon="4.63404">
        <ele>800.1</ele>
        <time>2017-03-14T23:23:00Z</time>
      </trkpt>
      <trkpt lat="45.39879" lon="4.63406">
        <ele>799.5</ele>
        <time>2017-03-14T23:23:01Z</time>
      </trkpt>
      <trkpt lat="45.3988" lon="4.63411">
        <ele>800.2</ele>
        <time>2017-03-14T23:23:03Z</time>
      </trkpt>
      <trkpt lat="45.39882" lon="4.63415">
        <ele>800.2</ele>
        <time>2017-03-14T23:23:05Z</time>
      </trkpt>
      <trkpt lat="45.39886" lon="4.63418">
        <ele>800.2</ele>
        <time>2017-03-14T23:23:06Z</time>
      </trkpt>
      <trkpt lat="45.39889" lon="4.63422">
        <ele>800.5</ele>
        <time>2017-03-14T23:23:07Z</time>
      </trkpt>
      <trkpt lat="45.39892" lon="4.63424">
        <ele>800</ele>
        <time>2017-03-14T23:23:08Z</time>
      </trkpt>
      <trkpt lat="45.39895" lon="4.63428">
        <ele>800.2</ele>
        <time>2017-03-14T23:23:09Z</time>
      </trkpt>
      <trkpt lat="45.39898" lon="4.63431">
        <ele>800.3</ele>
        <time>2017-03-14T23:23:10Z</time>
      </trkpt>
      <trkpt lat="45.39901" lon="4.63435">
        <ele>800.2</ele>
        <time>2017-03-14T23:23:11Z</time>
      </trkpt>
      <trkpt lat="45.39903" lon="4.63449">
        <ele>801</ele>
        <time>2017-03-14T23:23:12Z</time>
      </trkpt>
      <trkpt lat="45.39905" lon="4.63456">
        <ele>800.6</ele>
        <time>2017-03-14T23:23:13Z</time>
      </trkpt>
      <trkpt lat="45.39907" lon="4.63466">
        <ele>800.1</ele>
        <time>2017-03-14T23:23:14Z</time>
      </trkpt>
      <trkpt lat="45.39908" lon="4.63476">
        <ele>799.5</ele>
        <time>2017-03-14T23:23:15Z</time>
      </trkpt>
      <trkpt lat="45.39911" lon="4.63476">
        <ele>799.3</ele>
        <time>2017-03-14T23:23:16Z</time>
      </trkpt>
      <trkpt lat="45.39916" lon="4.63475">
        <ele>799</ele>
        <time>2017-03-14T23:23:17Z</time>
      </trkpt>
      <trkpt lat="45.3992" lon="4.63477">
        <ele>798.7</ele>
        <time>2017-03-14T23:23:18Z</time>
      </trkpt>
      <trkpt lat="45.39924" lon="4.63484">
        <ele>798.2</ele>
        <time>2017-03-14T23:23:19Z</time>
      </trkpt>
      <trkpt lat="45.39928" lon="4.63489">
        <ele>797.8</ele>
        <time>2017-03-14T23:23:20Z</time>
      </trkpt>
      <trkpt lat="45.39932" lon="4.63495">
        <ele>797.4</ele>
        <time>2017-03-14T23:23:21Z</time>
      </trkpt>
      <trkpt lat="45.39934" lon="4.63503">
        <ele>797</ele>
        <time>2017-03-14T23:23:22Z</time>
      </trkpt>
      <trkpt lat="45.39937" lon="4.63513">
        <ele>796.4</ele>
        <time>2017-03-14T23:23:23Z</time>
      </trkpt>
      <trkpt lat="45.39937" lon="4.63517">
        <ele>796.2</ele>
        <time>2017-03-14T23:23:25Z</time>
      </trkpt>
      <trkpt lat="45.39941" lon="4.6352">
        <ele>795.9</ele>
        <time>2017-03-14T23:23:26Z</time>
      </trkpt>
      <trkpt lat="45.39944" lon="4.63525">
        <ele>795.5</ele>
        <time>2017-03-14T23:23:28Z</time>
      </trkpt>
      <trkpt lat="45.39948" lon="4.63532">
        <ele>795</ele>
        <time>2017-03-14T23:23:30Z</time>
      </trkpt>
      <trkpt lat="45.39949" lon="4.63538">
        <ele>794.7</ele>
        <time>2017-03-14T23:23:31Z</time>
      </trkpt>
      <trkpt lat="45.39951" lon="4.63543">
        <ele>794.4</ele>
        <time>2017-03-14T23:23:32Z</time>
      </trkpt>
      <trkpt lat="45.39952" lon="4.63547">
        <ele>794.2</ele>
        <time>2017-03-14T23:23:33Z</time>
      </trkpt>
      <trkpt lat="45.39951" lon="4.63554">
        <ele>793.8</ele>
        <time>2017-03-14T23:23:34Z</time>
      </trkpt>
      <trkpt lat="45.39953" lon="4.63564">
        <ele>793.4</ele>
        <time>2017-03-14T23:23:35Z</time>
      </trkpt>
      <trkpt lat="45.39955" lon="4.63569">
        <ele>793.1</ele>
        <time>2017-03-14T23:23:36Z</time>
      </trkpt>
      <trkpt lat="45.39959" lon="4.63573">
        <ele>792.8</ele>
        <time>2017-03-14T23:23:37Z</time>
      </trkpt>
      <trkpt lat="45.39962" lon="4.63574">
        <ele>792.6</ele>
        <time>2017-03-14T23:23:38Z</time>
      </trkpt>
      <trkpt lat="45.39964" lon="4.6358">
        <ele>792.3</ele>
        <time>2017-03-14T23:23:39Z</time>
      </trkpt>
      <trkpt lat="45.39966" lon="4.63584">
        <ele>792</ele>
        <time>2017-03-14T23:23:40Z</time>
      </trkpt>
      <trkpt lat="45.3997" lon="4.6359">
        <ele>791.6</ele>
        <time>2017-03-14T23:23:42Z</time>
      </trkpt>
      <trkpt lat="45.39971" lon="4.63595">
        <ele>791.3</ele>
        <time>2017-03-14T23:23:44Z</time>
      </trkpt>
      <trkpt lat="45.39972" lon="4.636">
        <ele>791.1</ele>
        <time>2017-03-14T23:23:45Z</time>
      </trkpt>
      <trkpt lat="45.39973" lon="4.63607">
        <ele>790.7</ele>
        <time>2017-03-14T23:23:46Z</time>
      </trkpt>
      <trkpt lat="45.39971" lon="4.63617">
        <ele>790.2</ele>
        <time>2017-03-14T23:23:47Z</time>
      </trkpt>
      <trkpt lat="45.39975" lon="4.63617">
        <ele>789.9</ele>
        <time>2017-03-14T23:23:48Z</time>
      </trkpt>
      <trkpt lat="45.39977" lon="4.63621">
        <ele>789.7</ele>
        <time>2017-03-14T23:23:49Z</time>
      </trkpt>
      <trkpt lat="45.39981" lon="4.63627">
        <ele>789.2</ele>
        <time>2017-03-14T23:23:51Z</time>
      </trkpt>
      <trkpt lat="45.3998" lon="4.63635">
        <ele>788.8</ele>
        <time>2017-03-14T23:23:53Z</time>
      </trkpt>
      <trkpt lat="45.39981" lon="4.63644">
        <ele>788.3</ele>
        <time>2017-03-14T23:23:54Z</time>
      </trkpt>
      <trkpt lat="45.39976" lon="4.63655">
        <ele>787.4</ele>
        <time>2017-03-14T23:23:55Z</time>
      </trkpt>
      <trkpt lat="45.39977" lon="4.63662">
        <ele>786.9</ele>
        <time>2017-03-14T23:23:56Z</time>
      </trkpt>
      <trkpt lat="45.39975" lon="4.63659">
        <ele>786.6</ele>
        <time>2017-03-14T23:23:57Z</time>
      </trkpt>
      <trkpt lat="45.39976" lon="4.63666">
        <ele>786.2</ele>
        <time>2017-03-14T23:23:58Z</time>
      </trkpt>
      <trkpt lat="45.39981" lon="4.63666">
        <ele>785.8</ele>
        <time>2017-03-14T23:23:59Z</time>
      </trkpt>
      <trkpt lat="45.39984" lon="4.63669">
        <ele>785.5</ele>
        <time>2017-03-14T23:24:00Z</time>
      </trkpt>
      <trkpt lat="45.39988" lon="4.63668">
        <ele>785.2</ele>
        <time>2017-03-14T23:24:01Z</time>
      </trkpt>
      <trkpt lat="45.39984" lon="4.63666">
        <ele>786.3</ele>
        <time>2017-03-14T23:24:03Z</time>
      </trkpt>
      <trkpt lat="45.39987" lon="4.63664">
        <ele>785.2</ele>
        <time>2017-03-14T23:24:04Z</time>
      </trkpt>
      <trkpt lat="45.39982" lon="4.6366">
        <ele>787</ele>
        <time>2017-03-14T23:24:05Z</time>
      </trkpt>
      <trkpt lat="45.39986" lon="4.63655">
        <ele>786.1</ele>
        <time>2017-03-14T23:24:06Z</time>
      </trkpt>
      <trkpt lat="45.39989" lon="4.63649">
        <ele>785.1</ele>
        <time>2017-03-14T23:24:08Z</time>
      </trkpt>
      <trkpt lat="45.3999" lon="4.63645">
        <ele>784.3</ele>
        <time>2017-03-14T23:24:09Z</time>
      </trkpt>
      <trkpt lat="45.39988" lon="4.63638">
        <ele>785.4</ele>
        <time>2017-03-14T23:24:10Z</time>
      </trkpt>
      <trkpt lat="45.39986" lon="4.63634">
        <ele>786.5</ele>
        <time>2017-03-14T23:24:11Z</time>
      </trkpt>
      <trkpt lat="45.39987" lon="4.6363">
        <ele>785.9</ele>
        <time>2017-03-14T23:24:12Z</time>
      </trkpt>
      <trkpt lat="45.39992" lon="4.63626">
        <ele>785.2</ele>
        <time>2017-03-14T23:24:13Z</time>
      </trkpt>
      <trkpt lat="45.3999" lon="4.63623">
        <ele>785.4</ele>
        <time>2017-03-14T23:24:14Z</time>
      </trkpt>
      <trkpt lat="45.39989" lon="4.63618">
        <ele>786.6</ele>
        <time>2017-03-14T23:24:15Z</time>
      </trkpt>
      <trkpt lat="45.39986" lon="4.63614">
        <ele>787.9</ele>
        <time>2017-03-14T23:24:16Z</time>
      </trkpt>
      <trkpt lat="45.39988" lon="4.63607">
        <ele>787</ele>
        <time>2017-03-14T23:24:17Z</time>
      </trkpt>
      <trkpt lat="45.39991" lon="4.63602">
        <ele>785.6</ele>
        <time>2017-03-14T23:24:18Z</time>
      </trkpt>
      <trkpt lat="45.39992" lon="4.63597">
        <ele>785.3</ele>
        <time>2017-03-14T23:24:20Z</time>
      </trkpt>
      <trkpt lat="45.3999" lon="4.63591">
        <ele>785</ele>
        <time>2017-03-14T23:24:21Z</time>
      </trkpt>
      <trkpt lat="45.39993" lon="4.63585">
        <ele>782.9</ele>
        <time>2017-03-14T23:24:22Z</time>
      </trkpt>
      <trkpt lat="45.39996" lon="4.63581">
        <ele>782.3</ele>
        <time>2017-03-14T23:24:23Z</time>
      </trkpt>
      <trkpt lat="45.39996" lon="4.63575">
        <ele>778.9</ele>
        <time>2017-03-14T23:24:24Z</time>
      </trkpt>
      <trkpt lat="45.39997" lon="4.6357">
        <ele>777.9</ele>
        <time>2017-03-14T23:24:25Z</time>
      </trkpt>
      <trkpt lat="45.39996" lon="4.63566">
        <ele>776.9</ele>
        <time>2017-03-14T23:24:26Z</time>
      </trkpt>
      <trkpt lat="45.39996" lon="4.63561">
        <ele>776</ele>
        <time>2017-03-14T23:24:27Z</time>
      </trkpt>
      <trkpt lat="45.39996" lon="4.63553">
        <ele>774.9</ele>
        <time>2017-03-14T23:24:28Z</time>
      </trkpt>
      <trkpt lat="45.39991" lon="4.63539">
        <ele>777.6</ele>
        <time>2017-03-14T23:24:29Z</time>
      </trkpt>
      <trkpt lat="45.39988" lon="4.63531">
        <ele>778.7</ele>
        <time>2017-03-14T23:24:30Z</time>
      </trkpt>
      <trkpt lat="45.39986" lon="4.63519">
        <ele>778.2</ele>
        <time>2017-03-14T23:24:31Z</time>
      </trkpt>
      <trkpt lat="45.39988" lon="4.63511">
        <ele>774.5</ele>
        <time>2017-03-14T23:24:32Z</time>
      </trkpt>
      <trkpt lat="45.39993" lon="4.6351">
        <ele>771.3</ele>
        <time>2017-03-14T23:24:33Z</time>
      </trkpt>
      <trkpt lat="45.39989" lon="4.63506">
        <ele>773.7</ele>
        <time>2017-03-14T23:24:34Z</time>
      </trkpt>
      <trkpt lat="45.39992" lon="4.63501">
        <ele>771.5</ele>
        <time>2017-03-14T23:24:35Z</time>
      </trkpt>
      <trkpt lat="45.39987" lon="4.63495">
        <ele>774.3</ele>
        <time>2017-03-14T23:24:36Z</time>
      </trkpt>
      <trkpt lat="45.39982" lon="4.63488">
        <ele>775.2</ele>
        <time>2017-03-14T23:24:37Z</time>
      </trkpt>
      <trkpt lat="45.39982" lon="4.63481">
        <ele>774.8</ele>
        <time>2017-03-14T23:24:38Z</time>
      </trkpt>
      <trkpt lat="45.39984" lon="4.63472">
        <ele>773.3</ele>
        <time>2017-03-14T23:24:39Z</time>
      </trkpt>
      <trkpt lat="45.39982" lon="4.63463">
        <ele>774.4</ele>
        <time>2017-03-14T23:24:40Z</time>
      </trkpt>
      <trkpt lat="45.39978" lon="4.63454">
        <ele>776.6</ele>
        <time>2017-03-14T23:24:41Z</time>
      </trkpt>
      <trkpt lat="45.39967" lon="4.63456">
        <ele>780.1</ele>
        <time>2017-03-14T23:24:43Z</time>
      </trkpt>
      <trkpt lat="45.3997" lon="4.63449">
        <ele>778.8</ele>
        <time>2017-03-14T23:24:44Z</time>
      </trkpt>
      <trkpt lat="45.39965" lon="4.63447">
        <ele>780.6</ele>
        <time>2017-03-14T23:24:45Z</time>
      </trkpt>
      <trkpt lat="45.39964" lon="4.63438">
        <ele>779.8</ele>
        <time>2017-03-14T23:24:47Z</time>
      </trkpt>
      <trkpt lat="45.39964" lon="4.63432">
        <ele>779.3</ele>
        <time>2017-03-14T23:24:48Z</time>
      </trkpt>
      <trkpt lat="45.39963" lon="4.63429">
        <ele>778.8</ele>
        <time>2017-03-14T23:24:50Z</time>
      </trkpt>
      <trkpt lat="45.39961" lon="4.63425">
        <ele>779.3</ele>
        <time>2017-03-14T23:24:51Z</time>
      </trkpt>
      <trkpt lat="45.39965" lon="4.63425">
        <ele>778.5</ele>
        <time>2017-03-14T23:24:52Z</time>
      </trkpt>
      <trkpt lat="45.39969" lon="4.63423">
        <ele>776.9</ele>
        <time>2017-03-14T23:24:53Z</time>
      </trkpt>
      <trkpt lat="45.39972" lon="4.63426">
        <ele>776.6</ele>
        <time>2017-03-14T23:24:57Z</time>
      </trkpt>
      <trkpt lat="45.39975" lon="4.63425">
        <ele>775.7</ele>
        <time>2017-03-14T23:24:58Z</time>
      </trkpt>
      <trkpt lat="45.3998" lon="4.63428">
        <ele>775.2</ele>
        <time>2017-03-14T23:24:59Z</time>
      </trkpt>
      <trkpt lat="45.39986" lon="4.63432">
        <ele>773.5</ele>
        <time>2017-03-14T23:25:00Z</time>
      </trkpt>
      <trkpt lat="45.39984" lon="4.6344">
        <ele>773.4</ele>
        <time>2017-03-14T23:25:01Z</time>
      </trkpt>
      <trkpt lat="45.39986" lon="4.63444">
        <ele>773.5</ele>
        <time>2017-03-14T23:25:02Z</time>
      </trkpt>
      <trkpt lat="45.39987" lon="4.63448">
        <ele>773.6</ele>
        <time>2017-03-14T23:25:04Z</time>
      </trkpt>
      <trkpt lat="45.39991" lon="4.63452">
        <ele>771.3</ele>
        <time>2017-03-14T23:25:06Z</time>
      </trkpt>
      <trkpt lat="45.39994" lon="4.63461">
        <ele>770.5</ele>
        <time>2017-03-14T23:25:08Z</time>
      </trkpt>
      <trkpt lat="45.39993" lon="4.63469">
        <ele>770.9</ele>
        <time>2017-03-14T23:25:10Z</time>
      </trkpt>
      <trkpt lat="45.39994" lon="4.63473">
        <ele>770.9</ele>
        <time>2017-03-14T23:25:11Z</time>
      </trkpt>
      <trkpt lat="45.39996" lon="4.63476">
        <ele>769.9</ele>
        <time>2017-03-14T23:25:12Z</time>
      </trkpt>
      <trkpt lat="45.39998" lon="4.6348">
        <ele>769.8</ele>
        <time>2017-03-14T23:25:13Z</time>
      </trkpt>
      <trkpt lat="45.40001" lon="4.63485">
        <ele>768.6</ele>
        <time>2017-03-14T23:25:14Z</time>
      </trkpt>
      <trkpt lat="45.40005" lon="4.63491">
        <ele>766.4</ele>
        <time>2017-03-14T23:25:15Z</time>
      </trkpt>
      <trkpt lat="45.40005" lon="4.63498">
        <ele>767.7</ele>
        <time>2017-03-14T23:25:16Z</time>
      </trkpt>
      <trkpt lat="45.40003" lon="4.63507">
        <ele>768.6</ele>
        <time>2017-03-14T23:25:17Z</time>
      </trkpt>
      <trkpt lat="45.40005" lon="4.63512">
        <ele>768.8</ele>
        <time>2017-03-14T23:25:18Z</time>
      </trkpt>
      <trkpt lat="45.40012" lon="4.63506">
        <ele>765.4</ele>
        <time>2017-03-14T23:25:19Z</time>
      </trkpt>
      <trkpt lat="45.40018" lon="4.63511">
        <ele>764</ele>
        <time>2017-03-14T23:25:20Z</time>
      </trkpt>
      <trkpt lat="45.40017" lon="4.63516">
        <ele>764.4</ele>
        <time>2017-03-14T23:25:22Z</time>
      </trkpt>
      <trkpt lat="45.40021" lon="4.6352">
        <ele>763.4</ele>
        <time>2017-03-14T23:25:23Z</time>
      </trkpt>
      <trkpt lat="45.40024" lon="4.63522">
        <ele>762.6</ele>
        <time>2017-03-14T23:25:24Z</time>
      </trkpt>
      <trkpt lat="45.4003" lon="4.63522">
        <ele>760.9</ele>
        <time>2017-03-14T23:25:25Z</time>
      </trkpt>
      <trkpt lat="45.40032" lon="4.63527">
        <ele>760.9</ele>
        <time>2017-03-14T23:25:26Z</time>
      </trkpt>
      <trkpt lat="45.40036" lon="4.63529">
        <ele>759.4</ele>
        <time>2017-03-14T23:25:27Z</time>
      </trkpt>
      <trkpt lat="45.4004" lon="4.6353">
        <ele>758.8</ele>
        <time>2017-03-14T23:25:28Z</time>
      </trkpt>
      <trkpt lat="45.40042" lon="4.63534">
        <ele>758.2</ele>
        <time>2017-03-14T23:25:30Z</time>
      </trkpt>
      <trkpt lat="45.40046" lon="4.63536">
        <ele>757.8</ele>
        <time>2017-03-14T23:25:32Z</time>
      </trkpt>
      <trkpt lat="45.40049" lon="4.63539">
        <ele>757.4</ele>
        <time>2017-03-14T23:25:35Z</time>
      </trkpt>
      <trkpt lat="45.40055" lon="4.63542">
        <ele>756.6</ele>
        <time>2017-03-14T23:25:38Z</time>
      </trkpt>
      <trkpt lat="45.40056" lon="4.63546">
        <ele>756.3</ele>
        <time>2017-03-14T23:25:40Z</time>
      </trkpt>
      <trkpt lat="45.40054" lon="4.63552">
        <ele>756.4</ele>
        <time>2017-03-14T23:25:43Z</time>
      </trkpt>
      <trkpt lat="45.40055" lon="4.63558">
        <ele>756.4</ele>
        <time>2017-03-14T23:25:45Z</time>
      </trkpt>
      <trkpt lat="45.40056" lon="4.63566">
        <ele>755.5</ele>
        <time>2017-03-14T23:25:48Z</time>
      </trkpt>
      <trkpt lat="45.40059" lon="4.6357">
        <ele>755.5</ele>
        <time>2017-03-14T23:25:50Z</time>
      </trkpt>
      <trkpt lat="45.40062" lon="4.63573">
        <ele>754.7</ele>
        <time>2017-03-14T23:25:55Z</time>
      </trkpt>
      <trkpt lat="45.40065" lon="4.63577">
        <ele>753.9</ele>
        <time>2017-03-14T23:26:00Z</time>
      </trkpt>
      <trkpt lat="45.40067" lon="4.63581">
        <ele>753.2</ele>
        <time>2017-03-14T23:26:12Z</time>
      </trkpt>
      <trkpt lat="45.4007" lon="4.63585">
        <ele>752.4</ele>
        <time>2017-03-14T23:26:21Z</time>
      </trkpt>
      <trkpt lat="45.40073" lon="4.63589">
        <ele>751.8</ele>
        <time>2017-03-14T23:26:22Z</time>
      </trkpt>
      <trkpt lat="45.40077" lon="4.63593">
        <ele>750.7</ele>
        <time>2017-03-14T23:26:24Z</time>
      </trkpt>
      <trkpt lat="45.4008" lon="4.63595">
        <ele>749.6</ele>
        <time>2017-03-14T23:26:25Z</time>
      </trkpt>
      <trkpt lat="45.40084" lon="4.63602">
        <ele>748.5</ele>
        <time>2017-03-14T23:26:28Z</time>
      </trkpt>
      <trkpt lat="45.40087" lon="4.63606">
        <ele>747.8</ele>
        <time>2017-03-14T23:26:30Z</time>
      </trkpt>
      <trkpt lat="45.40088" lon="4.63611">
        <ele>748</ele>
        <time>2017-03-14T23:26:32Z</time>
      </trkpt>
      <trkpt lat="45.40095" lon="4.63623">
        <ele>746.9</ele>
        <time>2017-03-14T23:26:37Z</time>
      </trkpt>
      <trkpt lat="45.40098" lon="4.63625">
        <ele>746.8</ele>
        <time>2017-03-14T23:26:38Z</time>
      </trkpt>
      <trkpt lat="45.40102" lon="4.63628">
        <ele>746.5</ele>
        <time>2017-03-14T23:26:39Z</time>
      </trkpt>
      <trkpt lat="45.40104" lon="4.63631">
        <ele>746.6</ele>
        <time>2017-03-14T23:26:40Z</time>
      </trkpt>
      <trkpt lat="45.40101" lon="4.63634">
        <ele>746.7</ele>
        <time>2017-03-14T23:26:41Z</time>
      </trkpt>
      <trkpt lat="45.40104" lon="4.63636">
        <ele>746.2</ele>
        <time>2017-03-14T23:26:42Z</time>
      </trkpt>
      <trkpt lat="45.40107" lon="4.63636">
        <ele>745.6</ele>
        <time>2017-03-14T23:26:43Z</time>
      </trkpt>
      <trkpt lat="45.4011" lon="4.63638">
        <ele>745.3</ele>
        <time>2017-03-14T23:26:44Z</time>
      </trkpt>
      <trkpt lat="45.40113" lon="4.6364">
        <ele>745.4</ele>
        <time>2017-03-14T23:26:45Z</time>
      </trkpt>
      <trkpt lat="45.40118" lon="4.63635">
        <ele>745.5</ele>
        <time>2017-03-14T23:26:47Z</time>
      </trkpt>
      <trkpt lat="45.4012" lon="4.6364">
        <ele>745.2</ele>
        <time>2017-03-14T23:26:48Z</time>
      </trkpt>
      <trkpt lat="45.40123" lon="4.63644">
        <ele>744.9</ele>
        <time>2017-03-14T23:26:49Z</time>
      </trkpt>
      <trkpt lat="45.40126" lon="4.63647">
        <ele>744.7</ele>
        <time>2017-03-14T23:26:50Z</time>
      </trkpt>
      <trkpt lat="45.40132" lon="4.63653">
        <ele>745.1</ele>
        <time>2017-03-14T23:26:52Z</time>
      </trkpt>
      <trkpt lat="45.40135" lon="4.63655">
        <ele>746</ele>
        <time>2017-03-14T23:26:53Z</time>
      </trkpt>
      <trkpt lat="45.40136" lon="4.63663">
        <ele>745.2</ele>
        <time>2017-03-14T23:26:54Z</time>
      </trkpt>
      <trkpt lat="45.40139" lon="4.63667">
        <ele>745.7</ele>
        <time>2017-03-14T23:26:55Z</time>
      </trkpt>
      <trkpt lat="45.40144" lon="4.63668">
        <ele>747.5</ele>
        <time>2017-03-14T23:26:56Z</time>
      </trkpt>
      <trkpt lat="45.40147" lon="4.6367">
        <ele>747.6</ele>
        <time>2017-03-14T23:26:58Z</time>
      </trkpt>
      <trkpt lat="45.40148" lon="4.63675">
        <ele>746.6</ele>
        <time>2017-03-14T23:26:59Z</time>
      </trkpt>
      <trkpt lat="45.40149" lon="4.63681">
        <ele>745.5</ele>
        <time>2017-03-14T23:27:01Z</time>
      </trkpt>
      <trkpt lat="45.40153" lon="4.63684">
        <ele>745.9</ele>
        <time>2017-03-14T23:27:02Z</time>
      </trkpt>
      <trkpt lat="45.40157" lon="4.63686">
        <ele>746.7</ele>
        <time>2017-03-14T23:27:03Z</time>
      </trkpt>
      <trkpt lat="45.4016" lon="4.63688">
        <ele>746.5</ele>
        <time>2017-03-14T23:27:04Z</time>
      </trkpt>
      <trkpt lat="45.40168" lon="4.63691">
        <ele>749.1</ele>
        <time>2017-03-14T23:27:06Z</time>
      </trkpt>
      <trkpt lat="45.40175" lon="4.63691">
        <ele>750.9</ele>
        <time>2017-03-14T23:27:07Z</time>
      </trkpt>
      <trkpt lat="45.4018" lon="4.6369">
        <ele>753</ele>
        <time>2017-03-14T23:27:08Z</time>
      </trkpt>
      <trkpt lat="45.40175" lon="4.63692">
        <ele>750.1</ele>
        <time>2017-03-14T23:27:09Z</time>
      </trkpt>
      <trkpt lat="45.40172" lon="4.63694">
        <ele>749.2</ele>
        <time>2017-03-14T23:27:10Z</time>
      </trkpt>
      <trkpt lat="45.40176" lon="4.63691">
        <ele>751.1</ele>
        <time>2017-03-14T23:27:11Z</time>
      </trkpt>
      <trkpt lat="45.40204" lon="4.63704">
        <ele>758.4</ele>
        <time>2017-03-14T23:27:20Z</time>
      </trkpt>
      <trkpt lat="45.40211" lon="4.63707">
        <ele>760</ele>
        <time>2017-03-14T23:27:21Z</time>
      </trkpt>
      <trkpt lat="45.40215" lon="4.63713">
        <ele>760.3</ele>
        <time>2017-03-14T23:27:22Z</time>
      </trkpt>
      <trkpt lat="45.40217" lon="4.63718">
        <ele>760</ele>
        <time>2017-03-14T23:27:23Z</time>
      </trkpt>
      <trkpt lat="45.40225" lon="4.63721">
        <ele>762.8</ele>
        <time>2017-03-14T23:27:24Z</time>
      </trkpt>
      <trkpt lat="45.40226" lon="4.63725">
        <ele>763.3</ele>
        <time>2017-03-14T23:27:25Z</time>
      </trkpt>
      <trkpt lat="45.40233" lon="4.6373">
        <ele>765.1</ele>
        <time>2017-03-14T23:27:26Z</time>
      </trkpt>
      <trkpt lat="45.4024" lon="4.63735">
        <ele>765.4</ele>
        <time>2017-03-14T23:27:28Z</time>
      </trkpt>
      <trkpt lat="45.40238" lon="4.63744">
        <ele>763.2</ele>
        <time>2017-03-14T23:27:29Z</time>
      </trkpt>
      <trkpt lat="45.40241" lon="4.63747">
        <ele>764.4</ele>
        <time>2017-03-14T23:27:30Z</time>
      </trkpt>
      <trkpt lat="45.40249" lon="4.63752">
        <ele>764.6</ele>
        <time>2017-03-14T23:27:31Z</time>
      </trkpt>
      <trkpt lat="45.40253" lon="4.63758">
        <ele>764.9</ele>
        <time>2017-03-14T23:27:32Z</time>
      </trkpt>
      <trkpt lat="45.40252" lon="4.63766">
        <ele>762.2</ele>
        <time>2017-03-14T23:27:33Z</time>
      </trkpt>
      <trkpt lat="45.40259" lon="4.63772">
        <ele>762.1</ele>
        <time>2017-03-14T23:27:34Z</time>
      </trkpt>
      <trkpt lat="45.40258" lon="4.63779">
        <ele>759.2</ele>
        <time>2017-03-14T23:27:35Z</time>
      </trkpt>
      <trkpt lat="45.40257" lon="4.63789">
        <ele>756.9</ele>
        <time>2017-03-14T23:27:36Z</time>
      </trkpt>
      <trkpt lat="45.40263" lon="4.63797">
        <ele>756.2</ele>
        <time>2017-03-14T23:27:37Z</time>
      </trkpt>
      <trkpt lat="45.40265" lon="4.63805">
        <ele>755.2</ele>
        <time>2017-03-14T23:27:38Z</time>
      </trkpt>
      <trkpt lat="45.40257" lon="4.63816">
        <ele>749</ele>
        <time>2017-03-14T23:27:39Z</time>
      </trkpt>
      <trkpt lat="45.40336" lon="4.64119">
        <ele>714.7</ele>
        <time>2017-03-14T23:28:13Z</time>
      </trkpt>
      <trkpt lat="45.40344" lon="4.64118">
        <ele>717.7</ele>
        <time>2017-03-14T23:28:15Z</time>
      </trkpt>
      <trkpt lat="45.40339" lon="4.64115">
        <ele>716.6</ele>
        <time>2017-03-14T23:28:17Z</time>
      </trkpt>
      <trkpt lat="45.40328" lon="4.64119">
        <ele>713.2</ele>
        <time>2017-03-14T23:28:18Z</time>
      </trkpt>
      <trkpt lat="45.40329" lon="4.64115">
        <ele>714.1</ele>
        <time>2017-03-14T23:28:24Z</time>
      </trkpt>
      <trkpt lat="45.40322" lon="4.64116">
        <ele>712.5</ele>
        <time>2017-03-14T23:28:27Z</time>
      </trkpt>
      <trkpt lat="45.40314" lon="4.64116">
        <ele>710.3</ele>
        <time>2017-03-14T23:28:28Z</time>
      </trkpt>
      <trkpt lat="45.40308" lon="4.64118">
        <ele>708.2</ele>
        <time>2017-03-14T23:28:29Z</time>
      </trkpt>
      <trkpt lat="45.40304" lon="4.64119">
        <ele>707.7</ele>
        <time>2017-03-14T23:28:31Z</time>
      </trkpt>
      <trkpt lat="45.40299" lon="4.6412">
        <ele>706.5</ele>
        <time>2017-03-14T23:28:33Z</time>
      </trkpt>
      <trkpt lat="45.40295" lon="4.64121">
        <ele>705.2</ele>
        <time>2017-03-14T23:28:34Z</time>
      </trkpt>
      <trkpt lat="45.40291" lon="4.64121">
        <ele>704.7</ele>
        <time>2017-03-14T23:28:35Z</time>
      </trkpt>
      <trkpt lat="45.40287" lon="4.64122">
        <ele>703.6</ele>
        <time>2017-03-14T23:28:37Z</time>
      </trkpt>
      <trkpt lat="45.40284" lon="4.64124">
        <ele>703.2</ele>
        <time>2017-03-14T23:28:38Z</time>
      </trkpt>
      <trkpt lat="45.40278" lon="4.64125">
        <ele>702.2</ele>
        <time>2017-03-14T23:28:40Z</time>
      </trkpt>
      <trkpt lat="45.40276" lon="4.64127">
        <ele>701.9</ele>
        <time>2017-03-14T23:28:41Z</time>
      </trkpt>
      <trkpt lat="45.40267" lon="4.64128">
        <ele>701.4</ele>
        <time>2017-03-14T23:28:42Z</time>
      </trkpt>
      <trkpt lat="45.40263" lon="4.64129">
        <ele>701.3</ele>
        <time>2017-03-14T23:28:45Z</time>
      </trkpt>
      <trkpt lat="45.40258" lon="4.64132">
        <ele>701.3</ele>
        <time>2017-03-14T23:28:49Z</time>
      </trkpt>
      <trkpt lat="45.40256" lon="4.64139">
        <ele>701.7</ele>
        <time>2017-03-14T23:28:51Z</time>
      </trkpt>
      <trkpt lat="45.40258" lon="4.64147">
        <ele>702</ele>
        <time>2017-03-14T23:28:52Z</time>
      </trkpt>
      <trkpt lat="45.40258" lon="4.64153">
        <ele>702.4</ele>
        <time>2017-03-14T23:28:53Z</time>
      </trkpt>
      <trkpt lat="45.40256" lon="4.6416">
        <ele>703.6</ele>
        <time>2017-03-14T23:28:54Z</time>
      </trkpt>
      <trkpt lat="45.4026" lon="4.6416">
        <ele>703.2</ele>
        <time>2017-03-14T23:28:56Z</time>
      </trkpt>
      <trkpt lat="45.40264" lon="4.64164">
        <ele>703.1</ele>
        <time>2017-03-14T23:28:58Z</time>
      </trkpt>
      <trkpt lat="45.40267" lon="4.64164">
        <ele>702.2</ele>
        <time>2017-03-14T23:28:59Z</time>
      </trkpt>
      <trkpt lat="45.4027" lon="4.64165">
        <ele>701.9</ele>
        <time>2017-03-14T23:29:00Z</time>
      </trkpt>
      <trkpt lat="45.40272" lon="4.64172">
        <ele>702</ele>
        <time>2017-03-14T23:29:01Z</time>
      </trkpt>
      <trkpt lat="45.40276" lon="4.64174">
        <ele>701.2</ele>
        <time>2017-03-14T23:29:02Z</time>
      </trkpt>
      <trkpt lat="45.40274" lon="4.64179">
        <ele>701.5</ele>
        <time>2017-03-14T23:29:04Z</time>
      </trkpt>
      <trkpt lat="45.40276" lon="4.64185">
        <ele>700.9</ele>
        <time>2017-03-14T23:29:05Z</time>
      </trkpt>
      <trkpt lat="45.40279" lon="4.64192">
        <ele>700.7</ele>
        <time>2017-03-14T23:29:07Z</time>
      </trkpt>
      <trkpt lat="45.40282" lon="4.64195">
        <ele>700.1</ele>
        <time>2017-03-14T23:29:08Z</time>
      </trkpt>
      <trkpt lat="45.40285" lon="4.642">
        <ele>698.7</ele>
        <time>2017-03-14T23:29:10Z</time>
      </trkpt>
      <trkpt lat="45.40284" lon="4.64205">
        <ele>699.2</ele>
        <time>2017-03-14T23:29:11Z</time>
      </trkpt>
      <trkpt lat="45.40286" lon="4.64207">
        <ele>698.2</ele>
        <time>2017-03-14T23:29:12Z</time>
      </trkpt>
      <trkpt lat="45.40286" lon="4.64211">
        <ele>698.3</ele>
        <time>2017-03-14T23:29:13Z</time>
      </trkpt>
      <trkpt lat="45.40286" lon="4.64215">
        <ele>698.1</ele>
        <time>2017-03-14T23:29:14Z</time>
      </trkpt>
      <trkpt lat="45.40289" lon="4.64218">
        <ele>696.9</ele>
        <time>2017-03-14T23:29:15Z</time>
      </trkpt>
      <trkpt lat="45.40291" lon="4.64219">
        <ele>696.2</ele>
        <time>2017-03-14T23:29:16Z</time>
      </trkpt>
      <trkpt lat="45.40293" lon="4.64224">
        <ele>695.5</ele>
        <time>2017-03-14T23:29:17Z</time>
      </trkpt>
      <trkpt lat="45.40295" lon="4.6423">
        <ele>694.5</ele>
        <time>2017-03-14T23:29:18Z</time>
      </trkpt>
      <trkpt lat="45.40297" lon="4.64238">
        <ele>694.2</ele>
        <time>2017-03-14T23:29:19Z</time>
      </trkpt>
      <trkpt lat="45.40298" lon="4.64244">
        <ele>693.4</ele>
        <time>2017-03-14T23:29:20Z</time>
      </trkpt>
      <trkpt lat="45.40301" lon="4.64246">
        <ele>692.9</ele>
        <time>2017-03-14T23:29:21Z</time>
      </trkpt>
      <trkpt lat="45.40304" lon="4.64255">
        <ele>692.2</ele>
        <time>2017-03-14T23:29:23Z</time>
      </trkpt>
      <trkpt lat="45.40304" lon="4.64263">
        <ele>691.7</ele>
        <time>2017-03-14T23:29:24Z</time>
      </trkpt>
      <trkpt lat="45.40308" lon="4.64269">
        <ele>691.2</ele>
        <time>2017-03-14T23:29:26Z</time>
      </trkpt>
      <trkpt lat="45.40307" lon="4.64273">
        <ele>691.1</ele>
        <time>2017-03-14T23:29:27Z</time>
      </trkpt>
      <trkpt lat="45.40305" lon="4.6428">
        <ele>692.1</ele>
        <time>2017-03-14T23:29:28Z</time>
      </trkpt>
      <trkpt lat="45.40307" lon="4.64285">
        <ele>691.8</ele>
        <time>2017-03-14T23:29:29Z</time>
      </trkpt>
      <trkpt lat="45.40309" lon="4.64289">
        <ele>691.7</ele>
        <time>2017-03-14T23:29:30Z</time>
      </trkpt>
      <trkpt lat="45.40312" lon="4.64295">
        <ele>691.6</ele>
        <time>2017-03-14T23:29:32Z</time>
      </trkpt>
      <trkpt lat="45.40314" lon="4.643">
        <ele>692.1</ele>
        <time>2017-03-14T23:29:33Z</time>
      </trkpt>
      <trkpt lat="45.40317" lon="4.64307">
        <ele>692.3</ele>
        <time>2017-03-14T23:29:35Z</time>
      </trkpt>
      <trkpt lat="45.40322" lon="4.64309">
        <ele>691.2</ele>
        <time>2017-03-14T23:29:36Z</time>
      </trkpt>
      <trkpt lat="45.40322" lon="4.64317">
        <ele>691.7</ele>
        <time>2017-03-14T23:29:37Z</time>
      </trkpt>
      <trkpt lat="45.40318" lon="4.64321">
        <ele>693.4</ele>
        <time>2017-03-14T23:29:38Z</time>
      </trkpt>
      <trkpt lat="45.40325" lon="4.64325">
        <ele>691.6</ele>
        <time>2017-03-14T23:29:40Z</time>
      </trkpt>
      <trkpt lat="45.40329" lon="4.64327">
        <ele>691.5</ele>
        <time>2017-03-14T23:29:41Z</time>
      </trkpt>
      <trkpt lat="45.40333" lon="4.64329">
        <ele>691.1</ele>
        <time>2017-03-14T23:29:42Z</time>
      </trkpt>
      <trkpt lat="45.40334" lon="4.64332">
        <ele>691.2</ele>
        <time>2017-03-14T23:29:44Z</time>
      </trkpt>
      <trkpt lat="45.40335" lon="4.6434">
        <ele>692.3</ele>
        <time>2017-03-14T23:29:46Z</time>
      </trkpt>
      <trkpt lat="45.40333" lon="4.64349">
        <ele>693.7</ele>
        <time>2017-03-14T23:29:47Z</time>
      </trkpt>
      <trkpt lat="45.40333" lon="4.6436">
        <ele>695</ele>
        <time>2017-03-14T23:29:48Z</time>
      </trkpt>
      <trkpt lat="45.40332" lon="4.64365">
        <ele>696.2</ele>
        <time>2017-03-14T23:29:50Z</time>
      </trkpt>
      <trkpt lat="45.40334" lon="4.64377">
        <ele>697.1</ele>
        <time>2017-03-14T23:29:52Z</time>
      </trkpt>
      <trkpt lat="45.40338" lon="4.64384">
        <ele>697.3</ele>
        <time>2017-03-14T23:29:53Z</time>
      </trkpt>
      <trkpt lat="45.40346" lon="4.64391">
        <ele>695.8</ele>
        <time>2017-03-14T23:29:54Z</time>
      </trkpt>
      <trkpt lat="45.40341" lon="4.64397">
        <ele>698.1</ele>
        <time>2017-03-14T23:29:55Z</time>
      </trkpt>
      <trkpt lat="45.4034" lon="4.64403">
        <ele>698.8</ele>
        <time>2017-03-14T23:29:56Z</time>
      </trkpt>
      <trkpt lat="45.40346" lon="4.64408">
        <ele>697.3</ele>
        <time>2017-03-14T23:29:57Z</time>
      </trkpt>
      <trkpt lat="45.40348" lon="4.64413">
        <ele>698.2</ele>
        <time>2017-03-14T23:29:58Z</time>
      </trkpt>
      <trkpt lat="45.40349" lon="4.64419">
        <ele>697.3</ele>
        <time>2017-03-14T23:29:59Z</time>
      </trkpt>
      <trkpt lat="45.40353" lon="4.64421">
        <ele>696.1</ele>
        <time>2017-03-14T23:30:00Z</time>
      </trkpt>
      <trkpt lat="45.4035" lon="4.64425">
        <ele>697.7</ele>
        <time>2017-03-14T23:30:01Z</time>
      </trkpt>
      <trkpt lat="45.40356" lon="4.64432">
        <ele>695.7</ele>
        <time>2017-03-14T23:30:02Z</time>
      </trkpt>
      <trkpt lat="45.40359" lon="4.64436">
        <ele>694.8</ele>
        <time>2017-03-14T23:30:03Z</time>
      </trkpt>
      <trkpt lat="45.40362" lon="4.64439">
        <ele>694</ele>
        <time>2017-03-14T23:30:04Z</time>
      </trkpt>
      <trkpt lat="45.40366" lon="4.64445">
        <ele>693.1</ele>
        <time>2017-03-14T23:30:05Z</time>
      </trkpt>
      <trkpt lat="45.4037" lon="4.64455">
        <ele>691.3</ele>
        <time>2017-03-14T23:30:06Z</time>
      </trkpt>
      <trkpt lat="45.40369" lon="4.64462">
        <ele>693</ele>
        <time>2017-03-14T23:30:07Z</time>
      </trkpt>
      <trkpt lat="45.40368" lon="4.64467">
        <ele>693.4</ele>
        <time>2017-03-14T23:30:10Z</time>
      </trkpt>
      <trkpt lat="45.40373" lon="4.6447">
        <ele>691.1</ele>
        <time>2017-03-14T23:30:11Z</time>
      </trkpt>
      <trkpt lat="45.40376" lon="4.64475">
        <ele>690</ele>
        <time>2017-03-14T23:30:12Z</time>
      </trkpt>
      <trkpt lat="45.40379" lon="4.64476">
        <ele>688.8</ele>
        <time>2017-03-14T23:30:13Z</time>
      </trkpt>
      <trkpt lat="45.40382" lon="4.6448">
        <ele>687.9</ele>
        <time>2017-03-14T23:30:14Z</time>
      </trkpt>
      <trkpt lat="45.40387" lon="4.64485">
        <ele>687</ele>
        <time>2017-03-14T23:30:16Z</time>
      </trkpt>
      <trkpt lat="45.4039" lon="4.64491">
        <ele>686.4</ele>
        <time>2017-03-14T23:30:17Z</time>
      </trkpt>
      <trkpt lat="45.40391" lon="4.64495">
        <ele>685.5</ele>
        <time>2017-03-14T23:30:18Z</time>
      </trkpt>
      <trkpt lat="45.40392" lon="4.64501">
        <ele>685.8</ele>
        <time>2017-03-14T23:30:21Z</time>
      </trkpt>
      <trkpt lat="45.40396" lon="4.64503">
        <ele>684.7</ele>
        <time>2017-03-14T23:30:22Z</time>
      </trkpt>
      <trkpt lat="45.40395" lon="4.64507">
        <ele>685.1</ele>
        <time>2017-03-14T23:30:23Z</time>
      </trkpt>
      <trkpt lat="45.40397" lon="4.64512">
        <ele>684.2</ele>
        <time>2017-03-14T23:30:24Z</time>
      </trkpt>
      <trkpt lat="45.40399" lon="4.64517">
        <ele>684.8</ele>
        <time>2017-03-14T23:30:25Z</time>
      </trkpt>
      <trkpt lat="45.40402" lon="4.6452">
        <ele>683.3</ele>
        <time>2017-03-14T23:30:26Z</time>
      </trkpt>
      <trkpt lat="45.40404" lon="4.64524">
        <ele>683</ele>
        <time>2017-03-14T23:30:27Z</time>
      </trkpt>
      <trkpt lat="45.40407" lon="4.64528">
        <ele>681.7</ele>
        <time>2017-03-14T23:30:28Z</time>
      </trkpt>
      <trkpt lat="45.40409" lon="4.64533">
        <ele>681.3</ele>
        <time>2017-03-14T23:30:29Z</time>
      </trkpt>
      <trkpt lat="45.40414" lon="4.64537">
        <ele>680.5</ele>
        <time>2017-03-14T23:30:30Z</time>
      </trkpt>
      <trkpt lat="45.40417" lon="4.64544">
        <ele>679.8</ele>
        <time>2017-03-14T23:30:31Z</time>
      </trkpt>
      <trkpt lat="45.40422" lon="4.64555">
        <ele>678.8</ele>
        <time>2017-03-14T23:30:32Z</time>
      </trkpt>
      <trkpt lat="45.40417" lon="4.64563">
        <ele>682.3</ele>
        <time>2017-03-14T23:30:33Z</time>
      </trkpt>
      <trkpt lat="45.4042" lon="4.64569">
        <ele>682.1</ele>
        <time>2017-03-14T23:30:34Z</time>
      </trkpt>
      <trkpt lat="45.40421" lon="4.64576">
        <ele>682.8</ele>
        <time>2017-03-14T23:30:35Z</time>
      </trkpt>
      <trkpt lat="45.40416" lon="4.64587">
        <ele>686.8</ele>
        <time>2017-03-14T23:30:36Z</time>
      </trkpt>
      <trkpt lat="45.40413" lon="4.646">
        <ele>690.9</ele>
        <time>2017-03-14T23:30:37Z</time>
      </trkpt>
      <trkpt lat="45.40411" lon="4.64609">
        <ele>694.2</ele>
        <time>2017-03-14T23:30:38Z</time>
      </trkpt>
      <trkpt lat="45.40416" lon="4.64612">
        <ele>692.6</ele>
        <time>2017-03-14T23:30:39Z</time>
      </trkpt>
      <trkpt lat="45.40422" lon="4.64605">
        <ele>688.4</ele>
        <time>2017-03-14T23:30:40Z</time>
      </trkpt>
      <trkpt lat="45.40426" lon="4.64605">
        <ele>687.1</ele>
        <time>2017-03-14T23:30:41Z</time>
      </trkpt>
      <trkpt lat="45.40429" lon="4.64608">
        <ele>686.6</ele>
        <time>2017-03-14T23:30:42Z</time>
      </trkpt>
      <trkpt lat="45.40433" lon="4.64611">
        <ele>684.6</ele>
        <time>2017-03-14T23:30:43Z</time>
      </trkpt>
      <trkpt lat="45.40438" lon="4.64611">
        <ele>683.3</ele>
        <time>2017-03-14T23:30:44Z</time>
      </trkpt>
      <trkpt lat="45.40441" lon="4.64615">
        <ele>683</ele>
        <time>2017-03-14T23:30:46Z</time>
      </trkpt>
      <trkpt lat="45.40443" lon="4.64617">
        <ele>682</ele>
        <time>2017-03-14T23:30:47Z</time>
      </trkpt>
      <trkpt lat="45.40448" lon="4.6462">
        <ele>681.1</ele>
        <time>2017-03-14T23:30:49Z</time>
      </trkpt>
      <trkpt lat="45.40452" lon="4.64622">
        <ele>680.1</ele>
        <time>2017-03-14T23:30:50Z</time>
      </trkpt>
      <trkpt lat="45.40456" lon="4.64623">
        <ele>679.9</ele>
        <time>2017-03-14T23:30:51Z</time>
      </trkpt>
      <trkpt lat="45.40456" lon="4.64628">
        <ele>681</ele>
        <time>2017-03-14T23:30:52Z</time>
      </trkpt>
      <trkpt lat="45.4046" lon="4.6463">
        <ele>678.5</ele>
        <time>2017-03-14T23:30:53Z</time>
      </trkpt>
      <trkpt lat="45.40464" lon="4.64631">
        <ele>677.3</ele>
        <time>2017-03-14T23:30:54Z</time>
      </trkpt>
      <trkpt lat="45.4047" lon="4.64631">
        <ele>675.2</ele>
        <time>2017-03-14T23:30:55Z</time>
      </trkpt>
      <trkpt lat="45.40472" lon="4.64637">
        <ele>675.5</ele>
        <time>2017-03-14T23:30:56Z</time>
      </trkpt>
      <trkpt lat="45.40478" lon="4.64642">
        <ele>675.2</ele>
        <time>2017-03-14T23:30:58Z</time>
      </trkpt>
      <trkpt lat="45.40479" lon="4.64649">
        <ele>675.1</ele>
        <time>2017-03-14T23:30:59Z</time>
      </trkpt>
      <trkpt lat="45.40486" lon="4.64651">
        <ele>674.1</ele>
        <time>2017-03-14T23:31:01Z</time>
      </trkpt>
      <trkpt lat="45.40489" lon="4.64654">
        <ele>674.1</ele>
        <time>2017-03-14T23:31:02Z</time>
      </trkpt>
      <trkpt lat="45.40494" lon="4.6466">
        <ele>673.3</ele>
        <time>2017-03-14T23:31:03Z</time>
      </trkpt>
      <trkpt lat="45.40496" lon="4.64664">
        <ele>674.3</ele>
        <time>2017-03-14T23:31:04Z</time>
      </trkpt>
      <trkpt lat="45.40502" lon="4.64668">
        <ele>673.6</ele>
        <time>2017-03-14T23:31:05Z</time>
      </trkpt>
      <trkpt lat="45.40506" lon="4.64676">
        <ele>673.6</ele>
        <time>2017-03-14T23:31:06Z</time>
      </trkpt>
      <trkpt lat="45.40509" lon="4.6468">
        <ele>673.7</ele>
        <time>2017-03-14T23:31:07Z</time>
      </trkpt>
      <trkpt lat="45.40512" lon="4.64682">
        <ele>672.8</ele>
        <time>2017-03-14T23:31:08Z</time>
      </trkpt>
      <trkpt lat="45.40518" lon="4.64684">
        <ele>672.1</ele>
        <time>2017-03-14T23:31:09Z</time>
      </trkpt>
      <trkpt lat="45.4052" lon="4.64689">
        <ele>673</ele>
        <time>2017-03-14T23:31:10Z</time>
      </trkpt>
      <trkpt lat="45.40523" lon="4.64695">
        <ele>673</ele>
        <time>2017-03-14T23:31:12Z</time>
      </trkpt>
      <trkpt lat="45.40525" lon="4.647">
        <ele>673.1</ele>
        <time>2017-03-14T23:31:13Z</time>
      </trkpt>
      <trkpt lat="45.40527" lon="4.64702">
        <ele>673.3</ele>
        <time>2017-03-14T23:31:14Z</time>
      </trkpt>
      <trkpt lat="45.4053" lon="4.64708">
        <ele>673.4</ele>
        <time>2017-03-14T23:31:16Z</time>
      </trkpt>
      <trkpt lat="45.40534" lon="4.64714">
        <ele>674.1</ele>
        <time>2017-03-14T23:31:17Z</time>
      </trkpt>
      <trkpt lat="45.40534" lon="4.64724">
        <ele>675.4</ele>
        <time>2017-03-14T23:31:18Z</time>
      </trkpt>
      <trkpt lat="45.4053" lon="4.64735">
        <ele>678.9</ele>
        <time>2017-03-14T23:31:19Z</time>
      </trkpt>
      <trkpt lat="45.40529" lon="4.64742">
        <ele>679.7</ele>
        <time>2017-03-14T23:31:20Z</time>
      </trkpt>
      <trkpt lat="45.40535" lon="4.64744">
        <ele>679.3</ele>
        <time>2017-03-14T23:31:21Z</time>
      </trkpt>
      <trkpt lat="45.40533" lon="4.6475">
        <ele>680</ele>
        <time>2017-03-14T23:31:23Z</time>
      </trkpt>
      <trkpt lat="45.40537" lon="4.64757">
        <ele>680.1</ele>
        <time>2017-03-14T23:31:25Z</time>
      </trkpt>
      <trkpt lat="45.40542" lon="4.64763">
        <ele>678</ele>
        <time>2017-03-14T23:31:27Z</time>
      </trkpt>
      <trkpt lat="45.40545" lon="4.64765">
        <ele>677.4</ele>
        <time>2017-03-14T23:31:28Z</time>
      </trkpt>
      <trkpt lat="45.4055" lon="4.64771">
        <ele>676.7</ele>
        <time>2017-03-14T23:31:29Z</time>
      </trkpt>
      <trkpt lat="45.40553" lon="4.64773">
        <ele>674.1</ele>
        <time>2017-03-14T23:31:30Z</time>
      </trkpt>
      <trkpt lat="45.40557" lon="4.64775">
        <ele>673.6</ele>
        <time>2017-03-14T23:31:32Z</time>
      </trkpt>
      <trkpt lat="45.40562" lon="4.64776">
        <ele>672.4</ele>
        <time>2017-03-14T23:31:34Z</time>
      </trkpt>
      <trkpt lat="45.40593" lon="4.64826">
        <ele>665.4</ele>
        <time>2017-03-14T23:31:44Z</time>
      </trkpt>
      <trkpt lat="45.4059" lon="4.64831">
        <ele>666.1</ele>
        <time>2017-03-14T23:31:45Z</time>
      </trkpt>
      <trkpt lat="45.40589" lon="4.64837">
        <ele>666.4</ele>
        <time>2017-03-14T23:31:46Z</time>
      </trkpt>
      <trkpt lat="45.40585" lon="4.6484">
        <ele>666.7</ele>
        <time>2017-03-14T23:31:47Z</time>
      </trkpt>
      <trkpt lat="45.40583" lon="4.64844">
        <ele>666.9</ele>
        <time>2017-03-14T23:31:48Z</time>
      </trkpt>
      <trkpt lat="45.40578" lon="4.64853">
        <ele>667.6</ele>
        <time>2017-03-14T23:31:50Z</time>
      </trkpt>
      <trkpt lat="45.40582" lon="4.64858">
        <ele>667.9</ele>
        <time>2017-03-14T23:31:52Z</time>
      </trkpt>
      <trkpt lat="45.40581" lon="4.64865">
        <ele>668.2</ele>
        <time>2017-03-14T23:31:54Z</time>
      </trkpt>
      <trkpt lat="45.40584" lon="4.64866">
        <ele>668.3</ele>
        <time>2017-03-14T23:31:56Z</time>
      </trkpt>
      <trkpt lat="45.40584" lon="4.64872">
        <ele>668.6</ele>
        <time>2017-03-14T23:31:58Z</time>
      </trkpt>
      <trkpt lat="45.40583" lon="4.64877">
        <ele>668.8</ele>
        <time>2017-03-14T23:31:59Z</time>
      </trkpt>
      <trkpt lat="45.40581" lon="4.64882">
        <ele>669</ele>
        <time>2017-03-14T23:32:00Z</time>
      </trkpt>
      <trkpt lat="45.40583" lon="4.64887">
        <ele>669.5</ele>
        <time>2017-03-14T23:32:02Z</time>
      </trkpt>
      <trkpt lat="45.40584" lon="4.64897">
        <ele>670.4</ele>
        <time>2017-03-14T23:32:04Z</time>
      </trkpt>
      <trkpt lat="45.40585" lon="4.64903">
        <ele>670.8</ele>
        <time>2017-03-14T23:32:05Z</time>
      </trkpt>
      <trkpt lat="45.40585" lon="4.64911">
        <ele>671.2</ele>
        <time>2017-03-14T23:32:06Z</time>
      </trkpt>
      <trkpt lat="45.4059" lon="4.64914">
        <ele>671.6</ele>
        <time>2017-03-14T23:32:07Z</time>
      </trkpt>
      <trkpt lat="45.40596" lon="4.64916">
        <ele>672.1</ele>
        <time>2017-03-14T23:32:08Z</time>
      </trkpt>
      <trkpt lat="45.40595" lon="4.64923">
        <ele>672.6</ele>
        <time>2017-03-14T23:32:10Z</time>
      </trkpt>
      <trkpt lat="45.40599" lon="4.64923">
        <ele>673.4</ele>
        <time>2017-03-14T23:32:11Z</time>
      </trkpt>
      <trkpt lat="45.40597" lon="4.64926">
        <ele>673.8</ele>
        <time>2017-03-14T23:32:12Z</time>
      </trkpt>
      <trkpt lat="45.40595" lon="4.64934">
        <ele>674.4</ele>
        <time>2017-03-14T23:32:13Z</time>
      </trkpt>
      <trkpt lat="45.40596" lon="4.64938">
        <ele>674.6</ele>
        <time>2017-03-14T23:32:14Z</time>
      </trkpt>
      <trkpt lat="45.40601" lon="4.64942">
        <ele>675</ele>
        <time>2017-03-14T23:32:15Z</time>
      </trkpt>
      <trkpt lat="45.40602" lon="4.64951">
        <ele>675.5</ele>
        <time>2017-03-14T23:32:18Z</time>
      </trkpt>
      <trkpt lat="45.4059" lon="4.64954">
        <ele>676.7</ele>
        <time>2017-03-14T23:32:19Z</time>
      </trkpt>
      <trkpt lat="45.40598" lon="4.64959">
        <ele>678</ele>
        <time>2017-03-14T23:32:21Z</time>
      </trkpt>
      <trkpt lat="45.40603" lon="4.64962">
        <ele>678.4</ele>
        <time>2017-03-14T23:32:22Z</time>
      </trkpt>
      <trkpt lat="45.40599" lon="4.64964">
        <ele>678.6</ele>
        <time>2017-03-14T23:32:23Z</time>
      </trkpt>
      <trkpt lat="45.40596" lon="4.64967">
        <ele>678.9</ele>
        <time>2017-03-14T23:32:25Z</time>
      </trkpt>
      <trkpt lat="45.40596" lon="4.64971">
        <ele>679.1</ele>
        <time>2017-03-14T23:32:27Z</time>
      </trkpt>
      <trkpt lat="45.40599" lon="4.64976">
        <ele>679.3</ele>
        <time>2017-03-14T23:32:28Z</time>
      </trkpt>
      <trkpt lat="45.40601" lon="4.64979">
        <ele>679.5</ele>
        <time>2017-03-14T23:32:31Z</time>
      </trkpt>
      <trkpt lat="45.40604" lon="4.64982">
        <ele>679.7</ele>
        <time>2017-03-14T23:32:32Z</time>
      </trkpt>
      <trkpt lat="45.40601" lon="4.64986">
        <ele>680.1</ele>
        <time>2017-03-14T23:32:33Z</time>
      </trkpt>
      <trkpt lat="45.40601" lon="4.64992">
        <ele>680.8</ele>
        <time>2017-03-14T23:32:34Z</time>
      </trkpt>
      <trkpt lat="45.40604" lon="4.64995">
        <ele>681.4</ele>
        <time>2017-03-14T23:32:36Z</time>
      </trkpt>
      <trkpt lat="45.40606" lon="4.64998">
        <ele>681.8</ele>
        <time>2017-03-14T23:32:37Z</time>
      </trkpt>
      <trkpt lat="45.40607" lon="4.65005">
        <ele>682.1</ele>
        <time>2017-03-14T23:32:39Z</time>
      </trkpt>
      <trkpt lat="45.40607" lon="4.65009">
        <ele>682.3</ele>
        <time>2017-03-14T23:32:40Z</time>
      </trkpt>
      <trkpt lat="45.40607" lon="4.65013">
        <ele>682.4</ele>
        <time>2017-03-14T23:32:41Z</time>
      </trkpt>
      <trkpt lat="45.40608" lon="4.65016">
        <ele>682.7</ele>
        <time>2017-03-14T23:32:43Z</time>
      </trkpt>
      <trkpt lat="45.4061" lon="4.65023">
        <ele>682.9</ele>
        <time>2017-03-14T23:32:47Z</time>
      </trkpt>
      <trkpt lat="45.40607" lon="4.65025">
        <ele>683</ele>
        <time>2017-03-14T23:32:48Z</time>
      </trkpt>
      <trkpt lat="45.40605" lon="4.65028">
        <ele>683.1</ele>
        <time>2017-03-14T23:32:49Z</time>
      </trkpt>
      <trkpt lat="45.40605" lon="4.65039">
        <ele>683.2</ele>
        <time>2017-03-14T23:32:51Z</time>
      </trkpt>
      <trkpt lat="45.40605" lon="4.65047">
        <ele>683.3</ele>
        <time>2017-03-14T23:32:52Z</time>
      </trkpt>
      <trkpt lat="45.40607" lon="4.65053">
        <ele>683.4</ele>
        <time>2017-03-14T23:32:53Z</time>
      </trkpt>
      <trkpt lat="45.40607" lon="4.6506">
        <ele>683.5</ele>
        <time>2017-03-14T23:32:54Z</time>
      </trkpt>
      <trkpt lat="45.40614" lon="4.65066">
        <ele>683.6</ele>
        <time>2017-03-14T23:32:55Z</time>
      </trkpt>
      <trkpt lat="45.40619" lon="4.65073">
        <ele>683.7</ele>
        <time>2017-03-14T23:32:56Z</time>
      </trkpt>
      <trkpt lat="45.40618" lon="4.65085">
        <ele>683.8</ele>
        <time>2017-03-14T23:32:57Z</time>
      </trkpt>
      <trkpt lat="45.40624" lon="4.6509">
        <ele>683.9</ele>
        <time>2017-03-14T23:32:58Z</time>
      </trkpt>
      <trkpt lat="45.40632" lon="4.65099">
        <ele>684.1</ele>
        <time>2017-03-14T23:32:59Z</time>
      </trkpt>
      <trkpt lat="45.4063" lon="4.65093">
        <ele>684.1</ele>
        <time>2017-03-14T23:33:00Z</time>
      </trkpt>
      <trkpt lat="45.40632" lon="4.65099">
        <ele>684.2</ele>
        <time>2017-03-14T23:33:01Z</time>
      </trkpt>
      <trkpt lat="45.40636" lon="4.65103">
        <ele>684.2</ele>
        <time>2017-03-14T23:33:02Z</time>
      </trkpt>
      <trkpt lat="45.40641" lon="4.65108">
        <ele>681.4</ele>
        <time>2017-03-14T23:33:03Z</time>
      </trkpt>
      <trkpt lat="45.40642" lon="4.65113">
        <ele>680.3</ele>
        <time>2017-03-14T23:33:04Z</time>
      </trkpt>
      <trkpt lat="45.40647" lon="4.65118">
        <ele>676.9</ele>
        <time>2017-03-14T23:33:05Z</time>
      </trkpt>
      <trkpt lat="45.40652" lon="4.65122">
        <ele>674.4</ele>
        <time>2017-03-14T23:33:06Z</time>
      </trkpt>
      <trkpt lat="45.40651" lon="4.6513">
        <ele>672.3</ele>
        <time>2017-03-14T23:33:07Z</time>
      </trkpt>
      <trkpt lat="45.4065" lon="4.65137">
        <ele>670.9</ele>
        <time>2017-03-14T23:33:08Z</time>
      </trkpt>
      <trkpt lat="45.40654" lon="4.65143">
        <ele>667.7</ele>
        <time>2017-03-14T23:33:09Z</time>
      </trkpt>
      <trkpt lat="45.40659" lon="4.65145">
        <ele>665.9</ele>
        <time>2017-03-14T23:33:10Z</time>
      </trkpt>
      <trkpt lat="45.40656" lon="4.6515">
        <ele>664.7</ele>
        <time>2017-03-14T23:33:11Z</time>
      </trkpt>
      <trkpt lat="45.40661" lon="4.65153">
        <ele>662.5</ele>
        <time>2017-03-14T23:33:12Z</time>
      </trkpt>
      <trkpt lat="45.40664" lon="4.65155">
        <ele>660.9</ele>
        <time>2017-03-14T23:33:13Z</time>
      </trkpt>
      <trkpt lat="45.40669" lon="4.65159">
        <ele>658</ele>
        <time>2017-03-14T23:33:15Z</time>
      </trkpt>
      <trkpt lat="45.40666" lon="4.65168">
        <ele>657.1</ele>
        <time>2017-03-14T23:33:16Z</time>
      </trkpt>
      <trkpt lat="45.40664" lon="4.65176">
        <ele>657.2</ele>
        <time>2017-03-14T23:33:17Z</time>
      </trkpt>
      <trkpt lat="45.40665" lon="4.6518">
        <ele>655.2</ele>
        <time>2017-03-14T23:33:18Z</time>
      </trkpt>
      <trkpt lat="45.40673" lon="4.65181">
        <ele>652.1</ele>
        <time>2017-03-14T23:33:19Z</time>
      </trkpt>
      <trkpt lat="45.40677" lon="4.65183">
        <ele>650.2</ele>
        <time>2017-03-14T23:33:21Z</time>
      </trkpt>
      <trkpt lat="45.40675" lon="4.65188">
        <ele>649.4</ele>
        <time>2017-03-14T23:33:22Z</time>
      </trkpt>
      <trkpt lat="45.40678" lon="4.65195">
        <ele>647.8</ele>
        <time>2017-03-14T23:33:23Z</time>
      </trkpt>
      <trkpt lat="45.40684" lon="4.65203">
        <ele>645.9</ele>
        <time>2017-03-14T23:33:24Z</time>
      </trkpt>
      <trkpt lat="45.40672" lon="4.65215">
        <ele>651.2</ele>
        <time>2017-03-14T23:33:25Z</time>
      </trkpt>
      <trkpt lat="45.40657" lon="4.65227">
        <ele>658</ele>
        <time>2017-03-14T23:33:26Z</time>
      </trkpt>
      <trkpt lat="45.40655" lon="4.65235">
        <ele>660.6</ele>
        <time>2017-03-14T23:33:27Z</time>
      </trkpt>
      <trkpt lat="45.40668" lon="4.65232">
        <ele>652.3</ele>
        <time>2017-03-14T23:33:28Z</time>
      </trkpt>
      <trkpt lat="45.40675" lon="4.65232">
        <ele>649.2</ele>
        <time>2017-03-14T23:33:29Z</time>
      </trkpt>
      <trkpt lat="45.40677" lon="4.65235">
        <ele>649.1</ele>
        <time>2017-03-14T23:33:30Z</time>
      </trkpt>
      <trkpt lat="45.40679" lon="4.65236">
        <ele>647.2</ele>
        <time>2017-03-14T23:33:31Z</time>
      </trkpt>
      <trkpt lat="45.40683" lon="4.65239">
        <ele>645.8</ele>
        <time>2017-03-14T23:33:32Z</time>
      </trkpt>
      <trkpt lat="45.40685" lon="4.65244">
        <ele>644.3</ele>
        <time>2017-03-14T23:33:33Z</time>
      </trkpt>
      <trkpt lat="45.40686" lon="4.65249">
        <ele>642.9</ele>
        <time>2017-03-14T23:33:34Z</time>
      </trkpt>
      <trkpt lat="45.40683" lon="4.65255">
        <ele>644.8</ele>
        <time>2017-03-14T23:33:35Z</time>
      </trkpt>
      <trkpt lat="45.40683" lon="4.65261">
        <ele>644.9</ele>
        <time>2017-03-14T23:33:36Z</time>
      </trkpt>
      <trkpt lat="45.40682" lon="4.65266">
        <ele>646.7</ele>
        <time>2017-03-14T23:33:37Z</time>
      </trkpt>
      <trkpt lat="45.40678" lon="4.65273">
        <ele>649.3</ele>
        <time>2017-03-14T23:33:38Z</time>
      </trkpt>
      <trkpt lat="45.40677" lon="4.65277">
        <ele>649.2</ele>
        <time>2017-03-14T23:33:39Z</time>
      </trkpt>
      <trkpt lat="45.40676" lon="4.65284">
        <ele>650.5</ele>
        <time>2017-03-14T23:33:40Z</time>
      </trkpt>
      <trkpt lat="45.40681" lon="4.65287">
        <ele>647.2</ele>
        <time>2017-03-14T23:33:41Z</time>
      </trkpt>
      <trkpt lat="45.40679" lon="4.65294">
        <ele>648.5</ele>
        <time>2017-03-14T23:33:42Z</time>
      </trkpt>
      <trkpt lat="45.40679" lon="4.653">
        <ele>648.1</ele>
        <time>2017-03-14T23:33:43Z</time>
      </trkpt>
      <trkpt lat="45.40677" lon="4.6531">
        <ele>649.4</ele>
        <time>2017-03-14T23:33:45Z</time>
      </trkpt>
      <trkpt lat="45.40676" lon="4.65317">
        <ele>649.2</ele>
        <time>2017-03-14T23:33:46Z</time>
      </trkpt>
      <trkpt lat="45.40677" lon="4.65322">
        <ele>649</ele>
        <time>2017-03-14T23:33:47Z</time>
      </trkpt>
      <trkpt lat="45.40681" lon="4.65323">
        <ele>646.3</ele>
        <time>2017-03-14T23:33:48Z</time>
      </trkpt>
      <trkpt lat="45.40683" lon="4.6533">
        <ele>644.8</ele>
        <time>2017-03-14T23:33:49Z</time>
      </trkpt>
      <trkpt lat="45.4068" lon="4.65335">
        <ele>645.7</ele>
        <time>2017-03-14T23:33:50Z</time>
      </trkpt>
      <trkpt lat="45.40681" lon="4.65342">
        <ele>645.6</ele>
        <time>2017-03-14T23:33:51Z</time>
      </trkpt>
      <trkpt lat="45.40681" lon="4.65348">
        <ele>645.2</ele>
        <time>2017-03-14T23:33:53Z</time>
      </trkpt>
      <trkpt lat="45.4068" lon="4.65352">
        <ele>644.7</ele>
        <time>2017-03-14T23:33:54Z</time>
      </trkpt>
      <trkpt lat="45.40681" lon="4.65358">
        <ele>644.5</ele>
        <time>2017-03-14T23:33:55Z</time>
      </trkpt>
      <trkpt lat="45.40681" lon="4.65364">
        <ele>644</ele>
        <time>2017-03-14T23:33:56Z</time>
      </trkpt>
      <trkpt lat="45.40683" lon="4.65367">
        <ele>642.7</ele>
        <time>2017-03-14T23:33:57Z</time>
      </trkpt>
      <trkpt lat="45.40687" lon="4.6537">
        <ele>641.3</ele>
        <time>2017-03-14T23:33:58Z</time>
      </trkpt>
      <trkpt lat="45.4069" lon="4.65375">
        <ele>640.2</ele>
        <time>2017-03-14T23:33:59Z</time>
      </trkpt>
      <trkpt lat="45.4069" lon="4.65382">
        <ele>639.7</ele>
        <time>2017-03-14T23:34:00Z</time>
      </trkpt>
      <trkpt lat="45.40691" lon="4.65388">
        <ele>639.3</ele>
        <time>2017-03-14T23:34:01Z</time>
      </trkpt>
      <trkpt lat="45.40694" lon="4.65391">
        <ele>637.9</ele>
        <time>2017-03-14T23:34:02Z</time>
      </trkpt>
      <trkpt lat="45.40697" lon="4.65397">
        <ele>637</ele>
        <time>2017-03-14T23:34:03Z</time>
      </trkpt>
      <trkpt lat="45.40696" lon="4.65403">
        <ele>636.6</ele>
        <time>2017-03-14T23:34:04Z</time>
      </trkpt>
      <trkpt lat="45.40698" lon="4.65409">
        <ele>636.2</ele>
        <time>2017-03-14T23:34:05Z</time>
      </trkpt>
      <trkpt lat="45.40702" lon="4.65411">
        <ele>634.1</ele>
        <time>2017-03-14T23:34:06Z</time>
      </trkpt>
      <trkpt lat="45.40703" lon="4.65414">
        <ele>633.5</ele>
        <time>2017-03-14T23:34:07Z</time>
      </trkpt>
      <trkpt lat="45.40707" lon="4.6542">
        <ele>631.9</ele>
        <time>2017-03-14T23:34:08Z</time>
      </trkpt>
      <trkpt lat="45.40708" lon="4.6543">
        <ele>630.1</ele>
        <time>2017-03-14T23:34:09Z</time>
      </trkpt>
      <trkpt lat="45.40708" lon="4.65444">
        <ele>629</ele>
        <time>2017-03-14T23:34:10Z</time>
      </trkpt>
      <trkpt lat="45.40707" lon="4.65458">
        <ele>628.6</ele>
        <time>2017-03-14T23:34:11Z</time>
      </trkpt>
      <trkpt lat="45.40714" lon="4.65465">
        <ele>627.1</ele>
        <time>2017-03-14T23:34:12Z</time>
      </trkpt>
      <trkpt lat="45.40708" lon="4.6548">
        <ele>628.6</ele>
        <time>2017-03-14T23:34:13Z</time>
      </trkpt>
      <trkpt lat="45.40715" lon="4.65476">
        <ele>626.3</ele>
        <time>2017-03-14T23:34:14Z</time>
      </trkpt>
      <trkpt lat="45.40726" lon="4.65472">
        <ele>623</ele>
        <time>2017-03-14T23:34:15Z</time>
      </trkpt>
      <trkpt lat="45.40729" lon="4.65477">
        <ele>621.8</ele>
        <time>2017-03-14T23:34:17Z</time>
      </trkpt>
      <trkpt lat="45.40733" lon="4.65477">
        <ele>620.1</ele>
        <time>2017-03-14T23:34:18Z</time>
      </trkpt>
      <trkpt lat="45.40734" lon="4.65485">
        <ele>618.7</ele>
        <time>2017-03-14T23:34:19Z</time>
      </trkpt>
      <trkpt lat="45.40736" lon="4.65488">
        <ele>618.2</ele>
        <time>2017-03-14T23:34:20Z</time>
      </trkpt>
      <trkpt lat="45.40741" lon="4.6549">
        <ele>615.1</ele>
        <time>2017-03-14T23:34:21Z</time>
      </trkpt>
      <trkpt lat="45.40746" lon="4.65495">
        <ele>613.3</ele>
        <time>2017-03-14T23:34:22Z</time>
      </trkpt>
      <trkpt lat="45.40748" lon="4.65499">
        <ele>611.5</ele>
        <time>2017-03-14T23:34:23Z</time>
      </trkpt>
      <trkpt lat="45.40752" lon="4.65501">
        <ele>609.5</ele>
        <time>2017-03-14T23:34:24Z</time>
      </trkpt>
      <trkpt lat="45.40756" lon="4.65502">
        <ele>606</ele>
        <time>2017-03-14T23:34:25Z</time>
      </trkpt>
      <trkpt lat="45.40761" lon="4.65504">
        <ele>604</ele>
        <time>2017-03-14T23:34:26Z</time>
      </trkpt>
      <trkpt lat="45.40758" lon="4.65505">
        <ele>605</ele>
        <time>2017-03-14T23:34:27Z</time>
      </trkpt>
      <trkpt lat="45.40759" lon="4.65509">
        <ele>603.1</ele>
        <time>2017-03-14T23:34:28Z</time>
      </trkpt>
      <trkpt lat="45.40761" lon="4.65512">
        <ele>601.4</ele>
        <time>2017-03-14T23:34:29Z</time>
      </trkpt>
      <trkpt lat="45.40767" lon="4.65514">
        <ele>599.2</ele>
        <time>2017-03-14T23:34:30Z</time>
      </trkpt>
      <trkpt lat="45.40769" lon="4.65516">
        <ele>599.5</ele>
        <time>2017-03-14T23:34:31Z</time>
      </trkpt>
      <trkpt lat="45.40771" lon="4.65521">
        <ele>600.1</ele>
        <time>2017-03-14T23:34:32Z</time>
      </trkpt>
      <trkpt lat="45.40774" lon="4.65525">
        <ele>600.8</ele>
        <time>2017-03-14T23:34:33Z</time>
      </trkpt>
      <trkpt lat="45.40777" lon="4.65528">
        <ele>601.1</ele>
        <time>2017-03-14T23:34:34Z</time>
      </trkpt>
      <trkpt lat="45.40779" lon="4.65533">
        <ele>601.4</ele>
        <time>2017-03-14T23:34:35Z</time>
      </trkpt>
      <trkpt lat="45.4078" lon="4.65538">
        <ele>601.6</ele>
        <time>2017-03-14T23:34:36Z</time>
      </trkpt>
      <trkpt lat="45.40781" lon="4.65544">
        <ele>602</ele>
        <time>2017-03-14T23:34:37Z</time>
      </trkpt>
      <trkpt lat="45.40782" lon="4.65552">
        <ele>603.1</ele>
        <time>2017-03-14T23:34:38Z</time>
      </trkpt>
      <trkpt lat="45.40782" lon="4.65559">
        <ele>603.8</ele>
        <time>2017-03-14T23:34:39Z</time>
      </trkpt>
      <trkpt lat="45.40778" lon="4.6556">
        <ele>604.1</ele>
        <time>2017-03-14T23:34:40Z</time>
      </trkpt>
      <trkpt lat="45.40781" lon="4.65562">
        <ele>604.6</ele>
        <time>2017-03-14T23:34:41Z</time>
      </trkpt>
      <trkpt lat="45.40783" lon="4.65565">
        <ele>605.2</ele>
        <time>2017-03-14T23:34:42Z</time>
      </trkpt>
      <trkpt lat="45.40783" lon="4.65572">
        <ele>605.7</ele>
        <time>2017-03-14T23:34:43Z</time>
      </trkpt>
      <trkpt lat="45.40783" lon="4.65577">
        <ele>606.1</ele>
        <time>2017-03-14T23:34:45Z</time>
      </trkpt>
      <trkpt lat="45.40786" lon="4.65584">
        <ele>606.6</ele>
        <time>2017-03-14T23:34:47Z</time>
      </trkpt>
      <trkpt lat="45.40788" lon="4.6559">
        <ele>607.4</ele>
        <time>2017-03-14T23:34:49Z</time>
      </trkpt>
      <trkpt lat="45.40791" lon="4.65594">
        <ele>608.1</ele>
        <time>2017-03-14T23:34:50Z</time>
      </trkpt>
      <trkpt lat="45.40792" lon="4.65599">
        <ele>608.4</ele>
        <time>2017-03-14T23:34:51Z</time>
      </trkpt>
      <trkpt lat="45.40794" lon="4.65604">
        <ele>608.7</ele>
        <time>2017-03-14T23:34:53Z</time>
      </trkpt>
      <trkpt lat="45.40794" lon="4.65609">
        <ele>608.9</ele>
        <time>2017-03-14T23:34:54Z</time>
      </trkpt>
      <trkpt lat="45.40794" lon="4.65616">
        <ele>609.5</ele>
        <time>2017-03-14T23:34:55Z</time>
      </trkpt>
      <trkpt lat="45.40798" lon="4.65616">
        <ele>610.1</ele>
        <time>2017-03-14T23:34:56Z</time>
      </trkpt>
      <trkpt lat="45.408" lon="4.6562">
        <ele>610.4</ele>
        <time>2017-03-14T23:34:57Z</time>
      </trkpt>
      <trkpt lat="45.40802" lon="4.65626">
        <ele>610.5</ele>
        <time>2017-03-14T23:34:58Z</time>
      </trkpt>
      <trkpt lat="45.408" lon="4.65637">
        <ele>610.7</ele>
        <time>2017-03-14T23:34:59Z</time>
      </trkpt>
      <trkpt lat="45.408" lon="4.65648">
        <ele>610.8</ele>
        <time>2017-03-14T23:35:00Z</time>
      </trkpt>
      <trkpt lat="45.408" lon="4.65654">
        <ele>610.8</ele>
        <time>2017-03-14T23:35:01Z</time>
      </trkpt>
      <trkpt lat="45.408" lon="4.65662">
        <ele>610.8</ele>
        <time>2017-03-14T23:35:02Z</time>
      </trkpt>
      <trkpt lat="45.40801" lon="4.65671">
        <ele>610.8</ele>
        <time>2017-03-14T23:35:03Z</time>
      </trkpt>
      <trkpt lat="45.40802" lon="4.65677">
        <ele>610.8</ele>
        <time>2017-03-14T23:35:04Z</time>
      </trkpt>
      <trkpt lat="45.40802" lon="4.65688">
        <ele>610.8</ele>
        <time>2017-03-14T23:35:05Z</time>
      </trkpt>
      <trkpt lat="45.40799" lon="4.65697">
        <ele>610.9</ele>
        <time>2017-03-14T23:35:06Z</time>
      </trkpt>
      <trkpt lat="45.40799" lon="4.65702">
        <ele>610.9</ele>
        <time>2017-03-14T23:35:07Z</time>
      </trkpt>
      <trkpt lat="45.40804" lon="4.65708">
        <ele>610.9</ele>
        <time>2017-03-14T23:35:08Z</time>
      </trkpt>
      <trkpt lat="45.40807" lon="4.65716">
        <ele>610.9</ele>
        <time>2017-03-14T23:35:09Z</time>
      </trkpt>
      <trkpt lat="45.4081" lon="4.65719">
        <ele>610.9</ele>
        <time>2017-03-14T23:35:10Z</time>
      </trkpt>
      <trkpt lat="45.40813" lon="4.65724">
        <ele>610.9</ele>
        <time>2017-03-14T23:35:11Z</time>
      </trkpt>
      <trkpt lat="45.4081" lon="4.65732">
        <ele>610.9</ele>
        <time>2017-03-14T23:35:12Z</time>
      </trkpt>
      <trkpt lat="45.40814" lon="4.65736">
        <ele>610.9</ele>
        <time>2017-03-14T23:35:13Z</time>
      </trkpt>
      <trkpt lat="45.40817" lon="4.6574">
        <ele>610.9</ele>
        <time>2017-03-14T23:35:14Z</time>
      </trkpt>
      <trkpt lat="45.40818" lon="4.65746">
        <ele>610.9</ele>
        <time>2017-03-14T23:35:15Z</time>
      </trkpt>
      <trkpt lat="45.40815" lon="4.65756">
        <ele>610.9</ele>
        <time>2017-03-14T23:35:17Z</time>
      </trkpt>
      <trkpt lat="45.40813" lon="4.65761">
        <ele>611</ele>
        <time>2017-03-14T23:35:18Z</time>
      </trkpt>
      <trkpt lat="45.4081" lon="4.65767">
        <ele>611</ele>
        <time>2017-03-14T23:35:19Z</time>
      </trkpt>
      <trkpt lat="45.4081" lon="4.65775">
        <ele>611</ele>
        <time>2017-03-14T23:35:21Z</time>
      </trkpt>
      <trkpt lat="45.4081" lon="4.65781">
        <ele>611</ele>
        <time>2017-03-14T23:35:22Z</time>
      </trkpt>
      <trkpt lat="45.4081" lon="4.65786">
        <ele>611</ele>
        <time>2017-03-14T23:35:23Z</time>
      </trkpt>
      <trkpt lat="45.40813" lon="4.6579">
        <ele>610.9</ele>
        <time>2017-03-14T23:35:24Z</time>
      </trkpt>
      <trkpt lat="45.40812" lon="4.65797">
        <ele>610.9</ele>
        <time>2017-03-14T23:35:25Z</time>
      </trkpt>
      <trkpt lat="45.40815" lon="4.65801">
        <ele>610.9</ele>
        <time>2017-03-14T23:35:26Z</time>
      </trkpt>
      <trkpt lat="45.4081" lon="4.65807">
        <ele>610.8</ele>
        <time>2017-03-14T23:35:27Z</time>
      </trkpt>
      <trkpt lat="45.40805" lon="4.65813">
        <ele>610.8</ele>
        <time>2017-03-14T23:35:28Z</time>
      </trkpt>
      <trkpt lat="45.40807" lon="4.65816">
        <ele>610.7</ele>
        <time>2017-03-14T23:35:29Z</time>
      </trkpt>
      <trkpt lat="45.40806" lon="4.65821">
        <ele>610.7</ele>
        <time>2017-03-14T23:35:30Z</time>
      </trkpt>
      <trkpt lat="45.40801" lon="4.65828">
        <ele>610.6</ele>
        <time>2017-03-14T23:35:31Z</time>
      </trkpt>
      <trkpt lat="45.40797" lon="4.65833">
        <ele>610.5</ele>
        <time>2017-03-14T23:35:32Z</time>
      </trkpt>
      <trkpt lat="45.40794" lon="4.65837">
        <ele>610.3</ele>
        <time>2017-03-14T23:35:33Z</time>
      </trkpt>
      <trkpt lat="45.40792" lon="4.65842">
        <ele>610.1</ele>
        <time>2017-03-14T23:35:35Z</time>
      </trkpt>
      <trkpt lat="45.40787" lon="4.65844">
        <ele>609.7</ele>
        <time>2017-03-14T23:35:36Z</time>
      </trkpt>
      <trkpt lat="45.40784" lon="4.65846">
        <ele>609.6</ele>
        <time>2017-03-14T23:35:37Z</time>
      </trkpt>
      <trkpt lat="45.40779" lon="4.65849">
        <ele>609.5</ele>
        <time>2017-03-14T23:35:39Z</time>
      </trkpt>
      <trkpt lat="45.40775" lon="4.65849">
        <ele>609.4</ele>
        <time>2017-03-14T23:35:40Z</time>
      </trkpt>
      <trkpt lat="45.40772" lon="4.65851">
        <ele>609.3</ele>
        <time>2017-03-14T23:35:41Z</time>
      </trkpt>
      <trkpt lat="45.40766" lon="4.65853">
        <ele>609.2</ele>
        <time>2017-03-14T23:35:42Z</time>
      </trkpt>
      <trkpt lat="45.40759" lon="4.65855">
        <ele>609.1</ele>
        <time>2017-03-14T23:35:43Z</time>
      </trkpt>
      <trkpt lat="45.40754" lon="4.65858">
        <ele>609</ele>
        <time>2017-03-14T23:35:44Z</time>
      </trkpt>
      <trkpt lat="45.40747" lon="4.65859">
        <ele>608.8</ele>
        <time>2017-03-14T23:35:45Z</time>
      </trkpt>
      <trkpt lat="45.4074" lon="4.65859">
        <ele>608.6</ele>
        <time>2017-03-14T23:35:46Z</time>
      </trkpt>
      <trkpt lat="45.40737" lon="4.65861">
        <ele>608.5</ele>
        <time>2017-03-14T23:35:47Z</time>
      </trkpt>
      <trkpt lat="45.40733" lon="4.65863">
        <ele>608.3</ele>
        <time>2017-03-14T23:35:48Z</time>
      </trkpt>
      <trkpt lat="45.4073" lon="4.65864">
        <ele>608</ele>
        <time>2017-03-14T23:35:49Z</time>
      </trkpt>
      <trkpt lat="45.40725" lon="4.65866">
        <ele>607.6</ele>
        <time>2017-03-14T23:35:52Z</time>
      </trkpt>
      <trkpt lat="45.40717" lon="4.65869">
        <ele>606.5</ele>
        <time>2017-03-14T23:35:53Z</time>
      </trkpt>
      <trkpt lat="45.40714" lon="4.65871">
        <ele>606.1</ele>
        <time>2017-03-14T23:35:54Z</time>
      </trkpt>
      <trkpt lat="45.40709" lon="4.6587">
        <ele>606.2</ele>
        <time>2017-03-14T23:35:55Z</time>
      </trkpt>
      <trkpt lat="45.40702" lon="4.65871">
        <ele>606.5</ele>
        <time>2017-03-14T23:35:57Z</time>
      </trkpt>
      <trkpt lat="45.40698" lon="4.65873">
        <ele>606.6</ele>
        <time>2017-03-14T23:35:58Z</time>
      </trkpt>
      <trkpt lat="45.40692" lon="4.65872">
        <ele>606.8</ele>
        <time>2017-03-14T23:36:01Z</time>
      </trkpt>
      <trkpt lat="45.4069" lon="4.65872">
        <ele>606.9</ele>
        <time>2017-03-14T23:36:02Z</time>
      </trkpt>
      <trkpt lat="45.40686" lon="4.65871">
        <ele>607</ele>
        <time>2017-03-14T23:36:04Z</time>
      </trkpt>
      <trkpt lat="45.40683" lon="4.65871">
        <ele>607.2</ele>
        <time>2017-03-14T23:36:05Z</time>
      </trkpt>
      <trkpt lat="45.40678" lon="4.65872">
        <ele>607.3</ele>
        <time>2017-03-14T23:36:07Z</time>
      </trkpt>
      <trkpt lat="45.40674" lon="4.65873">
        <ele>607.5</ele>
        <time>2017-03-14T23:36:08Z</time>
      </trkpt>
      <trkpt lat="45.40669" lon="4.65874">
        <ele>607.6</ele>
        <time>2017-03-14T23:36:09Z</time>
      </trkpt>
      <trkpt lat="45.40667" lon="4.65877">
        <ele>607.7</ele>
        <time>2017-03-14T23:36:10Z</time>
      </trkpt>
      <trkpt lat="45.40664" lon="4.65875">
        <ele>607.9</ele>
        <time>2017-03-14T23:36:11Z</time>
      </trkpt>
      <trkpt lat="45.40659" lon="4.65876">
        <ele>608.2</ele>
        <time>2017-03-14T23:36:12Z</time>
      </trkpt>
      <trkpt lat="45.40653" lon="4.65877">
        <ele>608.6</ele>
        <time>2017-03-14T23:36:13Z</time>
      </trkpt>
      <trkpt lat="45.40646" lon="4.6588">
        <ele>608.8</ele>
        <time>2017-03-14T23:36:15Z</time>
      </trkpt>
      <trkpt lat="45.40641" lon="4.6588">
        <ele>608.9</ele>
        <time>2017-03-14T23:36:16Z</time>
      </trkpt>
      <trkpt lat="45.40637" lon="4.65881">
        <ele>609</ele>
        <time>2017-03-14T23:36:18Z</time>
      </trkpt>
      <trkpt lat="45.40633" lon="4.65882">
        <ele>609.1</ele>
        <time>2017-03-14T23:36:19Z</time>
      </trkpt>
      <trkpt lat="45.40628" lon="4.6588">
        <ele>609.3</ele>
        <time>2017-03-14T23:36:21Z</time>
      </trkpt>
      <trkpt lat="45.40624" lon="4.6588">
        <ele>609.4</ele>
        <time>2017-03-14T23:36:22Z</time>
      </trkpt>
      <trkpt lat="45.40621" lon="4.65881">
        <ele>609.5</ele>
        <time>2017-03-14T23:36:23Z</time>
      </trkpt>
      <trkpt lat="45.40618" lon="4.6588">
        <ele>609.6</ele>
        <time>2017-03-14T23:36:25Z</time>
      </trkpt>
      <trkpt lat="45.40613" lon="4.65879">
        <ele>609.7</ele>
        <time>2017-03-14T23:36:28Z</time>
      </trkpt>
      <trkpt lat="45.40609" lon="4.6588">
        <ele>609.8</ele>
        <time>2017-03-14T23:36:30Z</time>
      </trkpt>
      <trkpt lat="45.40606" lon="4.6588">
        <ele>609.9</ele>
        <time>2017-03-14T23:36:31Z</time>
      </trkpt>
      <trkpt lat="45.40601" lon="4.6588">
        <ele>610.1</ele>
        <time>2017-03-14T23:36:33Z</time>
      </trkpt>
      <trkpt lat="45.40597" lon="4.6588">
        <ele>610.3</ele>
        <time>2017-03-14T23:36:35Z</time>
      </trkpt>
      <trkpt lat="45.40593" lon="4.65881">
        <ele>610.5</ele>
        <time>2017-03-14T23:36:36Z</time>
      </trkpt>
      <trkpt lat="45.40588" lon="4.65882">
        <ele>610.7</ele>
        <time>2017-03-14T23:36:38Z</time>
      </trkpt>
      <trkpt lat="45.40584" lon="4.65884">
        <ele>610.9</ele>
        <time>2017-03-14T23:36:40Z</time>
      </trkpt>
      <trkpt lat="45.40579" lon="4.65884">
        <ele>611.2</ele>
        <time>2017-03-14T23:36:42Z</time>
      </trkpt>
      <trkpt lat="45.40576" lon="4.65886">
        <ele>611.4</ele>
        <time>2017-03-14T23:36:43Z</time>
      </trkpt>
      <trkpt lat="45.40573" lon="4.65889">
        <ele>611.6</ele>
        <time>2017-03-14T23:36:44Z</time>
      </trkpt>
      <trkpt lat="45.4057" lon="4.6589">
        <ele>611.7</ele>
        <time>2017-03-14T23:36:45Z</time>
      </trkpt>
      <trkpt lat="45.4057" lon="4.65896">
        <ele>611.9</ele>
        <time>2017-03-14T23:36:47Z</time>
      </trkpt>
      <trkpt lat="45.40568" lon="4.659">
        <ele>612.1</ele>
        <time>2017-03-14T23:36:48Z</time>
      </trkpt>
      <trkpt lat="45.40564" lon="4.65903">
        <ele>610.5</ele>
        <time>2017-03-14T23:36:49Z</time>
      </trkpt>
      <trkpt lat="45.40561" lon="4.65907">
        <ele>608.4</ele>
        <time>2017-03-14T23:36:50Z</time>
      </trkpt>
      <trkpt lat="45.40559" lon="4.65911">
        <ele>608.3</ele>
        <time>2017-03-14T23:36:52Z</time>
      </trkpt>
      <trkpt lat="45.40559" lon="4.65917">
        <ele>608.2</ele>
        <time>2017-03-14T23:36:54Z</time>
      </trkpt>
      <trkpt lat="45.40557" lon="4.65918">
        <ele>608.1</ele>
        <time>2017-03-14T23:36:55Z</time>
      </trkpt>
      <trkpt lat="45.40556" lon="4.65923">
        <ele>607.9</ele>
        <time>2017-03-14T23:36:56Z</time>
      </trkpt>
      <trkpt lat="45.40553" lon="4.65925">
        <ele>607.8</ele>
        <time>2017-03-14T23:36:57Z</time>
      </trkpt>
      <trkpt lat="45.40557" lon="4.65926">
        <ele>607.7</ele>
        <time>2017-03-14T23:36:58Z</time>
      </trkpt>
      <trkpt lat="45.40557" lon="4.6593">
        <ele>607.5</ele>
        <time>2017-03-14T23:36:59Z</time>
      </trkpt>
      <trkpt lat="45.4055" lon="4.65934">
        <ele>607.2</ele>
        <time>2017-03-14T23:37:00Z</time>
      </trkpt>
      <trkpt lat="45.40557" lon="4.65937">
        <ele>606.8</ele>
        <time>2017-03-14T23:37:01Z</time>
      </trkpt>
      <trkpt lat="45.40558" lon="4.65942">
        <ele>606.5</ele>
        <time>2017-03-14T23:37:02Z</time>
      </trkpt>
      <trkpt lat="45.40559" lon="4.65948">
        <ele>606.3</ele>
        <time>2017-03-14T23:37:03Z</time>
      </trkpt>
      <trkpt lat="45.40562" lon="4.65953">
        <ele>606.1</ele>
        <time>2017-03-14T23:37:04Z</time>
      </trkpt>
      <trkpt lat="45.40562" lon="4.65958">
        <ele>605.9</ele>
        <time>2017-03-14T23:37:05Z</time>
      </trkpt>
      <trkpt lat="45.40561" lon="4.65966">
        <ele>605.7</ele>
        <time>2017-03-14T23:37:06Z</time>
      </trkpt>
      <trkpt lat="45.40559" lon="4.65971">
        <ele>605.5</ele>
        <time>2017-03-14T23:37:07Z</time>
      </trkpt>
      <trkpt lat="45.40555" lon="4.6598">
        <ele>605.2</ele>
        <time>2017-03-14T23:37:08Z</time>
      </trkpt>
      <trkpt lat="45.40553" lon="4.65984">
        <ele>605</ele>
        <time>2017-03-14T23:37:09Z</time>
      </trkpt>
      <trkpt lat="45.40554" lon="4.6599">
        <ele>604.8</ele>
        <time>2017-03-14T23:37:11Z</time>
      </trkpt>
      <trkpt lat="45.40553" lon="4.65998">
        <ele>604.7</ele>
        <time>2017-03-14T23:37:13Z</time>
      </trkpt>
      <trkpt lat="45.40553" lon="4.66004">
        <ele>604.6</ele>
        <time>2017-03-14T23:37:15Z</time>
      </trkpt>
      <trkpt lat="45.40552" lon="4.66009">
        <ele>604.6</ele>
        <time>2017-03-14T23:37:16Z</time>
      </trkpt>
      <trkpt lat="45.40554" lon="4.66014">
        <ele>604.5</ele>
        <time>2017-03-14T23:37:17Z</time>
      </trkpt>
      <trkpt lat="45.40553" lon="4.66022">
        <ele>604.4</ele>
        <time>2017-03-14T23:37:18Z</time>
      </trkpt>
      <trkpt lat="45.4055" lon="4.66028">
        <ele>604.3</ele>
        <time>2017-03-14T23:37:19Z</time>
      </trkpt>
      <trkpt lat="45.40549" lon="4.66034">
        <ele>604.3</ele>
        <time>2017-03-14T23:37:20Z</time>
      </trkpt>
      <trkpt lat="45.40551" lon="4.66039">
        <ele>604.2</ele>
        <time>2017-03-14T23:37:21Z</time>
      </trkpt>
      <trkpt lat="45.4055" lon="4.66046">
        <ele>604.2</ele>
        <time>2017-03-14T23:37:22Z</time>
      </trkpt>
      <trkpt lat="45.4055" lon="4.6605">
        <ele>604.1</ele>
        <time>2017-03-14T23:37:23Z</time>
      </trkpt>
      <trkpt lat="45.40549" lon="4.66059">
        <ele>604.1</ele>
        <time>2017-03-14T23:37:25Z</time>
      </trkpt>
      <trkpt lat="45.40551" lon="4.66063">
        <ele>604.1</ele>
        <time>2017-03-14T23:37:26Z</time>
      </trkpt>
      <trkpt lat="45.40552" lon="4.66068">
        <ele>604.1</ele>
        <time>2017-03-14T23:37:27Z</time>
      </trkpt>
      <trkpt lat="45.4055" lon="4.66074">
        <ele>604</ele>
        <time>2017-03-14T23:37:28Z</time>
      </trkpt>
      <trkpt lat="45.40549" lon="4.66083">
        <ele>604</ele>
        <time>2017-03-14T23:37:30Z</time>
      </trkpt>
      <trkpt lat="45.40553" lon="4.6609">
        <ele>603.9</ele>
        <time>2017-03-14T23:37:32Z</time>
      </trkpt>
      <trkpt lat="45.40553" lon="4.66095">
        <ele>603.9</ele>
        <time>2017-03-14T23:37:33Z</time>
      </trkpt>
      <trkpt lat="45.4055" lon="4.66103">
        <ele>603.9</ele>
        <time>2017-03-14T23:37:34Z</time>
      </trkpt>
      <trkpt lat="45.40551" lon="4.66107">
        <ele>603.9</ele>
        <time>2017-03-14T23:37:35Z</time>
      </trkpt>
      <trkpt lat="45.40549" lon="4.66114">
        <ele>603.9</ele>
        <time>2017-03-14T23:37:36Z</time>
      </trkpt>
      <trkpt lat="45.40545" lon="4.66119">
        <ele>603.9</ele>
        <time>2017-03-14T23:37:37Z</time>
      </trkpt>
      <trkpt lat="45.40544" lon="4.66125">
        <ele>603.9</ele>
        <time>2017-03-14T23:37:38Z</time>
      </trkpt>
      <trkpt lat="45.40542" lon="4.6613">
        <ele>603.9</ele>
        <time>2017-03-14T23:37:39Z</time>
      </trkpt>
      <trkpt lat="45.40547" lon="4.66133">
        <ele>604</ele>
        <time>2017-03-14T23:37:40Z</time>
      </trkpt>
      <trkpt lat="45.40543" lon="4.66137">
        <ele>604</ele>
        <time>2017-03-14T23:37:42Z</time>
      </trkpt>
      <trkpt lat="45.40546" lon="4.66143">
        <ele>604</ele>
        <time>2017-03-14T23:37:44Z</time>
      </trkpt>
      <trkpt lat="45.40543" lon="4.66147">
        <ele>604</ele>
        <time>2017-03-14T23:37:46Z</time>
      </trkpt>
      <trkpt lat="45.40543" lon="4.66152">
        <ele>604.1</ele>
        <time>2017-03-14T23:37:47Z</time>
      </trkpt>
      <trkpt lat="45.40542" lon="4.66156">
        <ele>604.1</ele>
        <time>2017-03-14T23:37:48Z</time>
      </trkpt>
      <trkpt lat="45.40539" lon="4.66161">
        <ele>604.3</ele>
        <time>2017-03-14T23:37:50Z</time>
      </trkpt>
      <trkpt lat="45.40539" lon="4.66166">
        <ele>604.3</ele>
        <time>2017-03-14T23:37:51Z</time>
      </trkpt>
      <trkpt lat="45.40535" lon="4.66172">
        <ele>604.5</ele>
        <time>2017-03-14T23:37:52Z</time>
      </trkpt>
      <trkpt lat="45.40533" lon="4.66177">
        <ele>604.6</ele>
        <time>2017-03-14T23:37:53Z</time>
      </trkpt>
      <trkpt lat="45.40532" lon="4.66181">
        <ele>604.7</ele>
        <time>2017-03-14T23:37:54Z</time>
      </trkpt>
      <trkpt lat="45.40528" lon="4.66184">
        <ele>604.8</ele>
        <time>2017-03-14T23:37:55Z</time>
      </trkpt>
      <trkpt lat="45.40526" lon="4.66189">
        <ele>605</ele>
        <time>2017-03-14T23:37:56Z</time>
      </trkpt>
      <trkpt lat="45.40522" lon="4.66195">
        <ele>605.2</ele>
        <time>2017-03-14T23:37:57Z</time>
      </trkpt>
      <trkpt lat="45.40517" lon="4.66198">
        <ele>605.4</ele>
        <time>2017-03-14T23:37:58Z</time>
      </trkpt>
      <trkpt lat="45.4051" lon="4.66208">
        <ele>605.8</ele>
        <time>2017-03-14T23:37:59Z</time>
      </trkpt>
      <trkpt lat="45.4051" lon="4.66215">
        <ele>605.9</ele>
        <time>2017-03-14T23:38:01Z</time>
      </trkpt>
      <trkpt lat="45.40507" lon="4.66218">
        <ele>606.1</ele>
        <time>2017-03-14T23:38:02Z</time>
      </trkpt>
      <trkpt lat="45.40505" lon="4.66221">
        <ele>606.2</ele>
        <time>2017-03-14T23:38:03Z</time>
      </trkpt>
      <trkpt lat="45.40503" lon="4.66225">
        <ele>606.3</ele>
        <time>2017-03-14T23:38:05Z</time>
      </trkpt>
      <trkpt lat="45.40501" lon="4.6623">
        <ele>606.5</ele>
        <time>2017-03-14T23:38:06Z</time>
      </trkpt>
      <trkpt lat="45.40502" lon="4.66235">
        <ele>606.6</ele>
        <time>2017-03-14T23:38:07Z</time>
      </trkpt>
      <trkpt lat="45.405" lon="4.66239">
        <ele>606.7</ele>
        <time>2017-03-14T23:38:08Z</time>
      </trkpt>
      <trkpt lat="45.40494" lon="4.66246">
        <ele>607.1</ele>
        <time>2017-03-14T23:38:10Z</time>
      </trkpt>
      <trkpt lat="45.40497" lon="4.66247">
        <ele>607.3</ele>
        <time>2017-03-14T23:38:11Z</time>
      </trkpt>
      <trkpt lat="45.40491" lon="4.66256">
        <ele>607.6</ele>
        <time>2017-03-14T23:38:13Z</time>
      </trkpt>
      <trkpt lat="45.40491" lon="4.66262">
        <ele>607.7</ele>
        <time>2017-03-14T23:38:15Z</time>
      </trkpt>
      <trkpt lat="45.4049" lon="4.66269">
        <ele>607.8</ele>
        <time>2017-03-14T23:38:18Z</time>
      </trkpt>
      <trkpt lat="45.40493" lon="4.66272">
        <ele>607.8</ele>
        <time>2017-03-14T23:38:19Z</time>
      </trkpt>
      <trkpt lat="45.40496" lon="4.66275">
        <ele>607.9</ele>
        <time>2017-03-14T23:38:20Z</time>
      </trkpt>
      <trkpt lat="45.40497" lon="4.66279">
        <ele>608</ele>
        <time>2017-03-14T23:38:23Z</time>
      </trkpt>
      <trkpt lat="45.40499" lon="4.66281">
        <ele>608</ele>
        <time>2017-03-14T23:38:24Z</time>
      </trkpt>
      <trkpt lat="45.40499" lon="4.66285">
        <ele>608</ele>
        <time>2017-03-14T23:38:25Z</time>
      </trkpt>
      <trkpt lat="45.40498" lon="4.66291">
        <ele>608.1</ele>
        <time>2017-03-14T23:38:26Z</time>
      </trkpt>
      <trkpt lat="45.40496" lon="4.663">
        <ele>608.1</ele>
        <time>2017-03-14T23:38:27Z</time>
      </trkpt>
      <trkpt lat="45.40497" lon="4.66306">
        <ele>608.2</ele>
        <time>2017-03-14T23:38:28Z</time>
      </trkpt>
      <trkpt lat="45.40497" lon="4.66314">
        <ele>608.2</ele>
        <time>2017-03-14T23:38:29Z</time>
      </trkpt>
      <trkpt lat="45.40498" lon="4.66318">
        <ele>608.2</ele>
        <time>2017-03-14T23:38:30Z</time>
      </trkpt>
      <trkpt lat="45.40498" lon="4.66323">
        <ele>608.2</ele>
        <time>2017-03-14T23:38:31Z</time>
      </trkpt>
      <trkpt lat="45.40497" lon="4.66328">
        <ele>608.2</ele>
        <time>2017-03-14T23:38:32Z</time>
      </trkpt>
      <trkpt lat="45.40497" lon="4.66333">
        <ele>608.2</ele>
        <time>2017-03-14T23:38:33Z</time>
      </trkpt>
      <trkpt lat="45.40499" lon="4.66338">
        <ele>608.2</ele>
        <time>2017-03-14T23:38:34Z</time>
      </trkpt>
      <trkpt lat="45.40493" lon="4.66344">
        <ele>608.1</ele>
        <time>2017-03-14T23:38:35Z</time>
      </trkpt>
      <trkpt lat="45.40493" lon="4.66348">
        <ele>608.1</ele>
        <time>2017-03-14T23:38:36Z</time>
      </trkpt>
      <trkpt lat="45.40489" lon="4.66352">
        <ele>608</ele>
        <time>2017-03-14T23:38:37Z</time>
      </trkpt>
      <trkpt lat="45.40486" lon="4.66358">
        <ele>608</ele>
        <time>2017-03-14T23:38:38Z</time>
      </trkpt>
      <trkpt lat="45.40487" lon="4.66362">
        <ele>607.9</ele>
        <time>2017-03-14T23:38:40Z</time>
      </trkpt>
      <trkpt lat="45.40486" lon="4.66369">
        <ele>607.9</ele>
        <time>2017-03-14T23:38:42Z</time>
      </trkpt>
      <trkpt lat="45.40485" lon="4.66375">
        <ele>607.8</ele>
        <time>2017-03-14T23:38:43Z</time>
      </trkpt>
      <trkpt lat="45.40488" lon="4.6638">
        <ele>607.8</ele>
        <time>2017-03-14T23:38:44Z</time>
      </trkpt>
      <trkpt lat="45.40488" lon="4.66386">
        <ele>607.7</ele>
        <time>2017-03-14T23:38:45Z</time>
      </trkpt>
      <trkpt lat="45.40489" lon="4.6639">
        <ele>607.7</ele>
        <time>2017-03-14T23:38:46Z</time>
      </trkpt>
      <trkpt lat="45.40491" lon="4.66395">
        <ele>607.6</ele>
        <time>2017-03-14T23:38:47Z</time>
      </trkpt>
      <trkpt lat="45.40492" lon="4.664">
        <ele>607.6</ele>
        <time>2017-03-14T23:38:48Z</time>
      </trkpt>
      <trkpt lat="45.40494" lon="4.66405">
        <ele>607.5</ele>
        <time>2017-03-14T23:38:49Z</time>
      </trkpt>
      <trkpt lat="45.40491" lon="4.66411">
        <ele>607.5</ele>
        <time>2017-03-14T23:38:50Z</time>
      </trkpt>
      <trkpt lat="45.40491" lon="4.66421">
        <ele>607.4</ele>
        <time>2017-03-14T23:38:51Z</time>
      </trkpt>
      <trkpt lat="45.40491" lon="4.66428">
        <ele>607.4</ele>
        <time>2017-03-14T23:38:53Z</time>
      </trkpt>
      <trkpt lat="45.40495" lon="4.66433">
        <ele>607.3</ele>
        <time>2017-03-14T23:38:54Z</time>
      </trkpt>
      <trkpt lat="45.40491" lon="4.66443">
        <ele>607.3</ele>
        <time>2017-03-14T23:38:55Z</time>
      </trkpt>
      <trkpt lat="45.40485" lon="4.6645">
        <ele>607.2</ele>
        <time>2017-03-14T23:38:56Z</time>
      </trkpt>
      <trkpt lat="45.40492" lon="4.66456">
        <ele>607.1</ele>
        <time>2017-03-14T23:39:00Z</time>
      </trkpt>
      <trkpt lat="45.4049" lon="4.6646">
        <ele>607.1</ele>
        <time>2017-03-14T23:39:01Z</time>
      </trkpt>
      <trkpt lat="45.40494" lon="4.66464">
        <ele>607</ele>
        <time>2017-03-14T23:39:03Z</time>
      </trkpt>
      <trkpt lat="45.40499" lon="4.6647">
        <ele>607</ele>
        <time>2017-03-14T23:39:04Z</time>
      </trkpt>
      <trkpt lat="45.40494" lon="4.66473">
        <ele>606.9</ele>
        <time>2017-03-14T23:39:05Z</time>
      </trkpt>
      <trkpt lat="45.4049" lon="4.66481">
        <ele>606.9</ele>
        <time>2017-03-14T23:39:06Z</time>
      </trkpt>
      <trkpt lat="45.40489" lon="4.66488">
        <ele>606.9</ele>
        <time>2017-03-14T23:39:08Z</time>
      </trkpt>
      <trkpt lat="45.40492" lon="4.66497">
        <ele>606.9</ele>
        <time>2017-03-14T23:39:10Z</time>
      </trkpt>
      <trkpt lat="45.40495" lon="4.66501">
        <ele>607</ele>
        <time>2017-03-14T23:39:11Z</time>
      </trkpt>
      <trkpt lat="45.40492" lon="4.66505">
        <ele>607</ele>
        <time>2017-03-14T23:39:12Z</time>
      </trkpt>
      <trkpt lat="45.40491" lon="4.66512">
        <ele>607.1</ele>
        <time>2017-03-14T23:39:14Z</time>
      </trkpt>
      <trkpt lat="45.40491" lon="4.66517">
        <ele>607.1</ele>
        <time>2017-03-14T23:39:15Z</time>
      </trkpt>
      <trkpt lat="45.40487" lon="4.66523">
        <ele>607.2</ele>
        <time>2017-03-14T23:39:16Z</time>
      </trkpt>
      <trkpt lat="45.40487" lon="4.66528">
        <ele>607.3</ele>
        <time>2017-03-14T23:39:17Z</time>
      </trkpt>
      <trkpt lat="45.40485" lon="4.66536">
        <ele>607.4</ele>
        <time>2017-03-14T23:39:19Z</time>
      </trkpt>
      <trkpt lat="45.40488" lon="4.66539">
        <ele>607.5</ele>
        <time>2017-03-14T23:39:20Z</time>
      </trkpt>
      <trkpt lat="45.40489" lon="4.66547">
        <ele>607.6</ele>
        <time>2017-03-14T23:39:22Z</time>
      </trkpt>
      <trkpt lat="45.4049" lon="4.66553">
        <ele>607.7</ele>
        <time>2017-03-14T23:39:23Z</time>
      </trkpt>
      <trkpt lat="45.40488" lon="4.66558">
        <ele>607.8</ele>
        <time>2017-03-14T23:39:24Z</time>
      </trkpt>
      <trkpt lat="45.40493" lon="4.66564">
        <ele>608</ele>
        <time>2017-03-14T23:39:25Z</time>
      </trkpt>
      <trkpt lat="45.40496" lon="4.66567">
        <ele>608.1</ele>
        <time>2017-03-14T23:39:26Z</time>
      </trkpt>
      <trkpt lat="45.40492" lon="4.66573">
        <ele>608.2</ele>
        <time>2017-03-14T23:39:27Z</time>
      </trkpt>
      <trkpt lat="45.40492" lon="4.66579">
        <ele>608.3</ele>
        <time>2017-03-14T23:39:28Z</time>
      </trkpt>
      <trkpt lat="45.40491" lon="4.66585">
        <ele>608.3</ele>
        <time>2017-03-14T23:39:30Z</time>
      </trkpt>
      <trkpt lat="45.40488" lon="4.66591">
        <ele>608.3</ele>
        <time>2017-03-14T23:39:32Z</time>
      </trkpt>
      <trkpt lat="45.40488" lon="4.66596">
        <ele>608.3</ele>
        <time>2017-03-14T23:39:33Z</time>
      </trkpt>
      <trkpt lat="45.40486" lon="4.66602">
        <ele>608.3</ele>
        <time>2017-03-14T23:39:34Z</time>
      </trkpt>
      <trkpt lat="45.40484" lon="4.66608">
        <ele>608.3</ele>
        <time>2017-03-14T23:39:35Z</time>
      </trkpt>
      <trkpt lat="45.40482" lon="4.66617">
        <ele>608.2</ele>
        <time>2017-03-14T23:39:37Z</time>
      </trkpt>
      <trkpt lat="45.40482" lon="4.66622">
        <ele>608.2</ele>
        <time>2017-03-14T23:39:38Z</time>
      </trkpt>
      <trkpt lat="45.40481" lon="4.66627">
        <ele>608.1</ele>
        <time>2017-03-14T23:39:39Z</time>
      </trkpt>
      <trkpt lat="45.40476" lon="4.66631">
        <ele>608</ele>
        <time>2017-03-14T23:39:40Z</time>
      </trkpt>
      <trkpt lat="45.40475" lon="4.66636">
        <ele>608</ele>
        <time>2017-03-14T23:39:41Z</time>
      </trkpt>
      <trkpt lat="45.40471" lon="4.66642">
        <ele>607.9</ele>
        <time>2017-03-14T23:39:42Z</time>
      </trkpt>
      <trkpt lat="45.40473" lon="4.66647">
        <ele>607.8</ele>
        <time>2017-03-14T23:39:44Z</time>
      </trkpt>
      <trkpt lat="45.4047" lon="4.66651">
        <ele>607.7</ele>
        <time>2017-03-14T23:39:46Z</time>
      </trkpt>
      <trkpt lat="45.40466" lon="4.66654">
        <ele>608.5</ele>
        <time>2017-03-14T23:39:47Z</time>
      </trkpt>
      <trkpt lat="45.40464" lon="4.66658">
        <ele>608.3</ele>
        <time>2017-03-14T23:39:48Z</time>
      </trkpt>
      <trkpt lat="45.40461" lon="4.66665">
        <ele>608.7</ele>
        <time>2017-03-14T23:39:50Z</time>
      </trkpt>
      <trkpt lat="45.40457" lon="4.66667">
        <ele>609.1</ele>
        <time>2017-03-14T23:39:51Z</time>
      </trkpt>
      <trkpt lat="45.40453" lon="4.6667">
        <ele>610</ele>
        <time>2017-03-14T23:39:53Z</time>
      </trkpt>
      <trkpt lat="45.40452" lon="4.66676">
        <ele>610</ele>
        <time>2017-03-14T23:39:55Z</time>
      </trkpt>
      <trkpt lat="45.4045" lon="4.66679">
        <ele>610.6</ele>
        <time>2017-03-14T23:39:56Z</time>
      </trkpt>
      <trkpt lat="45.40448" lon="4.66685">
        <ele>611.2</ele>
        <time>2017-03-14T23:39:59Z</time>
      </trkpt>
      <trkpt lat="45.40442" lon="4.66691">
        <ele>612.1</ele>
        <time>2017-03-14T23:40:01Z</time>
      </trkpt>
      <trkpt lat="45.4044" lon="4.66695">
        <ele>612.4</ele>
        <time>2017-03-14T23:40:02Z</time>
      </trkpt>
      <trkpt lat="45.40438" lon="4.66699">
        <ele>613</ele>
        <time>2017-03-14T23:40:03Z</time>
      </trkpt>
      <trkpt lat="45.40436" lon="4.66702">
        <ele>613.3</ele>
        <time>2017-03-14T23:40:05Z</time>
      </trkpt>
      <trkpt lat="45.4043" lon="4.66708">
        <ele>614.2</ele>
        <time>2017-03-14T23:40:07Z</time>
      </trkpt>
      <trkpt lat="45.40425" lon="4.66711">
        <ele>615</ele>
        <time>2017-03-14T23:40:09Z</time>
      </trkpt>
      <trkpt lat="45.40427" lon="4.66714">
        <ele>615.1</ele>
        <time>2017-03-14T23:40:11Z</time>
      </trkpt>
      <trkpt lat="45.40425" lon="4.66716">
        <ele>615.2</ele>
        <time>2017-03-14T23:40:12Z</time>
      </trkpt>
      <trkpt lat="45.4042" lon="4.66718">
        <ele>615.7</ele>
        <time>2017-03-14T23:40:13Z</time>
      </trkpt>
      <trkpt lat="45.40418" lon="4.66721">
        <ele>615.6</ele>
        <time>2017-03-14T23:40:15Z</time>
      </trkpt>
      <trkpt lat="45.40415" lon="4.6673">
        <ele>616</ele>
        <time>2017-03-14T23:40:17Z</time>
      </trkpt>
      <trkpt lat="45.40409" lon="4.66735">
        <ele>616.1</ele>
        <time>2017-03-14T23:40:18Z</time>
      </trkpt>
      <trkpt lat="45.40408" lon="4.66745">
        <ele>616.1</ele>
        <time>2017-03-14T23:40:21Z</time>
      </trkpt>
      <trkpt lat="45.40412" lon="4.66747">
        <ele>616.5</ele>
        <time>2017-03-14T23:40:22Z</time>
      </trkpt>
      <trkpt lat="45.40412" lon="4.66752">
        <ele>616.5</ele>
        <time>2017-03-14T23:40:23Z</time>
      </trkpt>
      <trkpt lat="45.40409" lon="4.66754">
        <ele>616.4</ele>
        <time>2017-03-14T23:40:24Z</time>
      </trkpt>
      <trkpt lat="45.40404" lon="4.66759">
        <ele>616.1</ele>
        <time>2017-03-14T23:40:26Z</time>
      </trkpt>
      <trkpt lat="45.404" lon="4.66762">
        <ele>616</ele>
        <time>2017-03-14T23:40:27Z</time>
      </trkpt>
      <trkpt lat="45.40392" lon="4.6677">
        <ele>615.7</ele>
        <time>2017-03-14T23:40:28Z</time>
      </trkpt>
      <trkpt lat="45.40386" lon="4.66775">
        <ele>615.5</ele>
        <time>2017-03-14T23:40:29Z</time>
      </trkpt>
      <trkpt lat="45.40384" lon="4.66779">
        <ele>615.4</ele>
        <time>2017-03-14T23:40:30Z</time>
      </trkpt>
      <trkpt lat="45.40383" lon="4.66783">
        <ele>615.2</ele>
        <time>2017-03-14T23:40:31Z</time>
      </trkpt>
      <trkpt lat="45.40381" lon="4.66787">
        <ele>615.1</ele>
        <time>2017-03-14T23:40:32Z</time>
      </trkpt>
      <trkpt lat="45.40378" lon="4.66792">
        <ele>614.9</ele>
        <time>2017-03-14T23:40:34Z</time>
      </trkpt>
      <trkpt lat="45.40375" lon="4.66795">
        <ele>614.7</ele>
        <time>2017-03-14T23:40:35Z</time>
      </trkpt>
      <trkpt lat="45.40375" lon="4.668">
        <ele>614.5</ele>
        <time>2017-03-14T23:40:37Z</time>
      </trkpt>
      <trkpt lat="45.40374" lon="4.66803">
        <ele>614.2</ele>
        <time>2017-03-14T23:40:38Z</time>
      </trkpt>
      <trkpt lat="45.40371" lon="4.66806">
        <ele>614.2</ele>
        <time>2017-03-14T23:40:39Z</time>
      </trkpt>
      <trkpt lat="45.4036" lon="4.66811">
        <ele>614</ele>
        <time>2017-03-14T23:40:40Z</time>
      </trkpt>
      <trkpt lat="45.40357" lon="4.66813">
        <ele>613.8</ele>
        <time>2017-03-14T23:40:41Z</time>
      </trkpt>
      <trkpt lat="45.40355" lon="4.66816">
        <ele>613.8</ele>
        <time>2017-03-14T23:40:42Z</time>
      </trkpt>
      <trkpt lat="45.40352" lon="4.66818">
        <ele>613.6</ele>
        <time>2017-03-14T23:40:43Z</time>
      </trkpt>
      <trkpt lat="45.40349" lon="4.66822">
        <ele>613.5</ele>
        <time>2017-03-14T23:40:45Z</time>
      </trkpt>
      <trkpt lat="45.40346" lon="4.66826">
        <ele>613.4</ele>
        <time>2017-03-14T23:40:46Z</time>
      </trkpt>
      <trkpt lat="45.40345" lon="4.6683">
        <ele>613.4</ele>
        <time>2017-03-14T23:40:48Z</time>
      </trkpt>
      <trkpt lat="45.40344" lon="4.66834">
        <ele>613.4</ele>
        <time>2017-03-14T23:40:50Z</time>
      </trkpt>
      <trkpt lat="45.40342" lon="4.66838">
        <ele>613.4</ele>
        <time>2017-03-14T23:40:51Z</time>
      </trkpt>
      <trkpt lat="45.4034" lon="4.66843">
        <ele>613.3</ele>
        <time>2017-03-14T23:40:52Z</time>
      </trkpt>
      <trkpt lat="45.40341" lon="4.66847">
        <ele>613.2</ele>
        <time>2017-03-14T23:40:53Z</time>
      </trkpt>
      <trkpt lat="45.4034" lon="4.66851">
        <ele>613</ele>
        <time>2017-03-14T23:40:56Z</time>
      </trkpt>
      <trkpt lat="45.40332" lon="4.66855">
        <ele>613.1</ele>
        <time>2017-03-14T23:40:58Z</time>
      </trkpt>
      <trkpt lat="45.4033" lon="4.66858">
        <ele>613.1</ele>
        <time>2017-03-14T23:40:59Z</time>
      </trkpt>
      <trkpt lat="45.40327" lon="4.66862">
        <ele>613</ele>
        <time>2017-03-14T23:41:00Z</time>
      </trkpt>
      <trkpt lat="45.40323" lon="4.66867">
        <ele>612.7</ele>
        <time>2017-03-14T23:41:01Z</time>
      </trkpt>
      <trkpt lat="45.40326" lon="4.66871">
        <ele>612.6</ele>
        <time>2017-03-14T23:41:04Z</time>
      </trkpt>
      <trkpt lat="45.40328" lon="4.66873">
        <ele>612.5</ele>
        <time>2017-03-14T23:41:05Z</time>
      </trkpt>
      <trkpt lat="45.40335" lon="4.66876">
        <ele>612.3</ele>
        <time>2017-03-14T23:41:06Z</time>
      </trkpt>
      <trkpt lat="45.40337" lon="4.66878">
        <ele>612.1</ele>
        <time>2017-03-14T23:41:07Z</time>
      </trkpt>
      <trkpt lat="45.40341" lon="4.66883">
        <ele>611.9</ele>
        <time>2017-03-14T23:41:09Z</time>
      </trkpt>
      <trkpt lat="45.40347" lon="4.66885">
        <ele>611.6</ele>
        <time>2017-03-14T23:41:11Z</time>
      </trkpt>
      <trkpt lat="45.4035" lon="4.66886">
        <ele>611.5</ele>
        <time>2017-03-14T23:41:12Z</time>
      </trkpt>
      <trkpt lat="45.40355" lon="4.66887">
        <ele>611.4</ele>
        <time>2017-03-14T23:41:13Z</time>
      </trkpt>
      <trkpt lat="45.4036" lon="4.66886">
        <ele>611.5</ele>
        <time>2017-03-14T23:41:14Z</time>
      </trkpt>
      <trkpt lat="45.40364" lon="4.66885">
        <ele>611.7</ele>
        <time>2017-03-14T23:41:15Z</time>
      </trkpt>
      <trkpt lat="45.40368" lon="4.66884">
        <ele>611.8</ele>
        <time>2017-03-14T23:41:16Z</time>
      </trkpt>
      <trkpt lat="45.40373" lon="4.66883">
        <ele>612</ele>
        <time>2017-03-14T23:41:18Z</time>
      </trkpt>
      <trkpt lat="45.40379" lon="4.66881">
        <ele>612.1</ele>
        <time>2017-03-14T23:41:19Z</time>
      </trkpt>
      <trkpt lat="45.40383" lon="4.66879">
        <ele>612.1</ele>
        <time>2017-03-14T23:41:20Z</time>
      </trkpt>
      <trkpt lat="45.40386" lon="4.66877">
        <ele>612.1</ele>
        <time>2017-03-14T23:41:21Z</time>
      </trkpt>
      <trkpt lat="45.4039" lon="4.66875">
        <ele>612</ele>
        <time>2017-03-14T23:41:22Z</time>
      </trkpt>
      <trkpt lat="45.40394" lon="4.66874">
        <ele>612</ele>
        <time>2017-03-14T23:41:24Z</time>
      </trkpt>
      <trkpt lat="45.40397" lon="4.66873">
        <ele>611.9</ele>
        <time>2017-03-14T23:41:25Z</time>
      </trkpt>
      <trkpt lat="45.40401" lon="4.6687">
        <ele>611.9</ele>
        <time>2017-03-14T23:41:27Z</time>
      </trkpt>
      <trkpt lat="45.40405" lon="4.66869">
        <ele>611.8</ele>
        <time>2017-03-14T23:41:29Z</time>
      </trkpt>
      <trkpt lat="45.40409" lon="4.66865">
        <ele>611.7</ele>
        <time>2017-03-14T23:41:30Z</time>
      </trkpt>
      <trkpt lat="45.40414" lon="4.66863">
        <ele>611.6</ele>
        <time>2017-03-14T23:41:31Z</time>
      </trkpt>
      <trkpt lat="45.4042" lon="4.6686">
        <ele>611.4</ele>
        <time>2017-03-14T23:41:32Z</time>
      </trkpt>
      <trkpt lat="45.40424" lon="4.66861">
        <ele>611.3</ele>
        <time>2017-03-14T23:41:34Z</time>
      </trkpt>
      <trkpt lat="45.40428" lon="4.66859">
        <ele>611.3</ele>
        <time>2017-03-14T23:41:36Z</time>
      </trkpt>
      <trkpt lat="45.40434" lon="4.6686">
        <ele>611.2</ele>
        <time>2017-03-14T23:41:38Z</time>
      </trkpt>
      <trkpt lat="45.40437" lon="4.66857">
        <ele>611.2</ele>
        <time>2017-03-14T23:41:39Z</time>
      </trkpt>
      <trkpt lat="45.40441" lon="4.66857">
        <ele>611.1</ele>
        <time>2017-03-14T23:41:40Z</time>
      </trkpt>
      <trkpt lat="45.40445" lon="4.66856">
        <ele>611.1</ele>
        <time>2017-03-14T23:41:41Z</time>
      </trkpt>
      <trkpt lat="45.40451" lon="4.66857">
        <ele>611</ele>
        <time>2017-03-14T23:41:42Z</time>
      </trkpt>
      <trkpt lat="45.40453" lon="4.66861">
        <ele>610.9</ele>
        <time>2017-03-14T23:41:43Z</time>
      </trkpt>
      <trkpt lat="45.40457" lon="4.6686">
        <ele>610.9</ele>
        <time>2017-03-14T23:41:45Z</time>
      </trkpt>
      <trkpt lat="45.4046" lon="4.6686">
        <ele>610.8</ele>
        <time>2017-03-14T23:41:46Z</time>
      </trkpt>
      <trkpt lat="45.40466" lon="4.66859">
        <ele>610.7</ele>
        <time>2017-03-14T23:41:47Z</time>
      </trkpt>
      <trkpt lat="45.40469" lon="4.6686">
        <ele>610.7</ele>
        <time>2017-03-14T23:41:48Z</time>
      </trkpt>
      <trkpt lat="45.40471" lon="4.66865">
        <ele>610.5</ele>
        <time>2017-03-14T23:41:49Z</time>
      </trkpt>
      <trkpt lat="45.40475" lon="4.6687">
        <ele>610.3</ele>
        <time>2017-03-14T23:41:51Z</time>
      </trkpt>
      <trkpt lat="45.40479" lon="4.66872">
        <ele>610.2</ele>
        <time>2017-03-14T23:41:53Z</time>
      </trkpt>
      <trkpt lat="45.40483" lon="4.66872">
        <ele>610.1</ele>
        <time>2017-03-14T23:41:54Z</time>
      </trkpt>
      <trkpt lat="45.40485" lon="4.66874">
        <ele>610</ele>
        <time>2017-03-14T23:41:55Z</time>
      </trkpt>
      <trkpt lat="45.40489" lon="4.66873">
        <ele>609.9</ele>
        <time>2017-03-14T23:41:56Z</time>
      </trkpt>
      <trkpt lat="45.40495" lon="4.66874">
        <ele>609.7</ele>
        <time>2017-03-14T23:41:58Z</time>
      </trkpt>
      <trkpt lat="45.40498" lon="4.66877">
        <ele>609.5</ele>
        <time>2017-03-14T23:42:00Z</time>
      </trkpt>
      <trkpt lat="45.40502" lon="4.66877">
        <ele>609.4</ele>
        <time>2017-03-14T23:42:01Z</time>
      </trkpt>
      <trkpt lat="45.40505" lon="4.66877">
        <ele>609.3</ele>
        <time>2017-03-14T23:42:02Z</time>
      </trkpt>
      <trkpt lat="45.4051" lon="4.66879">
        <ele>609.1</ele>
        <time>2017-03-14T23:42:04Z</time>
      </trkpt>
      <trkpt lat="45.40514" lon="4.66883">
        <ele>609</ele>
        <time>2017-03-14T23:42:05Z</time>
      </trkpt>
      <trkpt lat="45.40521" lon="4.66887">
        <ele>608.5</ele>
        <time>2017-03-14T23:42:06Z</time>
      </trkpt>
      <trkpt lat="45.40525" lon="4.66889">
        <ele>608.2</ele>
        <time>2017-03-14T23:42:08Z</time>
      </trkpt>
      <trkpt lat="45.40528" lon="4.66892">
        <ele>607.9</ele>
        <time>2017-03-14T23:42:09Z</time>
      </trkpt>
      <trkpt lat="45.40531" lon="4.66894">
        <ele>607.7</ele>
        <time>2017-03-14T23:42:10Z</time>
      </trkpt>
      <trkpt lat="45.40537" lon="4.66899">
        <ele>607.3</ele>
        <time>2017-03-14T23:42:11Z</time>
      </trkpt>
      <trkpt lat="45.40541" lon="4.66901">
        <ele>607</ele>
        <time>2017-03-14T23:42:12Z</time>
      </trkpt>
      <trkpt lat="45.40545" lon="4.66904">
        <ele>606.6</ele>
        <time>2017-03-14T23:42:13Z</time>
      </trkpt>
      <trkpt lat="45.4055" lon="4.66907">
        <ele>606.1</ele>
        <time>2017-03-14T23:42:14Z</time>
      </trkpt>
      <trkpt lat="45.4055" lon="4.66912">
        <ele>605.7</ele>
        <time>2017-03-14T23:42:16Z</time>
      </trkpt>
      <trkpt lat="45.40554" lon="4.66914">
        <ele>605.3</ele>
        <time>2017-03-14T23:42:17Z</time>
      </trkpt>
      <trkpt lat="45.4056" lon="4.66918">
        <ele>604.7</ele>
        <time>2017-03-14T23:42:18Z</time>
      </trkpt>
      <trkpt lat="45.40563" lon="4.66919">
        <ele>604.4</ele>
        <time>2017-03-14T23:42:19Z</time>
      </trkpt>
      <trkpt lat="45.40565" lon="4.66923">
        <ele>604.1</ele>
        <time>2017-03-14T23:42:20Z</time>
      </trkpt>
      <trkpt lat="45.40567" lon="4.66925">
        <ele>603.9</ele>
        <time>2017-03-14T23:42:21Z</time>
      </trkpt>
      <trkpt lat="45.40572" lon="4.66928">
        <ele>603.5</ele>
        <time>2017-03-14T23:42:22Z</time>
      </trkpt>
      <trkpt lat="45.40574" lon="4.66931">
        <ele>603.3</ele>
        <time>2017-03-14T23:42:23Z</time>
      </trkpt>
      <trkpt lat="45.40577" lon="4.66935">
        <ele>602.8</ele>
        <time>2017-03-14T23:42:25Z</time>
      </trkpt>
      <trkpt lat="45.40579" lon="4.66939">
        <ele>602.4</ele>
        <time>2017-03-14T23:42:26Z</time>
      </trkpt>
      <trkpt lat="45.40581" lon="4.66942">
        <ele>602.1</ele>
        <time>2017-03-14T23:42:27Z</time>
      </trkpt>
      <trkpt lat="45.40584" lon="4.66944">
        <ele>601.9</ele>
        <time>2017-03-14T23:42:28Z</time>
      </trkpt>
      <trkpt lat="45.40586" lon="4.66948">
        <ele>601.7</ele>
        <time>2017-03-14T23:42:29Z</time>
      </trkpt>
      <trkpt lat="45.40591" lon="4.66955">
        <ele>601.2</ele>
        <time>2017-03-14T23:42:31Z</time>
      </trkpt>
      <trkpt lat="45.40596" lon="4.66964">
        <ele>600.6</ele>
        <time>2017-03-14T23:42:32Z</time>
      </trkpt>
      <trkpt lat="45.40601" lon="4.66971">
        <ele>600.1</ele>
        <time>2017-03-14T23:42:34Z</time>
      </trkpt>
      <trkpt lat="45.40604" lon="4.66976">
        <ele>599.9</ele>
        <time>2017-03-14T23:42:35Z</time>
      </trkpt>
      <trkpt lat="45.40607" lon="4.6698">
        <ele>599.7</ele>
        <time>2017-03-14T23:42:36Z</time>
      </trkpt>
      <trkpt lat="45.40616" lon="4.66987">
        <ele>599.6</ele>
        <time>2017-03-14T23:42:37Z</time>
      </trkpt>
      <trkpt lat="45.40618" lon="4.66991">
        <ele>599.5</ele>
        <time>2017-03-14T23:42:39Z</time>
      </trkpt>
      <trkpt lat="45.40622" lon="4.66995">
        <ele>599.5</ele>
        <time>2017-03-14T23:42:40Z</time>
      </trkpt>
      <trkpt lat="45.40625" lon="4.67">
        <ele>599.4</ele>
        <time>2017-03-14T23:42:41Z</time>
      </trkpt>
      <trkpt lat="45.40626" lon="4.67007">
        <ele>599.4</ele>
        <time>2017-03-14T23:42:42Z</time>
      </trkpt>
      <trkpt lat="45.40628" lon="4.6701">
        <ele>599.3</ele>
        <time>2017-03-14T23:42:43Z</time>
      </trkpt>
      <trkpt lat="45.40628" lon="4.67015">
        <ele>599.3</ele>
        <time>2017-03-14T23:42:44Z</time>
      </trkpt>
      <trkpt lat="45.40632" lon="4.67016">
        <ele>599.3</ele>
        <time>2017-03-14T23:42:45Z</time>
      </trkpt>
      <trkpt lat="45.40631" lon="4.67022">
        <ele>599.3</ele>
        <time>2017-03-14T23:42:46Z</time>
      </trkpt>
      <trkpt lat="45.40628" lon="4.67028">
        <ele>599.3</ele>
        <time>2017-03-14T23:42:47Z</time>
      </trkpt>
      <trkpt lat="45.40621" lon="4.67033">
        <ele>599.3</ele>
        <time>2017-03-14T23:42:48Z</time>
      </trkpt>
      <trkpt lat="45.4062" lon="4.67041">
        <ele>599.3</ele>
        <time>2017-03-14T23:42:50Z</time>
      </trkpt>
      <trkpt lat="45.40616" lon="4.67048">
        <ele>599.4</ele>
        <time>2017-03-14T23:42:51Z</time>
      </trkpt>
      <trkpt lat="45.40618" lon="4.67053">
        <ele>599.5</ele>
        <time>2017-03-14T23:42:52Z</time>
      </trkpt>
      <trkpt lat="45.40616" lon="4.67057">
        <ele>599.6</ele>
        <time>2017-03-14T23:42:54Z</time>
      </trkpt>
      <trkpt lat="45.40621" lon="4.67058">
        <ele>599.7</ele>
        <time>2017-03-14T23:42:57Z</time>
      </trkpt>
      <trkpt lat="45.40623" lon="4.67061">
        <ele>599.8</ele>
        <time>2017-03-14T23:42:58Z</time>
      </trkpt>
      <trkpt lat="45.40627" lon="4.67066">
        <ele>600</ele>
        <time>2017-03-14T23:43:00Z</time>
      </trkpt>
      <trkpt lat="45.40629" lon="4.67069">
        <ele>600.1</ele>
        <time>2017-03-14T23:43:01Z</time>
      </trkpt>
      <trkpt lat="45.40631" lon="4.67073">
        <ele>600.2</ele>
        <time>2017-03-14T23:43:03Z</time>
      </trkpt>
      <trkpt lat="45.40632" lon="4.67079">
        <ele>600.2</ele>
        <time>2017-03-14T23:43:05Z</time>
      </trkpt>
      <trkpt lat="45.40633" lon="4.67083">
        <ele>600.2</ele>
        <time>2017-03-14T23:43:06Z</time>
      </trkpt>
      <trkpt lat="45.40635" lon="4.67091">
        <ele>599.9</ele>
        <time>2017-03-14T23:43:08Z</time>
      </trkpt>
      <trkpt lat="45.40666" lon="4.6711">
        <ele>597.4</ele>
        <time>2017-03-14T23:43:23Z</time>
      </trkpt>
      <trkpt lat="45.40672" lon="4.6711">
        <ele>596.6</ele>
        <time>2017-03-14T23:43:24Z</time>
      </trkpt>
      <trkpt lat="45.40677" lon="4.67112">
        <ele>596.1</ele>
        <time>2017-03-14T23:43:25Z</time>
      </trkpt>
      <trkpt lat="45.40685" lon="4.67114">
        <ele>595.4</ele>
        <time>2017-03-14T23:43:26Z</time>
      </trkpt>
      <trkpt lat="45.40691" lon="4.67119">
        <ele>595</ele>
        <time>2017-03-14T23:43:27Z</time>
      </trkpt>
      <trkpt lat="45.40696" lon="4.67122">
        <ele>594.7</ele>
        <time>2017-03-14T23:43:28Z</time>
      </trkpt>
      <trkpt lat="45.40696" lon="4.67128">
        <ele>594.5</ele>
        <time>2017-03-14T23:43:29Z</time>
      </trkpt>
      <trkpt lat="45.40698" lon="4.67134">
        <ele>594.3</ele>
        <time>2017-03-14T23:43:30Z</time>
      </trkpt>
      <trkpt lat="45.40697" lon="4.67139">
        <ele>594.2</ele>
        <time>2017-03-14T23:43:31Z</time>
      </trkpt>
      <trkpt lat="45.40701" lon="4.67146">
        <ele>594</ele>
        <time>2017-03-14T23:43:33Z</time>
      </trkpt>
      <trkpt lat="45.40705" lon="4.67148">
        <ele>593.8</ele>
        <time>2017-03-14T23:43:34Z</time>
      </trkpt>
      <trkpt lat="45.40709" lon="4.67149">
        <ele>593.7</ele>
        <time>2017-03-14T23:43:35Z</time>
      </trkpt>
      <trkpt lat="45.40712" lon="4.67156">
        <ele>593.4</ele>
        <time>2017-03-14T23:43:37Z</time>
      </trkpt>
      <trkpt lat="45.40714" lon="4.67157">
        <ele>593.2</ele>
        <time>2017-03-14T23:43:38Z</time>
      </trkpt>
      <trkpt lat="45.40718" lon="4.6716">
        <ele>592.9</ele>
        <time>2017-03-14T23:43:39Z</time>
      </trkpt>
      <trkpt lat="45.40721" lon="4.67168">
        <ele>592.3</ele>
        <time>2017-03-14T23:43:40Z</time>
      </trkpt>
      <trkpt lat="45.40727" lon="4.67169">
        <ele>591.8</ele>
        <time>2017-03-14T23:43:41Z</time>
      </trkpt>
      <trkpt lat="45.40724" lon="4.67169">
        <ele>591.4</ele>
        <time>2017-03-14T23:43:42Z</time>
      </trkpt>
      <trkpt lat="45.40721" lon="4.67172">
        <ele>591.2</ele>
        <time>2017-03-14T23:43:43Z</time>
      </trkpt>
      <trkpt lat="45.40727" lon="4.67175">
        <ele>590.6</ele>
        <time>2017-03-14T23:43:45Z</time>
      </trkpt>
      <trkpt lat="45.40732" lon="4.67179">
        <ele>590.1</ele>
        <time>2017-03-14T23:43:46Z</time>
      </trkpt>
      <trkpt lat="45.40737" lon="4.67185">
        <ele>589.1</ele>
        <time>2017-03-14T23:43:47Z</time>
      </trkpt>
      <trkpt lat="45.40735" lon="4.67192">
        <ele>588.3</ele>
        <time>2017-03-14T23:43:48Z</time>
      </trkpt>
      <trkpt lat="45.4074" lon="4.67192">
        <ele>587.3</ele>
        <time>2017-03-14T23:43:49Z</time>
      </trkpt>
      <trkpt lat="45.40741" lon="4.67198">
        <ele>586.6</ele>
        <time>2017-03-14T23:43:50Z</time>
      </trkpt>
      <trkpt lat="45.40746" lon="4.67202">
        <ele>585.7</ele>
        <time>2017-03-14T23:43:51Z</time>
      </trkpt>
      <trkpt lat="45.40746" lon="4.67209">
        <ele>584.9</ele>
        <time>2017-03-14T23:43:52Z</time>
      </trkpt>
      <trkpt lat="45.40751" lon="4.67221">
        <ele>583.3</ele>
        <time>2017-03-14T23:43:53Z</time>
      </trkpt>
      <trkpt lat="45.40751" lon="4.67228">
        <ele>582.7</ele>
        <time>2017-03-14T23:43:54Z</time>
      </trkpt>
      <trkpt lat="45.40748" lon="4.67233">
        <ele>582.2</ele>
        <time>2017-03-14T23:43:55Z</time>
      </trkpt>
      <trkpt lat="45.40748" lon="4.67241">
        <ele>581.6</ele>
        <time>2017-03-14T23:43:56Z</time>
      </trkpt>
      <trkpt lat="45.40745" lon="4.67245">
        <ele>581.2</ele>
        <time>2017-03-14T23:43:58Z</time>
      </trkpt>
      <trkpt lat="45.40756" lon="4.6725">
        <ele>579.7</ele>
        <time>2017-03-14T23:43:59Z</time>
      </trkpt>
      <trkpt lat="45.40757" lon="4.6726">
        <ele>578.8</ele>
        <time>2017-03-14T23:44:00Z</time>
      </trkpt>
      <trkpt lat="45.40758" lon="4.6727">
        <ele>578.1</ele>
        <time>2017-03-14T23:44:01Z</time>
      </trkpt>
      <trkpt lat="45.40746" lon="4.67282">
        <ele>576.8</ele>
        <time>2017-03-14T23:44:02Z</time>
      </trkpt>
      <trkpt lat="45.40747" lon="4.6729">
        <ele>576.1</ele>
        <time>2017-03-14T23:44:03Z</time>
      </trkpt>
      <trkpt lat="45.40748" lon="4.673">
        <ele>575.3</ele>
        <time>2017-03-14T23:44:04Z</time>
      </trkpt>
      <trkpt lat="45.40734" lon="4.67312">
        <ele>573.8</ele>
        <time>2017-03-14T23:44:05Z</time>
      </trkpt>
      <trkpt lat="45.40726" lon="4.67315">
        <ele>573.1</ele>
        <time>2017-03-14T23:44:06Z</time>
      </trkpt>
      <trkpt lat="45.40722" lon="4.67322">
        <ele>572.1</ele>
        <time>2017-03-14T23:44:07Z</time>
      </trkpt>
      <trkpt lat="45.40727" lon="4.67323">
        <ele>571.4</ele>
        <time>2017-03-14T23:44:08Z</time>
      </trkpt>
      <trkpt lat="45.4073" lon="4.67327">
        <ele>570.8</ele>
        <time>2017-03-14T23:44:10Z</time>
      </trkpt>
      <trkpt lat="45.4073" lon="4.67332">
        <ele>570.3</ele>
        <time>2017-03-14T23:44:11Z</time>
      </trkpt>
      <trkpt lat="45.40733" lon="4.67338">
        <ele>569.6</ele>
        <time>2017-03-14T23:44:13Z</time>
      </trkpt>
      <trkpt lat="45.40736" lon="4.67341">
        <ele>569.1</ele>
        <time>2017-03-14T23:44:15Z</time>
      </trkpt>
      <trkpt lat="45.40735" lon="4.67348">
        <ele>568.5</ele>
        <time>2017-03-14T23:44:16Z</time>
      </trkpt>
      <trkpt lat="45.40737" lon="4.67356">
        <ele>567.9</ele>
        <time>2017-03-14T23:44:18Z</time>
      </trkpt>
      <trkpt lat="45.40743" lon="4.67361">
        <ele>567.2</ele>
        <time>2017-03-14T23:44:20Z</time>
      </trkpt>
      <trkpt lat="45.4078" lon="4.67385">
        <ele>563.8</ele>
        <time>2017-03-14T23:44:22Z</time>
      </trkpt>
      <trkpt lat="45.40779" lon="4.67406">
        <ele>561.8</ele>
        <time>2017-03-14T23:44:23Z</time>
      </trkpt>
      <trkpt lat="45.4077" lon="4.67418">
        <ele>559.8</ele>
        <time>2017-03-14T23:44:24Z</time>
      </trkpt>
      <trkpt lat="45.40762" lon="4.67421">
        <ele>558.5</ele>
        <time>2017-03-14T23:44:26Z</time>
      </trkpt>
      <trkpt lat="45.40764" lon="4.67424">
        <ele>557.9</ele>
        <time>2017-03-14T23:44:27Z</time>
      </trkpt>
      <trkpt lat="45.40766" lon="4.67434">
        <ele>556.6</ele>
        <time>2017-03-14T23:44:28Z</time>
      </trkpt>
      <trkpt lat="45.4077" lon="4.67441">
        <ele>555.7</ele>
        <time>2017-03-14T23:44:31Z</time>
      </trkpt>
      <trkpt lat="45.40771" lon="4.67445">
        <ele>555.1</ele>
        <time>2017-03-14T23:44:32Z</time>
      </trkpt>
      <trkpt lat="45.40774" lon="4.67449">
        <ele>554.4</ele>
        <time>2017-03-14T23:44:33Z</time>
      </trkpt>
      <trkpt lat="45.40773" lon="4.67453">
        <ele>553.9</ele>
        <time>2017-03-14T23:44:34Z</time>
      </trkpt>
      <trkpt lat="45.40774" lon="4.67458">
        <ele>553.3</ele>
        <time>2017-03-14T23:44:35Z</time>
      </trkpt>
      <trkpt lat="45.40773" lon="4.67463">
        <ele>552.5</ele>
        <time>2017-03-14T23:44:36Z</time>
      </trkpt>
      <trkpt lat="45.40775" lon="4.67469">
        <ele>551.6</ele>
        <time>2017-03-14T23:44:37Z</time>
      </trkpt>
      <trkpt lat="45.40775" lon="4.67475">
        <ele>550.9</ele>
        <time>2017-03-14T23:44:38Z</time>
      </trkpt>
      <trkpt lat="45.40771" lon="4.67481">
        <ele>550.2</ele>
        <time>2017-03-14T23:44:39Z</time>
      </trkpt>
      <trkpt lat="45.40771" lon="4.67487">
        <ele>549.6</ele>
        <time>2017-03-14T23:44:40Z</time>
      </trkpt>
      <trkpt lat="45.40775" lon="4.67493">
        <ele>548.9</ele>
        <time>2017-03-14T23:44:41Z</time>
      </trkpt>
      <trkpt lat="45.40775" lon="4.675">
        <ele>548.3</ele>
        <time>2017-03-14T23:44:42Z</time>
      </trkpt>
      <trkpt lat="45.40775" lon="4.67507">
        <ele>547.6</ele>
        <time>2017-03-14T23:44:43Z</time>
      </trkpt>
      <trkpt lat="45.40775" lon="4.67512">
        <ele>547.1</ele>
        <time>2017-03-14T23:44:44Z</time>
      </trkpt>
      <trkpt lat="45.40777" lon="4.67516">
        <ele>546.6</ele>
        <time>2017-03-14T23:44:45Z</time>
      </trkpt>
      <trkpt lat="45.40779" lon="4.67528">
        <ele>545.3</ele>
        <time>2017-03-14T23:44:46Z</time>
      </trkpt>
      <trkpt lat="45.40779" lon="4.67535">
        <ele>544.7</ele>
        <time>2017-03-14T23:44:47Z</time>
      </trkpt>
      <trkpt lat="45.40778" lon="4.6754">
        <ele>544.3</ele>
        <time>2017-03-14T23:44:48Z</time>
      </trkpt>
      <trkpt lat="45.40778" lon="4.67545">
        <ele>543.9</ele>
        <time>2017-03-14T23:44:49Z</time>
      </trkpt>
      <trkpt lat="45.4078" lon="4.67551">
        <ele>543.4</ele>
        <time>2017-03-14T23:44:50Z</time>
      </trkpt>
      <trkpt lat="45.40785" lon="4.67555">
        <ele>542.5</ele>
        <time>2017-03-14T23:44:52Z</time>
      </trkpt>
      <trkpt lat="45.40787" lon="4.67559">
        <ele>542</ele>
        <time>2017-03-14T23:44:53Z</time>
      </trkpt>
      <trkpt lat="45.40789" lon="4.67563">
        <ele>541.5</ele>
        <time>2017-03-14T23:44:54Z</time>
      </trkpt>
      <trkpt lat="45.40791" lon="4.67569">
        <ele>540.9</ele>
        <time>2017-03-14T23:44:55Z</time>
      </trkpt>
      <trkpt lat="45.40788" lon="4.67575">
        <ele>540.2</ele>
        <time>2017-03-14T23:44:56Z</time>
      </trkpt>
      <trkpt lat="45.40788" lon="4.67582">
        <ele>539.5</ele>
        <time>2017-03-14T23:44:57Z</time>
      </trkpt>
      <trkpt lat="45.40792" lon="4.6759">
        <ele>538.5</ele>
        <time>2017-03-14T23:44:58Z</time>
      </trkpt>
      <trkpt lat="45.40792" lon="4.67597">
        <ele>537.8</ele>
        <time>2017-03-14T23:44:59Z</time>
      </trkpt>
      <trkpt lat="45.40793" lon="4.67602">
        <ele>537.4</ele>
        <time>2017-03-14T23:45:00Z</time>
      </trkpt>
      <trkpt lat="45.40794" lon="4.67608">
        <ele>536.7</ele>
        <time>2017-03-14T23:45:02Z</time>
      </trkpt>
      <trkpt lat="45.40796" lon="4.67611">
        <ele>536.4</ele>
        <time>2017-03-14T23:45:03Z</time>
      </trkpt>
      <trkpt lat="45.40799" lon="4.6762">
        <ele>535.6</ele>
        <time>2017-03-14T23:45:05Z</time>
      </trkpt>
      <trkpt lat="45.40801" lon="4.67623">
        <ele>535.3</ele>
        <time>2017-03-14T23:45:06Z</time>
      </trkpt>
      <trkpt lat="45.40804" lon="4.67628">
        <ele>534.9</ele>
        <time>2017-03-14T23:45:07Z</time>
      </trkpt>
      <trkpt lat="45.40808" lon="4.67629">
        <ele>534.7</ele>
        <time>2017-03-14T23:45:08Z</time>
      </trkpt>
      <trkpt lat="45.40806" lon="4.67632">
        <ele>534.4</ele>
        <time>2017-03-14T23:45:09Z</time>
      </trkpt>
      <trkpt lat="45.40807" lon="4.67638">
        <ele>534.1</ele>
        <time>2017-03-14T23:45:10Z</time>
      </trkpt>
      <trkpt lat="45.4081" lon="4.67641">
        <ele>533.8</ele>
        <time>2017-03-14T23:45:12Z</time>
      </trkpt>
      <trkpt lat="45.40813" lon="4.67642">
        <ele>533.7</ele>
        <time>2017-03-14T23:45:14Z</time>
      </trkpt>
      <trkpt lat="45.40813" lon="4.67637">
        <ele>533.9</ele>
        <time>2017-03-14T23:45:16Z</time>
      </trkpt>
      <trkpt lat="45.40813" lon="4.67632">
        <ele>534.1</ele>
        <time>2017-03-14T23:45:17Z</time>
      </trkpt>
      <trkpt lat="45.40814" lon="4.67628">
        <ele>534.3</ele>
        <time>2017-03-14T23:45:18Z</time>
      </trkpt>
      <trkpt lat="45.40814" lon="4.67624">
        <ele>534.5</ele>
        <time>2017-03-14T23:45:19Z</time>
      </trkpt>
      <trkpt lat="45.40818" lon="4.67621">
        <ele>534.7</ele>
        <time>2017-03-14T23:45:20Z</time>
      </trkpt>
      <trkpt lat="45.40821" lon="4.67613">
        <ele>535.1</ele>
        <time>2017-03-14T23:45:21Z</time>
      </trkpt>
      <trkpt lat="45.40822" lon="4.67608">
        <ele>535.4</ele>
        <time>2017-03-14T23:45:22Z</time>
      </trkpt>
      <trkpt lat="45.40824" lon="4.67603">
        <ele>535.7</ele>
        <time>2017-03-14T23:45:23Z</time>
      </trkpt>
      <trkpt lat="45.4082" lon="4.67592">
        <ele>536.8</ele>
        <time>2017-03-14T23:45:24Z</time>
      </trkpt>
      <trkpt lat="45.40825" lon="4.67591">
        <ele>536.3</ele>
        <time>2017-03-14T23:45:26Z</time>
      </trkpt>
      <trkpt lat="45.40827" lon="4.67587">
        <ele>536.4</ele>
        <time>2017-03-14T23:45:29Z</time>
      </trkpt>
      <trkpt lat="45.40826" lon="4.67583">
        <ele>536.5</ele>
        <time>2017-03-14T23:45:31Z</time>
      </trkpt>
      <trkpt lat="45.40829" lon="4.67578">
        <ele>536.4</ele>
        <time>2017-03-14T23:45:32Z</time>
      </trkpt>
      <trkpt lat="45.40827" lon="4.67573">
        <ele>536.5</ele>
        <time>2017-03-14T23:45:33Z</time>
      </trkpt>
      <trkpt lat="45.40828" lon="4.67569">
        <ele>536.7</ele>
        <time>2017-03-14T23:45:34Z</time>
      </trkpt>
      <trkpt lat="45.40828" lon="4.67564">
        <ele>536.9</ele>
        <time>2017-03-14T23:45:35Z</time>
      </trkpt>
      <trkpt lat="45.4083" lon="4.67565">
        <ele>536.5</ele>
        <time>2017-03-14T23:45:36Z</time>
      </trkpt>
      <trkpt lat="45.40831" lon="4.67557">
        <ele>537</ele>
        <time>2017-03-14T23:45:38Z</time>
      </trkpt>
      <trkpt lat="45.4083" lon="4.67552">
        <ele>537.6</ele>
        <time>2017-03-14T23:45:39Z</time>
      </trkpt>
      <trkpt lat="45.40834" lon="4.6755">
        <ele>537.3</ele>
        <time>2017-03-14T23:45:41Z</time>
      </trkpt>
      <trkpt lat="45.40834" lon="4.67545">
        <ele>537.7</ele>
        <time>2017-03-14T23:45:42Z</time>
      </trkpt>
      <trkpt lat="45.40837" lon="4.67539">
        <ele>537.8</ele>
        <time>2017-03-14T23:45:44Z</time>
      </trkpt>
      <trkpt lat="45.40839" lon="4.67535">
        <ele>538.1</ele>
        <time>2017-03-14T23:45:45Z</time>
      </trkpt>
      <trkpt lat="45.4084" lon="4.67529">
        <ele>538.1</ele>
        <time>2017-03-14T23:45:47Z</time>
      </trkpt>
      <trkpt lat="45.40841" lon="4.67525">
        <ele>538.3</ele>
        <time>2017-03-14T23:45:48Z</time>
      </trkpt>
      <trkpt lat="45.4084" lon="4.67518">
        <ele>538.9</ele>
        <time>2017-03-14T23:45:50Z</time>
      </trkpt>
      <trkpt lat="45.40842" lon="4.67514">
        <ele>539</ele>
        <time>2017-03-14T23:45:51Z</time>
      </trkpt>
      <trkpt lat="45.40847" lon="4.67506">
        <ele>538.8</ele>
        <time>2017-03-14T23:45:53Z</time>
      </trkpt>
      <trkpt lat="45.40848" lon="4.67501">
        <ele>538.9</ele>
        <time>2017-03-14T23:45:54Z</time>
      </trkpt>
      <trkpt lat="45.40851" lon="4.67497">
        <ele>538.7</ele>
        <time>2017-03-14T23:45:55Z</time>
      </trkpt>
      <trkpt lat="45.40851" lon="4.67493">
        <ele>538.8</ele>
        <time>2017-03-14T23:45:57Z</time>
      </trkpt>
      <trkpt lat="45.4085" lon="4.67485">
        <ele>539.4</ele>
        <time>2017-03-14T23:45:59Z</time>
      </trkpt>
      <trkpt lat="45.40852" lon="4.67482">
        <ele>538.9</ele>
        <time>2017-03-14T23:46:00Z</time>
      </trkpt>
      <trkpt lat="45.40856" lon="4.67475">
        <ele>539</ele>
        <time>2017-03-14T23:46:02Z</time>
      </trkpt>
      <trkpt lat="45.40859" lon="4.67469">
        <ele>538.7</ele>
        <time>2017-03-14T23:46:03Z</time>
      </trkpt>
      <trkpt lat="45.40861" lon="4.67467">
        <ele>538.5</ele>
        <time>2017-03-14T23:46:04Z</time>
      </trkpt>
      <trkpt lat="45.40863" lon="4.6746">
        <ele>538.6</ele>
        <time>2017-03-14T23:46:05Z</time>
      </trkpt>
      <trkpt lat="45.40862" lon="4.67454">
        <ele>539.1</ele>
        <time>2017-03-14T23:46:07Z</time>
      </trkpt>
      <trkpt lat="45.40864" lon="4.6745">
        <ele>539</ele>
        <time>2017-03-14T23:46:08Z</time>
      </trkpt>
      <trkpt lat="45.40867" lon="4.67443">
        <ele>538.9</ele>
        <time>2017-03-14T23:46:10Z</time>
      </trkpt>
      <trkpt lat="45.40867" lon="4.67439">
        <ele>539.2</ele>
        <time>2017-03-14T23:46:11Z</time>
      </trkpt>
      <trkpt lat="45.40868" lon="4.67435">
        <ele>539.6</ele>
        <time>2017-03-14T23:46:14Z</time>
      </trkpt>
      <trkpt lat="45.40872" lon="4.67433">
        <ele>539.7</ele>
        <time>2017-03-14T23:46:15Z</time>
      </trkpt>
      <trkpt lat="45.40876" lon="4.67431">
        <ele>538.8</ele>
        <time>2017-03-14T23:46:16Z</time>
      </trkpt>
      <trkpt lat="45.40879" lon="4.67426">
        <ele>538.8</ele>
        <time>2017-03-14T23:46:18Z</time>
      </trkpt>
      <trkpt lat="45.40881" lon="4.6742">
        <ele>539.5</ele>
        <time>2017-03-14T23:46:20Z</time>
      </trkpt>
      <trkpt lat="45.4088" lon="4.67413">
        <ele>539.7</ele>
        <time>2017-03-14T23:46:21Z</time>
      </trkpt>
      <trkpt lat="45.40882" lon="4.6741">
        <ele>539.5</ele>
        <time>2017-03-14T23:46:22Z</time>
      </trkpt>
      <trkpt lat="45.40885" lon="4.67407">
        <ele>539.4</ele>
        <time>2017-03-14T23:46:24Z</time>
      </trkpt>
      <trkpt lat="45.4089" lon="4.67401">
        <ele>539.3</ele>
        <time>2017-03-14T23:46:26Z</time>
      </trkpt>
      <trkpt lat="45.40888" lon="4.67397">
        <ele>539.5</ele>
        <time>2017-03-14T23:46:27Z</time>
      </trkpt>
      <trkpt lat="45.40888" lon="4.67392">
        <ele>539.6</ele>
        <time>2017-03-14T23:46:29Z</time>
      </trkpt>
      <trkpt lat="45.40889" lon="4.67388">
        <ele>539.8</ele>
        <time>2017-03-14T23:46:30Z</time>
      </trkpt>
      <trkpt lat="45.4089" lon="4.67382">
        <ele>540.2</ele>
        <time>2017-03-14T23:46:31Z</time>
      </trkpt>
      <trkpt lat="45.40892" lon="4.67376">
        <ele>540.1</ele>
        <time>2017-03-14T23:46:32Z</time>
      </trkpt>
      <trkpt lat="45.40892" lon="4.6737">
        <ele>540.6</ele>
        <time>2017-03-14T23:46:33Z</time>
      </trkpt>
      <trkpt lat="45.40893" lon="4.67365">
        <ele>540.7</ele>
        <time>2017-03-14T23:46:35Z</time>
      </trkpt>
      <trkpt lat="45.40894" lon="4.6736">
        <ele>540.4</ele>
        <time>2017-03-14T23:46:37Z</time>
      </trkpt>
      <trkpt lat="45.40893" lon="4.67353">
        <ele>541</ele>
        <time>2017-03-14T23:46:39Z</time>
      </trkpt>
      <trkpt lat="45.40895" lon="4.67348">
        <ele>540.9</ele>
        <time>2017-03-14T23:46:41Z</time>
      </trkpt>
      <trkpt lat="45.40896" lon="4.67343">
        <ele>541</ele>
        <time>2017-03-14T23:46:43Z</time>
      </trkpt>
      <trkpt lat="45.40897" lon="4.67338">
        <ele>540.3</ele>
        <time>2017-03-14T23:46:45Z</time>
      </trkpt>
      <trkpt lat="45.40898" lon="4.67333">
        <ele>540.3</ele>
        <time>2017-03-14T23:46:46Z</time>
      </trkpt>
      <trkpt lat="45.40897" lon="4.67328">
        <ele>540.3</ele>
        <time>2017-03-14T23:46:47Z</time>
      </trkpt>
      <trkpt lat="45.40897" lon="4.6732">
        <ele>540.4</ele>
        <time>2017-03-14T23:46:49Z</time>
      </trkpt>
      <trkpt lat="45.40901" lon="4.67314">
        <ele>539.7</ele>
        <time>2017-03-14T23:46:50Z</time>
      </trkpt>
      <trkpt lat="45.40902" lon="4.67306">
        <ele>539.7</ele>
        <time>2017-03-14T23:46:51Z</time>
      </trkpt>
      <trkpt lat="45.40904" lon="4.67303">
        <ele>538.8</ele>
        <time>2017-03-14T23:46:52Z</time>
      </trkpt>
      <trkpt lat="45.40908" lon="4.673">
        <ele>538</ele>
        <time>2017-03-14T23:46:53Z</time>
      </trkpt>
      <trkpt lat="45.40912" lon="4.67299">
        <ele>536.3</ele>
        <time>2017-03-14T23:46:55Z</time>
      </trkpt>
      <trkpt lat="45.40916" lon="4.67299">
        <ele>535.4</ele>
        <time>2017-03-14T23:46:57Z</time>
      </trkpt>
      <trkpt lat="45.40923" lon="4.67303">
        <ele>533.8</ele>
        <time>2017-03-14T23:46:58Z</time>
      </trkpt>
      <trkpt lat="45.40929" lon="4.67306">
        <ele>531.9</ele>
        <time>2017-03-14T23:47:00Z</time>
      </trkpt>
      <trkpt lat="45.40934" lon="4.67307">
        <ele>530.1</ele>
        <time>2017-03-14T23:47:02Z</time>
      </trkpt>
      <trkpt lat="45.40943" lon="4.67309">
        <ele>527.8</ele>
        <time>2017-03-14T23:47:03Z</time>
      </trkpt>
      <trkpt lat="45.4095" lon="4.67309">
        <ele>526.4</ele>
        <time>2017-03-14T23:47:04Z</time>
      </trkpt>
      <trkpt lat="45.40956" lon="4.67307">
        <ele>524.7</ele>
        <time>2017-03-14T23:47:05Z</time>
      </trkpt>
      <trkpt lat="45.40959" lon="4.67305">
        <ele>523.7</ele>
        <time>2017-03-14T23:47:06Z</time>
      </trkpt>
      <trkpt lat="45.40963" lon="4.67303">
        <ele>522.8</ele>
        <time>2017-03-14T23:47:07Z</time>
      </trkpt>
      <trkpt lat="45.40968" lon="4.67303">
        <ele>521</ele>
        <time>2017-03-14T23:47:08Z</time>
      </trkpt>
      <trkpt lat="45.40977" lon="4.67305">
        <ele>518.7</ele>
        <time>2017-03-14T23:47:09Z</time>
      </trkpt>
      <trkpt lat="45.40983" lon="4.67306">
        <ele>516.6</ele>
        <time>2017-03-14T23:47:11Z</time>
      </trkpt>
      <trkpt lat="45.40984" lon="4.67301">
        <ele>516.7</ele>
        <time>2017-03-14T23:47:13Z</time>
      </trkpt>
      <trkpt lat="45.40982" lon="4.67295">
        <ele>516.8</ele>
        <time>2017-03-14T23:47:14Z</time>
      </trkpt>
      <trkpt lat="45.40983" lon="4.6729">
        <ele>517</ele>
        <time>2017-03-14T23:47:16Z</time>
      </trkpt>
      <trkpt lat="45.40984" lon="4.67285">
        <ele>517.1</ele>
        <time>2017-03-14T23:47:18Z</time>
      </trkpt>
      <trkpt lat="45.40982" lon="4.6728">
        <ele>517.3</ele>
        <time>2017-03-14T23:47:19Z</time>
      </trkpt>
      <trkpt lat="45.40979" lon="4.67274">
        <ele>517.5</ele>
        <time>2017-03-14T23:47:21Z</time>
      </trkpt>
      <trkpt lat="45.40981" lon="4.67266">
        <ele>517.7</ele>
        <time>2017-03-14T23:47:23Z</time>
      </trkpt>
      <trkpt lat="45.4098" lon="4.67257">
        <ele>517.8</ele>
        <time>2017-03-14T23:47:25Z</time>
      </trkpt>
      <trkpt lat="45.40979" lon="4.67249">
        <ele>518</ele>
        <time>2017-03-14T23:47:27Z</time>
      </trkpt>
      <trkpt lat="45.40976" lon="4.67244">
        <ele>518.1</ele>
        <time>2017-03-14T23:47:28Z</time>
      </trkpt>
      <trkpt lat="45.40976" lon="4.6724">
        <ele>518.1</ele>
        <time>2017-03-14T23:47:29Z</time>
      </trkpt>
      <trkpt lat="45.40975" lon="4.67232">
        <ele>518.3</ele>
        <time>2017-03-14T23:47:31Z</time>
      </trkpt>
      <trkpt lat="45.40973" lon="4.67228">
        <ele>518.4</ele>
        <time>2017-03-14T23:47:32Z</time>
      </trkpt>
      <trkpt lat="45.40971" lon="4.67224">
        <ele>518.5</ele>
        <time>2017-03-14T23:47:33Z</time>
      </trkpt>
      <trkpt lat="45.40968" lon="4.67217">
        <ele>518.7</ele>
        <time>2017-03-14T23:47:35Z</time>
      </trkpt>
      <trkpt lat="45.40969" lon="4.67213">
        <ele>518.8</ele>
        <time>2017-03-14T23:47:36Z</time>
      </trkpt>
      <trkpt lat="45.40968" lon="4.67208">
        <ele>518.8</ele>
        <time>2017-03-14T23:47:37Z</time>
      </trkpt>
      <trkpt lat="45.40965" lon="4.67205">
        <ele>518.9</ele>
        <time>2017-03-14T23:47:38Z</time>
      </trkpt>
      <trkpt lat="45.40962" lon="4.67202">
        <ele>518.9</ele>
        <time>2017-03-14T23:47:39Z</time>
      </trkpt>
      <trkpt lat="45.4092" lon="4.67075">
        <ele>522.4</ele>
        <time>2017-03-14T23:48:12Z</time>
      </trkpt>
      <trkpt lat="45.40922" lon="4.67064">
        <ele>521.1</ele>
        <time>2017-03-14T23:48:14Z</time>
      </trkpt>
      <trkpt lat="45.40924" lon="4.67058">
        <ele>520</ele>
        <time>2017-03-14T23:48:15Z</time>
      </trkpt>
      <trkpt lat="45.40923" lon="4.67051">
        <ele>520.5</ele>
        <time>2017-03-14T23:48:16Z</time>
      </trkpt>
      <trkpt lat="45.4092" lon="4.67043">
        <ele>520.7</ele>
        <time>2017-03-14T23:48:18Z</time>
      </trkpt>
      <trkpt lat="45.40918" lon="4.67037">
        <ele>520.4</ele>
        <time>2017-03-14T23:48:19Z</time>
      </trkpt>
      <trkpt lat="45.40915" lon="4.67034">
        <ele>521.5</ele>
        <time>2017-03-14T23:48:20Z</time>
      </trkpt>
      <trkpt lat="45.40918" lon="4.6703">
        <ele>519.9</ele>
        <time>2017-03-14T23:48:23Z</time>
      </trkpt>
      <trkpt lat="45.40918" lon="4.67025">
        <ele>519.7</ele>
        <time>2017-03-14T23:48:24Z</time>
      </trkpt>
      <trkpt lat="45.40915" lon="4.67017">
        <ele>520.7</ele>
        <time>2017-03-14T23:48:26Z</time>
      </trkpt>
      <trkpt lat="45.40917" lon="4.67011">
        <ele>519.9</ele>
        <time>2017-03-14T23:48:27Z</time>
      </trkpt>
      <trkpt lat="45.40912" lon="4.67007">
        <ele>520.4</ele>
        <time>2017-03-14T23:48:28Z</time>
      </trkpt>
      <trkpt lat="45.40911" lon="4.67003">
        <ele>520.9</ele>
        <time>2017-03-14T23:48:29Z</time>
      </trkpt>
      <trkpt lat="45.40913" lon="4.66998">
        <ele>520.2</ele>
        <time>2017-03-14T23:48:30Z</time>
      </trkpt>
      <trkpt lat="45.40914" lon="4.66993">
        <ele>520.1</ele>
        <time>2017-03-14T23:48:31Z</time>
      </trkpt>
      <trkpt lat="45.40913" lon="4.66986">
        <ele>519.7</ele>
        <time>2017-03-14T23:48:33Z</time>
      </trkpt>
      <trkpt lat="45.40911" lon="4.66982">
        <ele>520</ele>
        <time>2017-03-14T23:48:34Z</time>
      </trkpt>
      <trkpt lat="45.40909" lon="4.66977">
        <ele>519.8</ele>
        <time>2017-03-14T23:48:35Z</time>
      </trkpt>
      <trkpt lat="45.40907" lon="4.66971">
        <ele>520.2</ele>
        <time>2017-03-14T23:48:36Z</time>
      </trkpt>
      <trkpt lat="45.40907" lon="4.66966">
        <ele>519.8</ele>
        <time>2017-03-14T23:48:37Z</time>
      </trkpt>
      <trkpt lat="45.40907" lon="4.66961">
        <ele>519.6</ele>
        <time>2017-03-14T23:48:38Z</time>
      </trkpt>
      <trkpt lat="45.4091" lon="4.66952">
        <ele>518.8</ele>
        <time>2017-03-14T23:48:40Z</time>
      </trkpt>
      <trkpt lat="45.40909" lon="4.66948">
        <ele>518.7</ele>
        <time>2017-03-14T23:48:41Z</time>
      </trkpt>
      <trkpt lat="45.40907" lon="4.66944">
        <ele>519.1</ele>
        <time>2017-03-14T23:48:42Z</time>
      </trkpt>
      <trkpt lat="45.40907" lon="4.66936">
        <ele>519.1</ele>
        <time>2017-03-14T23:48:44Z</time>
      </trkpt>
      <trkpt lat="45.40909" lon="4.66928">
        <ele>519.2</ele>
        <time>2017-03-14T23:48:46Z</time>
      </trkpt>
      <trkpt lat="45.40907" lon="4.66923">
        <ele>519.3</ele>
        <time>2017-03-14T23:48:47Z</time>
      </trkpt>
      <trkpt lat="45.40905" lon="4.66917">
        <ele>520.3</ele>
        <time>2017-03-14T23:48:48Z</time>
      </trkpt>
      <trkpt lat="45.40903" lon="4.66911">
        <ele>520.5</ele>
        <time>2017-03-14T23:48:49Z</time>
      </trkpt>
      <trkpt lat="45.40902" lon="4.66907">
        <ele>521.3</ele>
        <time>2017-03-14T23:48:50Z</time>
      </trkpt>
      <trkpt lat="45.40901" lon="4.66901">
        <ele>521.6</ele>
        <time>2017-03-14T23:48:51Z</time>
      </trkpt>
      <trkpt lat="45.40899" lon="4.66896">
        <ele>522.1</ele>
        <time>2017-03-14T23:48:52Z</time>
      </trkpt>
      <trkpt lat="45.40899" lon="4.66892">
        <ele>522.2</ele>
        <time>2017-03-14T23:48:53Z</time>
      </trkpt>
      <trkpt lat="45.40898" lon="4.66888">
        <ele>522.3</ele>
        <time>2017-03-14T23:48:54Z</time>
      </trkpt>
      <trkpt lat="45.40898" lon="4.66879">
        <ele>522.3</ele>
        <time>2017-03-14T23:48:56Z</time>
      </trkpt>
      <trkpt lat="45.40899" lon="4.66873">
        <ele>522.2</ele>
        <time>2017-03-14T23:48:57Z</time>
      </trkpt>
      <trkpt lat="45.40897" lon="4.66869">
        <ele>522.1</ele>
        <time>2017-03-14T23:48:58Z</time>
      </trkpt>
      <trkpt lat="45.40896" lon="4.66862">
        <ele>522.3</ele>
        <time>2017-03-14T23:48:59Z</time>
      </trkpt>
      <trkpt lat="45.40889" lon="4.66855">
        <ele>523</ele>
        <time>2017-03-14T23:49:00Z</time>
      </trkpt>
      <trkpt lat="45.40887" lon="4.66854">
        <ele>523.1</ele>
        <time>2017-03-14T23:49:01Z</time>
      </trkpt>
      <trkpt lat="45.40889" lon="4.66848">
        <ele>522.5</ele>
        <time>2017-03-14T23:49:02Z</time>
      </trkpt>
      <trkpt lat="45.40886" lon="4.66842">
        <ele>522.1</ele>
        <time>2017-03-14T23:49:04Z</time>
      </trkpt>
      <trkpt lat="45.40887" lon="4.66837">
        <ele>521.8</ele>
        <time>2017-03-14T23:49:06Z</time>
      </trkpt>
      <trkpt lat="45.4089" lon="4.66833">
        <ele>521.4</ele>
        <time>2017-03-14T23:49:07Z</time>
      </trkpt>
      <trkpt lat="45.40887" lon="4.66826">
        <ele>521.2</ele>
        <time>2017-03-14T23:49:09Z</time>
      </trkpt>
      <trkpt lat="45.40884" lon="4.66821">
        <ele>521.3</ele>
        <time>2017-03-14T23:49:10Z</time>
      </trkpt>
      <trkpt lat="45.40882" lon="4.66818">
        <ele>521.1</ele>
        <time>2017-03-14T23:49:11Z</time>
      </trkpt>
      <trkpt lat="45.40879" lon="4.66814">
        <ele>521.2</ele>
        <time>2017-03-14T23:49:12Z</time>
      </trkpt>
      <trkpt lat="45.40878" lon="4.6681">
        <ele>521.3</ele>
        <time>2017-03-14T23:49:13Z</time>
      </trkpt>
      <trkpt lat="45.40874" lon="4.66809">
        <ele>521.7</ele>
        <time>2017-03-14T23:49:14Z</time>
      </trkpt>
      <trkpt lat="45.40868" lon="4.66802">
        <ele>521.8</ele>
        <time>2017-03-14T23:49:16Z</time>
      </trkpt>
      <trkpt lat="45.40866" lon="4.66793">
        <ele>521.4</ele>
        <time>2017-03-14T23:49:17Z</time>
      </trkpt>
      <trkpt lat="45.40864" lon="4.66788">
        <ele>521.1</ele>
        <time>2017-03-14T23:49:18Z</time>
      </trkpt>
      <trkpt lat="45.40859" lon="4.66786">
        <ele>521.2</ele>
        <time>2017-03-14T23:49:21Z</time>
      </trkpt>
      <trkpt lat="45.40855" lon="4.66781">
        <ele>521.1</ele>
        <time>2017-03-14T23:49:23Z</time>
      </trkpt>
      <trkpt lat="45.40851" lon="4.6678">
        <ele>521.7</ele>
        <time>2017-03-14T23:49:24Z</time>
      </trkpt>
      <trkpt lat="45.40846" lon="4.66775">
        <ele>521.7</ele>
        <time>2017-03-14T23:49:26Z</time>
      </trkpt>
      <trkpt lat="45.40847" lon="4.66771">
        <ele>521.4</ele>
        <time>2017-03-14T23:49:27Z</time>
      </trkpt>
      <trkpt lat="45.40847" lon="4.66766">
        <ele>521</ele>
        <time>2017-03-14T23:49:29Z</time>
      </trkpt>
      <trkpt lat="45.40845" lon="4.66761">
        <ele>520.6</ele>
        <time>2017-03-14T23:49:30Z</time>
      </trkpt>
      <trkpt lat="45.40842" lon="4.66757">
        <ele>520.7</ele>
        <time>2017-03-14T23:49:31Z</time>
      </trkpt>
      <trkpt lat="45.40834" lon="4.66757">
        <ele>522.1</ele>
        <time>2017-03-14T23:49:32Z</time>
      </trkpt>
      <trkpt lat="45.40838" lon="4.66753">
        <ele>521.3</ele>
        <time>2017-03-14T23:49:33Z</time>
      </trkpt>
      <trkpt lat="45.40836" lon="4.66745">
        <ele>521.3</ele>
        <time>2017-03-14T23:49:36Z</time>
      </trkpt>
      <trkpt lat="45.40833" lon="4.66742">
        <ele>521.5</ele>
        <time>2017-03-14T23:49:37Z</time>
      </trkpt>
      <trkpt lat="45.40833" lon="4.66738">
        <ele>521.2</ele>
        <time>2017-03-14T23:49:38Z</time>
      </trkpt>
      <trkpt lat="45.40834" lon="4.66732">
        <ele>520.3</ele>
        <time>2017-03-14T23:49:40Z</time>
      </trkpt>
      <trkpt lat="45.40833" lon="4.66726">
        <ele>519.7</ele>
        <time>2017-03-14T23:49:41Z</time>
      </trkpt>
      <trkpt lat="45.40828" lon="4.66726">
        <ele>521</ele>
        <time>2017-03-14T23:49:42Z</time>
      </trkpt>
      <trkpt lat="45.40826" lon="4.66722">
        <ele>521.7</ele>
        <time>2017-03-14T23:49:43Z</time>
      </trkpt>
      <trkpt lat="45.40825" lon="4.66716">
        <ele>521.2</ele>
        <time>2017-03-14T23:49:45Z</time>
      </trkpt>
      <trkpt lat="45.40823" lon="4.66712">
        <ele>521.6</ele>
        <time>2017-03-14T23:49:46Z</time>
      </trkpt>
      <trkpt lat="45.40819" lon="4.6671">
        <ele>522.4</ele>
        <time>2017-03-14T23:49:47Z</time>
      </trkpt>
      <trkpt lat="45.40816" lon="4.66705">
        <ele>522.8</ele>
        <time>2017-03-14T23:49:48Z</time>
      </trkpt>
      <trkpt lat="45.40811" lon="4.667">
        <ele>523.5</ele>
        <time>2017-03-14T23:49:50Z</time>
      </trkpt>
      <trkpt lat="45.40806" lon="4.66696">
        <ele>524.6</ele>
        <time>2017-03-14T23:49:51Z</time>
      </trkpt>
      <trkpt lat="45.40807" lon="4.66693">
        <ele>523.7</ele>
        <time>2017-03-14T23:49:53Z</time>
      </trkpt>
      <trkpt lat="45.40803" lon="4.66691">
        <ele>524</ele>
        <time>2017-03-14T23:49:54Z</time>
      </trkpt>
      <trkpt lat="45.40794" lon="4.66691">
        <ele>525.5</ele>
        <time>2017-03-14T23:49:55Z</time>
      </trkpt>
      <trkpt lat="45.40798" lon="4.66688">
        <ele>525</ele>
        <time>2017-03-14T23:49:56Z</time>
      </trkpt>
      <trkpt lat="45.40794" lon="4.66688">
        <ele>525.6</ele>
        <time>2017-03-14T23:49:57Z</time>
      </trkpt>
      <trkpt lat="45.40789" lon="4.66685">
        <ele>526.5</ele>
        <time>2017-03-14T23:49:59Z</time>
      </trkpt>
      <trkpt lat="45.40784" lon="4.66684">
        <ele>527.9</ele>
        <time>2017-03-14T23:50:00Z</time>
      </trkpt>
      <trkpt lat="45.40781" lon="4.66683">
        <ele>528.7</ele>
        <time>2017-03-14T23:50:01Z</time>
      </trkpt>
      <trkpt lat="45.4078" lon="4.66677">
        <ele>528</ele>
        <time>2017-03-14T23:50:03Z</time>
      </trkpt>
      <trkpt lat="45.40778" lon="4.66673">
        <ele>528.5</ele>
        <time>2017-03-14T23:50:05Z</time>
      </trkpt>
      <trkpt lat="45.40777" lon="4.66667">
        <ele>528.5</ele>
        <time>2017-03-14T23:50:07Z</time>
      </trkpt>
      <trkpt lat="45.40774" lon="4.66666">
        <ele>529.3</ele>
        <time>2017-03-14T23:50:08Z</time>
      </trkpt>
      <trkpt lat="45.4077" lon="4.66664">
        <ele>531.3</ele>
        <time>2017-03-14T23:50:09Z</time>
      </trkpt>
      <trkpt lat="45.4077" lon="4.66657">
        <ele>531.4</ele>
        <time>2017-03-14T23:50:11Z</time>
      </trkpt>
      <trkpt lat="45.40764" lon="4.6666">
        <ele>533.6</ele>
        <time>2017-03-14T23:50:12Z</time>
      </trkpt>
      <trkpt lat="45.40766" lon="4.66653">
        <ele>532.5</ele>
        <time>2017-03-14T23:50:14Z</time>
      </trkpt>
      <trkpt lat="45.40763" lon="4.66646">
        <ele>533.5</ele>
        <time>2017-03-14T23:50:16Z</time>
      </trkpt>
      <trkpt lat="45.40768" lon="4.6664">
        <ele>531.8</ele>
        <time>2017-03-14T23:50:17Z</time>
      </trkpt>
      <trkpt lat="45.40765" lon="4.66634">
        <ele>532.6</ele>
        <time>2017-03-14T23:50:19Z</time>
      </trkpt>
      <trkpt lat="45.40762" lon="4.66633">
        <ele>533.4</ele>
        <time>2017-03-14T23:50:20Z</time>
      </trkpt>
      <trkpt lat="45.40762" lon="4.66629">
        <ele>533.3</ele>
        <time>2017-03-14T23:50:21Z</time>
      </trkpt>
      <trkpt lat="45.40759" lon="4.66626">
        <ele>533.8</ele>
        <time>2017-03-14T23:50:22Z</time>
      </trkpt>
      <trkpt lat="45.40753" lon="4.66627">
        <ele>535.2</ele>
        <time>2017-03-14T23:50:23Z</time>
      </trkpt>
      <trkpt lat="45.4075" lon="4.66625">
        <ele>535.7</ele>
        <time>2017-03-14T23:50:24Z</time>
      </trkpt>
      <trkpt lat="45.40753" lon="4.66623">
        <ele>535.2</ele>
        <time>2017-03-14T23:50:25Z</time>
      </trkpt>
      <trkpt lat="45.4075" lon="4.66621">
        <ele>535.5</ele>
        <time>2017-03-14T23:50:27Z</time>
      </trkpt>
      <trkpt lat="45.40748" lon="4.66615">
        <ele>535.7</ele>
        <time>2017-03-14T23:50:29Z</time>
      </trkpt>
      <trkpt lat="45.40745" lon="4.66613">
        <ele>535.9</ele>
        <time>2017-03-14T23:50:30Z</time>
      </trkpt>
      <trkpt lat="45.40742" lon="4.66609">
        <ele>536.2</ele>
        <time>2017-03-14T23:50:31Z</time>
      </trkpt>
      <trkpt lat="45.40734" lon="4.66605">
        <ele>537.2</ele>
        <time>2017-03-14T23:50:33Z</time>
      </trkpt>
      <trkpt lat="45.40729" lon="4.666">
        <ele>538.4</ele>
        <time>2017-03-14T23:50:34Z</time>
      </trkpt>
      <trkpt lat="45.40729" lon="4.66595">
        <ele>538.2</ele>
        <time>2017-03-14T23:50:35Z</time>
      </trkpt>
      <trkpt lat="45.40726" lon="4.66594">
        <ele>539</ele>
        <time>2017-03-14T23:50:37Z</time>
      </trkpt>
      <trkpt lat="45.40724" lon="4.6659">
        <ele>539.6</ele>
        <time>2017-03-14T23:50:39Z</time>
      </trkpt>
      <trkpt lat="45.4072" lon="4.66587">
        <ele>540.4</ele>
        <time>2017-03-14T23:50:40Z</time>
      </trkpt>
      <trkpt lat="45.40716" lon="4.66584">
        <ele>542.2</ele>
        <time>2017-03-14T23:50:43Z</time>
      </trkpt>
      <trkpt lat="45.40713" lon="4.6658">
        <ele>542.3</ele>
        <time>2017-03-14T23:50:45Z</time>
      </trkpt>
      <trkpt lat="45.4071" lon="4.66578">
        <ele>543.4</ele>
        <time>2017-03-14T23:50:46Z</time>
      </trkpt>
      <trkpt lat="45.40712" lon="4.6657">
        <ele>543.8</ele>
        <time>2017-03-14T23:50:48Z</time>
      </trkpt>
      <trkpt lat="45.40714" lon="4.66564">
        <ele>543.2</ele>
        <time>2017-03-14T23:50:51Z</time>
      </trkpt>
      <trkpt lat="45.40714" lon="4.66558">
        <ele>544.1</ele>
        <time>2017-03-14T23:50:54Z</time>
      </trkpt>
      <trkpt lat="45.4071" lon="4.66557">
        <ele>544.9</ele>
        <time>2017-03-14T23:50:56Z</time>
      </trkpt>
      <trkpt lat="45.40706" lon="4.66554">
        <ele>546.6</ele>
        <time>2017-03-14T23:50:58Z</time>
      </trkpt>
      <trkpt lat="45.40704" lon="4.66551">
        <ele>547.8</ele>
        <time>2017-03-14T23:51:01Z</time>
      </trkpt>
      <trkpt lat="45.40702" lon="4.66543">
        <ele>548.4</ele>
        <time>2017-03-14T23:51:03Z</time>
      </trkpt>
      <trkpt lat="45.40701" lon="4.66537">
        <ele>548.7</ele>
        <time>2017-03-14T23:51:05Z</time>
      </trkpt>
      <trkpt lat="45.40698" lon="4.66534">
        <ele>549.5</ele>
        <time>2017-03-14T23:51:08Z</time>
      </trkpt>
      <trkpt lat="45.40698" lon="4.6653">
        <ele>549.6</ele>
        <time>2017-03-14T23:51:09Z</time>
      </trkpt>
      <trkpt lat="45.40697" lon="4.66525">
        <ele>550.2</ele>
        <time>2017-03-14T23:51:11Z</time>
      </trkpt>
      <trkpt lat="45.40692" lon="4.66524">
        <ele>550.7</ele>
        <time>2017-03-14T23:51:13Z</time>
      </trkpt>
      <trkpt lat="45.40691" lon="4.66519">
        <ele>551.2</ele>
        <time>2017-03-14T23:51:15Z</time>
      </trkpt>
      <trkpt lat="45.40685" lon="4.66515">
        <ele>552.5</ele>
        <time>2017-03-14T23:51:16Z</time>
      </trkpt>
      <trkpt lat="45.40686" lon="4.66509">
        <ele>552</ele>
        <time>2017-03-14T23:51:19Z</time>
      </trkpt>
      <trkpt lat="45.40684" lon="4.66504">
        <ele>552.6</ele>
        <time>2017-03-14T23:51:22Z</time>
      </trkpt>
      <trkpt lat="45.40683" lon="4.66499">
        <ele>552.6</ele>
        <time>2017-03-14T23:51:25Z</time>
      </trkpt>
      <trkpt lat="45.40681" lon="4.66496">
        <ele>553.3</ele>
        <time>2017-03-14T23:51:28Z</time>
      </trkpt>
      <trkpt lat="45.40681" lon="4.6649">
        <ele>553.3</ele>
        <time>2017-03-14T23:51:30Z</time>
      </trkpt>
      <trkpt lat="45.40681" lon="4.66486">
        <ele>553.3</ele>
        <time>2017-03-14T23:51:32Z</time>
      </trkpt>
      <trkpt lat="45.4068" lon="4.66481">
        <ele>554.1</ele>
        <time>2017-03-14T23:51:33Z</time>
      </trkpt>
      <trkpt lat="45.40679" lon="4.66477">
        <ele>554.4</ele>
        <time>2017-03-14T23:51:35Z</time>
      </trkpt>
      <trkpt lat="45.40683" lon="4.66473">
        <ele>552.8</ele>
        <time>2017-03-14T23:51:38Z</time>
      </trkpt>
      <trkpt lat="45.4068" lon="4.66466">
        <ele>554.6</ele>
        <time>2017-03-14T23:51:40Z</time>
      </trkpt>
      <trkpt lat="45.40681" lon="4.66463">
        <ele>554.1</ele>
        <time>2017-03-14T23:51:41Z</time>
      </trkpt>
      <trkpt lat="45.4068" lon="4.66458">
        <ele>554.4</ele>
        <time>2017-03-14T23:51:44Z</time>
      </trkpt>
      <trkpt lat="45.40685" lon="4.66452">
        <ele>554.1</ele>
        <time>2017-03-14T23:51:46Z</time>
      </trkpt>
      <trkpt lat="45.40687" lon="4.66449">
        <ele>553.8</ele>
        <time>2017-03-14T23:51:47Z</time>
      </trkpt>
      <trkpt lat="45.40688" lon="4.66441">
        <ele>554.4</ele>
        <time>2017-03-14T23:51:49Z</time>
      </trkpt>
      <trkpt lat="45.40685" lon="4.66438">
        <ele>555.4</ele>
        <time>2017-03-14T23:51:52Z</time>
      </trkpt>
      <trkpt lat="45.40683" lon="4.66432">
        <ele>555.7</ele>
        <time>2017-03-14T23:51:54Z</time>
      </trkpt>
      <trkpt lat="45.40684" lon="4.66424">
        <ele>556.3</ele>
        <time>2017-03-14T23:51:56Z</time>
      </trkpt>
      <trkpt lat="45.40682" lon="4.66419">
        <ele>557.4</ele>
        <time>2017-03-14T23:51:57Z</time>
      </trkpt>
      <trkpt lat="45.40678" lon="4.66417">
        <ele>558.6</ele>
        <time>2017-03-14T23:51:59Z</time>
      </trkpt>
      <trkpt lat="45.4068" lon="4.66415">
        <ele>557.7</ele>
        <time>2017-03-14T23:52:02Z</time>
      </trkpt>
      <trkpt lat="45.40682" lon="4.6641">
        <ele>557.8</ele>
        <time>2017-03-14T23:52:05Z</time>
      </trkpt>
      <trkpt lat="45.40681" lon="4.66406">
        <ele>558</ele>
        <time>2017-03-14T23:52:07Z</time>
      </trkpt>
      <trkpt lat="45.40684" lon="4.66401">
        <ele>557.2</ele>
        <time>2017-03-14T23:52:09Z</time>
      </trkpt>
      <trkpt lat="45.40681" lon="4.664">
        <ele>558.2</ele>
        <time>2017-03-14T23:52:11Z</time>
      </trkpt>
      <trkpt lat="45.40681" lon="4.66395">
        <ele>558.4</ele>
        <time>2017-03-14T23:52:14Z</time>
      </trkpt>
      <trkpt lat="45.40683" lon="4.66391">
        <ele>557.7</ele>
        <time>2017-03-14T23:52:15Z</time>
      </trkpt>
      <trkpt lat="45.40684" lon="4.66384">
        <ele>557.9</ele>
        <time>2017-03-14T23:52:16Z</time>
      </trkpt>
      <trkpt lat="45.40685" lon="4.6638">
        <ele>558.1</ele>
        <time>2017-03-14T23:52:18Z</time>
      </trkpt>
      <trkpt lat="45.40687" lon="4.66377">
        <ele>557.5</ele>
        <time>2017-03-14T23:52:19Z</time>
      </trkpt>
      <trkpt lat="45.40684" lon="4.66373">
        <ele>558.6</ele>
        <time>2017-03-14T23:52:20Z</time>
      </trkpt>
      <trkpt lat="45.40683" lon="4.66367">
        <ele>559.9</ele>
        <time>2017-03-14T23:52:22Z</time>
      </trkpt>
      <trkpt lat="45.40682" lon="4.66359">
        <ele>560.3</ele>
        <time>2017-03-14T23:52:24Z</time>
      </trkpt>
      <trkpt lat="45.40681" lon="4.66354">
        <ele>560.5</ele>
        <time>2017-03-14T23:52:25Z</time>
      </trkpt>
      <trkpt lat="45.40678" lon="4.66348">
        <ele>561.6</ele>
        <time>2017-03-14T23:52:27Z</time>
      </trkpt>
      <trkpt lat="45.40677" lon="4.66344">
        <ele>562.5</ele>
        <time>2017-03-14T23:52:28Z</time>
      </trkpt>
      <trkpt lat="45.40679" lon="4.66341">
        <ele>561.8</ele>
        <time>2017-03-14T23:52:30Z</time>
      </trkpt>
      <trkpt lat="45.40682" lon="4.66338">
        <ele>561.1</ele>
        <time>2017-03-14T23:52:31Z</time>
      </trkpt>
      <trkpt lat="45.40684" lon="4.66333">
        <ele>560.5</ele>
        <time>2017-03-14T23:52:33Z</time>
      </trkpt>
      <trkpt lat="45.40684" lon="4.66328">
        <ele>560.6</ele>
        <time>2017-03-14T23:52:34Z</time>
      </trkpt>
      <trkpt lat="45.40682" lon="4.66323">
        <ele>561.4</ele>
        <time>2017-03-14T23:52:36Z</time>
      </trkpt>
      <trkpt lat="45.40682" lon="4.66319">
        <ele>561.5</ele>
        <time>2017-03-14T23:52:37Z</time>
      </trkpt>
      <trkpt lat="45.40679" lon="4.66317">
        <ele>562.4</ele>
        <time>2017-03-14T23:52:38Z</time>
      </trkpt>
      <trkpt lat="45.40679" lon="4.66311">
        <ele>562.6</ele>
        <time>2017-03-14T23:52:41Z</time>
      </trkpt>
      <trkpt lat="45.40682" lon="4.66304">
        <ele>562.4</ele>
        <time>2017-03-14T23:52:43Z</time>
      </trkpt>
      <trkpt lat="45.40684" lon="4.66297">
        <ele>562.2</ele>
        <time>2017-03-14T23:52:45Z</time>
      </trkpt>
      <trkpt lat="45.40685" lon="4.66292">
        <ele>563.3</ele>
        <time>2017-03-14T23:52:47Z</time>
      </trkpt>
      <trkpt lat="45.40684" lon="4.66288">
        <ele>563.9</ele>
        <time>2017-03-14T23:52:48Z</time>
      </trkpt>
      <trkpt lat="45.40684" lon="4.66282">
        <ele>564.4</ele>
        <time>2017-03-14T23:52:50Z</time>
      </trkpt>
      <trkpt lat="45.40684" lon="4.66277">
        <ele>564.8</ele>
        <time>2017-03-14T23:52:51Z</time>
      </trkpt>
      <trkpt lat="45.40681" lon="4.66272">
        <ele>565.4</ele>
        <time>2017-03-14T23:52:53Z</time>
      </trkpt>
      <trkpt lat="45.40681" lon="4.66267">
        <ele>565.8</ele>
        <time>2017-03-14T23:52:55Z</time>
      </trkpt>
      <trkpt lat="45.40681" lon="4.66261">
        <ele>566</ele>
        <time>2017-03-14T23:52:57Z</time>
      </trkpt>
      <trkpt lat="45.40681" lon="4.66257">
        <ele>566.2</ele>
        <time>2017-03-14T23:52:58Z</time>
      </trkpt>
      <trkpt lat="45.4068" lon="4.66253">
        <ele>566.3</ele>
        <time>2017-03-14T23:52:59Z</time>
      </trkpt>
      <trkpt lat="45.40682" lon="4.66245">
        <ele>566.6</ele>
        <time>2017-03-14T23:53:01Z</time>
      </trkpt>
      <trkpt lat="45.40683" lon="4.6624">
        <ele>566.3</ele>
        <time>2017-03-14T23:53:02Z</time>
      </trkpt>
      <trkpt lat="45.40684" lon="4.66234">
        <ele>566.5</ele>
        <time>2017-03-14T23:53:04Z</time>
      </trkpt>
      <trkpt lat="45.40685" lon="4.66227">
        <ele>567</ele>
        <time>2017-03-14T23:53:05Z</time>
      </trkpt>
      <trkpt lat="45.40683" lon="4.66224">
        <ele>567.3</ele>
        <time>2017-03-14T23:53:08Z</time>
      </trkpt>
      <trkpt lat="45.40684" lon="4.66218">
        <ele>567.5</ele>
        <time>2017-03-14T23:53:11Z</time>
      </trkpt>
      <trkpt lat="45.40686" lon="4.66213">
        <ele>567.8</ele>
        <time>2017-03-14T23:53:13Z</time>
      </trkpt>
      <trkpt lat="45.40683" lon="4.66207">
        <ele>568.1</ele>
        <time>2017-03-14T23:53:15Z</time>
      </trkpt>
      <trkpt lat="45.40684" lon="4.66197">
        <ele>568.9</ele>
        <time>2017-03-14T23:53:17Z</time>
      </trkpt>
      <trkpt lat="45.40683" lon="4.6619">
        <ele>569.2</ele>
        <time>2017-03-14T23:53:19Z</time>
      </trkpt>
      <trkpt lat="45.40687" lon="4.66187">
        <ele>569.1</ele>
        <time>2017-03-14T23:53:20Z</time>
      </trkpt>
      <trkpt lat="45.40692" lon="4.6618">
        <ele>569.2</ele>
        <time>2017-03-14T23:53:23Z</time>
      </trkpt>
      <trkpt lat="45.40695" lon="4.66178">
        <ele>569.2</ele>
        <time>2017-03-14T23:53:24Z</time>
      </trkpt>
      <trkpt lat="45.40696" lon="4.66172">
        <ele>569.8</ele>
        <time>2017-03-14T23:53:26Z</time>
      </trkpt>
      <trkpt lat="45.40699" lon="4.66168">
        <ele>570.2</ele>
        <time>2017-03-14T23:53:28Z</time>
      </trkpt>
      <trkpt lat="45.40702" lon="4.66167">
        <ele>570.1</ele>
        <time>2017-03-14T23:53:33Z</time>
      </trkpt>
      <trkpt lat="45.40704" lon="4.66163">
        <ele>570.7</ele>
        <time>2017-03-14T23:53:34Z</time>
      </trkpt>
      <trkpt lat="45.40706" lon="4.6616">
        <ele>570.8</ele>
        <time>2017-03-14T23:53:36Z</time>
      </trkpt>
      <trkpt lat="45.4071" lon="4.66157">
        <ele>571.4</ele>
        <time>2017-03-14T23:53:39Z</time>
      </trkpt>
      <trkpt lat="45.40712" lon="4.66154">
        <ele>572.1</ele>
        <time>2017-03-14T23:53:40Z</time>
      </trkpt>
      <trkpt lat="45.40715" lon="4.6615">
        <ele>572.7</ele>
        <time>2017-03-14T23:53:42Z</time>
      </trkpt>
      <trkpt lat="45.40719" lon="4.6615">
        <ele>572.4</ele>
        <time>2017-03-14T23:53:44Z</time>
      </trkpt>
      <trkpt lat="45.4072" lon="4.66144">
        <ele>573</ele>
        <time>2017-03-14T23:53:46Z</time>
      </trkpt>
      <trkpt lat="45.40723" lon="4.66139">
        <ele>573.3</ele>
        <time>2017-03-14T23:53:48Z</time>
      </trkpt>
      <trkpt lat="45.40725" lon="4.66131">
        <ele>573.9</ele>
        <time>2017-03-14T23:53:50Z</time>
      </trkpt>
      <trkpt lat="45.40726" lon="4.66126">
        <ele>574.4</ele>
        <time>2017-03-14T23:53:52Z</time>
      </trkpt>
      <trkpt lat="45.40728" lon="4.66121">
        <ele>574.7</ele>
        <time>2017-03-14T23:53:53Z</time>
      </trkpt>
      <trkpt lat="45.40731" lon="4.66115">
        <ele>575.3</ele>
        <time>2017-03-14T23:53:54Z</time>
      </trkpt>
      <trkpt lat="45.40732" lon="4.66111">
        <ele>575.4</ele>
        <time>2017-03-14T23:53:55Z</time>
      </trkpt>
      <trkpt lat="45.40736" lon="4.6611">
        <ele>575.3</ele>
        <time>2017-03-14T23:53:56Z</time>
      </trkpt>
      <trkpt lat="45.40737" lon="4.66107">
        <ele>575.4</ele>
        <time>2017-03-14T23:53:57Z</time>
      </trkpt>
      <trkpt lat="45.40738" lon="4.66102">
        <ele>575.5</ele>
        <time>2017-03-14T23:53:58Z</time>
      </trkpt>
      <trkpt lat="45.40742" lon="4.66099">
        <ele>575.5</ele>
        <time>2017-03-14T23:54:02Z</time>
      </trkpt>
      <trkpt lat="45.40745" lon="4.66092">
        <ele>575.6</ele>
        <time>2017-03-14T23:54:04Z</time>
      </trkpt>
      <trkpt lat="45.40749" lon="4.66092">
        <ele>575.5</ele>
        <time>2017-03-14T23:54:06Z</time>
      </trkpt>
      <trkpt lat="45.40751" lon="4.66087">
        <ele>575.5</ele>
        <time>2017-03-14T23:54:08Z</time>
      </trkpt>
      <trkpt lat="45.40756" lon="4.66084">
        <ele>575.6</ele>
        <time>2017-03-14T23:54:11Z</time>
      </trkpt>
      <trkpt lat="45.40756" lon="4.66078">
        <ele>575.8</ele>
        <time>2017-03-14T23:54:14Z</time>
      </trkpt>
      <trkpt lat="45.40759" lon="4.66073">
        <ele>576.6</ele>
        <time>2017-03-14T23:54:16Z</time>
      </trkpt>
      <trkpt lat="45.40759" lon="4.66069">
        <ele>577.1</ele>
        <time>2017-03-14T23:54:20Z</time>
      </trkpt>
      <trkpt lat="45.40762" lon="4.66063">
        <ele>577.5</ele>
        <time>2017-03-14T23:54:23Z</time>
      </trkpt>
      <trkpt lat="45.40765" lon="4.66059">
        <ele>577.8</ele>
        <time>2017-03-14T23:54:24Z</time>
      </trkpt>
      <trkpt lat="45.40765" lon="4.66054">
        <ele>578.3</ele>
        <time>2017-03-14T23:54:26Z</time>
      </trkpt>
      <trkpt lat="45.40766" lon="4.6605">
        <ele>578.8</ele>
        <time>2017-03-14T23:54:28Z</time>
      </trkpt>
      <trkpt lat="45.40763" lon="4.66049">
        <ele>579</ele>
        <time>2017-03-14T23:54:33Z</time>
      </trkpt>
      <trkpt lat="45.40765" lon="4.66044">
        <ele>579.4</ele>
        <time>2017-03-14T23:54:35Z</time>
      </trkpt>
      <trkpt lat="45.4077" lon="4.66039">
        <ele>580.7</ele>
        <time>2017-03-14T23:54:37Z</time>
      </trkpt>
      <trkpt lat="45.40773" lon="4.66036">
        <ele>580.7</ele>
        <time>2017-03-14T23:54:39Z</time>
      </trkpt>
      <trkpt lat="45.40775" lon="4.66032">
        <ele>581.4</ele>
        <time>2017-03-14T23:54:41Z</time>
      </trkpt>
      <trkpt lat="45.40778" lon="4.66027">
        <ele>582</ele>
        <time>2017-03-14T23:54:43Z</time>
      </trkpt>
      <trkpt lat="45.40781" lon="4.66024">
        <ele>582.7</ele>
        <time>2017-03-14T23:54:45Z</time>
      </trkpt>
      <trkpt lat="45.40785" lon="4.6602">
        <ele>583.4</ele>
        <time>2017-03-14T23:54:47Z</time>
      </trkpt>
      <trkpt lat="45.40786" lon="4.66016">
        <ele>584.3</ele>
        <time>2017-03-14T23:54:49Z</time>
      </trkpt>
      <trkpt lat="45.40789" lon="4.66013">
        <ele>585.2</ele>
        <time>2017-03-14T23:54:50Z</time>
      </trkpt>
      <trkpt lat="45.4079" lon="4.66008">
        <ele>586</ele>
        <time>2017-03-14T23:54:54Z</time>
      </trkpt>
      <trkpt lat="45.40794" lon="4.66005">
        <ele>587</ele>
        <time>2017-03-14T23:54:56Z</time>
      </trkpt>
      <trkpt lat="45.40795" lon="4.66001">
        <ele>587.2</ele>
        <time>2017-03-14T23:55:00Z</time>
      </trkpt>
      <trkpt lat="45.40793" lon="4.66004">
        <ele>587</ele>
        <time>2017-03-14T23:55:01Z</time>
      </trkpt>
      <trkpt lat="45.40796" lon="4.65998">
        <ele>588</ele>
        <time>2017-03-14T23:55:03Z</time>
      </trkpt>
      <trkpt lat="45.40799" lon="4.65996">
        <ele>589</ele>
        <time>2017-03-14T23:55:04Z</time>
      </trkpt>
      <trkpt lat="45.40801" lon="4.65991">
        <ele>590.1</ele>
        <time>2017-03-14T23:55:06Z</time>
      </trkpt>
      <trkpt lat="45.40803" lon="4.65987">
        <ele>591</ele>
        <time>2017-03-14T23:55:08Z</time>
      </trkpt>
      <trkpt lat="45.40801" lon="4.65984">
        <ele>591</ele>
        <time>2017-03-14T23:55:12Z</time>
      </trkpt>
      <trkpt lat="45.40803" lon="4.65981">
        <ele>591.9</ele>
        <time>2017-03-14T23:55:13Z</time>
      </trkpt>
      <trkpt lat="45.40804" lon="4.65977">
        <ele>592.8</ele>
        <time>2017-03-14T23:55:15Z</time>
      </trkpt>
      <trkpt lat="45.40803" lon="4.65974">
        <ele>593.3</ele>
        <time>2017-03-14T23:55:19Z</time>
      </trkpt>
      <trkpt lat="45.40804" lon="4.65969">
        <ele>594</ele>
        <time>2017-03-14T23:55:25Z</time>
      </trkpt>
      <trkpt lat="45.40807" lon="4.65963">
        <ele>594.2</ele>
        <time>2017-03-14T23:55:27Z</time>
      </trkpt>
      <trkpt lat="45.40809" lon="4.6596">
        <ele>594.3</ele>
        <time>2017-03-14T23:55:28Z</time>
      </trkpt>
      <trkpt lat="45.40812" lon="4.65954">
        <ele>594.6</ele>
        <time>2017-03-14T23:55:30Z</time>
      </trkpt>
      <trkpt lat="45.40809" lon="4.6595">
        <ele>594.7</ele>
        <time>2017-03-14T23:55:33Z</time>
      </trkpt>
      <trkpt lat="45.40808" lon="4.65946">
        <ele>594.8</ele>
        <time>2017-03-14T23:55:36Z</time>
      </trkpt>
      <trkpt lat="45.40808" lon="4.65941">
        <ele>595</ele>
        <time>2017-03-14T23:55:39Z</time>
      </trkpt>
      <trkpt lat="45.40807" lon="4.65937">
        <ele>595.1</ele>
        <time>2017-03-14T23:55:41Z</time>
      </trkpt>
      <trkpt lat="45.4081" lon="4.65935">
        <ele>595.7</ele>
        <time>2017-03-14T23:55:45Z</time>
      </trkpt>
      <trkpt lat="45.40812" lon="4.65933">
        <ele>595.4</ele>
        <time>2017-03-14T23:55:47Z</time>
      </trkpt>
      <trkpt lat="45.40809" lon="4.65929">
        <ele>595.8</ele>
        <time>2017-03-14T23:55:49Z</time>
      </trkpt>
      <trkpt lat="45.40808" lon="4.65919">
        <ele>596.6</ele>
        <time>2017-03-14T23:55:51Z</time>
      </trkpt>
      <trkpt lat="45.40809" lon="4.65912">
        <ele>597.5</ele>
        <time>2017-03-14T23:55:54Z</time>
      </trkpt>
      <trkpt lat="45.40812" lon="4.6591">
        <ele>598</ele>
        <time>2017-03-14T23:55:57Z</time>
      </trkpt>
      <trkpt lat="45.40814" lon="4.65906">
        <ele>598.4</ele>
        <time>2017-03-14T23:56:00Z</time>
      </trkpt>
      <trkpt lat="45.40817" lon="4.65906">
        <ele>597.6</ele>
        <time>2017-03-14T23:56:07Z</time>
      </trkpt>
      <trkpt lat="45.40821" lon="4.65907">
        <ele>597.3</ele>
        <time>2017-03-14T23:56:09Z</time>
      </trkpt>
      <trkpt lat="45.40826" lon="4.65906">
        <ele>597.9</ele>
        <time>2017-03-14T23:56:10Z</time>
      </trkpt>
      <trkpt lat="45.40834" lon="4.65915">
        <ele>595.2</ele>
        <time>2017-03-14T23:56:11Z</time>
      </trkpt>
      <trkpt lat="45.40838" lon="4.65921">
        <ele>594.3</ele>
        <time>2017-03-14T23:56:12Z</time>
      </trkpt>
      <trkpt lat="45.40842" lon="4.6593">
        <ele>592.8</ele>
        <time>2017-03-14T23:56:13Z</time>
      </trkpt>
      <trkpt lat="45.40848" lon="4.65931">
        <ele>591.8</ele>
        <time>2017-03-14T23:56:15Z</time>
      </trkpt>
      <trkpt lat="45.40852" lon="4.65936">
        <ele>590</ele>
        <time>2017-03-14T23:56:17Z</time>
      </trkpt>
      <trkpt lat="45.40855" lon="4.65944">
        <ele>589.3</ele>
        <time>2017-03-14T23:56:18Z</time>
      </trkpt>
      <trkpt lat="45.40858" lon="4.65948">
        <ele>588.9</ele>
        <time>2017-03-14T23:56:19Z</time>
      </trkpt>
      <trkpt lat="45.4086" lon="4.65954">
        <ele>588.4</ele>
        <time>2017-03-14T23:56:20Z</time>
      </trkpt>
      <trkpt lat="45.40862" lon="4.65961">
        <ele>587.8</ele>
        <time>2017-03-14T23:56:22Z</time>
      </trkpt>
      <trkpt lat="45.40864" lon="4.65966">
        <ele>587.3</ele>
        <time>2017-03-14T23:56:23Z</time>
      </trkpt>
      <trkpt lat="45.40864" lon="4.65971">
        <ele>587</ele>
        <time>2017-03-14T23:56:24Z</time>
      </trkpt>
      <trkpt lat="45.40864" lon="4.65976">
        <ele>586.5</ele>
        <time>2017-03-14T23:56:25Z</time>
      </trkpt>
      <trkpt lat="45.40865" lon="4.6598">
        <ele>586.2</ele>
        <time>2017-03-14T23:56:26Z</time>
      </trkpt>
      <trkpt lat="45.40868" lon="4.65987">
        <ele>585.6</ele>
        <time>2017-03-14T23:56:27Z</time>
      </trkpt>
      <trkpt lat="45.40869" lon="4.65993">
        <ele>585.1</ele>
        <time>2017-03-14T23:56:28Z</time>
      </trkpt>
      <trkpt lat="45.4087" lon="4.65999">
        <ele>584.6</ele>
        <time>2017-03-14T23:56:29Z</time>
      </trkpt>
      <trkpt lat="45.40872" lon="4.66006">
        <ele>584</ele>
        <time>2017-03-14T23:56:30Z</time>
      </trkpt>
      <trkpt lat="45.40873" lon="4.66013">
        <ele>583.4</ele>
        <time>2017-03-14T23:56:31Z</time>
      </trkpt>
      <trkpt lat="45.40875" lon="4.66022">
        <ele>582.6</ele>
        <time>2017-03-14T23:56:32Z</time>
      </trkpt>
      <trkpt lat="45.40876" lon="4.66027">
        <ele>582.2</ele>
        <time>2017-03-14T23:56:33Z</time>
      </trkpt>
      <trkpt lat="45.40876" lon="4.66033">
        <ele>581.8</ele>
        <time>2017-03-14T23:56:34Z</time>
      </trkpt>
      <trkpt lat="45.40878" lon="4.66038">
        <ele>581.3</ele>
        <time>2017-03-14T23:56:35Z</time>
      </trkpt>
      <trkpt lat="45.4088" lon="4.66042">
        <ele>581</ele>
        <time>2017-03-14T23:56:36Z</time>
      </trkpt>
      <trkpt lat="45.4088" lon="4.66048">
        <ele>580.5</ele>
        <time>2017-03-14T23:56:37Z</time>
      </trkpt>
      <trkpt lat="45.40881" lon="4.66051">
        <ele>580.2</ele>
        <time>2017-03-14T23:56:38Z</time>
      </trkpt>
      <trkpt lat="45.40882" lon="4.66056">
        <ele>579.7</ele>
        <time>2017-03-14T23:56:39Z</time>
      </trkpt>
      <trkpt lat="45.40882" lon="4.66061">
        <ele>579.3</ele>
        <time>2017-03-14T23:56:40Z</time>
      </trkpt>
      <trkpt lat="45.40884" lon="4.66067">
        <ele>578.8</ele>
        <time>2017-03-14T23:56:41Z</time>
      </trkpt>
      <trkpt lat="45.40883" lon="4.66073">
        <ele>578.2</ele>
        <time>2017-03-14T23:56:42Z</time>
      </trkpt>
      <trkpt lat="45.40885" lon="4.66083">
        <ele>577.7</ele>
        <time>2017-03-14T23:56:44Z</time>
      </trkpt>
      <trkpt lat="45.40887" lon="4.6609">
        <ele>577.4</ele>
        <time>2017-03-14T23:56:46Z</time>
      </trkpt>
      <trkpt lat="45.40887" lon="4.66097">
        <ele>577.1</ele>
        <time>2017-03-14T23:56:47Z</time>
      </trkpt>
      <trkpt lat="45.40887" lon="4.66104">
        <ele>576.9</ele>
        <time>2017-03-14T23:56:48Z</time>
      </trkpt>
      <trkpt lat="45.40887" lon="4.66109">
        <ele>576.7</ele>
        <time>2017-03-14T23:56:49Z</time>
      </trkpt>
      <trkpt lat="45.40889" lon="4.66116">
        <ele>576.4</ele>
        <time>2017-03-14T23:56:50Z</time>
      </trkpt>
      <trkpt lat="45.4089" lon="4.66124">
        <ele>576.1</ele>
        <time>2017-03-14T23:56:51Z</time>
      </trkpt>
      <trkpt lat="45.4089" lon="4.66128">
        <ele>575.9</ele>
        <time>2017-03-14T23:56:52Z</time>
      </trkpt>
      <trkpt lat="45.40892" lon="4.66133">
        <ele>575.6</ele>
        <time>2017-03-14T23:56:53Z</time>
      </trkpt>
      <trkpt lat="45.40894" lon="4.6614">
        <ele>575.3</ele>
        <time>2017-03-14T23:56:54Z</time>
      </trkpt>
      <trkpt lat="45.40894" lon="4.66144">
        <ele>575</ele>
        <time>2017-03-14T23:56:55Z</time>
      </trkpt>
      <trkpt lat="45.40895" lon="4.66152">
        <ele>574.7</ele>
        <time>2017-03-14T23:56:56Z</time>
      </trkpt>
      <trkpt lat="45.40899" lon="4.66163">
        <ele>574</ele>
        <time>2017-03-14T23:56:58Z</time>
      </trkpt>
      <trkpt lat="45.409" lon="4.66167">
        <ele>573.8</ele>
        <time>2017-03-14T23:56:59Z</time>
      </trkpt>
      <trkpt lat="45.40904" lon="4.66172">
        <ele>573.4</ele>
        <time>2017-03-14T23:57:00Z</time>
      </trkpt>
      <trkpt lat="45.40906" lon="4.66176">
        <ele>573.1</ele>
        <time>2017-03-14T23:57:01Z</time>
      </trkpt>
      <trkpt lat="45.40908" lon="4.6618">
        <ele>572.8</ele>
        <time>2017-03-14T23:57:02Z</time>
      </trkpt>
      <trkpt lat="45.4091" lon="4.66184">
        <ele>572.6</ele>
        <time>2017-03-14T23:57:03Z</time>
      </trkpt>
      <trkpt lat="45.40913" lon="4.66189">
        <ele>572.3</ele>
        <time>2017-03-14T23:57:04Z</time>
      </trkpt>
      <trkpt lat="45.40916" lon="4.66192">
        <ele>572</ele>
        <time>2017-03-14T23:57:05Z</time>
      </trkpt>
      <trkpt lat="45.40919" lon="4.66196">
        <ele>571.7</ele>
        <time>2017-03-14T23:57:06Z</time>
      </trkpt>
      <trkpt lat="45.4092" lon="4.662">
        <ele>571.4</ele>
        <time>2017-03-14T23:57:07Z</time>
      </trkpt>
      <trkpt lat="45.40922" lon="4.66204">
        <ele>571.2</ele>
        <time>2017-03-14T23:57:08Z</time>
      </trkpt>
      <trkpt lat="45.40925" lon="4.66208">
        <ele>570.9</ele>
        <time>2017-03-14T23:57:09Z</time>
      </trkpt>
      <trkpt lat="45.40927" lon="4.66212">
        <ele>570.6</ele>
        <time>2017-03-14T23:57:10Z</time>
      </trkpt>
      <trkpt lat="45.40929" lon="4.66221">
        <ele>570.1</ele>
        <time>2017-03-14T23:57:11Z</time>
      </trkpt>
      <trkpt lat="45.40931" lon="4.66225">
        <ele>569.9</ele>
        <time>2017-03-14T23:57:12Z</time>
      </trkpt>
      <trkpt lat="45.40934" lon="4.66228">
        <ele>569.6</ele>
        <time>2017-03-14T23:57:13Z</time>
      </trkpt>
      <trkpt lat="45.40937" lon="4.66232">
        <ele>569.3</ele>
        <time>2017-03-14T23:57:14Z</time>
      </trkpt>
      <trkpt lat="45.40939" lon="4.66238">
        <ele>568.9</ele>
        <time>2017-03-14T23:57:16Z</time>
      </trkpt>
      <trkpt lat="45.40942" lon="4.66241">
        <ele>568.6</ele>
        <time>2017-03-14T23:57:17Z</time>
      </trkpt>
      <trkpt lat="45.40943" lon="4.66246">
        <ele>568.2</ele>
        <time>2017-03-14T23:57:18Z</time>
      </trkpt>
      <trkpt lat="45.40946" lon="4.66254">
        <ele>567.6</ele>
        <time>2017-03-14T23:57:19Z</time>
      </trkpt>
      <trkpt lat="45.40947" lon="4.66257">
        <ele>567.3</ele>
        <time>2017-03-14T23:57:20Z</time>
      </trkpt>
      <trkpt lat="45.40949" lon="4.66265">
        <ele>566.7</ele>
        <time>2017-03-14T23:57:21Z</time>
      </trkpt>
      <trkpt lat="45.40952" lon="4.66269">
        <ele>566.4</ele>
        <time>2017-03-14T23:57:22Z</time>
      </trkpt>
      <trkpt lat="45.40954" lon="4.66273">
        <ele>566</ele>
        <time>2017-03-14T23:57:23Z</time>
      </trkpt>
      <trkpt lat="45.40956" lon="4.66276">
        <ele>565.6</ele>
        <time>2017-03-14T23:57:24Z</time>
      </trkpt>
      <trkpt lat="45.40959" lon="4.6628">
        <ele>565.3</ele>
        <time>2017-03-14T23:57:25Z</time>
      </trkpt>
      <trkpt lat="45.40964" lon="4.66284">
        <ele>564.7</ele>
        <time>2017-03-14T23:57:27Z</time>
      </trkpt>
      <trkpt lat="45.40967" lon="4.66283">
        <ele>564.4</ele>
        <time>2017-03-14T23:57:30Z</time>
      </trkpt>
      <trkpt lat="45.40971" lon="4.66283">
        <ele>564.1</ele>
        <time>2017-03-14T23:57:32Z</time>
      </trkpt>
      <trkpt lat="45.40974" lon="4.66284">
        <ele>563.8</ele>
        <time>2017-03-14T23:57:34Z</time>
      </trkpt>
      <trkpt lat="45.40975" lon="4.6628">
        <ele>564.6</ele>
        <time>2017-03-14T23:57:36Z</time>
      </trkpt>
      <trkpt lat="45.40978" lon="4.66277">
        <ele>565.5</ele>
        <time>2017-03-14T23:57:37Z</time>
      </trkpt>
      <trkpt lat="45.40982" lon="4.66274">
        <ele>566.3</ele>
        <time>2017-03-14T23:57:39Z</time>
      </trkpt>
      <trkpt lat="45.40985" lon="4.66272">
        <ele>566.3</ele>
        <time>2017-03-14T23:57:41Z</time>
      </trkpt>
      <trkpt lat="45.40987" lon="4.6627">
        <ele>567.1</ele>
        <time>2017-03-14T23:57:44Z</time>
      </trkpt>
      <trkpt lat="45.40991" lon="4.66269">
        <ele>567.2</ele>
        <time>2017-03-14T23:57:46Z</time>
      </trkpt>
      <trkpt lat="45.40994" lon="4.66266">
        <ele>568.2</ele>
        <time>2017-03-14T23:57:48Z</time>
      </trkpt>
      <trkpt lat="45.40999" lon="4.66269">
        <ele>567.4</ele>
        <time>2017-03-14T23:57:50Z</time>
      </trkpt>
      <trkpt lat="45.41003" lon="4.66269">
        <ele>567.8</ele>
        <time>2017-03-14T23:57:51Z</time>
      </trkpt>
      <trkpt lat="45.41006" lon="4.6627">
        <ele>568.1</ele>
        <time>2017-03-14T23:57:52Z</time>
      </trkpt>
      <trkpt lat="45.4101" lon="4.66269">
        <ele>568.4</ele>
        <time>2017-03-14T23:57:53Z</time>
      </trkpt>
      <trkpt lat="45.41013" lon="4.66273">
        <ele>567.9</ele>
        <time>2017-03-14T23:57:55Z</time>
      </trkpt>
      <trkpt lat="45.41016" lon="4.66279">
        <ele>567.7</ele>
        <time>2017-03-14T23:57:57Z</time>
      </trkpt>
      <trkpt lat="45.41019" lon="4.66281">
        <ele>567.4</ele>
        <time>2017-03-14T23:57:58Z</time>
      </trkpt>
      <trkpt lat="45.41021" lon="4.66285">
        <ele>567</ele>
        <time>2017-03-14T23:57:59Z</time>
      </trkpt>
      <trkpt lat="45.41024" lon="4.6629">
        <ele>566.5</ele>
        <time>2017-03-14T23:58:00Z</time>
      </trkpt>
      <trkpt lat="45.4103" lon="4.66295">
        <ele>565.8</ele>
        <time>2017-03-14T23:58:01Z</time>
      </trkpt>
      <trkpt lat="45.41038" lon="4.66305">
        <ele>564</ele>
        <time>2017-03-14T23:58:02Z</time>
      </trkpt>
      <trkpt lat="45.41045" lon="4.66309">
        <ele>563</ele>
        <time>2017-03-14T23:58:03Z</time>
      </trkpt>
      <trkpt lat="45.41051" lon="4.6631">
        <ele>562.1</ele>
        <time>2017-03-14T23:58:04Z</time>
      </trkpt>
      <trkpt lat="45.41055" lon="4.66315">
        <ele>561.4</ele>
        <time>2017-03-14T23:58:05Z</time>
      </trkpt>
      <trkpt lat="45.41054" lon="4.66306">
        <ele>562.4</ele>
        <time>2017-03-14T23:58:06Z</time>
      </trkpt>
      <trkpt lat="45.41059" lon="4.66308">
        <ele>562</ele>
        <time>2017-03-14T23:58:07Z</time>
      </trkpt>
      <trkpt lat="45.41065" lon="4.66309">
        <ele>561.8</ele>
        <time>2017-03-14T23:58:08Z</time>
      </trkpt>
      <trkpt lat="45.41071" lon="4.66305">
        <ele>561.6</ele>
        <time>2017-03-14T23:58:10Z</time>
      </trkpt>
      <trkpt lat="45.41076" lon="4.66302">
        <ele>561.4</ele>
        <time>2017-03-14T23:58:11Z</time>
      </trkpt>
      <trkpt lat="45.41081" lon="4.66297">
        <ele>562.2</ele>
        <time>2017-03-14T23:58:13Z</time>
      </trkpt>
      <trkpt lat="45.41084" lon="4.66293">
        <ele>561.9</ele>
        <time>2017-03-14T23:58:15Z</time>
      </trkpt>
      <trkpt lat="45.41088" lon="4.66288">
        <ele>562.9</ele>
        <time>2017-03-14T23:58:16Z</time>
      </trkpt>
      <trkpt lat="45.41091" lon="4.66287">
        <ele>562.5</ele>
        <time>2017-03-14T23:58:17Z</time>
      </trkpt>
      <trkpt lat="45.41094" lon="4.66287">
        <ele>562.1</ele>
        <time>2017-03-14T23:58:19Z</time>
      </trkpt>
      <trkpt lat="45.41097" lon="4.66284">
        <ele>561.6</ele>
        <time>2017-03-14T23:58:20Z</time>
      </trkpt>
      <trkpt lat="45.41099" lon="4.66281">
        <ele>561.5</ele>
        <time>2017-03-14T23:58:21Z</time>
      </trkpt>
      <trkpt lat="45.41102" lon="4.66279">
        <ele>561.2</ele>
        <time>2017-03-14T23:58:22Z</time>
      </trkpt>
      <trkpt lat="45.41105" lon="4.66276">
        <ele>560.4</ele>
        <time>2017-03-14T23:58:23Z</time>
      </trkpt>
      <trkpt lat="45.41107" lon="4.66272">
        <ele>560.6</ele>
        <time>2017-03-14T23:58:24Z</time>
      </trkpt>
      <trkpt lat="45.4111" lon="4.66265">
        <ele>560</ele>
        <time>2017-03-14T23:58:26Z</time>
      </trkpt>
      <trkpt lat="45.4111" lon="4.6626">
        <ele>559.9</ele>
        <time>2017-03-14T23:58:28Z</time>
      </trkpt>
      <trkpt lat="45.4111" lon="4.66254">
        <ele>559.8</ele>
        <time>2017-03-14T23:58:30Z</time>
      </trkpt>
      <trkpt lat="45.4111" lon="4.66249">
        <ele>559.7</ele>
        <time>2017-03-14T23:58:31Z</time>
      </trkpt>
      <trkpt lat="45.41107" lon="4.66241">
        <ele>560.9</ele>
        <time>2017-03-14T23:58:33Z</time>
      </trkpt>
      <trkpt lat="45.41107" lon="4.66234">
        <ele>560.9</ele>
        <time>2017-03-14T23:58:34Z</time>
      </trkpt>
      <trkpt lat="45.41108" lon="4.66223">
        <ele>559.7</ele>
        <time>2017-03-14T23:58:36Z</time>
      </trkpt>
      <trkpt lat="45.41108" lon="4.66217">
        <ele>559.5</ele>
        <time>2017-03-14T23:58:37Z</time>
      </trkpt>
      <trkpt lat="45.41108" lon="4.66212">
        <ele>559.3</ele>
        <time>2017-03-14T23:58:38Z</time>
      </trkpt>
      <trkpt lat="45.41108" lon="4.66208">
        <ele>558.9</ele>
        <time>2017-03-14T23:58:39Z</time>
      </trkpt>
      <trkpt lat="45.4111" lon="4.66204">
        <ele>558.6</ele>
        <time>2017-03-14T23:58:40Z</time>
      </trkpt>
      <trkpt lat="45.4111" lon="4.66198">
        <ele>558.1</ele>
        <time>2017-03-14T23:58:41Z</time>
      </trkpt>
      <trkpt lat="45.4111" lon="4.66193">
        <ele>557.3</ele>
        <time>2017-03-14T23:58:42Z</time>
      </trkpt>
      <trkpt lat="45.41112" lon="4.66185">
        <ele>555.6</ele>
        <time>2017-03-14T23:58:43Z</time>
      </trkpt>
      <trkpt lat="45.41109" lon="4.66181">
        <ele>556.2</ele>
        <time>2017-03-14T23:58:44Z</time>
      </trkpt>
      <trkpt lat="45.4111" lon="4.66175">
        <ele>555.2</ele>
        <time>2017-03-14T23:58:47Z</time>
      </trkpt>
      <trkpt lat="45.41112" lon="4.66171">
        <ele>553.6</ele>
        <time>2017-03-14T23:58:48Z</time>
      </trkpt>
      <trkpt lat="45.41111" lon="4.66167">
        <ele>553.2</ele>
        <time>2017-03-14T23:58:49Z</time>
      </trkpt>
      <trkpt lat="45.41114" lon="4.66163">
        <ele>551.6</ele>
        <time>2017-03-14T23:58:50Z</time>
      </trkpt>
      <trkpt lat="45.41117" lon="4.66161">
        <ele>550.4</ele>
        <time>2017-03-14T23:58:51Z</time>
      </trkpt>
      <trkpt lat="45.41119" lon="4.66156">
        <ele>549.9</ele>
        <time>2017-03-14T23:58:52Z</time>
      </trkpt>
      <trkpt lat="45.41122" lon="4.66149">
        <ele>547.6</ele>
        <time>2017-03-14T23:58:53Z</time>
      </trkpt>
      <trkpt lat="45.41122" lon="4.66143">
        <ele>547</ele>
        <time>2017-03-14T23:58:54Z</time>
      </trkpt>
      <trkpt lat="45.41125" lon="4.66137">
        <ele>544.6</ele>
        <time>2017-03-14T23:58:55Z</time>
      </trkpt>
      <trkpt lat="45.41126" lon="4.66129">
        <ele>542.3</ele>
        <time>2017-03-14T23:58:56Z</time>
      </trkpt>
      <trkpt lat="45.41128" lon="4.66124">
        <ele>541.9</ele>
        <time>2017-03-14T23:58:58Z</time>
      </trkpt>
      <trkpt lat="45.41128" lon="4.6612">
        <ele>541.5</ele>
        <time>2017-03-14T23:58:59Z</time>
      </trkpt>
      <trkpt lat="45.41127" lon="4.66113">
        <ele>541.2</ele>
        <time>2017-03-14T23:59:00Z</time>
      </trkpt>
      <trkpt lat="45.41122" lon="4.66108">
        <ele>542.9</ele>
        <time>2017-03-14T23:59:01Z</time>
      </trkpt>
      <trkpt lat="45.41121" lon="4.66098">
        <ele>542.5</ele>
        <time>2017-03-14T23:59:02Z</time>
      </trkpt>
      <trkpt lat="45.41123" lon="4.66091">
        <ele>541.1</ele>
        <time>2017-03-14T23:59:03Z</time>
      </trkpt>
      <trkpt lat="45.41126" lon="4.66088">
        <ele>539.8</ele>
        <time>2017-03-14T23:59:05Z</time>
      </trkpt>
      <trkpt lat="45.41126" lon="4.66083">
        <ele>539.7</ele>
        <time>2017-03-14T23:59:06Z</time>
      </trkpt>
      <trkpt lat="45.41122" lon="4.66077">
        <ele>541.8</ele>
        <time>2017-03-14T23:59:07Z</time>
      </trkpt>
      <trkpt lat="45.41123" lon="4.66072">
        <ele>540.4</ele>
        <time>2017-03-14T23:59:08Z</time>
      </trkpt>
      <trkpt lat="45.41125" lon="4.66063">
        <ele>540.1</ele>
        <time>2017-03-14T23:59:09Z</time>
      </trkpt>
      <trkpt lat="45.41121" lon="4.66052">
        <ele>541.1</ele>
        <time>2017-03-14T23:59:10Z</time>
      </trkpt>
      <trkpt lat="45.41127" lon="4.66036">
        <ele>539.9</ele>
        <time>2017-03-14T23:59:11Z</time>
      </trkpt>
      <trkpt lat="45.41127" lon="4.66025">
        <ele>540</ele>
        <time>2017-03-14T23:59:12Z</time>
      </trkpt>
      <trkpt lat="45.41121" lon="4.66021">
        <ele>541.3</ele>
        <time>2017-03-14T23:59:13Z</time>
      </trkpt>
      <trkpt lat="45.41116" lon="4.66027">
        <ele>543.4</ele>
        <time>2017-03-14T23:59:14Z</time>
      </trkpt>
      <trkpt lat="45.41117" lon="4.66022">
        <ele>542.1</ele>
        <time>2017-03-14T23:59:15Z</time>
      </trkpt>
      <trkpt lat="45.41119" lon="4.66019">
        <ele>542.1</ele>
        <time>2017-03-14T23:59:16Z</time>
      </trkpt>
      <trkpt lat="45.41125" lon="4.6602">
        <ele>540.4</ele>
        <time>2017-03-14T23:59:17Z</time>
      </trkpt>
      <trkpt lat="45.4113" lon="4.66019">
        <ele>539.4</ele>
        <time>2017-03-14T23:59:18Z</time>
      </trkpt>
      <trkpt lat="45.41133" lon="4.6602">
        <ele>539.1</ele>
        <time>2017-03-14T23:59:19Z</time>
      </trkpt>
      <trkpt lat="45.41142" lon="4.66019">
        <ele>539.2</ele>
        <time>2017-03-14T23:59:20Z</time>
      </trkpt>
      <trkpt lat="45.41149" lon="4.66022">
        <ele>539.5</ele>
        <time>2017-03-14T23:59:21Z</time>
      </trkpt>
      <trkpt lat="45.41151" lon="4.66024">
        <ele>539.4</ele>
        <time>2017-03-14T23:59:22Z</time>
      </trkpt>
      <trkpt lat="45.41147" lon="4.66024">
        <ele>539.1</ele>
        <time>2017-03-14T23:59:23Z</time>
      </trkpt>
      <trkpt lat="45.41144" lon="4.66035">
        <ele>538.3</ele>
        <time>2017-03-14T23:59:24Z</time>
      </trkpt>
      <trkpt lat="45.41147" lon="4.66039">
        <ele>538.2</ele>
        <time>2017-03-14T23:59:25Z</time>
      </trkpt>
      <trkpt lat="45.41154" lon="4.66054">
        <ele>537.9</ele>
        <time>2017-03-14T23:59:26Z</time>
      </trkpt>
      <trkpt lat="45.41156" lon="4.66059">
        <ele>537.9</ele>
        <time>2017-03-14T23:59:28Z</time>
      </trkpt>
      <trkpt lat="45.41154" lon="4.66063">
        <ele>537.3</ele>
        <time>2017-03-14T23:59:30Z</time>
      </trkpt>
      <trkpt lat="45.41151" lon="4.66064">
        <ele>537.1</ele>
        <time>2017-03-14T23:59:32Z</time>
      </trkpt>
      <trkpt lat="45.41153" lon="4.66066">
        <ele>537</ele>
        <time>2017-03-14T23:59:34Z</time>
      </trkpt>
      <trkpt lat="45.41158" lon="4.66071">
        <ele>536.9</ele>
        <time>2017-03-14T23:59:36Z</time>
      </trkpt>
      <trkpt lat="45.41162" lon="4.66069">
        <ele>538.1</ele>
        <time>2017-03-14T23:59:38Z</time>
      </trkpt>
      <trkpt lat="45.41165" lon="4.66077">
        <ele>537.8</ele>
        <time>2017-03-14T23:59:40Z</time>
      </trkpt>
      <trkpt lat="45.41168" lon="4.6608">
        <ele>537.9</ele>
        <time>2017-03-14T23:59:41Z</time>
      </trkpt>
      <trkpt lat="45.41173" lon="4.66081">
        <ele>538.3</ele>
        <time>2017-03-14T23:59:42Z</time>
      </trkpt>
      <trkpt lat="45.41181" lon="4.66083">
        <ele>539.2</ele>
        <time>2017-03-14T23:59:44Z</time>
      </trkpt>
      <trkpt lat="45.41183" lon="4.66086">
        <ele>539.6</ele>
        <time>2017-03-14T23:59:45Z</time>
      </trkpt>
      <trkpt lat="45.41186" lon="4.66092">
        <ele>539.1</ele>
        <time>2017-03-14T23:59:47Z</time>
      </trkpt>
      <trkpt lat="45.41192" lon="4.66098">
        <ele>539.1</ele>
        <time>2017-03-14T23:59:48Z</time>
      </trkpt>
      <trkpt lat="45.41189" lon="4.66103">
        <ele>538.6</ele>
        <time>2017-03-14T23:59:49Z</time>
      </trkpt>
      <trkpt lat="45.41184" lon="4.66105">
        <ele>537.3</ele>
        <time>2017-03-14T23:59:50Z</time>
      </trkpt>
      <trkpt lat="45.41191" lon="4.66108">
        <ele>538.1</ele>
        <time>2017-03-14T23:59:52Z</time>
      </trkpt>
      <trkpt lat="45.41195" lon="4.6611">
        <ele>538</ele>
        <time>2017-03-14T23:59:53Z</time>
      </trkpt>
      <trkpt lat="45.41197" lon="4.66111">
        <ele>538.4</ele>
        <time>2017-03-14T23:59:55Z</time>
      </trkpt>
      <trkpt lat="45.41195" lon="4.66117">
        <ele>537</ele>
        <time>2017-03-14T23:59:57Z</time>
      </trkpt>
      <trkpt lat="45.41193" lon="4.6612">
        <ele>537</ele>
        <time>2017-03-15T00:00:00Z</time>
      </trkpt>
      <trkpt lat="45.41193" lon="4.66124">
        <ele>536.3</ele>
        <time>2017-03-15T00:00:01Z</time>
      </trkpt>
      <trkpt lat="45.41192" lon="4.66128">
        <ele>535.6</ele>
        <time>2017-03-15T00:00:05Z</time>
      </trkpt>
      <trkpt lat="45.41194" lon="4.66133">
        <ele>534.9</ele>
        <time>2017-03-15T00:00:07Z</time>
      </trkpt>
      <trkpt lat="45.41196" lon="4.66138">
        <ele>534</ele>
        <time>2017-03-15T00:00:08Z</time>
      </trkpt>
      <trkpt lat="45.412" lon="4.66144">
        <ele>533.8</ele>
        <time>2017-03-15T00:00:10Z</time>
      </trkpt>
      <trkpt lat="45.41199" lon="4.66148">
        <ele>532.9</ele>
        <time>2017-03-15T00:00:11Z</time>
      </trkpt>
      <trkpt lat="45.412" lon="4.66153">
        <ele>532.1</ele>
        <time>2017-03-15T00:00:12Z</time>
      </trkpt>
      <trkpt lat="45.41201" lon="4.6616">
        <ele>531.1</ele>
        <time>2017-03-15T00:00:14Z</time>
      </trkpt>
      <trkpt lat="45.41204" lon="4.66165">
        <ele>531</ele>
        <time>2017-03-15T00:00:15Z</time>
      </trkpt>
      <trkpt lat="45.41207" lon="4.66166">
        <ele>531.5</ele>
        <time>2017-03-15T00:00:16Z</time>
      </trkpt>
      <trkpt lat="45.41209" lon="4.66171">
        <ele>531</ele>
        <time>2017-03-15T00:00:18Z</time>
      </trkpt>
      <trkpt lat="45.4121" lon="4.66176">
        <ele>530.5</ele>
        <time>2017-03-15T00:00:19Z</time>
      </trkpt>
      <trkpt lat="45.41212" lon="4.6618">
        <ele>530.6</ele>
        <time>2017-03-15T00:00:20Z</time>
      </trkpt>
      <trkpt lat="45.41214" lon="4.66183">
        <ele>530.8</ele>
        <time>2017-03-15T00:00:21Z</time>
      </trkpt>
      <trkpt lat="45.41215" lon="4.6619">
        <ele>530.2</ele>
        <time>2017-03-15T00:00:23Z</time>
      </trkpt>
      <trkpt lat="45.41221" lon="4.66194">
        <ele>531.1</ele>
        <time>2017-03-15T00:00:28Z</time>
      </trkpt>
      <trkpt lat="45.41225" lon="4.66199">
        <ele>531.4</ele>
        <time>2017-03-15T00:00:29Z</time>
      </trkpt>
      <trkpt lat="45.4123" lon="4.66204">
        <ele>532.3</ele>
        <time>2017-03-15T00:00:31Z</time>
      </trkpt>
      <trkpt lat="45.41231" lon="4.66209">
        <ele>531.9</ele>
        <time>2017-03-15T00:00:33Z</time>
      </trkpt>
      <trkpt lat="45.41234" lon="4.66211">
        <ele>532.9</ele>
        <time>2017-03-15T00:00:34Z</time>
      </trkpt>
      <trkpt lat="45.4124" lon="4.66214">
        <ele>533.6</ele>
        <time>2017-03-15T00:00:36Z</time>
      </trkpt>
      <trkpt lat="45.41243" lon="4.66216">
        <ele>533.9</ele>
        <time>2017-03-15T00:00:37Z</time>
      </trkpt>
      <trkpt lat="45.41246" lon="4.66218">
        <ele>534.5</ele>
        <time>2017-03-15T00:00:40Z</time>
      </trkpt>
      <trkpt lat="45.41249" lon="4.6622">
        <ele>535.4</ele>
        <time>2017-03-15T00:00:45Z</time>
      </trkpt>
      <trkpt lat="45.41252" lon="4.66219">
        <ele>536.5</ele>
        <time>2017-03-15T00:00:48Z</time>
      </trkpt>
      <trkpt lat="45.41257" lon="4.66219">
        <ele>537.1</ele>
        <time>2017-03-15T00:00:50Z</time>
      </trkpt>
      <trkpt lat="45.41261" lon="4.66216">
        <ele>537.8</ele>
        <time>2017-03-15T00:00:52Z</time>
      </trkpt>
      <trkpt lat="45.41265" lon="4.66216">
        <ele>539.3</ele>
        <time>2017-03-15T00:00:54Z</time>
      </trkpt>
      <trkpt lat="45.41268" lon="4.66216">
        <ele>539.9</ele>
        <time>2017-03-15T00:00:56Z</time>
      </trkpt>
      <trkpt lat="45.41272" lon="4.66215">
        <ele>541.2</ele>
        <time>2017-03-15T00:00:59Z</time>
      </trkpt>
      <trkpt lat="45.41275" lon="4.66215">
        <ele>541.8</ele>
        <time>2017-03-15T00:01:02Z</time>
      </trkpt>
      <trkpt lat="45.41278" lon="4.66212">
        <ele>542.3</ele>
        <time>2017-03-15T00:01:07Z</time>
      </trkpt>
      <trkpt lat="45.41281" lon="4.66208">
        <ele>543.5</ele>
        <time>2017-03-15T00:01:10Z</time>
      </trkpt>
      <trkpt lat="45.41284" lon="4.66207">
        <ele>544.1</ele>
        <time>2017-03-15T00:01:12Z</time>
      </trkpt>
      <trkpt lat="45.41287" lon="4.66206">
        <ele>545.4</ele>
        <time>2017-03-15T00:01:15Z</time>
      </trkpt>
      <trkpt lat="45.4129" lon="4.66204">
        <ele>546</ele>
        <time>2017-03-15T00:01:19Z</time>
      </trkpt>
      <trkpt lat="45.41293" lon="4.66203">
        <ele>546.6</ele>
        <time>2017-03-15T00:01:21Z</time>
      </trkpt>
      <trkpt lat="45.41296" lon="4.66201">
        <ele>547.8</ele>
        <time>2017-03-15T00:01:25Z</time>
      </trkpt>
      <trkpt lat="45.41299" lon="4.66199">
        <ele>548.3</ele>
        <time>2017-03-15T00:01:27Z</time>
      </trkpt>
      <trkpt lat="45.41302" lon="4.66197">
        <ele>549.2</ele>
        <time>2017-03-15T00:01:31Z</time>
      </trkpt>
      <trkpt lat="45.41307" lon="4.66193">
        <ele>550.3</ele>
        <time>2017-03-15T00:01:34Z</time>
      </trkpt>
      <trkpt lat="45.41311" lon="4.66192">
        <ele>550.7</ele>
        <time>2017-03-15T00:01:36Z</time>
      </trkpt>
      <trkpt lat="45.41314" lon="4.66187">
        <ele>551.5</ele>
        <time>2017-03-15T00:01:39Z</time>
      </trkpt>
      <trkpt lat="45.41317" lon="4.66185">
        <ele>552</ele>
        <time>2017-03-15T00:01:41Z</time>
      </trkpt>
      <trkpt lat="45.41321" lon="4.66182">
        <ele>553</ele>
        <time>2017-03-15T00:01:42Z</time>
      </trkpt>
      <trkpt lat="45.41324" lon="4.66178">
        <ele>554.1</ele>
        <time>2017-03-15T00:01:43Z</time>
      </trkpt>
      <trkpt lat="45.41323" lon="4.66183">
        <ele>553.5</ele>
        <time>2017-03-15T00:01:44Z</time>
      </trkpt>
      <trkpt lat="45.41325" lon="4.66188">
        <ele>553.3</ele>
        <time>2017-03-15T00:01:45Z</time>
      </trkpt>
      <trkpt lat="45.41324" lon="4.66194">
        <ele>551.8</ele>
        <time>2017-03-15T00:01:46Z</time>
      </trkpt>
      <trkpt lat="45.41325" lon="4.66202">
        <ele>551.8</ele>
        <time>2017-03-15T00:01:47Z</time>
      </trkpt>
      <trkpt lat="45.41329" lon="4.66204">
        <ele>551.7</ele>
        <time>2017-03-15T00:01:48Z</time>
      </trkpt>
      <trkpt lat="45.4133" lon="4.66212">
        <ele>550.7</ele>
        <time>2017-03-15T00:01:49Z</time>
      </trkpt>
      <trkpt lat="45.41331" lon="4.66217">
        <ele>550.6</ele>
        <time>2017-03-15T00:01:50Z</time>
      </trkpt>
      <trkpt lat="45.41331" lon="4.66224">
        <ele>549.9</ele>
        <time>2017-03-15T00:01:51Z</time>
      </trkpt>
      <trkpt lat="45.41332" lon="4.66229">
        <ele>549.4</ele>
        <time>2017-03-15T00:01:52Z</time>
      </trkpt>
      <trkpt lat="45.41332" lon="4.66233">
        <ele>548.9</ele>
        <time>2017-03-15T00:01:53Z</time>
      </trkpt>
      <trkpt lat="45.41338" lon="4.66241">
        <ele>549.4</ele>
        <time>2017-03-15T00:01:54Z</time>
      </trkpt>
      <trkpt lat="45.41338" lon="4.66247">
        <ele>548.4</ele>
        <time>2017-03-15T00:01:56Z</time>
      </trkpt>
      <trkpt lat="45.41338" lon="4.66252">
        <ele>547.9</ele>
        <time>2017-03-15T00:01:57Z</time>
      </trkpt>
      <trkpt lat="45.41339" lon="4.66256">
        <ele>547.4</ele>
        <time>2017-03-15T00:01:58Z</time>
      </trkpt>
      <trkpt lat="45.41339" lon="4.66262">
        <ele>546.7</ele>
        <time>2017-03-15T00:02:00Z</time>
      </trkpt>
      <trkpt lat="45.41336" lon="4.66269">
        <ele>544.7</ele>
        <time>2017-03-15T00:02:02Z</time>
      </trkpt>
      <trkpt lat="45.41338" lon="4.66275">
        <ele>544.6</ele>
        <time>2017-03-15T00:02:03Z</time>
      </trkpt>
      <trkpt lat="45.41341" lon="4.66279">
        <ele>544.6</ele>
        <time>2017-03-15T00:02:04Z</time>
      </trkpt>
      <trkpt lat="45.41343" lon="4.66285">
        <ele>543.9</ele>
        <time>2017-03-15T00:02:05Z</time>
      </trkpt>
      <trkpt lat="45.41348" lon="4.6629">
        <ele>543.5</ele>
        <time>2017-03-15T00:02:06Z</time>
      </trkpt>
      <trkpt lat="45.41343" lon="4.66291">
        <ele>543.1</ele>
        <time>2017-03-15T00:02:07Z</time>
      </trkpt>
      <trkpt lat="45.41343" lon="4.66295">
        <ele>542.2</ele>
        <time>2017-03-15T00:02:08Z</time>
      </trkpt>
      <trkpt lat="45.41341" lon="4.66304">
        <ele>540.3</ele>
        <time>2017-03-15T00:02:10Z</time>
      </trkpt>
      <trkpt lat="45.41337" lon="4.66305">
        <ele>539.2</ele>
        <time>2017-03-15T00:02:11Z</time>
      </trkpt>
      <trkpt lat="45.41336" lon="4.66311">
        <ele>538</ele>
        <time>2017-03-15T00:02:12Z</time>
      </trkpt>
      <trkpt lat="45.41338" lon="4.66315">
        <ele>537.4</ele>
        <time>2017-03-15T00:02:13Z</time>
      </trkpt>
      <trkpt lat="45.41342" lon="4.66325">
        <ele>535.7</ele>
        <time>2017-03-15T00:02:14Z</time>
      </trkpt>
      <trkpt lat="45.41342" lon="4.66331">
        <ele>534</ele>
        <time>2017-03-15T00:02:15Z</time>
      </trkpt>
      <trkpt lat="45.41342" lon="4.66339">
        <ele>533.2</ele>
        <time>2017-03-15T00:02:16Z</time>
      </trkpt>
      <trkpt lat="45.41348" lon="4.66353">
        <ele>530.6</ele>
        <time>2017-03-15T00:02:17Z</time>
      </trkpt>
      <trkpt lat="45.41353" lon="4.66354">
        <ele>531.2</ele>
        <time>2017-03-15T00:02:18Z</time>
      </trkpt>
      <trkpt lat="45.41354" lon="4.66362">
        <ele>529.8</ele>
        <time>2017-03-15T00:02:19Z</time>
      </trkpt>
      <trkpt lat="45.41361" lon="4.66368">
        <ele>529.7</ele>
        <time>2017-03-15T00:02:20Z</time>
      </trkpt>
      <trkpt lat="45.41365" lon="4.66376">
        <ele>528.2</ele>
        <time>2017-03-15T00:02:21Z</time>
      </trkpt>
      <trkpt lat="45.41368" lon="4.6638">
        <ele>527.6</ele>
        <time>2017-03-15T00:02:23Z</time>
      </trkpt>
      <trkpt lat="45.41371" lon="4.66387">
        <ele>526.3</ele>
        <time>2017-03-15T00:02:26Z</time>
      </trkpt>
      <trkpt lat="45.41371" lon="4.66391">
        <ele>525.5</ele>
        <time>2017-03-15T00:02:27Z</time>
      </trkpt>
      <trkpt lat="45.41373" lon="4.66399">
        <ele>524.9</ele>
        <time>2017-03-15T00:02:28Z</time>
      </trkpt>
      <trkpt lat="45.41375" lon="4.66408">
        <ele>523</ele>
        <time>2017-03-15T00:02:30Z</time>
      </trkpt>
      <trkpt lat="45.41377" lon="4.66414">
        <ele>521.4</ele>
        <time>2017-03-15T00:02:32Z</time>
      </trkpt>
      <trkpt lat="45.41381" lon="4.66416">
        <ele>521.3</ele>
        <time>2017-03-15T00:02:33Z</time>
      </trkpt>
      <trkpt lat="45.41384" lon="4.66417">
        <ele>520.3</ele>
        <time>2017-03-15T00:02:34Z</time>
      </trkpt>
      <trkpt lat="45.41387" lon="4.66422">
        <ele>519.3</ele>
        <time>2017-03-15T00:02:35Z</time>
      </trkpt>
      <trkpt lat="45.4139" lon="4.66426">
        <ele>518.1</ele>
        <time>2017-03-15T00:02:36Z</time>
      </trkpt>
      <trkpt lat="45.41394" lon="4.6643">
        <ele>516.8</ele>
        <time>2017-03-15T00:02:37Z</time>
      </trkpt>
      <trkpt lat="45.41397" lon="4.66435">
        <ele>516.1</ele>
        <time>2017-03-15T00:02:38Z</time>
      </trkpt>
      <trkpt lat="45.41399" lon="4.66439">
        <ele>515.3</ele>
        <time>2017-03-15T00:02:39Z</time>
      </trkpt>
      <trkpt lat="45.41401" lon="4.66442">
        <ele>515.1</ele>
        <time>2017-03-15T00:02:40Z</time>
      </trkpt>
      <trkpt lat="45.41404" lon="4.66448">
        <ele>514.1</ele>
        <time>2017-03-15T00:02:41Z</time>
      </trkpt>
      <trkpt lat="45.41407" lon="4.66452">
        <ele>513.5</ele>
        <time>2017-03-15T00:02:42Z</time>
      </trkpt>
      <trkpt lat="45.41412" lon="4.6646">
        <ele>512.2</ele>
        <time>2017-03-15T00:02:43Z</time>
      </trkpt>
      <trkpt lat="45.41418" lon="4.66464">
        <ele>510.6</ele>
        <time>2017-03-15T00:02:45Z</time>
      </trkpt>
      <trkpt lat="45.41421" lon="4.66466">
        <ele>509.4</ele>
        <time>2017-03-15T00:02:46Z</time>
      </trkpt>
      <trkpt lat="45.41424" lon="4.66468">
        <ele>508.6</ele>
        <time>2017-03-15T00:02:47Z</time>
      </trkpt>
      <trkpt lat="45.41427" lon="4.66479">
        <ele>506.7</ele>
        <time>2017-03-15T00:02:48Z</time>
      </trkpt>
      <trkpt lat="45.41431" lon="4.66483">
        <ele>505.6</ele>
        <time>2017-03-15T00:02:50Z</time>
      </trkpt>
      <trkpt lat="45.41433" lon="4.66488">
        <ele>504.6</ele>
        <time>2017-03-15T00:02:51Z</time>
      </trkpt>
      <trkpt lat="45.41435" lon="4.66491">
        <ele>504.4</ele>
        <time>2017-03-15T00:02:52Z</time>
      </trkpt>
      <trkpt lat="45.4144" lon="4.66498">
        <ele>503.3</ele>
        <time>2017-03-15T00:02:53Z</time>
      </trkpt>
      <trkpt lat="45.41442" lon="4.66503">
        <ele>502.9</ele>
        <time>2017-03-15T00:02:54Z</time>
      </trkpt>
      <trkpt lat="45.41445" lon="4.66506">
        <ele>502.9</ele>
        <time>2017-03-15T00:02:55Z</time>
      </trkpt>
      <trkpt lat="45.41448" lon="4.6651">
        <ele>502.3</ele>
        <time>2017-03-15T00:02:56Z</time>
      </trkpt>
      <trkpt lat="45.41452" lon="4.66518">
        <ele>501.8</ele>
        <time>2017-03-15T00:02:57Z</time>
      </trkpt>
      <trkpt lat="45.41454" lon="4.66526">
        <ele>501.4</ele>
        <time>2017-03-15T00:02:58Z</time>
      </trkpt>
      <trkpt lat="45.41452" lon="4.66532">
        <ele>501.3</ele>
        <time>2017-03-15T00:02:59Z</time>
      </trkpt>
      <trkpt lat="45.41453" lon="4.66536">
        <ele>500.9</ele>
        <time>2017-03-15T00:03:00Z</time>
      </trkpt>
      <trkpt lat="45.41457" lon="4.66542">
        <ele>500</ele>
        <time>2017-03-15T00:03:01Z</time>
      </trkpt>
      <trkpt lat="45.41453" lon="4.66547">
        <ele>499.5</ele>
        <time>2017-03-15T00:03:02Z</time>
      </trkpt>
      <trkpt lat="45.41452" lon="4.66552">
        <ele>498.9</ele>
        <time>2017-03-15T00:03:06Z</time>
      </trkpt>
      <trkpt lat="45.41456" lon="4.66556">
        <ele>498.4</ele>
        <time>2017-03-15T00:03:08Z</time>
      </trkpt>
      <trkpt lat="45.41458" lon="4.66553">
        <ele>498.8</ele>
        <time>2017-03-15T00:03:09Z</time>
      </trkpt>
      <trkpt lat="45.41463" lon="4.66553">
        <ele>498.5</ele>
        <time>2017-03-15T00:03:11Z</time>
      </trkpt>
      <trkpt lat="45.41468" lon="4.66549">
        <ele>498.9</ele>
        <time>2017-03-15T00:03:12Z</time>
      </trkpt>
      <trkpt lat="45.41474" lon="4.66553">
        <ele>497.8</ele>
        <time>2017-03-15T00:03:13Z</time>
      </trkpt>
      <trkpt lat="45.41479" lon="4.66555">
        <ele>496.4</ele>
        <time>2017-03-15T00:03:15Z</time>
      </trkpt>
      <trkpt lat="45.41483" lon="4.66557">
        <ele>495.8</ele>
        <time>2017-03-15T00:03:16Z</time>
      </trkpt>
      <trkpt lat="45.4149" lon="4.66562">
        <ele>493.9</ele>
        <time>2017-03-15T00:03:17Z</time>
      </trkpt>
      <trkpt lat="45.41493" lon="4.66561">
        <ele>492.7</ele>
        <time>2017-03-15T00:03:18Z</time>
      </trkpt>
      <trkpt lat="45.41498" lon="4.66561">
        <ele>492.1</ele>
        <time>2017-03-15T00:03:19Z</time>
      </trkpt>
      <trkpt lat="45.41501" lon="4.66562">
        <ele>491.6</ele>
        <time>2017-03-15T00:03:20Z</time>
      </trkpt>
      <trkpt lat="45.41505" lon="4.66562">
        <ele>491</ele>
        <time>2017-03-15T00:03:21Z</time>
      </trkpt>
      <trkpt lat="45.41509" lon="4.66559">
        <ele>489.9</ele>
        <time>2017-03-15T00:03:23Z</time>
      </trkpt>
      <trkpt lat="45.41509" lon="4.66555">
        <ele>490.3</ele>
        <time>2017-03-15T00:03:24Z</time>
      </trkpt>
      <trkpt lat="45.41511" lon="4.6655">
        <ele>490</ele>
        <time>2017-03-15T00:03:27Z</time>
      </trkpt>
      <trkpt lat="45.41514" lon="4.66545">
        <ele>490.2</ele>
        <time>2017-03-15T00:03:28Z</time>
      </trkpt>
      <trkpt lat="45.41516" lon="4.66541">
        <ele>490.1</ele>
        <time>2017-03-15T00:03:29Z</time>
      </trkpt>
      <trkpt lat="45.41519" lon="4.66533">
        <ele>490.2</ele>
        <time>2017-03-15T00:03:30Z</time>
      </trkpt>
      <trkpt lat="45.4152" lon="4.66529">
        <ele>489.7</ele>
        <time>2017-03-15T00:03:32Z</time>
      </trkpt>
      <trkpt lat="45.41522" lon="4.66524">
        <ele>490.1</ele>
        <time>2017-03-15T00:03:33Z</time>
      </trkpt>
      <trkpt lat="45.41526" lon="4.66526">
        <ele>489.1</ele>
        <time>2017-03-15T00:03:34Z</time>
      </trkpt>
      <trkpt lat="45.41525" lon="4.66519">
        <ele>490.1</ele>
        <time>2017-03-15T00:03:35Z</time>
      </trkpt>
      <trkpt lat="45.41524" lon="4.66513">
        <ele>490.7</ele>
        <time>2017-03-15T00:03:36Z</time>
      </trkpt>
      <trkpt lat="45.41525" lon="4.66503">
        <ele>491.7</ele>
        <time>2017-03-15T00:03:37Z</time>
      </trkpt>
      <trkpt lat="45.41531" lon="4.66493">
        <ele>490.1</ele>
        <time>2017-03-15T00:03:38Z</time>
      </trkpt>
      <trkpt lat="45.41536" lon="4.66492">
        <ele>487.7</ele>
        <time>2017-03-15T00:03:39Z</time>
      </trkpt>
      <trkpt lat="45.41533" lon="4.66484">
        <ele>489.3</ele>
        <time>2017-03-15T00:03:40Z</time>
      </trkpt>
      <trkpt lat="45.41532" lon="4.6648">
        <ele>490.5</ele>
        <time>2017-03-15T00:03:41Z</time>
      </trkpt>
      <trkpt lat="45.41532" lon="4.66482">
        <ele>490.3</ele>
        <time>2017-03-15T00:03:43Z</time>
      </trkpt>
      <trkpt lat="45.41535" lon="4.66481">
        <ele>489.5</ele>
        <time>2017-03-15T00:03:44Z</time>
      </trkpt>
      <trkpt lat="45.41534" lon="4.66477">
        <ele>489.7</ele>
        <time>2017-03-15T00:03:46Z</time>
      </trkpt>
      <trkpt lat="45.41536" lon="4.66471">
        <ele>489.2</ele>
        <time>2017-03-15T00:03:48Z</time>
      </trkpt>
      <trkpt lat="45.41539" lon="4.66463">
        <ele>489.6</ele>
        <time>2017-03-15T00:03:50Z</time>
      </trkpt>
      <trkpt lat="45.41538" lon="4.66459">
        <ele>490.5</ele>
        <time>2017-03-15T00:03:51Z</time>
      </trkpt>
      <trkpt lat="45.41542" lon="4.66456">
        <ele>489.7</ele>
        <time>2017-03-15T00:03:52Z</time>
      </trkpt>
      <trkpt lat="45.41541" lon="4.66448">
        <ele>492.3</ele>
        <time>2017-03-15T00:03:57Z</time>
      </trkpt>
      <trkpt lat="45.41543" lon="4.66443">
        <ele>492.4</ele>
        <time>2017-03-15T00:03:59Z</time>
      </trkpt>
      <trkpt lat="45.41545" lon="4.66439">
        <ele>492.5</ele>
        <time>2017-03-15T00:04:00Z</time>
      </trkpt>
      <trkpt lat="45.41547" lon="4.66435">
        <ele>493.4</ele>
        <time>2017-03-15T00:04:01Z</time>
      </trkpt>
      <trkpt lat="45.4155" lon="4.66435">
        <ele>492.7</ele>
        <time>2017-03-15T00:04:02Z</time>
      </trkpt>
      <trkpt lat="45.41551" lon="4.66429">
        <ele>494</ele>
        <time>2017-03-15T00:04:03Z</time>
      </trkpt>
      <trkpt lat="45.41554" lon="4.66426">
        <ele>493.3</ele>
        <time>2017-03-15T00:04:04Z</time>
      </trkpt>
      <trkpt lat="45.41557" lon="4.6642">
        <ele>494.4</ele>
        <time>2017-03-15T00:04:06Z</time>
      </trkpt>
      <trkpt lat="45.41558" lon="4.66412">
        <ele>495.9</ele>
        <time>2017-03-15T00:04:07Z</time>
      </trkpt>
      <trkpt lat="45.41561" lon="4.66409">
        <ele>495.2</ele>
        <time>2017-03-15T00:04:08Z</time>
      </trkpt>
      <trkpt lat="45.41562" lon="4.66404">
        <ele>496.7</ele>
        <time>2017-03-15T00:04:10Z</time>
      </trkpt>
      <trkpt lat="45.41564" lon="4.66399">
        <ele>496.6</ele>
        <time>2017-03-15T00:04:12Z</time>
      </trkpt>
      <trkpt lat="45.41567" lon="4.66391">
        <ele>496.8</ele>
        <time>2017-03-15T00:04:14Z</time>
      </trkpt>
      <trkpt lat="45.41571" lon="4.66386">
        <ele>496.4</ele>
        <time>2017-03-15T00:04:16Z</time>
      </trkpt>
      <trkpt lat="45.41573" lon="4.66378">
        <ele>496</ele>
        <time>2017-03-15T00:04:18Z</time>
      </trkpt>
      <trkpt lat="45.41575" lon="4.66375">
        <ele>495.7</ele>
        <time>2017-03-15T00:04:19Z</time>
      </trkpt>
      <trkpt lat="45.4158" lon="4.66369">
        <ele>496.2</ele>
        <time>2017-03-15T00:04:21Z</time>
      </trkpt>
      <trkpt lat="45.41583" lon="4.6637">
        <ele>494.7</ele>
        <time>2017-03-15T00:04:23Z</time>
      </trkpt>
      <trkpt lat="45.41586" lon="4.66367">
        <ele>494.7</ele>
        <time>2017-03-15T00:04:26Z</time>
      </trkpt>
      <trkpt lat="45.4159" lon="4.66364">
        <ele>493.9</ele>
        <time>2017-03-15T00:04:29Z</time>
      </trkpt>
      <trkpt lat="45.41592" lon="4.66358">
        <ele>494.4</ele>
        <time>2017-03-15T00:04:31Z</time>
      </trkpt>
      <trkpt lat="45.41595" lon="4.66355">
        <ele>494.4</ele>
        <time>2017-03-15T00:04:33Z</time>
      </trkpt>
      <trkpt lat="45.41597" lon="4.66349">
        <ele>494.4</ele>
        <time>2017-03-15T00:04:35Z</time>
      </trkpt>
      <trkpt lat="45.41601" lon="4.66346">
        <ele>494.6</ele>
        <time>2017-03-15T00:04:37Z</time>
      </trkpt>
      <trkpt lat="45.41602" lon="4.66342">
        <ele>494.7</ele>
        <time>2017-03-15T00:04:38Z</time>
      </trkpt>
      <trkpt lat="45.41606" lon="4.66343">
        <ele>494.3</ele>
        <time>2017-03-15T00:04:40Z</time>
      </trkpt>
      <trkpt lat="45.4161" lon="4.6634">
        <ele>493.9</ele>
        <time>2017-03-15T00:04:42Z</time>
      </trkpt>
      <trkpt lat="45.41614" lon="4.66335">
        <ele>494.4</ele>
        <time>2017-03-15T00:04:44Z</time>
      </trkpt>
      <trkpt lat="45.41617" lon="4.66327">
        <ele>495.1</ele>
        <time>2017-03-15T00:04:46Z</time>
      </trkpt>
      <trkpt lat="45.4162" lon="4.66323">
        <ele>494.8</ele>
        <time>2017-03-15T00:04:48Z</time>
      </trkpt>
      <trkpt lat="45.41622" lon="4.66319">
        <ele>495.5</ele>
        <time>2017-03-15T00:04:49Z</time>
      </trkpt>
      <trkpt lat="45.41625" lon="4.66319">
        <ele>495.2</ele>
        <time>2017-03-15T00:04:50Z</time>
      </trkpt>
      <trkpt lat="45.41628" lon="4.66311">
        <ele>496.4</ele>
        <time>2017-03-15T00:04:51Z</time>
      </trkpt>
      <trkpt lat="45.41632" lon="4.66308">
        <ele>496.9</ele>
        <time>2017-03-15T00:04:52Z</time>
      </trkpt>
      <trkpt lat="45.41631" lon="4.66303">
        <ele>497.5</ele>
        <time>2017-03-15T00:04:53Z</time>
      </trkpt>
      <trkpt lat="45.41635" lon="4.66297">
        <ele>497.9</ele>
        <time>2017-03-15T00:04:55Z</time>
      </trkpt>
      <trkpt lat="45.41638" lon="4.6629">
        <ele>498.9</ele>
        <time>2017-03-15T00:04:57Z</time>
      </trkpt>
      <trkpt lat="45.41642" lon="4.66287">
        <ele>499.3</ele>
        <time>2017-03-15T00:04:58Z</time>
      </trkpt>
      <trkpt lat="45.41643" lon="4.66283">
        <ele>499.8</ele>
        <time>2017-03-15T00:04:59Z</time>
      </trkpt>
      <trkpt lat="45.41645" lon="4.66281">
        <ele>499.6</ele>
        <time>2017-03-15T00:05:00Z</time>
      </trkpt>
      <trkpt lat="45.4165" lon="4.66276">
        <ele>499.8</ele>
        <time>2017-03-15T00:05:02Z</time>
      </trkpt>
      <trkpt lat="45.41653" lon="4.66274">
        <ele>499.9</ele>
        <time>2017-03-15T00:05:03Z</time>
      </trkpt>
      <trkpt lat="45.41654" lon="4.6627">
        <ele>500.1</ele>
        <time>2017-03-15T00:05:04Z</time>
      </trkpt>
      <trkpt lat="45.41657" lon="4.66265">
        <ele>500.2</ele>
        <time>2017-03-15T00:05:05Z</time>
      </trkpt>
      <trkpt lat="45.41657" lon="4.6626">
        <ele>500.5</ele>
        <time>2017-03-15T00:05:07Z</time>
      </trkpt>
      <trkpt lat="45.41657" lon="4.66256">
        <ele>500.9</ele>
        <time>2017-03-15T00:05:09Z</time>
      </trkpt>
      <trkpt lat="45.4166" lon="4.66252">
        <ele>500.8</ele>
        <time>2017-03-15T00:05:12Z</time>
      </trkpt>
      <trkpt lat="45.41661" lon="4.66247">
        <ele>501</ele>
        <time>2017-03-15T00:05:13Z</time>
      </trkpt>
      <trkpt lat="45.41663" lon="4.66245">
        <ele>501</ele>
        <time>2017-03-15T00:05:15Z</time>
      </trkpt>
      <trkpt lat="45.41663" lon="4.66236">
        <ele>502</ele>
        <time>2017-03-15T00:05:17Z</time>
      </trkpt>
      <trkpt lat="45.41665" lon="4.66225">
        <ele>503</ele>
        <time>2017-03-15T00:05:19Z</time>
      </trkpt>
      <trkpt lat="45.4166" lon="4.66216">
        <ele>504.1</ele>
        <time>2017-03-15T00:05:21Z</time>
      </trkpt>
      <trkpt lat="45.41663" lon="4.66212">
        <ele>504.2</ele>
        <time>2017-03-15T00:05:22Z</time>
      </trkpt>
      <trkpt lat="45.41664" lon="4.66208">
        <ele>504.7</ele>
        <time>2017-03-15T00:05:23Z</time>
      </trkpt>
      <trkpt lat="45.41666" lon="4.66204">
        <ele>504.9</ele>
        <time>2017-03-15T00:05:24Z</time>
      </trkpt>
      <trkpt lat="45.4167" lon="4.66196">
        <ele>505.4</ele>
        <time>2017-03-15T00:05:26Z</time>
      </trkpt>
      <trkpt lat="45.41673" lon="4.66194">
        <ele>505</ele>
        <time>2017-03-15T00:05:27Z</time>
      </trkpt>
      <trkpt lat="45.41668" lon="4.66198">
        <ele>505.4</ele>
        <time>2017-03-15T00:05:28Z</time>
      </trkpt>
      <trkpt lat="45.4167" lon="4.66194">
        <ele>505.3</ele>
        <time>2017-03-15T00:05:29Z</time>
      </trkpt>
      <trkpt lat="45.4167" lon="4.66189">
        <ele>505.7</ele>
        <time>2017-03-15T00:05:31Z</time>
      </trkpt>
      <trkpt lat="45.41668" lon="4.66183">
        <ele>507.1</ele>
        <time>2017-03-15T00:05:35Z</time>
      </trkpt>
      <trkpt lat="45.41668" lon="4.66178">
        <ele>507.2</ele>
        <time>2017-03-15T00:05:36Z</time>
      </trkpt>
      <trkpt lat="45.41668" lon="4.66172">
        <ele>507.6</ele>
        <time>2017-03-15T00:05:38Z</time>
      </trkpt>
      <trkpt lat="45.41668" lon="4.66165">
        <ele>508.4</ele>
        <time>2017-03-15T00:05:40Z</time>
      </trkpt>
      <trkpt lat="45.41665" lon="4.66163">
        <ele>509.1</ele>
        <time>2017-03-15T00:05:44Z</time>
      </trkpt>
      <trkpt lat="45.41665" lon="4.66154">
        <ele>509.7</ele>
        <time>2017-03-15T00:05:46Z</time>
      </trkpt>
      <trkpt lat="45.41667" lon="4.66151">
        <ele>510</ele>
        <time>2017-03-15T00:05:47Z</time>
      </trkpt>
      <trkpt lat="45.41665" lon="4.66148">
        <ele>510.5</ele>
        <time>2017-03-15T00:05:49Z</time>
      </trkpt>
      <trkpt lat="45.41662" lon="4.66144">
        <ele>510.8</ele>
        <time>2017-03-15T00:05:51Z</time>
      </trkpt>
      <trkpt lat="45.41666" lon="4.66135">
        <ele>510.8</ele>
        <time>2017-03-15T00:05:54Z</time>
      </trkpt>
      <trkpt lat="45.41667" lon="4.66129">
        <ele>511.1</ele>
        <time>2017-03-15T00:05:56Z</time>
      </trkpt>
      <trkpt lat="45.41666" lon="4.66125">
        <ele>511.9</ele>
        <time>2017-03-15T00:05:58Z</time>
      </trkpt>
      <trkpt lat="45.41662" lon="4.66122">
        <ele>512.8</ele>
        <time>2017-03-15T00:06:00Z</time>
      </trkpt>
      <trkpt lat="45.41662" lon="4.66118">
        <ele>512.7</ele>
        <time>2017-03-15T00:06:01Z</time>
      </trkpt>
      <trkpt lat="45.41665" lon="4.66112">
        <ele>512.8</ele>
        <time>2017-03-15T00:06:03Z</time>
      </trkpt>
      <trkpt lat="45.41663" lon="4.66109">
        <ele>512.9</ele>
        <time>2017-03-15T00:06:04Z</time>
      </trkpt>
      <trkpt lat="45.41664" lon="4.66104">
        <ele>512.9</ele>
        <time>2017-03-15T00:06:05Z</time>
      </trkpt>
      <trkpt lat="45.41666" lon="4.66087">
        <ele>512.3</ele>
        <time>2017-03-15T00:06:06Z</time>
      </trkpt>
      <trkpt lat="45.41665" lon="4.66082">
        <ele>512.3</ele>
        <time>2017-03-15T00:06:08Z</time>
      </trkpt>
      <trkpt lat="45.41666" lon="4.66078">
        <ele>512.4</ele>
        <time>2017-03-15T00:06:09Z</time>
      </trkpt>
      <trkpt lat="45.41662" lon="4.66076">
        <ele>514.2</ele>
        <time>2017-03-15T00:06:10Z</time>
      </trkpt>
      <trkpt lat="45.41667" lon="4.66078">
        <ele>512.3</ele>
        <time>2017-03-15T00:06:11Z</time>
      </trkpt>
      <trkpt lat="45.41667" lon="4.66074">
        <ele>512.6</ele>
        <time>2017-03-15T00:06:12Z</time>
      </trkpt>
      <trkpt lat="45.41668" lon="4.66067">
        <ele>512.9</ele>
        <time>2017-03-15T00:06:14Z</time>
      </trkpt>
      <trkpt lat="45.4167" lon="4.66063">
        <ele>513.5</ele>
        <time>2017-03-15T00:06:15Z</time>
      </trkpt>
      <trkpt lat="45.4167" lon="4.66052">
        <ele>514.6</ele>
        <time>2017-03-15T00:06:16Z</time>
      </trkpt>
      <trkpt lat="45.41675" lon="4.66045">
        <ele>514.5</ele>
        <time>2017-03-15T00:06:18Z</time>
      </trkpt>
      <trkpt lat="45.41676" lon="4.6604">
        <ele>515.2</ele>
        <time>2017-03-15T00:06:19Z</time>
      </trkpt>
      <trkpt lat="45.41675" lon="4.66034">
        <ele>516.4</ele>
        <time>2017-03-15T00:06:20Z</time>
      </trkpt>
      <trkpt lat="45.41677" lon="4.66028">
        <ele>516.1</ele>
        <time>2017-03-15T00:06:22Z</time>
      </trkpt>
      <trkpt lat="45.41682" lon="4.66024">
        <ele>515.8</ele>
        <time>2017-03-15T00:06:24Z</time>
      </trkpt>
      <trkpt lat="45.41685" lon="4.66019">
        <ele>515.5</ele>
        <time>2017-03-15T00:06:25Z</time>
      </trkpt>
      <trkpt lat="45.41687" lon="4.66017">
        <ele>515.2</ele>
        <time>2017-03-15T00:06:26Z</time>
      </trkpt>
      <trkpt lat="45.4169" lon="4.66014">
        <ele>514.6</ele>
        <time>2017-03-15T00:06:28Z</time>
      </trkpt>
      <trkpt lat="45.41695" lon="4.66016">
        <ele>514.1</ele>
        <time>2017-03-15T00:06:31Z</time>
      </trkpt>
      <trkpt lat="45.41698" lon="4.66017">
        <ele>513.6</ele>
        <time>2017-03-15T00:06:34Z</time>
      </trkpt>
      <trkpt lat="45.417" lon="4.66018">
        <ele>512.7</ele>
        <time>2017-03-15T00:06:35Z</time>
      </trkpt>
      <trkpt lat="45.41705" lon="4.66018">
        <ele>512.2</ele>
        <time>2017-03-15T00:06:37Z</time>
      </trkpt>
      <trkpt lat="45.4171" lon="4.66019">
        <ele>511.4</ele>
        <time>2017-03-15T00:06:38Z</time>
      </trkpt>
      <trkpt lat="45.41713" lon="4.66018">
        <ele>511.5</ele>
        <time>2017-03-15T00:06:39Z</time>
      </trkpt>
      <trkpt lat="45.41715" lon="4.66015">
        <ele>511.3</ele>
        <time>2017-03-15T00:06:41Z</time>
      </trkpt>
      <trkpt lat="45.41719" lon="4.66014">
        <ele>511.1</ele>
        <time>2017-03-15T00:06:42Z</time>
      </trkpt>
      <trkpt lat="45.41723" lon="4.66013">
        <ele>511.6</ele>
        <time>2017-03-15T00:06:43Z</time>
      </trkpt>
      <trkpt lat="45.41727" lon="4.66012">
        <ele>511.6</ele>
        <time>2017-03-15T00:06:44Z</time>
      </trkpt>
      <trkpt lat="45.41728" lon="4.66008">
        <ele>512.1</ele>
        <time>2017-03-15T00:06:45Z</time>
      </trkpt>
      <trkpt lat="45.41731" lon="4.66005">
        <ele>512.1</ele>
        <time>2017-03-15T00:06:46Z</time>
      </trkpt>
      <trkpt lat="45.41734" lon="4.66006">
        <ele>512.2</ele>
        <time>2017-03-15T00:06:48Z</time>
      </trkpt>
      <trkpt lat="45.41737" lon="4.66003">
        <ele>512.5</ele>
        <time>2017-03-15T00:06:49Z</time>
      </trkpt>
      <trkpt lat="45.41742" lon="4.66002">
        <ele>512.7</ele>
        <time>2017-03-15T00:06:51Z</time>
      </trkpt>
      <trkpt lat="45.41746" lon="4.66001">
        <ele>512.8</ele>
        <time>2017-03-15T00:06:54Z</time>
      </trkpt>
      <trkpt lat="45.4175" lon="4.65997">
        <ele>513.4</ele>
        <time>2017-03-15T00:06:56Z</time>
      </trkpt>
      <trkpt lat="45.41753" lon="4.65994">
        <ele>514</ele>
        <time>2017-03-15T00:06:57Z</time>
      </trkpt>
      <trkpt lat="45.41758" lon="4.65991">
        <ele>514.5</ele>
        <time>2017-03-15T00:06:59Z</time>
      </trkpt>
      <trkpt lat="45.41763" lon="4.65987">
        <ele>515</ele>
        <time>2017-03-15T00:07:01Z</time>
      </trkpt>
      <trkpt lat="45.41767" lon="4.65984">
        <ele>515</ele>
        <time>2017-03-15T00:07:03Z</time>
      </trkpt>
      <trkpt lat="45.41769" lon="4.65982">
        <ele>515.3</ele>
        <time>2017-03-15T00:07:04Z</time>
      </trkpt>
      <trkpt lat="45.41772" lon="4.65977">
        <ele>515.4</ele>
        <time>2017-03-15T00:07:06Z</time>
      </trkpt>
      <trkpt lat="45.41775" lon="4.65974">
        <ele>515.4</ele>
        <time>2017-03-15T00:07:07Z</time>
      </trkpt>
      <trkpt lat="45.41777" lon="4.65971">
        <ele>515.5</ele>
        <time>2017-03-15T00:07:09Z</time>
      </trkpt>
      <trkpt lat="45.4178" lon="4.65966">
        <ele>515.6</ele>
        <time>2017-03-15T00:07:11Z</time>
      </trkpt>
      <trkpt lat="45.41782" lon="4.65963">
        <ele>515.6</ele>
        <time>2017-03-15T00:07:12Z</time>
      </trkpt>
      <trkpt lat="45.41785" lon="4.65958">
        <ele>515.7</ele>
        <time>2017-03-15T00:07:14Z</time>
      </trkpt>
      <trkpt lat="45.4179" lon="4.65952">
        <ele>515.7</ele>
        <time>2017-03-15T00:07:16Z</time>
      </trkpt>
      <trkpt lat="45.41791" lon="4.65947">
        <ele>515.9</ele>
        <time>2017-03-15T00:07:18Z</time>
      </trkpt>
      <trkpt lat="45.41792" lon="4.65942">
        <ele>516</ele>
        <time>2017-03-15T00:07:20Z</time>
      </trkpt>
      <trkpt lat="45.41794" lon="4.65938">
        <ele>516.3</ele>
        <time>2017-03-15T00:07:21Z</time>
      </trkpt>
      <trkpt lat="45.41796" lon="4.65935">
        <ele>516.5</ele>
        <time>2017-03-15T00:07:22Z</time>
      </trkpt>
      <trkpt lat="45.41797" lon="4.65929">
        <ele>516.9</ele>
        <time>2017-03-15T00:07:24Z</time>
      </trkpt>
      <trkpt lat="45.41799" lon="4.65925">
        <ele>517.3</ele>
        <time>2017-03-15T00:07:25Z</time>
      </trkpt>
      <trkpt lat="45.418" lon="4.65919">
        <ele>518.1</ele>
        <time>2017-03-15T00:07:27Z</time>
      </trkpt>
      <trkpt lat="45.41801" lon="4.65914">
        <ele>518.4</ele>
        <time>2017-03-15T00:07:29Z</time>
      </trkpt>
      <trkpt lat="45.41802" lon="4.65908">
        <ele>519</ele>
        <time>2017-03-15T00:07:31Z</time>
      </trkpt>
      <trkpt lat="45.41804" lon="4.65903">
        <ele>519.4</ele>
        <time>2017-03-15T00:07:33Z</time>
      </trkpt>
      <trkpt lat="45.41805" lon="4.65897">
        <ele>520.5</ele>
        <time>2017-03-15T00:07:35Z</time>
      </trkpt>
      <trkpt lat="45.41805" lon="4.65891">
        <ele>521</ele>
        <time>2017-03-15T00:07:37Z</time>
      </trkpt>
      <trkpt lat="45.41805" lon="4.65888">
        <ele>521.4</ele>
        <time>2017-03-15T00:07:38Z</time>
      </trkpt>
      <trkpt lat="45.41804" lon="4.65884">
        <ele>521.8</ele>
        <time>2017-03-15T00:07:39Z</time>
      </trkpt>
      <trkpt lat="45.4176" lon="4.6581">
        <ele>524.7</ele>
        <time>2017-03-15T00:08:12Z</time>
      </trkpt>
      <trkpt lat="45.41757" lon="4.65807">
        <ele>525.4</ele>
        <time>2017-03-15T00:08:13Z</time>
      </trkpt>
      <trkpt lat="45.41757" lon="4.65801">
        <ele>526.1</ele>
        <time>2017-03-15T00:08:16Z</time>
      </trkpt>
      <trkpt lat="45.41754" lon="4.65798">
        <ele>527</ele>
        <time>2017-03-15T00:08:17Z</time>
      </trkpt>
      <trkpt lat="45.41753" lon="4.65793">
        <ele>527.9</ele>
        <time>2017-03-15T00:08:20Z</time>
      </trkpt>
      <trkpt lat="45.41753" lon="4.65789">
        <ele>528.8</ele>
        <time>2017-03-15T00:08:22Z</time>
      </trkpt>
      <trkpt lat="45.41754" lon="4.65785">
        <ele>529.7</ele>
        <time>2017-03-15T00:08:23Z</time>
      </trkpt>
      <trkpt lat="45.41754" lon="4.65779">
        <ele>530.5</ele>
        <time>2017-03-15T00:08:25Z</time>
      </trkpt>
      <trkpt lat="45.41755" lon="4.65773">
        <ele>531.1</ele>
        <time>2017-03-15T00:08:28Z</time>
      </trkpt>
      <trkpt lat="45.41758" lon="4.65771">
        <ele>531.7</ele>
        <time>2017-03-15T00:08:31Z</time>
      </trkpt>
      <trkpt lat="45.41759" lon="4.65767">
        <ele>532.2</ele>
        <time>2017-03-15T00:08:33Z</time>
      </trkpt>
      <trkpt lat="45.4176" lon="4.65763">
        <ele>532.7</ele>
        <time>2017-03-15T00:08:40Z</time>
      </trkpt>
      <trkpt lat="45.41759" lon="4.65756">
        <ele>533.1</ele>
        <time>2017-03-15T00:08:42Z</time>
      </trkpt>
      <trkpt lat="45.41758" lon="4.65751">
        <ele>533.8</ele>
        <time>2017-03-15T00:08:45Z</time>
      </trkpt>
      <trkpt lat="45.41758" lon="4.65745">
        <ele>534.2</ele>
        <time>2017-03-15T00:08:47Z</time>
      </trkpt>
      <trkpt lat="45.41758" lon="4.65739">
        <ele>534.6</ele>
        <time>2017-03-15T00:08:49Z</time>
      </trkpt>
      <trkpt lat="45.41758" lon="4.65734">
        <ele>535.5</ele>
        <time>2017-03-15T00:08:51Z</time>
      </trkpt>
      <trkpt lat="45.41756" lon="4.6573">
        <ele>535.9</ele>
        <time>2017-03-15T00:08:54Z</time>
      </trkpt>
      <trkpt lat="45.41756" lon="4.65725">
        <ele>536.3</ele>
        <time>2017-03-15T00:08:55Z</time>
      </trkpt>
      <trkpt lat="45.41756" lon="4.6572">
        <ele>536.6</ele>
        <time>2017-03-15T00:08:58Z</time>
      </trkpt>
      <trkpt lat="45.41757" lon="4.65715">
        <ele>537</ele>
        <time>2017-03-15T00:09:00Z</time>
      </trkpt>
      <trkpt lat="45.41756" lon="4.65711">
        <ele>537.4</ele>
        <time>2017-03-15T00:09:03Z</time>
      </trkpt>
      <trkpt lat="45.41754" lon="4.65704">
        <ele>538</ele>
        <time>2017-03-15T00:09:06Z</time>
      </trkpt>
      <trkpt lat="45.41755" lon="4.657">
        <ele>538.4</ele>
        <time>2017-03-15T00:09:08Z</time>
      </trkpt>
      <trkpt lat="45.41753" lon="4.65695">
        <ele>538.9</ele>
        <time>2017-03-15T00:09:10Z</time>
      </trkpt>
      <trkpt lat="45.41752" lon="4.65691">
        <ele>539.1</ele>
        <time>2017-03-15T00:09:12Z</time>
      </trkpt>
      <trkpt lat="45.4175" lon="4.65687">
        <ele>539.1</ele>
        <time>2017-03-15T00:09:14Z</time>
      </trkpt>
      <trkpt lat="45.41747" lon="4.65685">
        <ele>539.5</ele>
        <time>2017-03-15T00:09:16Z</time>
      </trkpt>
      <trkpt lat="45.41744" lon="4.6568">
        <ele>540</ele>
        <time>2017-03-15T00:09:18Z</time>
      </trkpt>
      <trkpt lat="45.41741" lon="4.65678">
        <ele>540.7</ele>
        <time>2017-03-15T00:09:21Z</time>
      </trkpt>
      <trkpt lat="45.41739" lon="4.65676">
        <ele>540.6</ele>
        <time>2017-03-15T00:09:23Z</time>
      </trkpt>
      <trkpt lat="45.41735" lon="4.65675">
        <ele>540.6</ele>
        <time>2017-03-15T00:09:25Z</time>
      </trkpt>
      <trkpt lat="45.4173" lon="4.65672">
        <ele>541.6</ele>
        <time>2017-03-15T00:09:27Z</time>
      </trkpt>
      <trkpt lat="45.41727" lon="4.65669">
        <ele>542.5</ele>
        <time>2017-03-15T00:09:29Z</time>
      </trkpt>
      <trkpt lat="45.41724" lon="4.65667">
        <ele>542.6</ele>
        <time>2017-03-15T00:09:31Z</time>
      </trkpt>
      <trkpt lat="45.4172" lon="4.65664">
        <ele>543.6</ele>
        <time>2017-03-15T00:09:33Z</time>
      </trkpt>
      <trkpt lat="45.41717" lon="4.65661">
        <ele>544.5</ele>
        <time>2017-03-15T00:09:35Z</time>
      </trkpt>
      <trkpt lat="45.41713" lon="4.6566">
        <ele>544.5</ele>
        <time>2017-03-15T00:09:36Z</time>
      </trkpt>
      <trkpt lat="45.4171" lon="4.65658">
        <ele>544.5</ele>
        <time>2017-03-15T00:09:37Z</time>
      </trkpt>
      <trkpt lat="45.41707" lon="4.65658">
        <ele>544.5</ele>
        <time>2017-03-15T00:09:38Z</time>
      </trkpt>
      <trkpt lat="45.41703" lon="4.65658">
        <ele>544.5</ele>
        <time>2017-03-15T00:09:39Z</time>
      </trkpt>
      <trkpt lat="45.41699" lon="4.65655">
        <ele>545.2</ele>
        <time>2017-03-15T00:09:41Z</time>
      </trkpt>
      <trkpt lat="45.41697" lon="4.65653">
        <ele>545.8</ele>
        <time>2017-03-15T00:09:42Z</time>
      </trkpt>
      <trkpt lat="45.41693" lon="4.65653">
        <ele>545.2</ele>
        <time>2017-03-15T00:09:44Z</time>
      </trkpt>
      <trkpt lat="45.41688" lon="4.65653">
        <ele>545.8</ele>
        <time>2017-03-15T00:09:46Z</time>
      </trkpt>
      <trkpt lat="45.41686" lon="4.65651">
        <ele>545.8</ele>
        <time>2017-03-15T00:09:47Z</time>
      </trkpt>
      <trkpt lat="45.41682" lon="4.65651">
        <ele>545.9</ele>
        <time>2017-03-15T00:09:48Z</time>
      </trkpt>
      <trkpt lat="45.41678" lon="4.65652">
        <ele>545.9</ele>
        <time>2017-03-15T00:09:50Z</time>
      </trkpt>
      <trkpt lat="45.41672" lon="4.65652">
        <ele>545.9</ele>
        <time>2017-03-15T00:09:52Z</time>
      </trkpt>
      <trkpt lat="45.41669" lon="4.65652">
        <ele>545.9</ele>
        <time>2017-03-15T00:09:53Z</time>
      </trkpt>
      <trkpt lat="45.41666" lon="4.65653">
        <ele>545.3</ele>
        <time>2017-03-15T00:09:54Z</time>
      </trkpt>
      <trkpt lat="45.41663" lon="4.65654">
        <ele>545.3</ele>
        <time>2017-03-15T00:09:55Z</time>
      </trkpt>
      <trkpt lat="45.4166" lon="4.65653">
        <ele>545.2</ele>
        <time>2017-03-15T00:09:57Z</time>
      </trkpt>
      <trkpt lat="45.41655" lon="4.65653">
        <ele>545.3</ele>
        <time>2017-03-15T00:09:59Z</time>
      </trkpt>
      <trkpt lat="45.41652" lon="4.65653">
        <ele>545.2</ele>
        <time>2017-03-15T00:10:00Z</time>
      </trkpt>
      <trkpt lat="45.41646" lon="4.65652">
        <ele>544.9</ele>
        <time>2017-03-15T00:10:02Z</time>
      </trkpt>
      <trkpt lat="45.41643" lon="4.65652">
        <ele>544.8</ele>
        <time>2017-03-15T00:10:03Z</time>
      </trkpt>
      <trkpt lat="45.4164" lon="4.65651">
        <ele>544.8</ele>
        <time>2017-03-15T00:10:05Z</time>
      </trkpt>
      <trkpt lat="45.41634" lon="4.65651">
        <ele>544.7</ele>
        <time>2017-03-15T00:10:07Z</time>
      </trkpt>
      <trkpt lat="45.41631" lon="4.6565">
        <ele>544.7</ele>
        <time>2017-03-15T00:10:08Z</time>
      </trkpt>
      <trkpt lat="45.41628" lon="4.6565">
        <ele>544.8</ele>
        <time>2017-03-15T00:10:09Z</time>
      </trkpt>
      <trkpt lat="45.41624" lon="4.65648">
        <ele>544.9</ele>
        <time>2017-03-15T00:10:11Z</time>
      </trkpt>
      <trkpt lat="45.4162" lon="4.65646">
        <ele>545</ele>
        <time>2017-03-15T00:10:12Z</time>
      </trkpt>
      <trkpt lat="45.41615" lon="4.65643">
        <ele>545.2</ele>
        <time>2017-03-15T00:10:14Z</time>
      </trkpt>
      <trkpt lat="45.41613" lon="4.65641">
        <ele>545.3</ele>
        <time>2017-03-15T00:10:15Z</time>
      </trkpt>
      <trkpt lat="45.41608" lon="4.6564">
        <ele>545.4</ele>
        <time>2017-03-15T00:10:16Z</time>
      </trkpt>
      <trkpt lat="45.41603" lon="4.65638">
        <ele>545.4</ele>
        <time>2017-03-15T00:10:18Z</time>
      </trkpt>
      <trkpt lat="45.41599" lon="4.65638">
        <ele>545.4</ele>
        <time>2017-03-15T00:10:20Z</time>
      </trkpt>
      <trkpt lat="45.41594" lon="4.65636">
        <ele>545.4</ele>
        <time>2017-03-15T00:10:22Z</time>
      </trkpt>
      <trkpt lat="45.41592" lon="4.65635">
        <ele>545.7</ele>
        <time>2017-03-15T00:10:23Z</time>
      </trkpt>
      <trkpt lat="45.41589" lon="4.65633">
        <ele>545.8</ele>
        <time>2017-03-15T00:10:24Z</time>
      </trkpt>
      <trkpt lat="45.41584" lon="4.65632">
        <ele>545.9</ele>
        <time>2017-03-15T00:10:25Z</time>
      </trkpt>
      <trkpt lat="45.41581" lon="4.65631">
        <ele>546.3</ele>
        <time>2017-03-15T00:10:26Z</time>
      </trkpt>
      <trkpt lat="45.41577" lon="4.65628">
        <ele>546.6</ele>
        <time>2017-03-15T00:10:28Z</time>
      </trkpt>
      <trkpt lat="45.41573" lon="4.65626">
        <ele>547</ele>
        <time>2017-03-15T00:10:29Z</time>
      </trkpt>
      <trkpt lat="45.41568" lon="4.65623">
        <ele>547.4</ele>
        <time>2017-03-15T00:10:31Z</time>
      </trkpt>
      <trkpt lat="45.41566" lon="4.6562">
        <ele>547.4</ele>
        <time>2017-03-15T00:10:32Z</time>
      </trkpt>
      <trkpt lat="45.41563" lon="4.65619">
        <ele>547.7</ele>
        <time>2017-03-15T00:10:33Z</time>
      </trkpt>
      <trkpt lat="45.41559" lon="4.65617">
        <ele>547.9</ele>
        <time>2017-03-15T00:10:35Z</time>
      </trkpt>
      <trkpt lat="45.41556" lon="4.65616">
        <ele>548</ele>
        <time>2017-03-15T00:10:36Z</time>
      </trkpt>
      <trkpt lat="45.41554" lon="4.65615">
        <ele>548.2</ele>
        <time>2017-03-15T00:10:37Z</time>
      </trkpt>
      <trkpt lat="45.41551" lon="4.65611">
        <ele>548.4</ele>
        <time>2017-03-15T00:10:39Z</time>
      </trkpt>
      <trkpt lat="45.41547" lon="4.6561">
        <ele>548.9</ele>
        <time>2017-03-15T00:10:40Z</time>
      </trkpt>
      <trkpt lat="45.41543" lon="4.65608">
        <ele>549.2</ele>
        <time>2017-03-15T00:10:42Z</time>
      </trkpt>
      <trkpt lat="45.41541" lon="4.65605">
        <ele>549.5</ele>
        <time>2017-03-15T00:10:44Z</time>
      </trkpt>
      <trkpt lat="45.41538" lon="4.65602">
        <ele>549.8</ele>
        <time>2017-03-15T00:10:46Z</time>
      </trkpt>
      <trkpt lat="45.41535" lon="4.65601">
        <ele>550</ele>
        <time>2017-03-15T00:10:48Z</time>
      </trkpt>
      <trkpt lat="45.41531" lon="4.65602">
        <ele>550.2</ele>
        <time>2017-03-15T00:10:49Z</time>
      </trkpt>
      <trkpt lat="45.41528" lon="4.65605">
        <ele>550.3</ele>
        <time>2017-03-15T00:10:51Z</time>
      </trkpt>
      <trkpt lat="45.41527" lon="4.6561">
        <ele>550.4</ele>
        <time>2017-03-15T00:10:53Z</time>
      </trkpt>
      <trkpt lat="45.41525" lon="4.65615">
        <ele>550.7</ele>
        <time>2017-03-15T00:10:56Z</time>
      </trkpt>
      <trkpt lat="45.41526" lon="4.65622">
        <ele>550.8</ele>
        <time>2017-03-15T00:11:00Z</time>
      </trkpt>
      <trkpt lat="45.41524" lon="4.6563">
        <ele>550.8</ele>
        <time>2017-03-15T00:11:02Z</time>
      </trkpt>
      <trkpt lat="45.41524" lon="4.65634">
        <ele>550.9</ele>
        <time>2017-03-15T00:11:03Z</time>
      </trkpt>
      <trkpt lat="45.41524" lon="4.65639">
        <ele>550.9</ele>
        <time>2017-03-15T00:11:04Z</time>
      </trkpt>
      <trkpt lat="45.41523" lon="4.65644">
        <ele>551.2</ele>
        <time>2017-03-15T00:11:05Z</time>
      </trkpt>
      <trkpt lat="45.41521" lon="4.65647">
        <ele>551.2</ele>
        <time>2017-03-15T00:11:06Z</time>
      </trkpt>
      <trkpt lat="45.41519" lon="4.65652">
        <ele>551.5</ele>
        <time>2017-03-15T00:11:07Z</time>
      </trkpt>
      <trkpt lat="45.41517" lon="4.65655">
        <ele>551.8</ele>
        <time>2017-03-15T00:11:08Z</time>
      </trkpt>
      <trkpt lat="45.41513" lon="4.65659">
        <ele>552.1</ele>
        <time>2017-03-15T00:11:09Z</time>
      </trkpt>
      <trkpt lat="45.41512" lon="4.65663">
        <ele>552.2</ele>
        <time>2017-03-15T00:11:10Z</time>
      </trkpt>
      <trkpt lat="45.41512" lon="4.65668">
        <ele>552.3</ele>
        <time>2017-03-15T00:11:12Z</time>
      </trkpt>
      <trkpt lat="45.4151" lon="4.65672">
        <ele>552.6</ele>
        <time>2017-03-15T00:11:14Z</time>
      </trkpt>
      <trkpt lat="45.41506" lon="4.6567">
        <ele>552.9</ele>
        <time>2017-03-15T00:11:16Z</time>
      </trkpt>
      <trkpt lat="45.41503" lon="4.65669">
        <ele>553</ele>
        <time>2017-03-15T00:11:19Z</time>
      </trkpt>
      <trkpt lat="45.41501" lon="4.65667">
        <ele>553.3</ele>
        <time>2017-03-15T00:11:22Z</time>
      </trkpt>
      <trkpt lat="45.41498" lon="4.65664">
        <ele>553.5</ele>
        <time>2017-03-15T00:11:24Z</time>
      </trkpt>
      <trkpt lat="45.41494" lon="4.65658">
        <ele>553.8</ele>
        <time>2017-03-15T00:11:26Z</time>
      </trkpt>
      <trkpt lat="45.4149" lon="4.65656">
        <ele>554.3</ele>
        <time>2017-03-15T00:11:28Z</time>
      </trkpt>
      <trkpt lat="45.41488" lon="4.65654">
        <ele>554.7</ele>
        <time>2017-03-15T00:11:29Z</time>
      </trkpt>
      <trkpt lat="45.41486" lon="4.65649">
        <ele>555.2</ele>
        <time>2017-03-15T00:11:31Z</time>
      </trkpt>
      <trkpt lat="45.41484" lon="4.65645">
        <ele>555.8</ele>
        <time>2017-03-15T00:11:33Z</time>
      </trkpt>
      <trkpt lat="45.41481" lon="4.65642">
        <ele>555.8</ele>
        <time>2017-03-15T00:11:35Z</time>
      </trkpt>
      <trkpt lat="45.41479" lon="4.65637">
        <ele>556.3</ele>
        <time>2017-03-15T00:11:37Z</time>
      </trkpt>
      <trkpt lat="45.41477" lon="4.65633">
        <ele>556.7</ele>
        <time>2017-03-15T00:11:39Z</time>
      </trkpt>
      <trkpt lat="45.41475" lon="4.65627">
        <ele>556.3</ele>
        <time>2017-03-15T00:11:41Z</time>
      </trkpt>
      <trkpt lat="45.41473" lon="4.6562">
        <ele>556.8</ele>
        <time>2017-03-15T00:11:43Z</time>
      </trkpt>
      <trkpt lat="45.41472" lon="4.65615">
        <ele>556.7</ele>
        <time>2017-03-15T00:11:44Z</time>
      </trkpt>
      <trkpt lat="45.4147" lon="4.65611">
        <ele>557.4</ele>
        <time>2017-03-15T00:11:46Z</time>
      </trkpt>
      <trkpt lat="45.41468" lon="4.65606">
        <ele>558.2</ele>
        <time>2017-03-15T00:11:48Z</time>
      </trkpt>
      <trkpt lat="45.41466" lon="4.65599">
        <ele>559</ele>
        <time>2017-03-15T00:11:50Z</time>
      </trkpt>
      <trkpt lat="45.41463" lon="4.65594">
        <ele>559</ele>
        <time>2017-03-15T00:11:52Z</time>
      </trkpt>
      <trkpt lat="45.41461" lon="4.65591">
        <ele>559.7</ele>
        <time>2017-03-15T00:11:53Z</time>
      </trkpt>
      <trkpt lat="45.41456" lon="4.65588">
        <ele>561</ele>
        <time>2017-03-15T00:11:55Z</time>
      </trkpt>
      <trkpt lat="45.41455" lon="4.65584">
        <ele>560.7</ele>
        <time>2017-03-15T00:11:56Z</time>
      </trkpt>
      <trkpt lat="45.41453" lon="4.6558">
        <ele>561.2</ele>
        <time>2017-03-15T00:11:58Z</time>
      </trkpt>
      <trkpt lat="45.41449" lon="4.65576">
        <ele>561.9</ele>
        <time>2017-03-15T00:12:00Z</time>
      </trkpt>
      <trkpt lat="45.41446" lon="4.65574">
        <ele>562.4</ele>
        <time>2017-03-15T00:12:01Z</time>
      </trkpt>
      <trkpt lat="45.41443" lon="4.65569">
        <ele>562.9</ele>
        <time>2017-03-15T00:12:03Z</time>
      </trkpt>
      <trkpt lat="45.4144" lon="4.65567">
        <ele>563.7</ele>
        <time>2017-03-15T00:12:05Z</time>
      </trkpt>
      <trkpt lat="45.41436" lon="4.65565">
        <ele>565.3</ele>
        <time>2017-03-15T00:12:07Z</time>
      </trkpt>
      <trkpt lat="45.41433" lon="4.65563">
        <ele>566.1</ele>
        <time>2017-03-15T00:12:09Z</time>
      </trkpt>
      <trkpt lat="45.4143" lon="4.65559">
        <ele>566.1</ele>
        <time>2017-03-15T00:12:11Z</time>
      </trkpt>
      <trkpt lat="45.41427" lon="4.65555">
        <ele>567</ele>
        <time>2017-03-15T00:12:13Z</time>
      </trkpt>
      <trkpt lat="45.41424" lon="4.65554">
        <ele>567.7</ele>
        <time>2017-03-15T00:12:15Z</time>
      </trkpt>
      <trkpt lat="45.41422" lon="4.65551">
        <ele>568.5</ele>
        <time>2017-03-15T00:12:17Z</time>
      </trkpt>
      <trkpt lat="45.41419" lon="4.65549">
        <ele>569.1</ele>
        <time>2017-03-15T00:12:18Z</time>
      </trkpt>
      <trkpt lat="45.41416" lon="4.65546">
        <ele>569.7</ele>
        <time>2017-03-15T00:12:21Z</time>
      </trkpt>
      <trkpt lat="45.41414" lon="4.65543">
        <ele>570.3</ele>
        <time>2017-03-15T00:12:24Z</time>
      </trkpt>
      <trkpt lat="45.41411" lon="4.65541">
        <ele>570.8</ele>
        <time>2017-03-15T00:12:28Z</time>
      </trkpt>
      <trkpt lat="45.41407" lon="4.65539">
        <ele>571.6</ele>
        <time>2017-03-15T00:12:33Z</time>
      </trkpt>
      <trkpt lat="45.41405" lon="4.65537">
        <ele>572.3</ele>
        <time>2017-03-15T00:12:36Z</time>
      </trkpt>
      <trkpt lat="45.41401" lon="4.65534">
        <ele>573.1</ele>
        <time>2017-03-15T00:12:38Z</time>
      </trkpt>
      <trkpt lat="45.41398" lon="4.65535">
        <ele>573.8</ele>
        <time>2017-03-15T00:12:40Z</time>
      </trkpt>
      <trkpt lat="45.41395" lon="4.65534">
        <ele>574.5</ele>
        <time>2017-03-15T00:12:43Z</time>
      </trkpt>
      <trkpt lat="45.41392" lon="4.65532">
        <ele>575.4</ele>
        <time>2017-03-15T00:12:45Z</time>
      </trkpt>
      <trkpt lat="45.41389" lon="4.65529">
        <ele>576</ele>
        <time>2017-03-15T00:12:48Z</time>
      </trkpt>
      <trkpt lat="45.41387" lon="4.65526">
        <ele>576.9</ele>
        <time>2017-03-15T00:12:50Z</time>
      </trkpt>
      <trkpt lat="45.41384" lon="4.65522">
        <ele>577.9</ele>
        <time>2017-03-15T00:12:52Z</time>
      </trkpt>
      <trkpt lat="45.41381" lon="4.65521">
        <ele>578.7</ele>
        <time>2017-03-15T00:12:54Z</time>
      </trkpt>
      <trkpt lat="45.41379" lon="4.65519">
        <ele>579.1</ele>
        <time>2017-03-15T00:12:56Z</time>
      </trkpt>
      <trkpt lat="45.41377" lon="4.65516">
        <ele>580</ele>
        <time>2017-03-15T00:12:58Z</time>
      </trkpt>
      <trkpt lat="45.41374" lon="4.65515">
        <ele>581.2</ele>
        <time>2017-03-15T00:13:01Z</time>
      </trkpt>
      <trkpt lat="45.41371" lon="4.65513">
        <ele>582.1</ele>
        <time>2017-03-15T00:13:04Z</time>
      </trkpt>
      <trkpt lat="45.41369" lon="4.6551">
        <ele>583.4</ele>
        <time>2017-03-15T00:13:06Z</time>
      </trkpt>
      <trkpt lat="45.41367" lon="4.65507">
        <ele>583.8</ele>
        <time>2017-03-15T00:13:09Z</time>
      </trkpt>
      <trkpt lat="45.41363" lon="4.65504">
        <ele>585.2</ele>
        <time>2017-03-15T00:13:13Z</time>
      </trkpt>
      <trkpt lat="45.41361" lon="4.65501">
        <ele>586.1</ele>
        <time>2017-03-15T00:13:17Z</time>
      </trkpt>
      <trkpt lat="45.41358" lon="4.65498">
        <ele>586.3</ele>
        <time>2017-03-15T00:13:20Z</time>
      </trkpt>
      <trkpt lat="45.41356" lon="4.65495">
        <ele>586.9</ele>
        <time>2017-03-15T00:13:23Z</time>
      </trkpt>
      <trkpt lat="45.41355" lon="4.65491">
        <ele>587.1</ele>
        <time>2017-03-15T00:13:26Z</time>
      </trkpt>
      <trkpt lat="45.41355" lon="4.65485">
        <ele>587</ele>
        <time>2017-03-15T00:13:29Z</time>
      </trkpt>
      <trkpt lat="45.41354" lon="4.65481">
        <ele>587.4</ele>
        <time>2017-03-15T00:13:31Z</time>
      </trkpt>
      <trkpt lat="45.41353" lon="4.65478">
        <ele>587.5</ele>
        <time>2017-03-15T00:13:34Z</time>
      </trkpt>
      <trkpt lat="45.41351" lon="4.65475">
        <ele>587.8</ele>
        <time>2017-03-15T00:13:36Z</time>
      </trkpt>
      <trkpt lat="45.41352" lon="4.65471">
        <ele>587.2</ele>
        <time>2017-03-15T00:13:38Z</time>
      </trkpt>
      <trkpt lat="45.41351" lon="4.65466">
        <ele>587.5</ele>
        <time>2017-03-15T00:13:40Z</time>
      </trkpt>
      <trkpt lat="45.41351" lon="4.65462">
        <ele>587.4</ele>
        <time>2017-03-15T00:13:43Z</time>
      </trkpt>
      <trkpt lat="45.41351" lon="4.65457">
        <ele>587.4</ele>
        <time>2017-03-15T00:13:45Z</time>
      </trkpt>
      <trkpt lat="45.41348" lon="4.65453">
        <ele>587.8</ele>
        <time>2017-03-15T00:13:49Z</time>
      </trkpt>
      <trkpt lat="45.41346" lon="4.65458">
        <ele>587.9</ele>
        <time>2017-03-15T00:13:53Z</time>
      </trkpt>
      <trkpt lat="45.41344" lon="4.65461">
        <ele>588</ele>
        <time>2017-03-15T00:13:55Z</time>
      </trkpt>
      <trkpt lat="45.41342" lon="4.65465">
        <ele>588.1</ele>
        <time>2017-03-15T00:13:57Z</time>
      </trkpt>
      <trkpt lat="45.41341" lon="4.65468">
        <ele>588.2</ele>
        <time>2017-03-15T00:14:00Z</time>
      </trkpt>
      <trkpt lat="45.41339" lon="4.65473">
        <ele>588.4</ele>
        <time>2017-03-15T00:14:03Z</time>
      </trkpt>
      <trkpt lat="45.41338" lon="4.65476">
        <ele>588.7</ele>
        <time>2017-03-15T00:14:06Z</time>
      </trkpt>
      <trkpt lat="45.41335" lon="4.65478">
        <ele>589</ele>
        <time>2017-03-15T00:14:09Z</time>
      </trkpt>
      <trkpt lat="45.41332" lon="4.65481">
        <ele>589.3</ele>
        <time>2017-03-15T00:14:11Z</time>
      </trkpt>
      <trkpt lat="45.41329" lon="4.65483">
        <ele>589.4</ele>
        <time>2017-03-15T00:14:13Z</time>
      </trkpt>
      <trkpt lat="45.41326" lon="4.65486">
        <ele>589.5</ele>
        <time>2017-03-15T00:14:15Z</time>
      </trkpt>
      <trkpt lat="45.41323" lon="4.65488">
        <ele>589.6</ele>
        <time>2017-03-15T00:14:18Z</time>
      </trkpt>
      <trkpt lat="45.4132" lon="4.65492">
        <ele>589.8</ele>
        <time>2017-03-15T00:14:22Z</time>
      </trkpt>
      <trkpt lat="45.41316" lon="4.65493">
        <ele>590</ele>
        <time>2017-03-15T00:14:24Z</time>
      </trkpt>
      <trkpt lat="45.41313" lon="4.65495">
        <ele>590.1</ele>
        <time>2017-03-15T00:14:28Z</time>
      </trkpt>
      <trkpt lat="45.41309" lon="4.65496">
        <ele>590.3</ele>
        <time>2017-03-15T00:14:31Z</time>
      </trkpt>
      <trkpt lat="45.41306" lon="4.65498">
        <ele>591</ele>
        <time>2017-03-15T00:14:34Z</time>
      </trkpt>
      <trkpt lat="45.41303" lon="4.65499">
        <ele>591.6</ele>
        <time>2017-03-15T00:14:36Z</time>
      </trkpt>
      <trkpt lat="45.413" lon="4.65501">
        <ele>592.5</ele>
        <time>2017-03-15T00:14:39Z</time>
      </trkpt>
      <trkpt lat="45.41298" lon="4.65505">
        <ele>592.3</ele>
        <time>2017-03-15T00:14:41Z</time>
      </trkpt>
      <trkpt lat="45.41296" lon="4.65503">
        <ele>593.3</ele>
        <time>2017-03-15T00:14:43Z</time>
      </trkpt>
      <trkpt lat="45.41293" lon="4.65506">
        <ele>594.3</ele>
        <time>2017-03-15T00:14:47Z</time>
      </trkpt>
      <trkpt lat="45.4129" lon="4.65507">
        <ele>595.3</ele>
        <time>2017-03-15T00:14:50Z</time>
      </trkpt>
      <trkpt lat="45.41287" lon="4.65507">
        <ele>596</ele>
        <time>2017-03-15T00:14:53Z</time>
      </trkpt>
      <trkpt lat="45.41283" lon="4.65508">
        <ele>596.9</ele>
        <time>2017-03-15T00:14:55Z</time>
      </trkpt>
      <trkpt lat="45.4128" lon="4.65508">
        <ele>597.6</ele>
        <time>2017-03-15T00:14:58Z</time>
      </trkpt>
      <trkpt lat="45.41277" lon="4.65511">
        <ele>598.3</ele>
        <time>2017-03-15T00:15:02Z</time>
      </trkpt>
      <trkpt lat="45.41275" lon="4.65513">
        <ele>598.3</ele>
        <time>2017-03-15T00:15:05Z</time>
      </trkpt>
      <trkpt lat="45.41271" lon="4.65514">
        <ele>598.9</ele>
        <time>2017-03-15T00:15:11Z</time>
      </trkpt>
      <trkpt lat="45.41268" lon="4.65516">
        <ele>598.8</ele>
        <time>2017-03-15T00:15:13Z</time>
      </trkpt>
      <trkpt lat="45.41265" lon="4.65517">
        <ele>599.3</ele>
        <time>2017-03-15T00:15:15Z</time>
      </trkpt>
      <trkpt lat="45.41262" lon="4.65519">
        <ele>599.8</ele>
        <time>2017-03-15T00:15:18Z</time>
      </trkpt>
      <trkpt lat="45.41259" lon="4.65521">
        <ele>599.8</ele>
        <time>2017-03-15T00:15:21Z</time>
      </trkpt>
      <trkpt lat="45.41256" lon="4.65521">
        <ele>600.4</ele>
        <time>2017-03-15T00:15:24Z</time>
      </trkpt>
      <trkpt lat="45.41251" lon="4.65522">
        <ele>601.6</ele>
        <time>2017-03-15T00:15:27Z</time>
      </trkpt>
      <trkpt lat="45.41249" lon="4.65523">
        <ele>602.3</ele>
        <time>2017-03-15T00:15:31Z</time>
      </trkpt>
      <trkpt lat="45.41245" lon="4.65523">
        <ele>603.2</ele>
        <time>2017-03-15T00:15:33Z</time>
      </trkpt>
      <trkpt lat="45.41242" lon="4.65524">
        <ele>604.1</ele>
        <time>2017-03-15T00:15:35Z</time>
      </trkpt>
      <trkpt lat="45.4124" lon="4.65527">
        <ele>605</ele>
        <time>2017-03-15T00:15:38Z</time>
      </trkpt>
      <trkpt lat="45.41237" lon="4.65527">
        <ele>606.2</ele>
        <time>2017-03-15T00:15:40Z</time>
      </trkpt>
      <trkpt lat="45.41233" lon="4.6553">
        <ele>607.4</ele>
        <time>2017-03-15T00:15:44Z</time>
      </trkpt>
      <trkpt lat="45.41229" lon="4.65531">
        <ele>608.6</ele>
        <time>2017-03-15T00:15:47Z</time>
      </trkpt>
      <trkpt lat="45.41225" lon="4.65533">
        <ele>609.7</ele>
        <time>2017-03-15T00:15:55Z</time>
      </trkpt>
      <trkpt lat="45.41223" lon="4.65535">
        <ele>610.9</ele>
        <time>2017-03-15T00:15:58Z</time>
      </trkpt>
      <trkpt lat="45.41219" lon="4.65536">
        <ele>612.9</ele>
        <time>2017-03-15T00:16:00Z</time>
      </trkpt>
      <trkpt lat="45.41216" lon="4.65537">
        <ele>613.8</ele>
        <time>2017-03-15T00:16:02Z</time>
      </trkpt>
      <trkpt lat="45.41213" lon="4.65539">
        <ele>613.8</ele>
        <time>2017-03-15T00:16:06Z</time>
      </trkpt>
      <trkpt lat="45.4121" lon="4.6554">
        <ele>615.8</ele>
        <time>2017-03-15T00:16:08Z</time>
      </trkpt>
      <trkpt lat="45.41206" lon="4.65542">
        <ele>616.5</ele>
        <time>2017-03-15T00:16:11Z</time>
      </trkpt>
      <trkpt lat="45.41202" lon="4.65541">
        <ele>617.4</ele>
        <time>2017-03-15T00:16:13Z</time>
      </trkpt>
      <trkpt lat="45.41197" lon="4.6554">
        <ele>618.8</ele>
        <time>2017-03-15T00:16:16Z</time>
      </trkpt>
      <trkpt lat="45.41195" lon="4.6554">
        <ele>619.4</ele>
        <time>2017-03-15T00:16:17Z</time>
      </trkpt>
      <trkpt lat="45.41193" lon="4.65537">
        <ele>619.4</ele>
        <time>2017-03-15T00:16:20Z</time>
      </trkpt>
      <trkpt lat="45.41191" lon="4.65533">
        <ele>620.2</ele>
        <time>2017-03-15T00:16:23Z</time>
      </trkpt>
      <trkpt lat="45.4119" lon="4.6553">
        <ele>620.5</ele>
        <time>2017-03-15T00:16:25Z</time>
      </trkpt>
      <trkpt lat="45.41186" lon="4.65525">
        <ele>621.9</ele>
        <time>2017-03-15T00:16:28Z</time>
      </trkpt>
      <trkpt lat="45.41183" lon="4.6552">
        <ele>622.4</ele>
        <time>2017-03-15T00:16:30Z</time>
      </trkpt>
      <trkpt lat="45.41182" lon="4.65516">
        <ele>622.9</ele>
        <time>2017-03-15T00:16:33Z</time>
      </trkpt>
      <trkpt lat="45.41177" lon="4.65516">
        <ele>623.4</ele>
        <time>2017-03-15T00:16:35Z</time>
      </trkpt>
      <trkpt lat="45.41173" lon="4.65517">
        <ele>624.1</ele>
        <time>2017-03-15T00:16:37Z</time>
      </trkpt>
      <trkpt lat="45.41173" lon="4.65513">
        <ele>624.3</ele>
        <time>2017-03-15T00:16:38Z</time>
      </trkpt>
      <trkpt lat="45.4117" lon="4.65511">
        <ele>624.6</ele>
        <time>2017-03-15T00:16:39Z</time>
      </trkpt>
      <trkpt lat="45.41167" lon="4.65509">
        <ele>624.7</ele>
        <time>2017-03-15T00:16:42Z</time>
      </trkpt>
      <trkpt lat="45.41166" lon="4.65505">
        <ele>624.9</ele>
        <time>2017-03-15T00:16:43Z</time>
      </trkpt>
      <trkpt lat="45.41168" lon="4.65501">
        <ele>625</ele>
        <time>2017-03-15T00:16:45Z</time>
      </trkpt>
      <trkpt lat="45.41162" lon="4.65501">
        <ele>625.1</ele>
        <time>2017-03-15T00:16:49Z</time>
      </trkpt>
      <trkpt lat="45.41159" lon="4.65499">
        <ele>625.2</ele>
        <time>2017-03-15T00:16:52Z</time>
      </trkpt>
      <trkpt lat="45.4116" lon="4.65495">
        <ele>625.4</ele>
        <time>2017-03-15T00:16:57Z</time>
      </trkpt>
      <trkpt lat="45.41161" lon="4.6549">
        <ele>624.8</ele>
        <time>2017-03-15T00:17:00Z</time>
      </trkpt>
      <trkpt lat="45.4116" lon="4.65485">
        <ele>624.2</ele>
        <time>2017-03-15T00:17:02Z</time>
      </trkpt>
      <trkpt lat="45.41161" lon="4.65481">
        <ele>623.9</ele>
        <time>2017-03-15T00:17:04Z</time>
      </trkpt>
      <trkpt lat="45.41162" lon="4.65477">
        <ele>623.4</ele>
        <time>2017-03-15T00:17:06Z</time>
      </trkpt>
      <trkpt lat="45.41165" lon="4.65475">
        <ele>622.9</ele>
        <time>2017-03-15T00:17:07Z</time>
      </trkpt>
      <trkpt lat="45.41167" lon="4.65468">
        <ele>622</ele>
        <time>2017-03-15T00:17:09Z</time>
      </trkpt>
      <trkpt lat="45.41169" lon="4.65464">
        <ele>621.6</ele>
        <time>2017-03-15T00:17:11Z</time>
      </trkpt>
      <trkpt lat="45.41172" lon="4.65454">
        <ele>620.6</ele>
        <time>2017-03-15T00:17:13Z</time>
      </trkpt>
      <trkpt lat="45.41173" lon="4.65449">
        <ele>620</ele>
        <time>2017-03-15T00:17:14Z</time>
      </trkpt>
      <trkpt lat="45.41175" lon="4.65445">
        <ele>619.8</ele>
        <time>2017-03-15T00:17:15Z</time>
      </trkpt>
      <trkpt lat="45.41176" lon="4.65435">
        <ele>619.3</ele>
        <time>2017-03-15T00:17:16Z</time>
      </trkpt>
      <trkpt lat="45.41179" lon="4.65431">
        <ele>618.7</ele>
        <time>2017-03-15T00:17:17Z</time>
      </trkpt>
      <trkpt lat="45.41181" lon="4.65428">
        <ele>618.3</ele>
        <time>2017-03-15T00:17:18Z</time>
      </trkpt>
      <trkpt lat="45.41185" lon="4.65427">
        <ele>617.8</ele>
        <time>2017-03-15T00:17:19Z</time>
      </trkpt>
      <trkpt lat="45.41188" lon="4.65425">
        <ele>617.5</ele>
        <time>2017-03-15T00:17:20Z</time>
      </trkpt>
      <trkpt lat="45.4119" lon="4.65421">
        <ele>617.4</ele>
        <time>2017-03-15T00:17:21Z</time>
      </trkpt>
      <trkpt lat="45.41195" lon="4.65414">
        <ele>617.1</ele>
        <time>2017-03-15T00:17:23Z</time>
      </trkpt>
      <trkpt lat="45.41196" lon="4.6541">
        <ele>617</ele>
        <time>2017-03-15T00:17:24Z</time>
      </trkpt>
      <trkpt lat="45.41198" lon="4.65404">
        <ele>616.8</ele>
        <time>2017-03-15T00:17:25Z</time>
      </trkpt>
      <trkpt lat="45.41201" lon="4.65398">
        <ele>616.4</ele>
        <time>2017-03-15T00:17:27Z</time>
      </trkpt>
      <trkpt lat="45.41202" lon="4.65394">
        <ele>616.1</ele>
        <time>2017-03-15T00:17:28Z</time>
      </trkpt>
      <trkpt lat="45.41205" lon="4.65392">
        <ele>615.6</ele>
        <time>2017-03-15T00:17:29Z</time>
      </trkpt>
      <trkpt lat="45.41207" lon="4.65389">
        <ele>615.3</ele>
        <time>2017-03-15T00:17:30Z</time>
      </trkpt>
      <trkpt lat="45.41211" lon="4.65383">
        <ele>614.9</ele>
        <time>2017-03-15T00:17:31Z</time>
      </trkpt>
      <trkpt lat="45.41214" lon="4.65377">
        <ele>614.4</ele>
        <time>2017-03-15T00:17:32Z</time>
      </trkpt>
      <trkpt lat="45.41216" lon="4.65374">
        <ele>613.8</ele>
        <time>2017-03-15T00:17:33Z</time>
      </trkpt>
      <trkpt lat="45.4122" lon="4.65369">
        <ele>613.3</ele>
        <time>2017-03-15T00:17:34Z</time>
      </trkpt>
      <trkpt lat="45.41224" lon="4.65361">
        <ele>612.9</ele>
        <time>2017-03-15T00:17:36Z</time>
      </trkpt>
      <trkpt lat="45.41226" lon="4.65355">
        <ele>612.3</ele>
        <time>2017-03-15T00:17:37Z</time>
      </trkpt>
      <trkpt lat="45.4123" lon="4.65346">
        <ele>611.3</ele>
        <time>2017-03-15T00:17:39Z</time>
      </trkpt>
      <trkpt lat="45.41229" lon="4.65342">
        <ele>611</ele>
        <time>2017-03-15T00:17:41Z</time>
      </trkpt>
      <trkpt lat="45.41234" lon="4.65336">
        <ele>610.7</ele>
        <time>2017-03-15T00:17:44Z</time>
      </trkpt>
      <trkpt lat="45.41238" lon="4.65331">
        <ele>610.5</ele>
        <time>2017-03-15T00:17:45Z</time>
      </trkpt>
      <trkpt lat="45.41242" lon="4.65329">
        <ele>610.4</ele>
        <time>2017-03-15T00:17:46Z</time>
      </trkpt>
      <trkpt lat="45.41246" lon="4.6532">
        <ele>609.7</ele>
        <time>2017-03-15T00:17:47Z</time>
      </trkpt>
      <trkpt lat="45.41243" lon="4.65318">
        <ele>609.2</ele>
        <time>2017-03-15T00:17:48Z</time>
      </trkpt>
      <trkpt lat="45.41245" lon="4.65312">
        <ele>608.6</ele>
        <time>2017-03-15T00:17:49Z</time>
      </trkpt>
      <trkpt lat="45.41247" lon="4.65305">
        <ele>608.2</ele>
        <time>2017-03-15T00:17:50Z</time>
      </trkpt>
      <trkpt lat="45.41248" lon="4.653">
        <ele>608</ele>
        <time>2017-03-15T00:17:51Z</time>
      </trkpt>
      <trkpt lat="45.41251" lon="4.65294">
        <ele>607.4</ele>
        <time>2017-03-15T00:17:52Z</time>
      </trkpt>
      <trkpt lat="45.41256" lon="4.65288">
        <ele>606.8</ele>
        <time>2017-03-15T00:17:53Z</time>
      </trkpt>
      <trkpt lat="45.41258" lon="4.65286">
        <ele>606.6</ele>
        <time>2017-03-15T00:17:54Z</time>
      </trkpt>
      <trkpt lat="45.41261" lon="4.65281">
        <ele>606.4</ele>
        <time>2017-03-15T00:17:55Z</time>
      </trkpt>
      <trkpt lat="45.41263" lon="4.65273">
        <ele>606.1</ele>
        <time>2017-03-15T00:17:56Z</time>
      </trkpt>
      <trkpt lat="45.41265" lon="4.65267">
        <ele>605.9</ele>
        <time>2017-03-15T00:17:57Z</time>
      </trkpt>
      <trkpt lat="45.41268" lon="4.65262">
        <ele>605.7</ele>
        <time>2017-03-15T00:17:58Z</time>
      </trkpt>
      <trkpt lat="45.41273" lon="4.65258">
        <ele>605.3</ele>
        <time>2017-03-15T00:18:00Z</time>
      </trkpt>
      <trkpt lat="45.41276" lon="4.65255">
        <ele>605</ele>
        <time>2017-03-15T00:18:01Z</time>
      </trkpt>
      <trkpt lat="45.41277" lon="4.65247">
        <ele>604.6</ele>
        <time>2017-03-15T00:18:02Z</time>
      </trkpt>
      <trkpt lat="45.41281" lon="4.65241">
        <ele>604.5</ele>
        <time>2017-03-15T00:18:04Z</time>
      </trkpt>
      <trkpt lat="45.41282" lon="4.65238">
        <ele>604.4</ele>
        <time>2017-03-15T00:18:05Z</time>
      </trkpt>
      <trkpt lat="45.41284" lon="4.65234">
        <ele>604.3</ele>
        <time>2017-03-15T00:18:06Z</time>
      </trkpt>
      <trkpt lat="45.41289" lon="4.6523">
        <ele>604.1</ele>
        <time>2017-03-15T00:18:08Z</time>
      </trkpt>
      <trkpt lat="45.41294" lon="4.65226">
        <ele>603.9</ele>
        <time>2017-03-15T00:18:10Z</time>
      </trkpt>
      <trkpt lat="45.41298" lon="4.65225">
        <ele>603.8</ele>
        <time>2017-03-15T00:18:11Z</time>
      </trkpt>
      <trkpt lat="45.41302" lon="4.65224">
        <ele>603.6</ele>
        <time>2017-03-15T00:18:12Z</time>
      </trkpt>
      <trkpt lat="45.41306" lon="4.65222">
        <ele>603.3</ele>
        <time>2017-03-15T00:18:13Z</time>
      </trkpt>
      <trkpt lat="45.41309" lon="4.65222">
        <ele>603</ele>
        <time>2017-03-15T00:18:14Z</time>
      </trkpt>
      <trkpt lat="45.41312" lon="4.65217">
        <ele>602.7</ele>
        <time>2017-03-15T00:18:16Z</time>
      </trkpt>
      <trkpt lat="45.41316" lon="4.65213">
        <ele>602.5</ele>
        <time>2017-03-15T00:18:17Z</time>
      </trkpt>
      <trkpt lat="45.41322" lon="4.65215">
        <ele>602.4</ele>
        <time>2017-03-15T00:18:18Z</time>
      </trkpt>
      <trkpt lat="45.41325" lon="4.65212">
        <ele>602.3</ele>
        <time>2017-03-15T00:18:19Z</time>
      </trkpt>
      <trkpt lat="45.41329" lon="4.65211">
        <ele>602.2</ele>
        <time>2017-03-15T00:18:20Z</time>
      </trkpt>
      <trkpt lat="45.41334" lon="4.65206">
        <ele>602</ele>
        <time>2017-03-15T00:18:21Z</time>
      </trkpt>
      <trkpt lat="45.41336" lon="4.65204">
        <ele>601.9</ele>
        <time>2017-03-15T00:18:22Z</time>
      </trkpt>
      <trkpt lat="45.4134" lon="4.65202">
        <ele>601.9</ele>
        <time>2017-03-15T00:18:23Z</time>
      </trkpt>
      <trkpt lat="45.41343" lon="4.65202">
        <ele>601.8</ele>
        <time>2017-03-15T00:18:24Z</time>
      </trkpt>
      <trkpt lat="45.41349" lon="4.65202">
        <ele>601.7</ele>
        <time>2017-03-15T00:18:26Z</time>
      </trkpt>
      <trkpt lat="45.41354" lon="4.65203">
        <ele>601.7</ele>
        <time>2017-03-15T00:18:27Z</time>
      </trkpt>
      <trkpt lat="45.41358" lon="4.65204">
        <ele>601.6</ele>
        <time>2017-03-15T00:18:28Z</time>
      </trkpt>
      <trkpt lat="45.41362" lon="4.65207">
        <ele>601.5</ele>
        <time>2017-03-15T00:18:30Z</time>
      </trkpt>
      <trkpt lat="45.41364" lon="4.65205">
        <ele>601.4</ele>
        <time>2017-03-15T00:18:31Z</time>
      </trkpt>
      <trkpt lat="45.41371" lon="4.65208">
        <ele>601</ele>
        <time>2017-03-15T00:18:33Z</time>
      </trkpt>
      <trkpt lat="45.41375" lon="4.65211">
        <ele>600.5</ele>
        <time>2017-03-15T00:18:34Z</time>
      </trkpt>
      <trkpt lat="45.41379" lon="4.65213">
        <ele>600.1</ele>
        <time>2017-03-15T00:18:35Z</time>
      </trkpt>
      <trkpt lat="45.41383" lon="4.65215">
        <ele>599.8</ele>
        <time>2017-03-15T00:18:36Z</time>
      </trkpt>
      <trkpt lat="45.41386" lon="4.65218">
        <ele>599.5</ele>
        <time>2017-03-15T00:18:37Z</time>
      </trkpt>
      <trkpt lat="45.41388" lon="4.6522">
        <ele>599.3</ele>
        <time>2017-03-15T00:18:38Z</time>
      </trkpt>
      <trkpt lat="45.41394" lon="4.65222">
        <ele>598.5</ele>
        <time>2017-03-15T00:18:40Z</time>
      </trkpt>
      <trkpt lat="45.414" lon="4.65225">
        <ele>598</ele>
        <time>2017-03-15T00:18:41Z</time>
      </trkpt>
      <trkpt lat="45.41404" lon="4.6523">
        <ele>597.6</ele>
        <time>2017-03-15T00:18:43Z</time>
      </trkpt>
      <trkpt lat="45.41407" lon="4.65235">
        <ele>597.4</ele>
        <time>2017-03-15T00:18:44Z</time>
      </trkpt>
      <trkpt lat="45.41411" lon="4.65238">
        <ele>596.9</ele>
        <time>2017-03-15T00:18:45Z</time>
      </trkpt>
      <trkpt lat="45.41416" lon="4.65242">
        <ele>596.2</ele>
        <time>2017-03-15T00:18:47Z</time>
      </trkpt>
      <trkpt lat="45.41419" lon="4.65247">
        <ele>595.8</ele>
        <time>2017-03-15T00:18:48Z</time>
      </trkpt>
      <trkpt lat="45.41423" lon="4.65249">
        <ele>595.6</ele>
        <time>2017-03-15T00:18:49Z</time>
      </trkpt>
      <trkpt lat="45.41428" lon="4.6525">
        <ele>595.4</ele>
        <time>2017-03-15T00:18:50Z</time>
      </trkpt>
      <trkpt lat="45.41431" lon="4.65253">
        <ele>595.3</ele>
        <time>2017-03-15T00:18:51Z</time>
      </trkpt>
      <trkpt lat="45.41435" lon="4.65255">
        <ele>595.2</ele>
        <time>2017-03-15T00:18:52Z</time>
      </trkpt>
      <trkpt lat="45.41439" lon="4.65257">
        <ele>595.1</ele>
        <time>2017-03-15T00:18:53Z</time>
      </trkpt>
      <trkpt lat="45.41442" lon="4.65261">
        <ele>595.1</ele>
        <time>2017-03-15T00:18:54Z</time>
      </trkpt>
      <trkpt lat="45.41447" lon="4.65267">
        <ele>595</ele>
        <time>2017-03-15T00:18:56Z</time>
      </trkpt>
      <trkpt lat="45.4145" lon="4.65269">
        <ele>595</ele>
        <time>2017-03-15T00:18:57Z</time>
      </trkpt>
      <trkpt lat="45.41452" lon="4.65272">
        <ele>595</ele>
        <time>2017-03-15T00:18:58Z</time>
      </trkpt>
      <trkpt lat="45.41454" lon="4.65276">
        <ele>595</ele>
        <time>2017-03-15T00:19:00Z</time>
      </trkpt>
      <trkpt lat="45.41459" lon="4.65279">
        <ele>595</ele>
        <time>2017-03-15T00:19:02Z</time>
      </trkpt>
      <trkpt lat="45.41462" lon="4.65278">
        <ele>595</ele>
        <time>2017-03-15T00:19:03Z</time>
      </trkpt>
      <trkpt lat="45.41467" lon="4.6528">
        <ele>595.1</ele>
        <time>2017-03-15T00:19:05Z</time>
      </trkpt>
      <trkpt lat="45.4147" lon="4.65283">
        <ele>595.2</ele>
        <time>2017-03-15T00:19:06Z</time>
      </trkpt>
      <trkpt lat="45.41473" lon="4.65286">
        <ele>595.3</ele>
        <time>2017-03-15T00:19:07Z</time>
      </trkpt>
      <trkpt lat="45.41475" lon="4.65289">
        <ele>595.3</ele>
        <time>2017-03-15T00:19:08Z</time>
      </trkpt>
      <trkpt lat="45.41478" lon="4.65292">
        <ele>595.4</ele>
        <time>2017-03-15T00:19:09Z</time>
      </trkpt>
      <trkpt lat="45.41482" lon="4.65294">
        <ele>595.5</ele>
        <time>2017-03-15T00:19:11Z</time>
      </trkpt>
      <trkpt lat="45.41486" lon="4.65297">
        <ele>595.6</ele>
        <time>2017-03-15T00:19:12Z</time>
      </trkpt>
      <trkpt lat="45.4149" lon="4.65297">
        <ele>595.9</ele>
        <time>2017-03-15T00:19:13Z</time>
      </trkpt>
      <trkpt lat="45.41494" lon="4.65297">
        <ele>596</ele>
        <time>2017-03-15T00:19:15Z</time>
      </trkpt>
      <trkpt lat="45.41495" lon="4.65301">
        <ele>596.1</ele>
        <time>2017-03-15T00:19:16Z</time>
      </trkpt>
      <trkpt lat="45.41499" lon="4.65303">
        <ele>596.2</ele>
        <time>2017-03-15T00:19:17Z</time>
      </trkpt>
      <trkpt lat="45.41503" lon="4.65305">
        <ele>596.3</ele>
        <time>2017-03-15T00:19:18Z</time>
      </trkpt>
      <trkpt lat="45.41508" lon="4.65308">
        <ele>596.5</ele>
        <time>2017-03-15T00:19:20Z</time>
      </trkpt>
      <trkpt lat="45.41512" lon="4.65307">
        <ele>596.6</ele>
        <time>2017-03-15T00:19:21Z</time>
      </trkpt>
      <trkpt lat="45.41515" lon="4.65309">
        <ele>596.7</ele>
        <time>2017-03-15T00:19:22Z</time>
      </trkpt>
      <trkpt lat="45.41519" lon="4.65312">
        <ele>596.9</ele>
        <time>2017-03-15T00:19:23Z</time>
      </trkpt>
      <trkpt lat="45.41523" lon="4.6531">
        <ele>597.3</ele>
        <time>2017-03-15T00:19:25Z</time>
      </trkpt>
      <trkpt lat="45.41528" lon="4.65309">
        <ele>597.8</ele>
        <time>2017-03-15T00:19:27Z</time>
      </trkpt>
      <trkpt lat="45.41532" lon="4.6531">
        <ele>598.3</ele>
        <time>2017-03-15T00:19:28Z</time>
      </trkpt>
      <trkpt lat="45.41535" lon="4.65312">
        <ele>598.8</ele>
        <time>2017-03-15T00:19:29Z</time>
      </trkpt>
      <trkpt lat="45.41539" lon="4.65315">
        <ele>599.4</ele>
        <time>2017-03-15T00:19:31Z</time>
      </trkpt>
      <trkpt lat="45.41542" lon="4.65316">
        <ele>599.9</ele>
        <time>2017-03-15T00:19:33Z</time>
      </trkpt>
      <trkpt lat="45.41544" lon="4.6532">
        <ele>600.5</ele>
        <time>2017-03-15T00:19:34Z</time>
      </trkpt>
      <trkpt lat="45.41547" lon="4.65324">
        <ele>601.2</ele>
        <time>2017-03-15T00:19:36Z</time>
      </trkpt>
      <trkpt lat="45.41552" lon="4.65329">
        <ele>602.2</ele>
        <time>2017-03-15T00:19:38Z</time>
      </trkpt>
      <trkpt lat="45.41557" lon="4.65332">
        <ele>602.4</ele>
        <time>2017-03-15T00:19:40Z</time>
      </trkpt>
      <trkpt lat="45.41561" lon="4.65333">
        <ele>602.6</ele>
        <time>2017-03-15T00:19:41Z</time>
      </trkpt>
      <trkpt lat="45.41563" lon="4.65334">
        <ele>602.8</ele>
        <time>2017-03-15T00:19:43Z</time>
      </trkpt>
      <trkpt lat="45.41568" lon="4.65336">
        <ele>603.1</ele>
        <time>2017-03-15T00:19:45Z</time>
      </trkpt>
      <trkpt lat="45.41571" lon="4.65338">
        <ele>603.2</ele>
        <time>2017-03-15T00:19:46Z</time>
      </trkpt>
      <trkpt lat="45.41577" lon="4.65339">
        <ele>603.6</ele>
        <time>2017-03-15T00:19:48Z</time>
      </trkpt>
      <trkpt lat="45.4158" lon="4.65339">
        <ele>603.8</ele>
        <time>2017-03-15T00:19:49Z</time>
      </trkpt>
      <trkpt lat="45.41585" lon="4.65339">
        <ele>604</ele>
        <time>2017-03-15T00:19:51Z</time>
      </trkpt>
      <trkpt lat="45.41587" lon="4.65337">
        <ele>604.2</ele>
        <time>2017-03-15T00:19:52Z</time>
      </trkpt>
      <trkpt lat="45.41591" lon="4.65335">
        <ele>604.5</ele>
        <time>2017-03-15T00:19:54Z</time>
      </trkpt>
      <trkpt lat="45.41595" lon="4.65331">
        <ele>604.8</ele>
        <time>2017-03-15T00:19:56Z</time>
      </trkpt>
      <trkpt lat="45.41599" lon="4.6533">
        <ele>605.1</ele>
        <time>2017-03-15T00:20:00Z</time>
      </trkpt>
      <trkpt lat="45.41602" lon="4.6533">
        <ele>605.3</ele>
        <time>2017-03-15T00:20:02Z</time>
      </trkpt>
      <trkpt lat="45.41605" lon="4.65327">
        <ele>605.6</ele>
        <time>2017-03-15T00:20:04Z</time>
      </trkpt>
      <trkpt lat="45.41606" lon="4.65322">
        <ele>605.8</ele>
        <time>2017-03-15T00:20:07Z</time>
      </trkpt>
      <trkpt lat="45.41609" lon="4.6532">
        <ele>606</ele>
        <time>2017-03-15T00:20:11Z</time>
      </trkpt>
      <trkpt lat="45.41611" lon="4.65317">
        <ele>606.3</ele>
        <time>2017-03-15T00:20:14Z</time>
      </trkpt>
      <trkpt lat="45.41614" lon="4.65312">
        <ele>606.8</ele>
        <time>2017-03-15T00:20:16Z</time>
      </trkpt>
      <trkpt lat="45.41617" lon="4.65307">
        <ele>607.3</ele>
        <time>2017-03-15T00:20:18Z</time>
      </trkpt>
      <trkpt lat="45.41616" lon="4.65303">
        <ele>607.7</ele>
        <time>2017-03-15T00:20:21Z</time>
      </trkpt>
      <trkpt lat="45.4162" lon="4.65297">
        <ele>608.4</ele>
        <time>2017-03-15T00:20:23Z</time>
      </trkpt>
      <trkpt lat="45.41622" lon="4.65291">
        <ele>609.1</ele>
        <time>2017-03-15T00:20:24Z</time>
      </trkpt>
      <trkpt lat="45.41623" lon="4.65287">
        <ele>609.7</ele>
        <time>2017-03-15T00:20:26Z</time>
      </trkpt>
      <trkpt lat="45.41621" lon="4.65283">
        <ele>610.3</ele>
        <time>2017-03-15T00:20:30Z</time>
      </trkpt>
      <trkpt lat="45.41622" lon="4.65279">
        <ele>610.9</ele>
        <time>2017-03-15T00:20:33Z</time>
      </trkpt>
      <trkpt lat="45.41622" lon="4.65274">
        <ele>611.5</ele>
        <time>2017-03-15T00:20:36Z</time>
      </trkpt>
      <trkpt lat="45.41619" lon="4.65274">
        <ele>612.1</ele>
        <time>2017-03-15T00:20:38Z</time>
      </trkpt>
      <trkpt lat="45.41623" lon="4.65268">
        <ele>613.2</ele>
        <time>2017-03-15T00:20:40Z</time>
      </trkpt>
      <trkpt lat="45.41624" lon="4.65264">
        <ele>613.9</ele>
        <time>2017-03-15T00:20:42Z</time>
      </trkpt>
      <trkpt lat="45.41624" lon="4.65258">
        <ele>614.7</ele>
        <time>2017-03-15T00:20:45Z</time>
      </trkpt>
      <trkpt lat="45.41626" lon="4.65254">
        <ele>615.3</ele>
        <time>2017-03-15T00:20:47Z</time>
      </trkpt>
      <trkpt lat="45.41629" lon="4.65254">
        <ele>615.8</ele>
        <time>2017-03-15T00:20:48Z</time>
      </trkpt>
      <trkpt lat="45.41635" lon="4.65259">
        <ele>615.2</ele>
        <time>2017-03-15T00:20:51Z</time>
      </trkpt>
      <trkpt lat="45.41637" lon="4.65262">
        <ele>615</ele>
        <time>2017-03-15T00:20:56Z</time>
      </trkpt>
      <trkpt lat="45.41639" lon="4.65264">
        <ele>614.6</ele>
        <time>2017-03-15T00:20:57Z</time>
      </trkpt>
      <trkpt lat="45.41642" lon="4.65272">
        <ele>613.7</ele>
        <time>2017-03-15T00:20:58Z</time>
      </trkpt>
      <trkpt lat="45.41644" lon="4.65276">
        <ele>613.3</ele>
        <time>2017-03-15T00:20:59Z</time>
      </trkpt>
      <trkpt lat="45.41644" lon="4.65282">
        <ele>612.7</ele>
        <time>2017-03-15T00:21:01Z</time>
      </trkpt>
      <trkpt lat="45.41647" lon="4.65284">
        <ele>612.1</ele>
        <time>2017-03-15T00:21:02Z</time>
      </trkpt>
      <trkpt lat="45.4165" lon="4.65294">
        <ele>611.3</ele>
        <time>2017-03-15T00:21:05Z</time>
      </trkpt>
      <trkpt lat="45.41654" lon="4.65298">
        <ele>610.9</ele>
        <time>2017-03-15T00:21:06Z</time>
      </trkpt>
      <trkpt lat="45.41658" lon="4.65304">
        <ele>610.4</ele>
        <time>2017-03-15T00:21:07Z</time>
      </trkpt>
      <trkpt lat="45.41662" lon="4.65308">
        <ele>609.7</ele>
        <time>2017-03-15T00:21:08Z</time>
      </trkpt>
      <trkpt lat="45.41664" lon="4.65312">
        <ele>609.5</ele>
        <time>2017-03-15T00:21:09Z</time>
      </trkpt>
      <trkpt lat="45.41665" lon="4.65316">
        <ele>609</ele>
        <time>2017-03-15T00:21:10Z</time>
      </trkpt>
      <trkpt lat="45.41669" lon="4.6532">
        <ele>608.4</ele>
        <time>2017-03-15T00:21:11Z</time>
      </trkpt>
      <trkpt lat="45.41674" lon="4.65323">
        <ele>607.7</ele>
        <time>2017-03-15T00:21:13Z</time>
      </trkpt>
      <trkpt lat="45.41676" lon="4.65329">
        <ele>607</ele>
        <time>2017-03-15T00:21:15Z</time>
      </trkpt>
      <trkpt lat="45.41679" lon="4.65333">
        <ele>606.3</ele>
        <time>2017-03-15T00:21:16Z</time>
      </trkpt>
      <trkpt lat="45.41682" lon="4.65337">
        <ele>606.7</ele>
        <time>2017-03-15T00:21:18Z</time>
      </trkpt>
      <trkpt lat="45.41686" lon="4.65336">
        <ele>607</ele>
        <time>2017-03-15T00:21:19Z</time>
      </trkpt>
      <trkpt lat="45.41689" lon="4.65333">
        <ele>607.2</ele>
        <time>2017-03-15T00:21:21Z</time>
      </trkpt>
      <trkpt lat="45.41692" lon="4.65329">
        <ele>607.3</ele>
        <time>2017-03-15T00:21:22Z</time>
      </trkpt>
      <trkpt lat="45.41696" lon="4.65325">
        <ele>607.4</ele>
        <time>2017-03-15T00:21:24Z</time>
      </trkpt>
      <trkpt lat="45.41698" lon="4.65322">
        <ele>607.4</ele>
        <time>2017-03-15T00:21:25Z</time>
      </trkpt>
      <trkpt lat="45.417" lon="4.65318">
        <ele>607.6</ele>
        <time>2017-03-15T00:21:26Z</time>
      </trkpt>
      <trkpt lat="45.41701" lon="4.65315">
        <ele>607.8</ele>
        <time>2017-03-15T00:21:27Z</time>
      </trkpt>
      <trkpt lat="45.41704" lon="4.65313">
        <ele>608</ele>
        <time>2017-03-15T00:21:28Z</time>
      </trkpt>
      <trkpt lat="45.41708" lon="4.65307">
        <ele>608</ele>
        <time>2017-03-15T00:21:30Z</time>
      </trkpt>
      <trkpt lat="45.41711" lon="4.65301">
        <ele>608</ele>
        <time>2017-03-15T00:21:31Z</time>
      </trkpt>
      <trkpt lat="45.41713" lon="4.65297">
        <ele>608.1</ele>
        <time>2017-03-15T00:21:32Z</time>
      </trkpt>
      <trkpt lat="45.41715" lon="4.65293">
        <ele>608.2</ele>
        <time>2017-03-15T00:21:33Z</time>
      </trkpt>
      <trkpt lat="45.41718" lon="4.65288">
        <ele>608.5</ele>
        <time>2017-03-15T00:21:34Z</time>
      </trkpt>
      <trkpt lat="45.4172" lon="4.65284">
        <ele>608.8</ele>
        <time>2017-03-15T00:21:35Z</time>
      </trkpt>
      <trkpt lat="45.41723" lon="4.65281">
        <ele>609</ele>
        <time>2017-03-15T00:21:36Z</time>
      </trkpt>
      <trkpt lat="45.41725" lon="4.65277">
        <ele>609.3</ele>
        <time>2017-03-15T00:21:37Z</time>
      </trkpt>
      <trkpt lat="45.41727" lon="4.65274">
        <ele>609.5</ele>
        <time>2017-03-15T00:21:38Z</time>
      </trkpt>
      <trkpt lat="45.4173" lon="4.65271">
        <ele>609.9</ele>
        <time>2017-03-15T00:21:39Z</time>
      </trkpt>
      <trkpt lat="45.41732" lon="4.65268">
        <ele>610.3</ele>
        <time>2017-03-15T00:21:40Z</time>
      </trkpt>
      <trkpt lat="45.41734" lon="4.65264">
        <ele>610.7</ele>
        <time>2017-03-15T00:21:41Z</time>
      </trkpt>
      <trkpt lat="45.41737" lon="4.65261">
        <ele>611.1</ele>
        <time>2017-03-15T00:21:42Z</time>
      </trkpt>
      <trkpt lat="45.41739" lon="4.65257">
        <ele>611.4</ele>
        <time>2017-03-15T00:21:43Z</time>
      </trkpt>
      <trkpt lat="45.41741" lon="4.65252">
        <ele>611.6</ele>
        <time>2017-03-15T00:21:44Z</time>
      </trkpt>
      <trkpt lat="45.41742" lon="4.65249">
        <ele>611.8</ele>
        <time>2017-03-15T00:21:45Z</time>
      </trkpt>
      <trkpt lat="45.41745" lon="4.65245">
        <ele>612.1</ele>
        <time>2017-03-15T00:21:46Z</time>
      </trkpt>
      <trkpt lat="45.41748" lon="4.65242">
        <ele>612.2</ele>
        <time>2017-03-15T00:21:47Z</time>
      </trkpt>
      <trkpt lat="45.4175" lon="4.65238">
        <ele>612.1</ele>
        <time>2017-03-15T00:21:48Z</time>
      </trkpt>
      <trkpt lat="45.41753" lon="4.65235">
        <ele>612.1</ele>
        <time>2017-03-15T00:21:49Z</time>
      </trkpt>
      <trkpt lat="45.41756" lon="4.65231">
        <ele>612</ele>
        <time>2017-03-15T00:21:50Z</time>
      </trkpt>
      <trkpt lat="45.41759" lon="4.65225">
        <ele>611.9</ele>
        <time>2017-03-15T00:21:51Z</time>
      </trkpt>
      <trkpt lat="45.41763" lon="4.65222">
        <ele>612</ele>
        <time>2017-03-15T00:21:53Z</time>
      </trkpt>
      <trkpt lat="45.41765" lon="4.6522">
        <ele>612.2</ele>
        <time>2017-03-15T00:21:54Z</time>
      </trkpt>
      <trkpt lat="45.41768" lon="4.65217">
        <ele>612.5</ele>
        <time>2017-03-15T00:21:55Z</time>
      </trkpt>
      <trkpt lat="45.4177" lon="4.65215">
        <ele>612.6</ele>
        <time>2017-03-15T00:21:56Z</time>
      </trkpt>
      <trkpt lat="45.41772" lon="4.65211">
        <ele>612.8</ele>
        <time>2017-03-15T00:21:57Z</time>
      </trkpt>
      <trkpt lat="45.41774" lon="4.65208">
        <ele>613</ele>
        <time>2017-03-15T00:21:58Z</time>
      </trkpt>
      <trkpt lat="45.41776" lon="4.65203">
        <ele>613</ele>
        <time>2017-03-15T00:21:59Z</time>
      </trkpt>
      <trkpt lat="45.41778" lon="4.65199">
        <ele>613.1</ele>
        <time>2017-03-15T00:22:00Z</time>
      </trkpt>
      <trkpt lat="45.4178" lon="4.65194">
        <ele>613.1</ele>
        <time>2017-03-15T00:22:01Z</time>
      </trkpt>
      <trkpt lat="45.41783" lon="4.65191">
        <ele>613.1</ele>
        <time>2017-03-15T00:22:02Z</time>
      </trkpt>
      <trkpt lat="45.41785" lon="4.65187">
        <ele>613</ele>
        <time>2017-03-15T00:22:03Z</time>
      </trkpt>
      <trkpt lat="45.41788" lon="4.65184">
        <ele>613</ele>
        <time>2017-03-15T00:22:04Z</time>
      </trkpt>
      <trkpt lat="45.41789" lon="4.6518">
        <ele>613</ele>
        <time>2017-03-15T00:22:05Z</time>
      </trkpt>
      <trkpt lat="45.41792" lon="4.65177">
        <ele>613</ele>
        <time>2017-03-15T00:22:06Z</time>
      </trkpt>
      <trkpt lat="45.41794" lon="4.65173">
        <ele>613.1</ele>
        <time>2017-03-15T00:22:07Z</time>
      </trkpt>
      <trkpt lat="45.41799" lon="4.65167">
        <ele>613.5</ele>
        <time>2017-03-15T00:22:09Z</time>
      </trkpt>
      <trkpt lat="45.418" lon="4.65163">
        <ele>613.7</ele>
        <time>2017-03-15T00:22:10Z</time>
      </trkpt>
      <trkpt lat="45.41803" lon="4.6516">
        <ele>613.9</ele>
        <time>2017-03-15T00:22:11Z</time>
      </trkpt>
      <trkpt lat="45.41804" lon="4.65156">
        <ele>614.1</ele>
        <time>2017-03-15T00:22:12Z</time>
      </trkpt>
      <trkpt lat="45.41806" lon="4.65152">
        <ele>614.3</ele>
        <time>2017-03-15T00:22:13Z</time>
      </trkpt>
      <trkpt lat="45.41809" lon="4.65149">
        <ele>614.3</ele>
        <time>2017-03-15T00:22:14Z</time>
      </trkpt>
      <trkpt lat="45.41811" lon="4.65145">
        <ele>614.4</ele>
        <time>2017-03-15T00:22:15Z</time>
      </trkpt>
      <trkpt lat="45.41815" lon="4.65141">
        <ele>614.2</ele>
        <time>2017-03-15T00:22:17Z</time>
      </trkpt>
      <trkpt lat="45.41821" lon="4.65144">
        <ele>613.8</ele>
        <time>2017-03-15T00:22:19Z</time>
      </trkpt>
      <trkpt lat="45.41825" lon="4.65145">
        <ele>613.6</ele>
        <time>2017-03-15T00:22:20Z</time>
      </trkpt>
      <trkpt lat="45.41829" lon="4.65147">
        <ele>613.5</ele>
        <time>2017-03-15T00:22:21Z</time>
      </trkpt>
      <trkpt lat="45.41832" lon="4.65148">
        <ele>613.4</ele>
        <time>2017-03-15T00:22:22Z</time>
      </trkpt>
      <trkpt lat="45.41836" lon="4.65148">
        <ele>613.4</ele>
        <time>2017-03-15T00:22:23Z</time>
      </trkpt>
      <trkpt lat="45.4184" lon="4.65145">
        <ele>613.5</ele>
        <time>2017-03-15T00:22:25Z</time>
      </trkpt>
      <trkpt lat="45.41843" lon="4.65143">
        <ele>613.7</ele>
        <time>2017-03-15T00:22:26Z</time>
      </trkpt>
      <trkpt lat="45.41846" lon="4.65142">
        <ele>613.8</ele>
        <time>2017-03-15T00:22:27Z</time>
      </trkpt>
      <trkpt lat="45.4185" lon="4.65145">
        <ele>613</ele>
        <time>2017-03-15T00:22:28Z</time>
      </trkpt>
      <trkpt lat="45.41852" lon="4.65149">
        <ele>612</ele>
        <time>2017-03-15T00:22:29Z</time>
      </trkpt>
      <trkpt lat="45.41855" lon="4.65152">
        <ele>611.3</ele>
        <time>2017-03-15T00:22:30Z</time>
      </trkpt>
      <trkpt lat="45.41856" lon="4.65155">
        <ele>610.2</ele>
        <time>2017-03-15T00:22:31Z</time>
      </trkpt>
      <trkpt lat="45.41859" lon="4.65159">
        <ele>609.7</ele>
        <time>2017-03-15T00:22:33Z</time>
      </trkpt>
      <trkpt lat="45.41864" lon="4.65167">
        <ele>608.1</ele>
        <time>2017-03-15T00:22:35Z</time>
      </trkpt>
      <trkpt lat="45.41866" lon="4.65171">
        <ele>606.9</ele>
        <time>2017-03-15T00:22:36Z</time>
      </trkpt>
      <trkpt lat="45.41867" lon="4.65176">
        <ele>605.6</ele>
        <time>2017-03-15T00:22:37Z</time>
      </trkpt>
      <trkpt lat="45.41867" lon="4.65183">
        <ele>603.9</ele>
        <time>2017-03-15T00:22:39Z</time>
      </trkpt>
      <trkpt lat="45.4187" lon="4.65187">
        <ele>602.5</ele>
        <time>2017-03-15T00:22:40Z</time>
      </trkpt>
      <trkpt lat="45.41871" lon="4.65194">
        <ele>601.2</ele>
        <time>2017-03-15T00:22:41Z</time>
      </trkpt>
      <trkpt lat="45.41873" lon="4.65198">
        <ele>600.7</ele>
        <time>2017-03-15T00:22:42Z</time>
      </trkpt>
      <trkpt lat="45.41873" lon="4.65204">
        <ele>600.1</ele>
        <time>2017-03-15T00:22:43Z</time>
      </trkpt>
      <trkpt lat="45.41874" lon="4.65213">
        <ele>598.8</ele>
        <time>2017-03-15T00:22:44Z</time>
      </trkpt>
      <trkpt lat="45.41875" lon="4.65217">
        <ele>598.3</ele>
        <time>2017-03-15T00:22:45Z</time>
      </trkpt>
      <trkpt lat="45.41875" lon="4.65223">
        <ele>597.9</ele>
        <time>2017-03-15T00:22:46Z</time>
      </trkpt>
      <trkpt lat="45.41876" lon="4.65232">
        <ele>597</ele>
        <time>2017-03-15T00:22:47Z</time>
      </trkpt>
      <trkpt lat="45.41877" lon="4.65241">
        <ele>595.1</ele>
        <time>2017-03-15T00:22:48Z</time>
      </trkpt>
      <trkpt lat="45.41878" lon="4.65245">
        <ele>594.3</ele>
        <time>2017-03-15T00:22:49Z</time>
      </trkpt>
      <trkpt lat="45.41879" lon="4.6525">
        <ele>593.1</ele>
        <time>2017-03-15T00:22:50Z</time>
      </trkpt>
      <trkpt lat="45.4188" lon="4.65256">
        <ele>591.7</ele>
        <time>2017-03-15T00:22:51Z</time>
      </trkpt>
      <trkpt lat="45.41881" lon="4.65263">
        <ele>590.4</ele>
        <time>2017-03-15T00:22:52Z</time>
      </trkpt>
      <trkpt lat="45.4188" lon="4.65271">
        <ele>589.7</ele>
        <time>2017-03-15T00:22:54Z</time>
      </trkpt>
      <trkpt lat="45.41879" lon="4.65277">
        <ele>588.5</ele>
        <time>2017-03-15T00:22:55Z</time>
      </trkpt>
      <trkpt lat="45.41877" lon="4.65281">
        <ele>588.5</ele>
        <time>2017-03-15T00:22:56Z</time>
      </trkpt>
      <trkpt lat="45.4188" lon="4.65287">
        <ele>587.3</ele>
        <time>2017-03-15T00:22:57Z</time>
      </trkpt>
      <trkpt lat="45.41883" lon="4.65294">
        <ele>585.5</ele>
        <time>2017-03-15T00:22:58Z</time>
      </trkpt>
      <trkpt lat="45.41886" lon="4.653">
        <ele>584.3</ele>
        <time>2017-03-15T00:22:59Z</time>
      </trkpt>
      <trkpt lat="45.41887" lon="4.65305">
        <ele>583.7</ele>
        <time>2017-03-15T00:23:00Z</time>
      </trkpt>
      <trkpt lat="45.41888" lon="4.65309">
        <ele>582.4</ele>
        <time>2017-03-15T00:23:01Z</time>
      </trkpt>
      <trkpt lat="45.4189" lon="4.65315">
        <ele>581.5</ele>
        <time>2017-03-15T00:23:02Z</time>
      </trkpt>
      <trkpt lat="45.41892" lon="4.6532">
        <ele>580.2</ele>
        <time>2017-03-15T00:23:03Z</time>
      </trkpt>
      <trkpt lat="45.41893" lon="4.65327">
        <ele>579.7</ele>
        <time>2017-03-15T00:23:04Z</time>
      </trkpt>
      <trkpt lat="45.41893" lon="4.65332">
        <ele>579</ele>
        <time>2017-03-15T00:23:05Z</time>
      </trkpt>
      <trkpt lat="45.41894" lon="4.65338">
        <ele>578.6</ele>
        <time>2017-03-15T00:23:06Z</time>
      </trkpt>
      <trkpt lat="45.41892" lon="4.65345">
        <ele>577.9</ele>
        <time>2017-03-15T00:23:07Z</time>
      </trkpt>
      <trkpt lat="45.41894" lon="4.65352">
        <ele>577.4</ele>
        <time>2017-03-15T00:23:08Z</time>
      </trkpt>
      <trkpt lat="45.41893" lon="4.65358">
        <ele>576.4</ele>
        <time>2017-03-15T00:23:09Z</time>
      </trkpt>
      <trkpt lat="45.41892" lon="4.65363">
        <ele>575.8</ele>
        <time>2017-03-15T00:23:10Z</time>
      </trkpt>
      <trkpt lat="45.41892" lon="4.65368">
        <ele>575.1</ele>
        <time>2017-03-15T00:23:11Z</time>
      </trkpt>
      <trkpt lat="45.41892" lon="4.65374">
        <ele>573.8</ele>
        <time>2017-03-15T00:23:13Z</time>
      </trkpt>
      <trkpt lat="45.41893" lon="4.65379">
        <ele>573.1</ele>
        <time>2017-03-15T00:23:14Z</time>
      </trkpt>
      <trkpt lat="45.41893" lon="4.65387">
        <ele>572.1</ele>
        <time>2017-03-15T00:23:15Z</time>
      </trkpt>
      <trkpt lat="45.41894" lon="4.65393">
        <ele>571.1</ele>
        <time>2017-03-15T00:23:16Z</time>
      </trkpt>
      <trkpt lat="45.41895" lon="4.65399">
        <ele>570.7</ele>
        <time>2017-03-15T00:23:17Z</time>
      </trkpt>
      <trkpt lat="45.41896" lon="4.65408">
        <ele>570.2</ele>
        <time>2017-03-15T00:23:19Z</time>
      </trkpt>
      <trkpt lat="45.41898" lon="4.65417">
        <ele>569.3</ele>
        <time>2017-03-15T00:23:21Z</time>
      </trkpt>
      <trkpt lat="45.41897" lon="4.65423">
        <ele>569.1</ele>
        <time>2017-03-15T00:23:23Z</time>
      </trkpt>
      <trkpt lat="45.41898" lon="4.65432">
        <ele>568.6</ele>
        <time>2017-03-15T00:23:24Z</time>
      </trkpt>
      <trkpt lat="45.419" lon="4.65439">
        <ele>567.7</ele>
        <time>2017-03-15T00:23:25Z</time>
      </trkpt>
      <trkpt lat="45.41902" lon="4.65445">
        <ele>567.2</ele>
        <time>2017-03-15T00:23:26Z</time>
      </trkpt>
      <trkpt lat="45.41903" lon="4.65449">
        <ele>566.5</ele>
        <time>2017-03-15T00:23:27Z</time>
      </trkpt>
      <trkpt lat="45.41903" lon="4.65456">
        <ele>565.8</ele>
        <time>2017-03-15T00:23:28Z</time>
      </trkpt>
      <trkpt lat="45.41903" lon="4.65461">
        <ele>564.1</ele>
        <time>2017-03-15T00:23:29Z</time>
      </trkpt>
      <trkpt lat="45.41903" lon="4.65465">
        <ele>563.3</ele>
        <time>2017-03-15T00:23:30Z</time>
      </trkpt>
      <trkpt lat="45.41905" lon="4.65468">
        <ele>563.1</ele>
        <time>2017-03-15T00:23:31Z</time>
      </trkpt>
      <trkpt lat="45.41907" lon="4.65474">
        <ele>561.7</ele>
        <time>2017-03-15T00:23:32Z</time>
      </trkpt>
      <trkpt lat="45.41906" lon="4.65478">
        <ele>561.1</ele>
        <time>2017-03-15T00:23:33Z</time>
      </trkpt>
      <trkpt lat="45.4191" lon="4.65486">
        <ele>560.1</ele>
        <time>2017-03-15T00:23:35Z</time>
      </trkpt>
      <trkpt lat="45.41912" lon="4.65491">
        <ele>559.5</ele>
        <time>2017-03-15T00:23:36Z</time>
      </trkpt>
      <trkpt lat="45.41915" lon="4.65493">
        <ele>559.3</ele>
        <time>2017-03-15T00:23:37Z</time>
      </trkpt>
      <trkpt lat="45.41919" lon="4.65499">
        <ele>558.3</ele>
        <time>2017-03-15T00:23:38Z</time>
      </trkpt>
      <trkpt lat="45.41922" lon="4.65505">
        <ele>557.6</ele>
        <time>2017-03-15T00:23:39Z</time>
      </trkpt>
      <trkpt lat="45.41923" lon="4.65512">
        <ele>556.5</ele>
        <time>2017-03-15T00:23:40Z</time>
      </trkpt>
      <trkpt lat="45.41927" lon="4.65517">
        <ele>555.6</ele>
        <time>2017-03-15T00:23:41Z</time>
      </trkpt>
      <trkpt lat="45.4193" lon="4.65522">
        <ele>554.9</ele>
        <time>2017-03-15T00:23:42Z</time>
      </trkpt>
      <trkpt lat="45.41932" lon="4.65527">
        <ele>554.4</ele>
        <time>2017-03-15T00:23:43Z</time>
      </trkpt>
      <trkpt lat="45.41934" lon="4.6553">
        <ele>553.8</ele>
        <time>2017-03-15T00:23:44Z</time>
      </trkpt>
      <trkpt lat="45.41936" lon="4.65536">
        <ele>553.1</ele>
        <time>2017-03-15T00:23:45Z</time>
      </trkpt>
      <trkpt lat="45.4194" lon="4.65541">
        <ele>552.5</ele>
        <time>2017-03-15T00:23:46Z</time>
      </trkpt>
      <trkpt lat="45.41943" lon="4.65546">
        <ele>551.3</ele>
        <time>2017-03-15T00:23:47Z</time>
      </trkpt>
      <trkpt lat="45.41946" lon="4.65551">
        <ele>550.6</ele>
        <time>2017-03-15T00:23:48Z</time>
      </trkpt>
      <trkpt lat="45.41948" lon="4.65556">
        <ele>549.9</ele>
        <time>2017-03-15T00:23:49Z</time>
      </trkpt>
      <trkpt lat="45.4195" lon="4.65563">
        <ele>548.7</ele>
        <time>2017-03-15T00:23:50Z</time>
      </trkpt>
      <trkpt lat="45.41951" lon="4.65568">
        <ele>548</ele>
        <time>2017-03-15T00:23:51Z</time>
      </trkpt>
      <trkpt lat="45.41951" lon="4.65573">
        <ele>547.2</ele>
        <time>2017-03-15T00:23:52Z</time>
      </trkpt>
      <trkpt lat="45.41953" lon="4.65579">
        <ele>546.4</ele>
        <time>2017-03-15T00:23:53Z</time>
      </trkpt>
      <trkpt lat="45.41954" lon="4.65586">
        <ele>545.1</ele>
        <time>2017-03-15T00:23:54Z</time>
      </trkpt>
      <trkpt lat="45.41951" lon="4.65592">
        <ele>544.8</ele>
        <time>2017-03-15T00:23:56Z</time>
      </trkpt>
      <trkpt lat="45.41953" lon="4.65598">
        <ele>543.6</ele>
        <time>2017-03-15T00:23:57Z</time>
      </trkpt>
      <trkpt lat="45.41954" lon="4.65603">
        <ele>542.8</ele>
        <time>2017-03-15T00:23:58Z</time>
      </trkpt>
      <trkpt lat="45.41955" lon="4.65612">
        <ele>542.1</ele>
        <time>2017-03-15T00:24:00Z</time>
      </trkpt>
      <trkpt lat="45.41954" lon="4.65621">
        <ele>541.9</ele>
        <time>2017-03-15T00:24:02Z</time>
      </trkpt>
      <trkpt lat="45.41955" lon="4.65628">
        <ele>541.3</ele>
        <time>2017-03-15T00:24:03Z</time>
      </trkpt>
      <trkpt lat="45.41956" lon="4.65635">
        <ele>541</ele>
        <time>2017-03-15T00:24:04Z</time>
      </trkpt>
      <trkpt lat="45.41957" lon="4.65642">
        <ele>540.7</ele>
        <time>2017-03-15T00:24:05Z</time>
      </trkpt>
      <trkpt lat="45.41958" lon="4.65648">
        <ele>540.3</ele>
        <time>2017-03-15T00:24:06Z</time>
      </trkpt>
      <trkpt lat="45.41958" lon="4.65653">
        <ele>539.7</ele>
        <time>2017-03-15T00:24:07Z</time>
      </trkpt>
      <trkpt lat="45.41957" lon="4.6566">
        <ele>539.3</ele>
        <time>2017-03-15T00:24:08Z</time>
      </trkpt>
      <trkpt lat="45.41955" lon="4.65664">
        <ele>538.9</ele>
        <time>2017-03-15T00:24:09Z</time>
      </trkpt>
      <trkpt lat="45.41953" lon="4.65669">
        <ele>538.6</ele>
        <time>2017-03-15T00:24:10Z</time>
      </trkpt>
      <trkpt lat="45.41953" lon="4.65672">
        <ele>538.2</ele>
        <time>2017-03-15T00:24:11Z</time>
      </trkpt>
      <trkpt lat="45.41951" lon="4.6568">
        <ele>537.6</ele>
        <time>2017-03-15T00:24:13Z</time>
      </trkpt>
      <trkpt lat="45.41951" lon="4.65686">
        <ele>537.1</ele>
        <time>2017-03-15T00:24:14Z</time>
      </trkpt>
      <trkpt lat="45.41949" lon="4.65692">
        <ele>536.3</ele>
        <time>2017-03-15T00:24:15Z</time>
      </trkpt>
      <trkpt lat="45.41949" lon="4.65696">
        <ele>535.8</ele>
        <time>2017-03-15T00:24:16Z</time>
      </trkpt>
      <trkpt lat="45.41947" lon="4.65701">
        <ele>535</ele>
        <time>2017-03-15T00:24:17Z</time>
      </trkpt>
      <trkpt lat="45.41946" lon="4.65706">
        <ele>534.4</ele>
        <time>2017-03-15T00:24:18Z</time>
      </trkpt>
      <trkpt lat="45.41943" lon="4.65709">
        <ele>533.6</ele>
        <time>2017-03-15T00:24:19Z</time>
      </trkpt>
      <trkpt lat="45.41941" lon="4.65714">
        <ele>532.9</ele>
        <time>2017-03-15T00:24:20Z</time>
      </trkpt>
      <trkpt lat="45.41939" lon="4.65718">
        <ele>532.4</ele>
        <time>2017-03-15T00:24:21Z</time>
      </trkpt>
      <trkpt lat="45.41936" lon="4.65726">
        <ele>532</ele>
        <time>2017-03-15T00:24:22Z</time>
      </trkpt>
      <trkpt lat="45.41934" lon="4.65732">
        <ele>531.6</ele>
        <time>2017-03-15T00:24:23Z</time>
      </trkpt>
      <trkpt lat="45.41933" lon="4.65736">
        <ele>531.4</ele>
        <time>2017-03-15T00:24:24Z</time>
      </trkpt>
      <trkpt lat="45.41931" lon="4.65739">
        <ele>531</ele>
        <time>2017-03-15T00:24:25Z</time>
      </trkpt>
      <trkpt lat="45.41929" lon="4.65744">
        <ele>530.7</ele>
        <time>2017-03-15T00:24:26Z</time>
      </trkpt>
      <trkpt lat="45.41927" lon="4.65751">
        <ele>530.5</ele>
        <time>2017-03-15T00:24:27Z</time>
      </trkpt>
      <trkpt lat="45.41925" lon="4.65755">
        <ele>530.2</ele>
        <time>2017-03-15T00:24:28Z</time>
      </trkpt>
      <trkpt lat="45.41924" lon="4.65759">
        <ele>529.9</ele>
        <time>2017-03-15T00:24:29Z</time>
      </trkpt>
      <trkpt lat="45.41922" lon="4.65762">
        <ele>529.5</ele>
        <time>2017-03-15T00:24:30Z</time>
      </trkpt>
      <trkpt lat="45.41921" lon="4.65767">
        <ele>529.3</ele>
        <time>2017-03-15T00:24:31Z</time>
      </trkpt>
      <trkpt lat="45.41919" lon="4.65771">
        <ele>529</ele>
        <time>2017-03-15T00:24:32Z</time>
      </trkpt>
      <trkpt lat="45.41917" lon="4.65777">
        <ele>528.9</ele>
        <time>2017-03-15T00:24:33Z</time>
      </trkpt>
      <trkpt lat="45.41914" lon="4.65784">
        <ele>529.1</ele>
        <time>2017-03-15T00:24:35Z</time>
      </trkpt>
      <trkpt lat="45.41911" lon="4.65788">
        <ele>529</ele>
        <time>2017-03-15T00:24:36Z</time>
      </trkpt>
      <trkpt lat="45.41909" lon="4.65794">
        <ele>528.8</ele>
        <time>2017-03-15T00:24:37Z</time>
      </trkpt>
      <trkpt lat="45.41906" lon="4.65799">
        <ele>528.5</ele>
        <time>2017-03-15T00:24:38Z</time>
      </trkpt>
      <trkpt lat="45.41904" lon="4.65804">
        <ele>528.2</ele>
        <time>2017-03-15T00:24:39Z</time>
      </trkpt>
      <trkpt lat="45.41902" lon="4.65807">
        <ele>527.9</ele>
        <time>2017-03-15T00:24:40Z</time>
      </trkpt>
      <trkpt lat="45.41901" lon="4.65811">
        <ele>527.5</ele>
        <time>2017-03-15T00:24:41Z</time>
      </trkpt>
      <trkpt lat="45.41897" lon="4.65818">
        <ele>526.7</ele>
        <time>2017-03-15T00:24:43Z</time>
      </trkpt>
      <trkpt lat="45.41896" lon="4.65823">
        <ele>526</ele>
        <time>2017-03-15T00:24:44Z</time>
      </trkpt>
      <trkpt lat="45.41894" lon="4.65828">
        <ele>525.5</ele>
        <time>2017-03-15T00:24:45Z</time>
      </trkpt>
      <trkpt lat="45.41894" lon="4.65835">
        <ele>524.6</ele>
        <time>2017-03-15T00:24:46Z</time>
      </trkpt>
      <trkpt lat="45.41893" lon="4.65841">
        <ele>523.9</ele>
        <time>2017-03-15T00:24:47Z</time>
      </trkpt>
      <trkpt lat="45.41891" lon="4.65848">
        <ele>523</ele>
        <time>2017-03-15T00:24:48Z</time>
      </trkpt>
      <trkpt lat="45.41889" lon="4.65851">
        <ele>522.3</ele>
        <time>2017-03-15T00:24:49Z</time>
      </trkpt>
      <trkpt lat="45.41887" lon="4.65857">
        <ele>521.8</ele>
        <time>2017-03-15T00:24:50Z</time>
      </trkpt>
      <trkpt lat="45.41885" lon="4.6586">
        <ele>521.3</ele>
        <time>2017-03-15T00:24:51Z</time>
      </trkpt>
      <trkpt lat="45.41886" lon="4.65865">
        <ele>520.9</ele>
        <time>2017-03-15T00:24:52Z</time>
      </trkpt>
      <trkpt lat="45.41884" lon="4.6587">
        <ele>520.5</ele>
        <time>2017-03-15T00:24:53Z</time>
      </trkpt>
      <trkpt lat="45.41882" lon="4.65873">
        <ele>520.2</ele>
        <time>2017-03-15T00:24:54Z</time>
      </trkpt>
      <trkpt lat="45.41877" lon="4.65876">
        <ele>520</ele>
        <time>2017-03-15T00:24:55Z</time>
      </trkpt>
      <trkpt lat="45.41874" lon="4.65879">
        <ele>519.9</ele>
        <time>2017-03-15T00:24:56Z</time>
      </trkpt>
      <trkpt lat="45.41871" lon="4.65882">
        <ele>519.8</ele>
        <time>2017-03-15T00:24:57Z</time>
      </trkpt>
      <trkpt lat="45.41867" lon="4.65883">
        <ele>519.6</ele>
        <time>2017-03-15T00:24:58Z</time>
      </trkpt>
      <trkpt lat="45.41862" lon="4.65885">
        <ele>519.3</ele>
        <time>2017-03-15T00:25:00Z</time>
      </trkpt>
      <trkpt lat="45.4186" lon="4.65886">
        <ele>519.2</ele>
        <time>2017-03-15T00:25:01Z</time>
      </trkpt>
      <trkpt lat="45.41859" lon="4.6589">
        <ele>519.2</ele>
        <time>2017-03-15T00:25:03Z</time>
      </trkpt>
      <trkpt lat="45.41861" lon="4.65893">
        <ele>519.2</ele>
        <time>2017-03-15T00:25:06Z</time>
      </trkpt>
      <trkpt lat="45.41903" lon="4.65917">
        <ele>515.3</ele>
        <time>2017-03-15T00:25:25Z</time>
      </trkpt>
      <trkpt lat="45.4191" lon="4.65923">
        <ele>514.2</ele>
        <time>2017-03-15T00:25:26Z</time>
      </trkpt>
      <trkpt lat="45.41915" lon="4.65924">
        <ele>513</ele>
        <time>2017-03-15T00:25:27Z</time>
      </trkpt>
      <trkpt lat="45.4192" lon="4.65919">
        <ele>512.4</ele>
        <time>2017-03-15T00:25:29Z</time>
      </trkpt>
      <trkpt lat="45.41927" lon="4.65918">
        <ele>511.2</ele>
        <time>2017-03-15T00:25:32Z</time>
      </trkpt>
      <trkpt lat="45.41929" lon="4.65913">
        <ele>510.5</ele>
        <time>2017-03-15T00:25:33Z</time>
      </trkpt>
      <trkpt lat="45.41933" lon="4.65907">
        <ele>509.8</ele>
        <time>2017-03-15T00:25:34Z</time>
      </trkpt>
      <trkpt lat="45.41935" lon="4.65903">
        <ele>509.2</ele>
        <time>2017-03-15T00:25:35Z</time>
      </trkpt>
      <trkpt lat="45.41939" lon="4.65901">
        <ele>508.6</ele>
        <time>2017-03-15T00:25:36Z</time>
      </trkpt>
      <trkpt lat="45.41944" lon="4.65899">
        <ele>507.1</ele>
        <time>2017-03-15T00:25:37Z</time>
      </trkpt>
      <trkpt lat="45.41949" lon="4.659">
        <ele>505.6</ele>
        <time>2017-03-15T00:25:38Z</time>
      </trkpt>
      <trkpt lat="45.41952" lon="4.659">
        <ele>504.8</ele>
        <time>2017-03-15T00:25:40Z</time>
      </trkpt>
      <trkpt lat="45.41955" lon="4.65902">
        <ele>504</ele>
        <time>2017-03-15T00:25:42Z</time>
      </trkpt>
      <trkpt lat="45.41957" lon="4.65905">
        <ele>503.3</ele>
        <time>2017-03-15T00:25:44Z</time>
      </trkpt>
      <trkpt lat="45.41957" lon="4.6591">
        <ele>503.5</ele>
        <time>2017-03-15T00:25:46Z</time>
      </trkpt>
      <trkpt lat="45.41956" lon="4.65916">
        <ele>503.6</ele>
        <time>2017-03-15T00:25:49Z</time>
      </trkpt>
      <trkpt lat="45.41956" lon="4.65923">
        <ele>503.8</ele>
        <time>2017-03-15T00:25:51Z</time>
      </trkpt>
      <trkpt lat="45.41958" lon="4.65928">
        <ele>504</ele>
        <time>2017-03-15T00:25:52Z</time>
      </trkpt>
      <trkpt lat="45.4196" lon="4.65933">
        <ele>502.9</ele>
        <time>2017-03-15T00:25:53Z</time>
      </trkpt>
      <trkpt lat="45.41961" lon="4.6594">
        <ele>502.7</ele>
        <time>2017-03-15T00:25:54Z</time>
      </trkpt>
      <trkpt lat="45.41966" lon="4.6595">
        <ele>503.1</ele>
        <time>2017-03-15T00:25:55Z</time>
      </trkpt>
      <trkpt lat="45.41969" lon="4.65953">
        <ele>503.3</ele>
        <time>2017-03-15T00:25:56Z</time>
      </trkpt>
      <trkpt lat="45.41968" lon="4.65958">
        <ele>503.8</ele>
        <time>2017-03-15T00:25:58Z</time>
      </trkpt>
      <trkpt lat="45.41969" lon="4.65962">
        <ele>504.4</ele>
        <time>2017-03-15T00:26:02Z</time>
      </trkpt>
      <trkpt lat="45.41966" lon="4.65964">
        <ele>505.1</ele>
        <time>2017-03-15T00:26:03Z</time>
      </trkpt>
      <trkpt lat="45.41957" lon="4.65973">
        <ele>505.7</ele>
        <time>2017-03-15T00:26:05Z</time>
      </trkpt>
      <trkpt lat="45.41953" lon="4.65973">
        <ele>505.7</ele>
        <time>2017-03-15T00:26:07Z</time>
      </trkpt>
      <trkpt lat="45.41955" lon="4.65977">
        <ele>505.8</ele>
        <time>2017-03-15T00:26:08Z</time>
      </trkpt>
      <trkpt lat="45.41961" lon="4.65986">
        <ele>506</ele>
        <time>2017-03-15T00:26:09Z</time>
      </trkpt>
      <trkpt lat="45.41962" lon="4.65992">
        <ele>505.9</ele>
        <time>2017-03-15T00:26:11Z</time>
      </trkpt>
      <trkpt lat="45.41964" lon="4.65998">
        <ele>505.7</ele>
        <time>2017-03-15T00:26:13Z</time>
      </trkpt>
      <trkpt lat="45.41964" lon="4.66002">
        <ele>505.6</ele>
        <time>2017-03-15T00:26:14Z</time>
      </trkpt>
      <trkpt lat="45.41962" lon="4.66006">
        <ele>505.4</ele>
        <time>2017-03-15T00:26:16Z</time>
      </trkpt>
      <trkpt lat="45.41959" lon="4.6601">
        <ele>505.2</ele>
        <time>2017-03-15T00:26:17Z</time>
      </trkpt>
      <trkpt lat="45.41957" lon="4.66013">
        <ele>505</ele>
        <time>2017-03-15T00:26:19Z</time>
      </trkpt>
      <trkpt lat="45.41954" lon="4.66014">
        <ele>504.7</ele>
        <time>2017-03-15T00:26:20Z</time>
      </trkpt>
      <trkpt lat="45.4195" lon="4.66019">
        <ele>504.5</ele>
        <time>2017-03-15T00:26:22Z</time>
      </trkpt>
      <trkpt lat="45.41952" lon="4.66022">
        <ele>504.3</ele>
        <time>2017-03-15T00:26:23Z</time>
      </trkpt>
      <trkpt lat="45.41952" lon="4.66028">
        <ele>504</ele>
        <time>2017-03-15T00:26:25Z</time>
      </trkpt>
      <trkpt lat="45.4195" lon="4.66031">
        <ele>503.8</ele>
        <time>2017-03-15T00:26:26Z</time>
      </trkpt>
      <trkpt lat="45.41951" lon="4.66036">
        <ele>503.4</ele>
        <time>2017-03-15T00:26:30Z</time>
      </trkpt>
      <trkpt lat="45.41947" lon="4.66036">
        <ele>503.1</ele>
        <time>2017-03-15T00:26:31Z</time>
      </trkpt>
      <trkpt lat="45.41942" lon="4.66039">
        <ele>502.8</ele>
        <time>2017-03-15T00:26:34Z</time>
      </trkpt>
      <trkpt lat="45.41944" lon="4.66042">
        <ele>502.6</ele>
        <time>2017-03-15T00:26:36Z</time>
      </trkpt>
      <trkpt lat="45.41942" lon="4.66045">
        <ele>502.5</ele>
        <time>2017-03-15T00:26:39Z</time>
      </trkpt>
      <trkpt lat="45.41944" lon="4.6605">
        <ele>502.4</ele>
        <time>2017-03-15T00:26:41Z</time>
      </trkpt>
      <trkpt lat="45.41941" lon="4.66053">
        <ele>502.2</ele>
        <time>2017-03-15T00:26:43Z</time>
      </trkpt>
      <trkpt lat="45.4194" lon="4.66059">
        <ele>502</ele>
        <time>2017-03-15T00:26:45Z</time>
      </trkpt>
      <trkpt lat="45.41939" lon="4.66062">
        <ele>501.9</ele>
        <time>2017-03-15T00:26:48Z</time>
      </trkpt>
      <trkpt lat="45.41941" lon="4.66064">
        <ele>502.5</ele>
        <time>2017-03-15T00:26:49Z</time>
      </trkpt>
      <trkpt lat="45.41939" lon="4.66068">
        <ele>502.9</ele>
        <time>2017-03-15T00:26:51Z</time>
      </trkpt>
      <trkpt lat="45.4194" lon="4.66072">
        <ele>503.2</ele>
        <time>2017-03-15T00:26:53Z</time>
      </trkpt>
      <trkpt lat="45.41942" lon="4.66076">
        <ele>504</ele>
        <time>2017-03-15T00:26:56Z</time>
      </trkpt>
      <trkpt lat="45.41946" lon="4.66082">
        <ele>504.8</ele>
        <time>2017-03-15T00:26:59Z</time>
      </trkpt>
      <trkpt lat="45.41948" lon="4.66089">
        <ele>505.2</ele>
        <time>2017-03-15T00:27:01Z</time>
      </trkpt>
      <trkpt lat="45.41949" lon="4.66093">
        <ele>506</ele>
        <time>2017-03-15T00:27:02Z</time>
      </trkpt>
      <trkpt lat="45.41953" lon="4.66099">
        <ele>506.9</ele>
        <time>2017-03-15T00:27:04Z</time>
      </trkpt>
      <trkpt lat="45.41956" lon="4.66103">
        <ele>507.5</ele>
        <time>2017-03-15T00:27:05Z</time>
      </trkpt>
      <trkpt lat="45.41957" lon="4.66109">
        <ele>507.9</ele>
        <time>2017-03-15T00:27:07Z</time>
      </trkpt>
      <trkpt lat="45.41958" lon="4.66114">
        <ele>508.6</ele>
        <time>2017-03-15T00:27:10Z</time>
      </trkpt>
      <trkpt lat="45.41959" lon="4.66118">
        <ele>509</ele>
        <time>2017-03-15T00:27:11Z</time>
      </trkpt>
      <trkpt lat="45.41961" lon="4.66123">
        <ele>509.9</ele>
        <time>2017-03-15T00:27:12Z</time>
      </trkpt>
      <trkpt lat="45.41963" lon="4.66128">
        <ele>510.9</ele>
        <time>2017-03-15T00:27:13Z</time>
      </trkpt>
      <trkpt lat="45.41966" lon="4.66133">
        <ele>511.5</ele>
        <time>2017-03-15T00:27:14Z</time>
      </trkpt>
      <trkpt lat="45.41967" lon="4.66141">
        <ele>513</ele>
        <time>2017-03-15T00:27:16Z</time>
      </trkpt>
      <trkpt lat="45.41968" lon="4.66159">
        <ele>514.6</ele>
        <time>2017-03-15T00:27:18Z</time>
      </trkpt>
      <trkpt lat="45.41969" lon="4.66172">
        <ele>515.6</ele>
        <time>2017-03-15T00:27:19Z</time>
      </trkpt>
      <trkpt lat="45.41974" lon="4.66179">
        <ele>517.1</ele>
        <time>2017-03-15T00:27:20Z</time>
      </trkpt>
      <trkpt lat="45.41975" lon="4.66187">
        <ele>517.5</ele>
        <time>2017-03-15T00:27:21Z</time>
      </trkpt>
      <trkpt lat="45.41973" lon="4.66182">
        <ele>517.6</ele>
        <time>2017-03-15T00:27:22Z</time>
      </trkpt>
      <trkpt lat="45.41973" lon="4.66186">
        <ele>517.9</ele>
        <time>2017-03-15T00:27:23Z</time>
      </trkpt>
      <trkpt lat="45.41979" lon="4.66193">
        <ele>519.3</ele>
        <time>2017-03-15T00:27:25Z</time>
      </trkpt>
      <trkpt lat="45.41981" lon="4.66197">
        <ele>519.6</ele>
        <time>2017-03-15T00:27:26Z</time>
      </trkpt>
      <trkpt lat="45.41984" lon="4.66199">
        <ele>520.6</ele>
        <time>2017-03-15T00:27:27Z</time>
      </trkpt>
      <trkpt lat="45.41988" lon="4.66205">
        <ele>522.4</ele>
        <time>2017-03-15T00:27:28Z</time>
      </trkpt>
      <trkpt lat="45.41991" lon="4.66212">
        <ele>523.4</ele>
        <time>2017-03-15T00:27:30Z</time>
      </trkpt>
      <trkpt lat="45.41995" lon="4.66218">
        <ele>524.3</ele>
        <time>2017-03-15T00:27:33Z</time>
      </trkpt>
      <trkpt lat="45.41997" lon="4.66221">
        <ele>525</ele>
        <time>2017-03-15T00:27:35Z</time>
      </trkpt>
      <trkpt lat="45.41998" lon="4.66226">
        <ele>525.2</ele>
        <time>2017-03-15T00:27:36Z</time>
      </trkpt>
      <trkpt lat="45.42001" lon="4.6623">
        <ele>525.8</ele>
        <time>2017-03-15T00:27:37Z</time>
      </trkpt>
      <trkpt lat="45.42003" lon="4.66234">
        <ele>526.4</ele>
        <time>2017-03-15T00:27:39Z</time>
      </trkpt>
      <trkpt lat="45.41987" lon="4.66407">
        <ele>516.6</ele>
        <time>2017-03-15T00:28:12Z</time>
      </trkpt>
      <trkpt lat="45.41997" lon="4.66409">
        <ele>515.8</ele>
        <time>2017-03-15T00:28:13Z</time>
      </trkpt>
      <trkpt lat="45.41998" lon="4.66413">
        <ele>515.7</ele>
        <time>2017-03-15T00:28:14Z</time>
      </trkpt>
      <trkpt lat="45.41994" lon="4.6642">
        <ele>515.4</ele>
        <time>2017-03-15T00:28:15Z</time>
      </trkpt>
      <trkpt lat="45.41989" lon="4.66426">
        <ele>515.3</ele>
        <time>2017-03-15T00:28:16Z</time>
      </trkpt>
      <trkpt lat="45.41989" lon="4.66431">
        <ele>515.2</ele>
        <time>2017-03-15T00:28:17Z</time>
      </trkpt>
      <trkpt lat="45.41987" lon="4.66437">
        <ele>515.1</ele>
        <time>2017-03-15T00:28:18Z</time>
      </trkpt>
      <trkpt lat="45.41982" lon="4.66444">
        <ele>514.9</ele>
        <time>2017-03-15T00:28:19Z</time>
      </trkpt>
      <trkpt lat="45.4198" lon="4.66449">
        <ele>514.9</ele>
        <time>2017-03-15T00:28:20Z</time>
      </trkpt>
      <trkpt lat="45.41979" lon="4.66454">
        <ele>514.8</ele>
        <time>2017-03-15T00:28:21Z</time>
      </trkpt>
      <trkpt lat="45.41977" lon="4.66458">
        <ele>514.7</ele>
        <time>2017-03-15T00:28:22Z</time>
      </trkpt>
      <trkpt lat="45.41977" lon="4.66463">
        <ele>514.6</ele>
        <time>2017-03-15T00:28:23Z</time>
      </trkpt>
      <trkpt lat="45.41978" lon="4.66468">
        <ele>514.6</ele>
        <time>2017-03-15T00:28:24Z</time>
      </trkpt>
      <trkpt lat="45.41977" lon="4.66472">
        <ele>514.5</ele>
        <time>2017-03-15T00:28:25Z</time>
      </trkpt>
      <trkpt lat="45.41976" lon="4.66477">
        <ele>514.4</ele>
        <time>2017-03-15T00:28:26Z</time>
      </trkpt>
      <trkpt lat="45.41975" lon="4.6648">
        <ele>514.4</ele>
        <time>2017-03-15T00:28:27Z</time>
      </trkpt>
      <trkpt lat="45.41975" lon="4.66486">
        <ele>514.3</ele>
        <time>2017-03-15T00:28:28Z</time>
      </trkpt>
      <trkpt lat="45.41974" lon="4.6649">
        <ele>514.2</ele>
        <time>2017-03-15T00:28:29Z</time>
      </trkpt>
      <trkpt lat="45.41972" lon="4.66495">
        <ele>514.1</ele>
        <time>2017-03-15T00:28:30Z</time>
      </trkpt>
      <trkpt lat="45.41972" lon="4.66501">
        <ele>514</ele>
        <time>2017-03-15T00:28:31Z</time>
      </trkpt>
      <trkpt lat="45.41973" lon="4.66507">
        <ele>513.9</ele>
        <time>2017-03-15T00:28:32Z</time>
      </trkpt>
      <trkpt lat="45.4197" lon="4.66511">
        <ele>513.9</ele>
        <time>2017-03-15T00:28:33Z</time>
      </trkpt>
      <trkpt lat="45.41969" lon="4.66517">
        <ele>513.8</ele>
        <time>2017-03-15T00:28:34Z</time>
      </trkpt>
      <trkpt lat="45.41966" lon="4.66522">
        <ele>513.7</ele>
        <time>2017-03-15T00:28:35Z</time>
      </trkpt>
      <trkpt lat="45.41964" lon="4.66527">
        <ele>513.6</ele>
        <time>2017-03-15T00:28:36Z</time>
      </trkpt>
      <trkpt lat="45.41961" lon="4.66533">
        <ele>513.5</ele>
        <time>2017-03-15T00:28:37Z</time>
      </trkpt>
      <trkpt lat="45.4196" lon="4.66538">
        <ele>513.4</ele>
        <time>2017-03-15T00:28:38Z</time>
      </trkpt>
      <trkpt lat="45.41959" lon="4.66543">
        <ele>513.4</ele>
        <time>2017-03-15T00:28:39Z</time>
      </trkpt>
      <trkpt lat="45.41958" lon="4.66549">
        <ele>513.3</ele>
        <time>2017-03-15T00:28:40Z</time>
      </trkpt>
      <trkpt lat="45.41957" lon="4.66555">
        <ele>513.2</ele>
        <time>2017-03-15T00:28:41Z</time>
      </trkpt>
      <trkpt lat="45.41957" lon="4.6656">
        <ele>513.1</ele>
        <time>2017-03-15T00:28:42Z</time>
      </trkpt>
      <trkpt lat="45.41957" lon="4.66565">
        <ele>513</ele>
        <time>2017-03-15T00:28:43Z</time>
      </trkpt>
      <trkpt lat="45.41957" lon="4.6657">
        <ele>512.9</ele>
        <time>2017-03-15T00:28:44Z</time>
      </trkpt>
      <trkpt lat="45.41956" lon="4.66575">
        <ele>512.8</ele>
        <time>2017-03-15T00:28:45Z</time>
      </trkpt>
      <trkpt lat="45.41955" lon="4.66579">
        <ele>512.7</ele>
        <time>2017-03-15T00:28:46Z</time>
      </trkpt>
      <trkpt lat="45.41955" lon="4.66584">
        <ele>512.6</ele>
        <time>2017-03-15T00:28:47Z</time>
      </trkpt>
      <trkpt lat="45.41954" lon="4.6659">
        <ele>512.4</ele>
        <time>2017-03-15T00:28:48Z</time>
      </trkpt>
      <trkpt lat="45.4195" lon="4.66594">
        <ele>512.3</ele>
        <time>2017-03-15T00:28:49Z</time>
      </trkpt>
      <trkpt lat="45.41948" lon="4.66601">
        <ele>512.1</ele>
        <time>2017-03-15T00:28:51Z</time>
      </trkpt>
      <trkpt lat="45.41945" lon="4.66604">
        <ele>512</ele>
        <time>2017-03-15T00:28:52Z</time>
      </trkpt>
      <trkpt lat="45.41942" lon="4.66609">
        <ele>511.8</ele>
        <time>2017-03-15T00:28:53Z</time>
      </trkpt>
      <trkpt lat="45.4194" lon="4.66614">
        <ele>511.7</ele>
        <time>2017-03-15T00:28:54Z</time>
      </trkpt>
      <trkpt lat="45.41937" lon="4.66617">
        <ele>511.6</ele>
        <time>2017-03-15T00:28:55Z</time>
      </trkpt>
      <trkpt lat="45.41936" lon="4.66623">
        <ele>511.5</ele>
        <time>2017-03-15T00:28:56Z</time>
      </trkpt>
      <trkpt lat="45.41934" lon="4.66626">
        <ele>511.5</ele>
        <time>2017-03-15T00:28:57Z</time>
      </trkpt>
      <trkpt lat="45.41932" lon="4.6663">
        <ele>511.4</ele>
        <time>2017-03-15T00:28:58Z</time>
      </trkpt>
      <trkpt lat="45.41929" lon="4.66634">
        <ele>511.3</ele>
        <time>2017-03-15T00:28:59Z</time>
      </trkpt>
      <trkpt lat="45.41929" lon="4.66638">
        <ele>511.2</ele>
        <time>2017-03-15T00:29:00Z</time>
      </trkpt>
      <trkpt lat="45.41928" lon="4.66642">
        <ele>511.1</ele>
        <time>2017-03-15T00:29:01Z</time>
      </trkpt>
      <trkpt lat="45.4192" lon="4.66649">
        <ele>510.9</ele>
        <time>2017-03-15T00:29:02Z</time>
      </trkpt>
      <trkpt lat="45.41919" lon="4.66652">
        <ele>510.8</ele>
        <time>2017-03-15T00:29:03Z</time>
      </trkpt>
      <trkpt lat="45.4192" lon="4.66657">
        <ele>510.7</ele>
        <time>2017-03-15T00:29:04Z</time>
      </trkpt>
      <trkpt lat="45.41918" lon="4.66661">
        <ele>510.6</ele>
        <time>2017-03-15T00:29:05Z</time>
      </trkpt>
      <trkpt lat="45.41917" lon="4.66666">
        <ele>510.5</ele>
        <time>2017-03-15T00:29:06Z</time>
      </trkpt>
      <trkpt lat="45.41914" lon="4.66671">
        <ele>510.3</ele>
        <time>2017-03-15T00:29:07Z</time>
      </trkpt>
      <trkpt lat="45.4191" lon="4.66676">
        <ele>510.2</ele>
        <time>2017-03-15T00:29:08Z</time>
      </trkpt>
      <trkpt lat="45.41908" lon="4.66681">
        <ele>510.1</ele>
        <time>2017-03-15T00:29:09Z</time>
      </trkpt>
      <trkpt lat="45.41905" lon="4.66684">
        <ele>510</ele>
        <time>2017-03-15T00:29:10Z</time>
      </trkpt>
      <trkpt lat="45.41902" lon="4.66689">
        <ele>509.8</ele>
        <time>2017-03-15T00:29:11Z</time>
      </trkpt>
      <trkpt lat="45.419" lon="4.66692">
        <ele>509.7</ele>
        <time>2017-03-15T00:29:12Z</time>
      </trkpt>
      <trkpt lat="45.41898" lon="4.66697">
        <ele>509.6</ele>
        <time>2017-03-15T00:29:13Z</time>
      </trkpt>
      <trkpt lat="45.41895" lon="4.66701">
        <ele>509.5</ele>
        <time>2017-03-15T00:29:14Z</time>
      </trkpt>
      <trkpt lat="45.41893" lon="4.66706">
        <ele>509.4</ele>
        <time>2017-03-15T00:29:15Z</time>
      </trkpt>
      <trkpt lat="45.4189" lon="4.6671">
        <ele>509.2</ele>
        <time>2017-03-15T00:29:16Z</time>
      </trkpt>
      <trkpt lat="45.41887" lon="4.66714">
        <ele>509.1</ele>
        <time>2017-03-15T00:29:17Z</time>
      </trkpt>
      <trkpt lat="45.41885" lon="4.66722">
        <ele>508.9</ele>
        <time>2017-03-15T00:29:19Z</time>
      </trkpt>
      <trkpt lat="45.41882" lon="4.66727">
        <ele>508.8</ele>
        <time>2017-03-15T00:29:20Z</time>
      </trkpt>
      <trkpt lat="45.4188" lon="4.66731">
        <ele>508.6</ele>
        <time>2017-03-15T00:29:21Z</time>
      </trkpt>
      <trkpt lat="45.4188" lon="4.66736">
        <ele>508.3</ele>
        <time>2017-03-15T00:29:22Z</time>
      </trkpt>
      <trkpt lat="45.41878" lon="4.66741">
        <ele>507.9</ele>
        <time>2017-03-15T00:29:23Z</time>
      </trkpt>
      <trkpt lat="45.41877" lon="4.66746">
        <ele>507.7</ele>
        <time>2017-03-15T00:29:24Z</time>
      </trkpt>
      <trkpt lat="45.41875" lon="4.6675">
        <ele>507.5</ele>
        <time>2017-03-15T00:29:25Z</time>
      </trkpt>
      <trkpt lat="45.41873" lon="4.66756">
        <ele>507.2</ele>
        <time>2017-03-15T00:29:26Z</time>
      </trkpt>
      <trkpt lat="45.41872" lon="4.66762">
        <ele>507</ele>
        <time>2017-03-15T00:29:27Z</time>
      </trkpt>
      <trkpt lat="45.41869" lon="4.66765">
        <ele>506.9</ele>
        <time>2017-03-15T00:29:28Z</time>
      </trkpt>
      <trkpt lat="45.41867" lon="4.66773">
        <ele>506.6</ele>
        <time>2017-03-15T00:29:29Z</time>
      </trkpt>
      <trkpt lat="45.41864" lon="4.6678">
        <ele>506.3</ele>
        <time>2017-03-15T00:29:30Z</time>
      </trkpt>
      <trkpt lat="45.41863" lon="4.66785">
        <ele>506.1</ele>
        <time>2017-03-15T00:29:31Z</time>
      </trkpt>
      <trkpt lat="45.41862" lon="4.66788">
        <ele>506</ele>
        <time>2017-03-15T00:29:32Z</time>
      </trkpt>
      <trkpt lat="45.4186" lon="4.66793">
        <ele>505.8</ele>
        <time>2017-03-15T00:29:33Z</time>
      </trkpt>
      <trkpt lat="45.41858" lon="4.66798">
        <ele>505.6</ele>
        <time>2017-03-15T00:29:34Z</time>
      </trkpt>
      <trkpt lat="45.41859" lon="4.66805">
        <ele>505.2</ele>
        <time>2017-03-15T00:29:35Z</time>
      </trkpt>
      <trkpt lat="45.41858" lon="4.6681">
        <ele>505</ele>
        <time>2017-03-15T00:29:36Z</time>
      </trkpt>
      <trkpt lat="45.41858" lon="4.66816">
        <ele>504.6</ele>
        <time>2017-03-15T00:29:37Z</time>
      </trkpt>
      <trkpt lat="45.41855" lon="4.6682">
        <ele>504.4</ele>
        <time>2017-03-15T00:29:38Z</time>
      </trkpt>
      <trkpt lat="45.41855" lon="4.66825">
        <ele>504.1</ele>
        <time>2017-03-15T00:29:39Z</time>
      </trkpt>
      <trkpt lat="45.41855" lon="4.66832">
        <ele>503.9</ele>
        <time>2017-03-15T00:29:40Z</time>
      </trkpt>
      <trkpt lat="45.41855" lon="4.66838">
        <ele>503.7</ele>
        <time>2017-03-15T00:29:41Z</time>
      </trkpt>
      <trkpt lat="45.41854" lon="4.66844">
        <ele>503.4</ele>
        <time>2017-03-15T00:29:42Z</time>
      </trkpt>
      <trkpt lat="45.41854" lon="4.6685">
        <ele>503.2</ele>
        <time>2017-03-15T00:29:43Z</time>
      </trkpt>
      <trkpt lat="45.41854" lon="4.66856">
        <ele>503</ele>
        <time>2017-03-15T00:29:44Z</time>
      </trkpt>
      <trkpt lat="45.41853" lon="4.66862">
        <ele>502.7</ele>
        <time>2017-03-15T00:29:45Z</time>
      </trkpt>
      <trkpt lat="45.41852" lon="4.66868">
        <ele>502.5</ele>
        <time>2017-03-15T00:29:46Z</time>
      </trkpt>
      <trkpt lat="45.41852" lon="4.66873">
        <ele>502.3</ele>
        <time>2017-03-15T00:29:47Z</time>
      </trkpt>
      <trkpt lat="45.4185" lon="4.6688">
        <ele>502.1</ele>
        <time>2017-03-15T00:29:48Z</time>
      </trkpt>
      <trkpt lat="45.41849" lon="4.66885">
        <ele>501.9</ele>
        <time>2017-03-15T00:29:49Z</time>
      </trkpt>
      <trkpt lat="45.41848" lon="4.6689">
        <ele>501.7</ele>
        <time>2017-03-15T00:29:50Z</time>
      </trkpt>
      <trkpt lat="45.41848" lon="4.66896">
        <ele>501.5</ele>
        <time>2017-03-15T00:29:51Z</time>
      </trkpt>
      <trkpt lat="45.41846" lon="4.669">
        <ele>501.3</ele>
        <time>2017-03-15T00:29:52Z</time>
      </trkpt>
      <trkpt lat="45.41845" lon="4.66906">
        <ele>501.1</ele>
        <time>2017-03-15T00:29:53Z</time>
      </trkpt>
      <trkpt lat="45.41844" lon="4.66911">
        <ele>500.9</ele>
        <time>2017-03-15T00:29:54Z</time>
      </trkpt>
      <trkpt lat="45.41842" lon="4.66918">
        <ele>500.7</ele>
        <time>2017-03-15T00:29:55Z</time>
      </trkpt>
      <trkpt lat="45.41842" lon="4.66922">
        <ele>500.5</ele>
        <time>2017-03-15T00:29:56Z</time>
      </trkpt>
      <trkpt lat="45.41839" lon="4.66927">
        <ele>500.3</ele>
        <time>2017-03-15T00:29:57Z</time>
      </trkpt>
      <trkpt lat="45.41837" lon="4.66932">
        <ele>500</ele>
        <time>2017-03-15T00:29:58Z</time>
      </trkpt>
      <trkpt lat="45.41837" lon="4.66937">
        <ele>499.8</ele>
        <time>2017-03-15T00:29:59Z</time>
      </trkpt>
      <trkpt lat="45.41836" lon="4.66944">
        <ele>499</ele>
        <time>2017-03-15T00:30:00Z</time>
      </trkpt>
      <trkpt lat="45.41836" lon="4.6695">
        <ele>500.3</ele>
        <time>2017-03-15T00:30:01Z</time>
      </trkpt>
      <trkpt lat="45.41837" lon="4.66958">
        <ele>501.9</ele>
        <time>2017-03-15T00:30:03Z</time>
      </trkpt>
      <trkpt lat="45.41836" lon="4.66962">
        <ele>502.7</ele>
        <time>2017-03-15T00:30:08Z</time>
      </trkpt>
      <trkpt lat="45.41835" lon="4.66967">
        <ele>503.8</ele>
        <time>2017-03-15T00:30:20Z</time>
      </trkpt>
      <trkpt lat="45.41835" lon="4.66971">
        <ele>504.8</ele>
        <time>2017-03-15T00:30:22Z</time>
      </trkpt>
    </trkseg>
  </trk>
</gpx>